<?xml version="1.0" encoding="utf-8"?>
<gpx xmlns:xsi="http://www.w3.org/2001/XMLSchema-instance" xmlns:xsd="http://www.w3.org/2001/XMLSchema" version="1.1" creator="Shapelink.com" xmlns="http://www.topografix.com/GPX/1/1" xmlns:gpxtpx="http://www.garmin.com/xmlschemas/TrackPointExtension/v1">
  <metadata>
    <name>Kører 8.50 km, 2012-10-30</name>
    <desc></desc>
    <author><name>Stefan Östlund</name></author> 
    <time>2012-10-30T18:42:15Z</time>
  </metadata>
  <trk>
    <name>Kører 8.50 km, 2012-10-30</name>
    <trkseg>
      <trkpt lat="59.9844972" lon="15.8267054">
        <ele>87.6</ele>
        <time>2012-10-30T18:42:15Z</time>
      </trkpt>
      <trkpt lat="59.9844777" lon="15.826706">
        <ele>87.6</ele>
        <time>2012-10-30T18:42:16Z</time>
      </trkpt>
      <trkpt lat="59.9844051" lon="15.8267055">
        <ele>87.6</ele>
        <time>2012-10-30T18:42:19Z</time>
      </trkpt>
      <trkpt lat="59.9843942" lon="15.8267084">
        <ele>87.6</ele>
        <time>2012-10-30T18:42:20Z</time>
      </trkpt>
      <trkpt lat="59.9843661" lon="15.8266985">
        <ele>87.6</ele>
        <time>2012-10-30T18:42:21Z</time>
      </trkpt>
      <trkpt lat="59.9843444" lon="15.8266868">
        <ele>87.6</ele>
        <time>2012-10-30T18:42:22Z</time>
      </trkpt>
      <trkpt lat="59.9843529" lon="15.826693">
        <ele>87.6</ele>
        <time>2012-10-30T18:42:23Z</time>
      </trkpt>
      <trkpt lat="59.9843315" lon="15.8266787">
        <ele>85.6</ele>
        <time>2012-10-30T18:42:24Z</time>
      </trkpt>
      <trkpt lat="59.9842752" lon="15.8266204">
        <ele>85.6</ele>
        <time>2012-10-30T18:42:26Z</time>
      </trkpt>
      <trkpt lat="59.9842519" lon="15.8265954">
        <ele>85.6</ele>
        <time>2012-10-30T18:42:27Z</time>
      </trkpt>
      <trkpt lat="59.9842179" lon="15.8265405">
        <ele>85.6</ele>
        <time>2012-10-30T18:42:29Z</time>
      </trkpt>
      <trkpt lat="59.9841866" lon="15.8264853">
        <ele>85.6</ele>
        <time>2012-10-30T18:42:31Z</time>
      </trkpt>
      <trkpt lat="59.9841773" lon="15.8264664">
        <ele>85.6</ele>
        <time>2012-10-30T18:42:32Z</time>
      </trkpt>
      <trkpt lat="59.9841587" lon="15.8264314">
        <ele>84.6</ele>
        <time>2012-10-30T18:42:33Z</time>
      </trkpt>
      <trkpt lat="59.9841426" lon="15.8264031">
        <ele>84.6</ele>
        <time>2012-10-30T18:42:34Z</time>
      </trkpt>
      <trkpt lat="59.9841519" lon="15.826414">
        <ele>84.6</ele>
        <time>2012-10-30T18:42:35Z</time>
      </trkpt>
      <trkpt lat="59.9840709" lon="15.8262602">
        <ele>83.6</ele>
        <time>2012-10-30T18:42:40Z</time>
      </trkpt>
      <trkpt lat="59.9840487" lon="15.8262489">
        <ele>83.6</ele>
        <time>2012-10-30T18:42:41Z</time>
      </trkpt>
      <trkpt lat="59.9840371" lon="15.8262435">
        <ele>83.6</ele>
        <time>2012-10-30T18:42:42Z</time>
      </trkpt>
      <trkpt lat="59.9840115" lon="15.8262368">
        <ele>83.6</ele>
        <time>2012-10-30T18:42:43Z</time>
      </trkpt>
      <trkpt lat="59.984" lon="15.8262335">
        <ele>83.6</ele>
        <time>2012-10-30T18:42:44Z</time>
      </trkpt>
      <trkpt lat="59.9839687" lon="15.8262326">
        <ele>83.6</ele>
        <time>2012-10-30T18:42:45Z</time>
        <extensions><gpxtpx:TrackPointExtension><gpxtpx:hr>126</gpxtpx:hr></gpxtpx:TrackPointExtension></extensions>
      </trkpt>
      <trkpt lat="59.983943" lon="15.8262314">
        <ele>83.6</ele>
        <time>2012-10-30T18:42:46Z</time>
        <extensions><gpxtpx:TrackPointExtension><gpxtpx:hr>126</gpxtpx:hr></gpxtpx:TrackPointExtension></extensions>
      </trkpt>
      <trkpt lat="59.983933" lon="15.8262421">
        <ele>83.6</ele>
        <time>2012-10-30T18:42:47Z</time>
        <extensions><gpxtpx:TrackPointExtension><gpxtpx:hr>126</gpxtpx:hr></gpxtpx:TrackPointExtension></extensions>
      </trkpt>
      <trkpt lat="59.9839185" lon="15.8262423">
        <ele>83.6</ele>
        <time>2012-10-30T18:42:48Z</time>
        <extensions><gpxtpx:TrackPointExtension><gpxtpx:hr>75</gpxtpx:hr></gpxtpx:TrackPointExtension></extensions>
      </trkpt>
      <trkpt lat="59.9838821" lon="15.826247">
        <ele>83.6</ele>
        <time>2012-10-30T18:42:49Z</time>
        <extensions><gpxtpx:TrackPointExtension><gpxtpx:hr>85</gpxtpx:hr></gpxtpx:TrackPointExtension></extensions>
      </trkpt>
      <trkpt lat="59.9838719" lon="15.8262564">
        <ele>83.6</ele>
        <time>2012-10-30T18:42:50Z</time>
        <extensions><gpxtpx:TrackPointExtension><gpxtpx:hr>95</gpxtpx:hr></gpxtpx:TrackPointExtension></extensions>
      </trkpt>
      <trkpt lat="59.9838445" lon="15.8262788">
        <ele>83.6</ele>
        <time>2012-10-30T18:42:51Z</time>
        <extensions><gpxtpx:TrackPointExtension><gpxtpx:hr>103</gpxtpx:hr></gpxtpx:TrackPointExtension></extensions>
      </trkpt>
      <trkpt lat="59.9838348" lon="15.8262858">
        <ele>83.6</ele>
        <time>2012-10-30T18:42:52Z</time>
        <extensions><gpxtpx:TrackPointExtension><gpxtpx:hr>103</gpxtpx:hr></gpxtpx:TrackPointExtension></extensions>
      </trkpt>
      <trkpt lat="59.9837981" lon="15.8263217">
        <ele>83.6</ele>
        <time>2012-10-30T18:42:54Z</time>
        <extensions><gpxtpx:TrackPointExtension><gpxtpx:hr>103</gpxtpx:hr></gpxtpx:TrackPointExtension></extensions>
      </trkpt>
      <trkpt lat="59.9837796" lon="15.8263336">
        <ele>83.6</ele>
        <time>2012-10-30T18:42:55Z</time>
        <extensions><gpxtpx:TrackPointExtension><gpxtpx:hr>103</gpxtpx:hr></gpxtpx:TrackPointExtension></extensions>
      </trkpt>
      <trkpt lat="59.9837698" lon="15.8263315">
        <ele>83.6</ele>
        <time>2012-10-30T18:42:56Z</time>
        <extensions><gpxtpx:TrackPointExtension><gpxtpx:hr>103</gpxtpx:hr></gpxtpx:TrackPointExtension></extensions>
      </trkpt>
      <trkpt lat="59.9837484" lon="15.8263141">
        <ele>83.6</ele>
        <time>2012-10-30T18:42:57Z</time>
      </trkpt>
      <trkpt lat="59.9837129" lon="15.8262855">
        <ele>83.6</ele>
        <time>2012-10-30T18:42:59Z</time>
      </trkpt>
      <trkpt lat="59.9837051" lon="15.8262242">
        <ele>83.6</ele>
        <time>2012-10-30T18:43:02Z</time>
      </trkpt>
      <trkpt lat="59.9836965" lon="15.8261959">
        <ele>83.6</ele>
        <time>2012-10-30T18:43:03Z</time>
      </trkpt>
      <trkpt lat="59.9836952" lon="15.8261781">
        <ele>83.6</ele>
        <time>2012-10-30T18:43:04Z</time>
      </trkpt>
      <trkpt lat="59.9836882" lon="15.8261492">
        <ele>83.6</ele>
        <time>2012-10-30T18:43:05Z</time>
      </trkpt>
      <trkpt lat="59.9836845" lon="15.8261303">
        <ele>83.6</ele>
        <time>2012-10-30T18:43:06Z</time>
      </trkpt>
      <trkpt lat="59.9836742" lon="15.8260881">
        <ele>83.6</ele>
        <time>2012-10-30T18:43:07Z</time>
      </trkpt>
      <trkpt lat="59.9836694" lon="15.8260736">
        <ele>83.6</ele>
        <time>2012-10-30T18:43:08Z</time>
      </trkpt>
      <trkpt lat="59.983657" lon="15.8260337">
        <ele>83.6</ele>
        <time>2012-10-30T18:43:09Z</time>
      </trkpt>
      <trkpt lat="59.9836595" lon="15.8260187">
        <ele>83.6</ele>
        <time>2012-10-30T18:43:10Z</time>
      </trkpt>
      <trkpt lat="59.9836523" lon="15.8259836">
        <ele>83.6</ele>
        <time>2012-10-30T18:43:11Z</time>
      </trkpt>
      <trkpt lat="59.9836469" lon="15.8259683">
        <ele>83.6</ele>
        <time>2012-10-30T18:43:12Z</time>
      </trkpt>
      <trkpt lat="59.9836395" lon="15.8259459">
        <ele>86.6</ele>
        <time>2012-10-30T18:43:13Z</time>
      </trkpt>
      <trkpt lat="59.9836327" lon="15.8259295">
        <ele>86.8</ele>
        <time>2012-10-30T18:43:14Z</time>
      </trkpt>
      <trkpt lat="59.9836213" lon="15.8258956">
        <ele>86.6</ele>
        <time>2012-10-30T18:43:15Z</time>
      </trkpt>
      <trkpt lat="59.9836157" lon="15.8258822">
        <ele>88</ele>
        <time>2012-10-30T18:43:16Z</time>
      </trkpt>
      <trkpt lat="59.9836024" lon="15.8258513">
        <ele>88</ele>
        <time>2012-10-30T18:43:17Z</time>
      </trkpt>
      <trkpt lat="59.9836024" lon="15.8258394">
        <ele>88</ele>
        <time>2012-10-30T18:43:18Z</time>
      </trkpt>
      <trkpt lat="59.9835925" lon="15.8258135">
        <ele>88</ele>
        <time>2012-10-30T18:43:19Z</time>
      </trkpt>
      <trkpt lat="59.9835846" lon="15.8257976">
        <ele>89</ele>
        <time>2012-10-30T18:43:20Z</time>
      </trkpt>
      <trkpt lat="59.9835681" lon="15.8257682">
        <ele>89</ele>
        <time>2012-10-30T18:43:21Z</time>
      </trkpt>
      <trkpt lat="59.983553" lon="15.8257295">
        <ele>90.2</ele>
        <time>2012-10-30T18:43:23Z</time>
      </trkpt>
      <trkpt lat="59.9835444" lon="15.8257016">
        <ele>90.2</ele>
        <time>2012-10-30T18:43:24Z</time>
        <extensions><gpxtpx:TrackPointExtension><gpxtpx:hr>103</gpxtpx:hr></gpxtpx:TrackPointExtension></extensions>
      </trkpt>
      <trkpt lat="59.9835272" lon="15.8256572">
        <ele>90.2</ele>
        <time>2012-10-30T18:43:25Z</time>
        <extensions><gpxtpx:TrackPointExtension><gpxtpx:hr>115</gpxtpx:hr></gpxtpx:TrackPointExtension></extensions>
      </trkpt>
      <trkpt lat="59.9835223" lon="15.8256302">
        <ele>90.2</ele>
        <time>2012-10-30T18:43:26Z</time>
        <extensions><gpxtpx:TrackPointExtension><gpxtpx:hr>115</gpxtpx:hr></gpxtpx:TrackPointExtension></extensions>
      </trkpt>
      <trkpt lat="59.9835141" lon="15.8255809">
        <ele>90.2</ele>
        <time>2012-10-30T18:43:27Z</time>
        <extensions><gpxtpx:TrackPointExtension><gpxtpx:hr>123</gpxtpx:hr></gpxtpx:TrackPointExtension></extensions>
      </trkpt>
      <trkpt lat="59.9835089" lon="15.8255608">
        <ele>90.2</ele>
        <time>2012-10-30T18:43:28Z</time>
        <extensions><gpxtpx:TrackPointExtension><gpxtpx:hr>132</gpxtpx:hr></gpxtpx:TrackPointExtension></extensions>
      </trkpt>
      <trkpt lat="59.9834958" lon="15.8255069">
        <ele>90.2</ele>
        <time>2012-10-30T18:43:29Z</time>
        <extensions><gpxtpx:TrackPointExtension><gpxtpx:hr>135</gpxtpx:hr></gpxtpx:TrackPointExtension></extensions>
      </trkpt>
      <trkpt lat="59.9834916" lon="15.8254818">
        <ele>90.2</ele>
        <time>2012-10-30T18:43:30Z</time>
        <extensions><gpxtpx:TrackPointExtension><gpxtpx:hr>138</gpxtpx:hr></gpxtpx:TrackPointExtension></extensions>
      </trkpt>
      <trkpt lat="59.9834788" lon="15.8254323">
        <ele>90.2</ele>
        <time>2012-10-30T18:43:31Z</time>
        <extensions><gpxtpx:TrackPointExtension><gpxtpx:hr>146</gpxtpx:hr></gpxtpx:TrackPointExtension></extensions>
      </trkpt>
      <trkpt lat="59.9834744" lon="15.8254074">
        <ele>90.2</ele>
        <time>2012-10-30T18:43:32Z</time>
        <extensions><gpxtpx:TrackPointExtension><gpxtpx:hr>151</gpxtpx:hr></gpxtpx:TrackPointExtension></extensions>
      </trkpt>
      <trkpt lat="59.9834665" lon="15.8253628">
        <ele>90</ele>
        <time>2012-10-30T18:43:33Z</time>
        <extensions><gpxtpx:TrackPointExtension><gpxtpx:hr>150</gpxtpx:hr></gpxtpx:TrackPointExtension></extensions>
      </trkpt>
      <trkpt lat="59.9834587" lon="15.8253264">
        <ele>90.2</ele>
        <time>2012-10-30T18:43:34Z</time>
        <extensions><gpxtpx:TrackPointExtension><gpxtpx:hr>150</gpxtpx:hr></gpxtpx:TrackPointExtension></extensions>
      </trkpt>
      <trkpt lat="59.9834397" lon="15.8252398">
        <ele>90.2</ele>
        <time>2012-10-30T18:43:36Z</time>
        <extensions><gpxtpx:TrackPointExtension><gpxtpx:hr>150</gpxtpx:hr></gpxtpx:TrackPointExtension></extensions>
      </trkpt>
      <trkpt lat="59.9834248" lon="15.8251849">
        <ele>90</ele>
        <time>2012-10-30T18:43:37Z</time>
        <extensions><gpxtpx:TrackPointExtension><gpxtpx:hr>150</gpxtpx:hr></gpxtpx:TrackPointExtension></extensions>
      </trkpt>
      <trkpt lat="59.9834193" lon="15.8251569">
        <ele>90.2</ele>
        <time>2012-10-30T18:43:38Z</time>
        <extensions><gpxtpx:TrackPointExtension><gpxtpx:hr>150</gpxtpx:hr></gpxtpx:TrackPointExtension></extensions>
      </trkpt>
      <trkpt lat="59.9834069" lon="15.8250991">
        <ele>90</ele>
        <time>2012-10-30T18:43:39Z</time>
        <extensions><gpxtpx:TrackPointExtension><gpxtpx:hr>152</gpxtpx:hr></gpxtpx:TrackPointExtension></extensions>
      </trkpt>
      <trkpt lat="59.9834008" lon="15.8250759">
        <ele>90.2</ele>
        <time>2012-10-30T18:43:40Z</time>
        <extensions><gpxtpx:TrackPointExtension><gpxtpx:hr>153</gpxtpx:hr></gpxtpx:TrackPointExtension></extensions>
      </trkpt>
      <trkpt lat="59.9833859" lon="15.8250218">
        <ele>87.2</ele>
        <time>2012-10-30T18:43:41Z</time>
        <extensions><gpxtpx:TrackPointExtension><gpxtpx:hr>153</gpxtpx:hr></gpxtpx:TrackPointExtension></extensions>
      </trkpt>
      <trkpt lat="59.9833775" lon="15.8249922">
        <ele>87.2</ele>
        <time>2012-10-30T18:43:42Z</time>
        <extensions><gpxtpx:TrackPointExtension><gpxtpx:hr>153</gpxtpx:hr></gpxtpx:TrackPointExtension></extensions>
      </trkpt>
      <trkpt lat="59.9833549" lon="15.8249238">
        <ele>87</ele>
        <time>2012-10-30T18:43:44Z</time>
        <extensions><gpxtpx:TrackPointExtension><gpxtpx:hr>153</gpxtpx:hr></gpxtpx:TrackPointExtension></extensions>
      </trkpt>
      <trkpt lat="59.9833423" lon="15.8248801">
        <ele>87.2</ele>
        <time>2012-10-30T18:43:45Z</time>
        <extensions><gpxtpx:TrackPointExtension><gpxtpx:hr>154</gpxtpx:hr></gpxtpx:TrackPointExtension></extensions>
      </trkpt>
      <trkpt lat="59.9833381" lon="15.8248611">
        <ele>87.2</ele>
        <time>2012-10-30T18:43:46Z</time>
        <extensions><gpxtpx:TrackPointExtension><gpxtpx:hr>153</gpxtpx:hr></gpxtpx:TrackPointExtension></extensions>
      </trkpt>
      <trkpt lat="59.9833193" lon="15.8248006">
        <ele>87.2</ele>
        <time>2012-10-30T18:43:47Z</time>
        <extensions><gpxtpx:TrackPointExtension><gpxtpx:hr>156</gpxtpx:hr></gpxtpx:TrackPointExtension></extensions>
      </trkpt>
      <trkpt lat="59.9833117" lon="15.824776">
        <ele>86</ele>
        <time>2012-10-30T18:43:48Z</time>
        <extensions><gpxtpx:TrackPointExtension><gpxtpx:hr>156</gpxtpx:hr></gpxtpx:TrackPointExtension></extensions>
      </trkpt>
      <trkpt lat="59.9832947" lon="15.8247325">
        <ele>85.8</ele>
        <time>2012-10-30T18:43:49Z</time>
        <extensions><gpxtpx:TrackPointExtension><gpxtpx:hr>157</gpxtpx:hr></gpxtpx:TrackPointExtension></extensions>
      </trkpt>
      <trkpt lat="59.9832888" lon="15.8247096">
        <ele>86</ele>
        <time>2012-10-30T18:43:50Z</time>
        <extensions><gpxtpx:TrackPointExtension><gpxtpx:hr>158</gpxtpx:hr></gpxtpx:TrackPointExtension></extensions>
      </trkpt>
      <trkpt lat="59.9832812" lon="15.8246578">
        <ele>86</ele>
        <time>2012-10-30T18:43:51Z</time>
        <extensions><gpxtpx:TrackPointExtension><gpxtpx:hr>158</gpxtpx:hr></gpxtpx:TrackPointExtension></extensions>
      </trkpt>
      <trkpt lat="59.9832859" lon="15.824638">
        <ele>86</ele>
        <time>2012-10-30T18:43:52Z</time>
        <extensions><gpxtpx:TrackPointExtension><gpxtpx:hr>157</gpxtpx:hr></gpxtpx:TrackPointExtension></extensions>
      </trkpt>
      <trkpt lat="59.9832998" lon="15.8245989">
        <ele>86</ele>
        <time>2012-10-30T18:43:53Z</time>
        <extensions><gpxtpx:TrackPointExtension><gpxtpx:hr>154</gpxtpx:hr></gpxtpx:TrackPointExtension></extensions>
      </trkpt>
      <trkpt lat="59.9833086" lon="15.8245751">
        <ele>86</ele>
        <time>2012-10-30T18:43:54Z</time>
        <extensions><gpxtpx:TrackPointExtension><gpxtpx:hr>154</gpxtpx:hr></gpxtpx:TrackPointExtension></extensions>
      </trkpt>
      <trkpt lat="59.9833237" lon="15.8245328">
        <ele>85.8</ele>
        <time>2012-10-30T18:43:55Z</time>
        <extensions><gpxtpx:TrackPointExtension><gpxtpx:hr>153</gpxtpx:hr></gpxtpx:TrackPointExtension></extensions>
      </trkpt>
      <trkpt lat="59.9833354" lon="15.8245035">
        <ele>85.8</ele>
        <time>2012-10-30T18:43:56Z</time>
        <extensions><gpxtpx:TrackPointExtension><gpxtpx:hr>152</gpxtpx:hr></gpxtpx:TrackPointExtension></extensions>
      </trkpt>
      <trkpt lat="59.9833366" lon="15.8244713">
        <ele>85.8</ele>
        <time>2012-10-30T18:43:57Z</time>
        <extensions><gpxtpx:TrackPointExtension><gpxtpx:hr>152</gpxtpx:hr></gpxtpx:TrackPointExtension></extensions>
      </trkpt>
      <trkpt lat="59.9833428" lon="15.824442">
        <ele>85</ele>
        <time>2012-10-30T18:43:58Z</time>
        <extensions><gpxtpx:TrackPointExtension><gpxtpx:hr>152</gpxtpx:hr></gpxtpx:TrackPointExtension></extensions>
      </trkpt>
      <trkpt lat="59.9833719" lon="15.824298">
        <ele>84.8</ele>
        <time>2012-10-30T18:44:01Z</time>
        <extensions><gpxtpx:TrackPointExtension><gpxtpx:hr>151</gpxtpx:hr></gpxtpx:TrackPointExtension></extensions>
      </trkpt>
      <trkpt lat="59.983378" lon="15.8242571">
        <ele>85</ele>
        <time>2012-10-30T18:44:02Z</time>
        <extensions><gpxtpx:TrackPointExtension><gpxtpx:hr>152</gpxtpx:hr></gpxtpx:TrackPointExtension></extensions>
      </trkpt>
      <trkpt lat="59.9833894" lon="15.8241877">
        <ele>83.8</ele>
        <time>2012-10-30T18:44:03Z</time>
        <extensions><gpxtpx:TrackPointExtension><gpxtpx:hr>153</gpxtpx:hr></gpxtpx:TrackPointExtension></extensions>
      </trkpt>
      <trkpt lat="59.9833951" lon="15.8241652">
        <ele>83.8</ele>
        <time>2012-10-30T18:44:04Z</time>
        <extensions><gpxtpx:TrackPointExtension><gpxtpx:hr>153</gpxtpx:hr></gpxtpx:TrackPointExtension></extensions>
      </trkpt>
      <trkpt lat="59.9834319" lon="15.8240494">
        <ele>83.8</ele>
        <time>2012-10-30T18:44:07Z</time>
        <extensions><gpxtpx:TrackPointExtension><gpxtpx:hr>156</gpxtpx:hr></gpxtpx:TrackPointExtension></extensions>
      </trkpt>
      <trkpt lat="59.9835034" lon="15.8240295">
        <ele>83.8</ele>
        <time>2012-10-30T18:44:11Z</time>
        <extensions><gpxtpx:TrackPointExtension><gpxtpx:hr>157</gpxtpx:hr></gpxtpx:TrackPointExtension></extensions>
      </trkpt>
      <trkpt lat="59.9835163" lon="15.8240401">
        <ele>82.6</ele>
        <time>2012-10-30T18:44:12Z</time>
        <extensions><gpxtpx:TrackPointExtension><gpxtpx:hr>157</gpxtpx:hr></gpxtpx:TrackPointExtension></extensions>
      </trkpt>
      <trkpt lat="59.9835405" lon="15.8240558">
        <ele>82.6</ele>
        <time>2012-10-30T18:44:13Z</time>
        <extensions><gpxtpx:TrackPointExtension><gpxtpx:hr>156</gpxtpx:hr></gpxtpx:TrackPointExtension></extensions>
      </trkpt>
      <trkpt lat="59.9835522" lon="15.8240729">
        <ele>82.6</ele>
        <time>2012-10-30T18:44:14Z</time>
        <extensions><gpxtpx:TrackPointExtension><gpxtpx:hr>156</gpxtpx:hr></gpxtpx:TrackPointExtension></extensions>
      </trkpt>
      <trkpt lat="59.983587" lon="15.8240892">
        <ele>82.6</ele>
        <time>2012-10-30T18:44:15Z</time>
        <extensions><gpxtpx:TrackPointExtension><gpxtpx:hr>156</gpxtpx:hr></gpxtpx:TrackPointExtension></extensions>
      </trkpt>
      <trkpt lat="59.9836197" lon="15.8241302">
        <ele>81.6</ele>
        <time>2012-10-30T18:44:17Z</time>
        <extensions><gpxtpx:TrackPointExtension><gpxtpx:hr>156</gpxtpx:hr></gpxtpx:TrackPointExtension></extensions>
      </trkpt>
      <trkpt lat="59.9836745" lon="15.8242574">
        <ele>81.4</ele>
        <time>2012-10-30T18:44:21Z</time>
        <extensions><gpxtpx:TrackPointExtension><gpxtpx:hr>156</gpxtpx:hr></gpxtpx:TrackPointExtension></extensions>
      </trkpt>
      <trkpt lat="59.9836848" lon="15.8242755">
        <ele>81.6</ele>
        <time>2012-10-30T18:44:22Z</time>
        <extensions><gpxtpx:TrackPointExtension><gpxtpx:hr>156</gpxtpx:hr></gpxtpx:TrackPointExtension></extensions>
      </trkpt>
      <trkpt lat="59.9837166" lon="15.8243383">
        <ele>81.6</ele>
        <time>2012-10-30T18:44:24Z</time>
        <extensions><gpxtpx:TrackPointExtension><gpxtpx:hr>156</gpxtpx:hr></gpxtpx:TrackPointExtension></extensions>
      </trkpt>
      <trkpt lat="59.9837392" lon="15.8243835">
        <ele>81.6</ele>
        <time>2012-10-30T18:44:25Z</time>
        <extensions><gpxtpx:TrackPointExtension><gpxtpx:hr>155</gpxtpx:hr></gpxtpx:TrackPointExtension></extensions>
      </trkpt>
      <trkpt lat="59.9837551" lon="15.8243977">
        <ele>81.6</ele>
        <time>2012-10-30T18:44:26Z</time>
        <extensions><gpxtpx:TrackPointExtension><gpxtpx:hr>155</gpxtpx:hr></gpxtpx:TrackPointExtension></extensions>
      </trkpt>
      <trkpt lat="59.9837769" lon="15.8244408">
        <ele>81.6</ele>
        <time>2012-10-30T18:44:27Z</time>
        <extensions><gpxtpx:TrackPointExtension><gpxtpx:hr>154</gpxtpx:hr></gpxtpx:TrackPointExtension></extensions>
      </trkpt>
      <trkpt lat="59.9837892" lon="15.8244542">
        <ele>81.6</ele>
        <time>2012-10-30T18:44:28Z</time>
        <extensions><gpxtpx:TrackPointExtension><gpxtpx:hr>156</gpxtpx:hr></gpxtpx:TrackPointExtension></extensions>
      </trkpt>
      <trkpt lat="59.9838222" lon="15.8244871">
        <ele>81.4</ele>
        <time>2012-10-30T18:44:29Z</time>
        <extensions><gpxtpx:TrackPointExtension><gpxtpx:hr>159</gpxtpx:hr></gpxtpx:TrackPointExtension></extensions>
      </trkpt>
      <trkpt lat="59.9838341" lon="15.8244998">
        <ele>81.6</ele>
        <time>2012-10-30T18:44:30Z</time>
        <extensions><gpxtpx:TrackPointExtension><gpxtpx:hr>159</gpxtpx:hr></gpxtpx:TrackPointExtension></extensions>
      </trkpt>
      <trkpt lat="59.9838613" lon="15.8245246">
        <ele>81.6</ele>
        <time>2012-10-30T18:44:31Z</time>
        <extensions><gpxtpx:TrackPointExtension><gpxtpx:hr>159</gpxtpx:hr></gpxtpx:TrackPointExtension></extensions>
      </trkpt>
      <trkpt lat="59.9838792" lon="15.8245317">
        <ele>80.4</ele>
        <time>2012-10-30T18:44:32Z</time>
        <extensions><gpxtpx:TrackPointExtension><gpxtpx:hr>159</gpxtpx:hr></gpxtpx:TrackPointExtension></extensions>
      </trkpt>
      <trkpt lat="59.9839248" lon="15.8245368">
        <ele>80.4</ele>
        <time>2012-10-30T18:44:34Z</time>
        <extensions><gpxtpx:TrackPointExtension><gpxtpx:hr>159</gpxtpx:hr></gpxtpx:TrackPointExtension></extensions>
      </trkpt>
      <trkpt lat="59.9839602" lon="15.8245309">
        <ele>80.4</ele>
        <time>2012-10-30T18:44:35Z</time>
        <extensions><gpxtpx:TrackPointExtension><gpxtpx:hr>158</gpxtpx:hr></gpxtpx:TrackPointExtension></extensions>
      </trkpt>
      <trkpt lat="59.9839801" lon="15.8245251">
        <ele>80.4</ele>
        <time>2012-10-30T18:44:36Z</time>
        <extensions><gpxtpx:TrackPointExtension><gpxtpx:hr>158</gpxtpx:hr></gpxtpx:TrackPointExtension></extensions>
      </trkpt>
      <trkpt lat="59.9840725" lon="15.8245019">
        <ele>80.4</ele>
        <time>2012-10-30T18:44:40Z</time>
        <extensions><gpxtpx:TrackPointExtension><gpxtpx:hr>158</gpxtpx:hr></gpxtpx:TrackPointExtension></extensions>
      </trkpt>
      <trkpt lat="59.9841092" lon="15.8244942">
        <ele>80.4</ele>
        <time>2012-10-30T18:44:41Z</time>
        <extensions><gpxtpx:TrackPointExtension><gpxtpx:hr>158</gpxtpx:hr></gpxtpx:TrackPointExtension></extensions>
      </trkpt>
      <trkpt lat="59.9841231" lon="15.8244858">
        <ele>79.2</ele>
        <time>2012-10-30T18:44:42Z</time>
        <extensions><gpxtpx:TrackPointExtension><gpxtpx:hr>158</gpxtpx:hr></gpxtpx:TrackPointExtension></extensions>
      </trkpt>
      <trkpt lat="59.984148" lon="15.8244765">
        <ele>79.2</ele>
        <time>2012-10-30T18:44:43Z</time>
        <extensions><gpxtpx:TrackPointExtension><gpxtpx:hr>158</gpxtpx:hr></gpxtpx:TrackPointExtension></extensions>
      </trkpt>
      <trkpt lat="59.9841679" lon="15.8244705">
        <ele>79.2</ele>
        <time>2012-10-30T18:44:44Z</time>
        <extensions><gpxtpx:TrackPointExtension><gpxtpx:hr>158</gpxtpx:hr></gpxtpx:TrackPointExtension></extensions>
      </trkpt>
      <trkpt lat="59.9841973" lon="15.8244568">
        <ele>79.2</ele>
        <time>2012-10-30T18:44:45Z</time>
        <extensions><gpxtpx:TrackPointExtension><gpxtpx:hr>158</gpxtpx:hr></gpxtpx:TrackPointExtension></extensions>
      </trkpt>
      <trkpt lat="59.9843352" lon="15.8243667">
        <ele>79.2</ele>
        <time>2012-10-30T18:44:51Z</time>
        <extensions><gpxtpx:TrackPointExtension><gpxtpx:hr>156</gpxtpx:hr></gpxtpx:TrackPointExtension></extensions>
      </trkpt>
      <trkpt lat="59.9843514" lon="15.8243539">
        <ele>79.2</ele>
        <time>2012-10-30T18:44:52Z</time>
        <extensions><gpxtpx:TrackPointExtension><gpxtpx:hr>156</gpxtpx:hr></gpxtpx:TrackPointExtension></extensions>
      </trkpt>
      <trkpt lat="59.9843779" lon="15.8243327">
        <ele>79.2</ele>
        <time>2012-10-30T18:44:53Z</time>
        <extensions><gpxtpx:TrackPointExtension><gpxtpx:hr>156</gpxtpx:hr></gpxtpx:TrackPointExtension></extensions>
      </trkpt>
      <trkpt lat="59.9843968" lon="15.824318">
        <ele>79.2</ele>
        <time>2012-10-30T18:44:54Z</time>
        <extensions><gpxtpx:TrackPointExtension><gpxtpx:hr>155</gpxtpx:hr></gpxtpx:TrackPointExtension></extensions>
      </trkpt>
      <trkpt lat="59.9844715" lon="15.8242442">
        <ele>79.2</ele>
        <time>2012-10-30T18:44:57Z</time>
        <extensions><gpxtpx:TrackPointExtension><gpxtpx:hr>155</gpxtpx:hr></gpxtpx:TrackPointExtension></extensions>
      </trkpt>
      <trkpt lat="59.9845634" lon="15.8241437">
        <ele>79.2</ele>
        <time>2012-10-30T18:45:01Z</time>
        <extensions><gpxtpx:TrackPointExtension><gpxtpx:hr>156</gpxtpx:hr></gpxtpx:TrackPointExtension></extensions>
      </trkpt>
      <trkpt lat="59.9845766" lon="15.8241274">
        <ele>79.2</ele>
        <time>2012-10-30T18:45:02Z</time>
        <extensions><gpxtpx:TrackPointExtension><gpxtpx:hr>157</gpxtpx:hr></gpxtpx:TrackPointExtension></extensions>
      </trkpt>
      <trkpt lat="59.9846015" lon="15.8240989">
        <ele>79.2</ele>
        <time>2012-10-30T18:45:03Z</time>
        <extensions><gpxtpx:TrackPointExtension><gpxtpx:hr>156</gpxtpx:hr></gpxtpx:TrackPointExtension></extensions>
      </trkpt>
      <trkpt lat="59.9846205" lon="15.824078">
        <ele>79.2</ele>
        <time>2012-10-30T18:45:04Z</time>
        <extensions><gpxtpx:TrackPointExtension><gpxtpx:hr>155</gpxtpx:hr></gpxtpx:TrackPointExtension></extensions>
      </trkpt>
      <trkpt lat="59.9846834" lon="15.8239882">
        <ele>79.4</ele>
        <time>2012-10-30T18:45:09Z</time>
        <extensions><gpxtpx:TrackPointExtension><gpxtpx:hr>153</gpxtpx:hr></gpxtpx:TrackPointExtension></extensions>
      </trkpt>
      <trkpt lat="59.9847466" lon="15.8239261">
        <ele>79.2</ele>
        <time>2012-10-30T18:45:14Z</time>
        <extensions><gpxtpx:TrackPointExtension><gpxtpx:hr>154</gpxtpx:hr></gpxtpx:TrackPointExtension></extensions>
      </trkpt>
      <trkpt lat="59.9848433" lon="15.8238105">
        <ele>79.2</ele>
        <time>2012-10-30T18:45:40Z</time>
        <extensions><gpxtpx:TrackPointExtension><gpxtpx:hr>139</gpxtpx:hr></gpxtpx:TrackPointExtension></extensions>
      </trkpt>
      <trkpt lat="59.984855" lon="15.8237928">
        <ele>79.2</ele>
        <time>2012-10-30T18:45:41Z</time>
        <extensions><gpxtpx:TrackPointExtension><gpxtpx:hr>140</gpxtpx:hr></gpxtpx:TrackPointExtension></extensions>
      </trkpt>
      <trkpt lat="59.9848701" lon="15.8237776">
        <ele>79.2</ele>
        <time>2012-10-30T18:45:42Z</time>
        <extensions><gpxtpx:TrackPointExtension><gpxtpx:hr>140</gpxtpx:hr></gpxtpx:TrackPointExtension></extensions>
      </trkpt>
      <trkpt lat="59.9848926" lon="15.8237484">
        <ele>79.2</ele>
        <time>2012-10-30T18:45:43Z</time>
        <extensions><gpxtpx:TrackPointExtension><gpxtpx:hr>143</gpxtpx:hr></gpxtpx:TrackPointExtension></extensions>
      </trkpt>
      <trkpt lat="59.9849137" lon="15.8237063">
        <ele>79.2</ele>
        <time>2012-10-30T18:45:44Z</time>
        <extensions><gpxtpx:TrackPointExtension><gpxtpx:hr>146</gpxtpx:hr></gpxtpx:TrackPointExtension></extensions>
      </trkpt>
      <trkpt lat="59.984931" lon="15.8236736">
        <ele>79.2</ele>
        <time>2012-10-30T18:45:45Z</time>
        <extensions><gpxtpx:TrackPointExtension><gpxtpx:hr>146</gpxtpx:hr></gpxtpx:TrackPointExtension></extensions>
      </trkpt>
      <trkpt lat="59.9849483" lon="15.8236407">
        <ele>79.2</ele>
        <time>2012-10-30T18:45:46Z</time>
        <extensions><gpxtpx:TrackPointExtension><gpxtpx:hr>146</gpxtpx:hr></gpxtpx:TrackPointExtension></extensions>
      </trkpt>
      <trkpt lat="59.984961" lon="15.8236146">
        <ele>79.2</ele>
        <time>2012-10-30T18:45:47Z</time>
        <extensions><gpxtpx:TrackPointExtension><gpxtpx:hr>149</gpxtpx:hr></gpxtpx:TrackPointExtension></extensions>
      </trkpt>
      <trkpt lat="59.9850033" lon="15.8235543">
        <ele>79.2</ele>
        <time>2012-10-30T18:45:49Z</time>
        <extensions><gpxtpx:TrackPointExtension><gpxtpx:hr>149</gpxtpx:hr></gpxtpx:TrackPointExtension></extensions>
      </trkpt>
      <trkpt lat="59.985013" lon="15.8235161">
        <ele>79.2</ele>
        <time>2012-10-30T18:45:50Z</time>
        <extensions><gpxtpx:TrackPointExtension><gpxtpx:hr>150</gpxtpx:hr></gpxtpx:TrackPointExtension></extensions>
      </trkpt>
      <trkpt lat="59.9850261" lon="15.8234239">
        <ele>79.2</ele>
        <time>2012-10-30T18:45:52Z</time>
        <extensions><gpxtpx:TrackPointExtension><gpxtpx:hr>152</gpxtpx:hr></gpxtpx:TrackPointExtension></extensions>
      </trkpt>
      <trkpt lat="59.9850231" lon="15.8233167">
        <ele>79.2</ele>
        <time>2012-10-30T18:45:54Z</time>
        <extensions><gpxtpx:TrackPointExtension><gpxtpx:hr>153</gpxtpx:hr></gpxtpx:TrackPointExtension></extensions>
      </trkpt>
      <trkpt lat="59.9850182" lon="15.8232665">
        <ele>79.2</ele>
        <time>2012-10-30T18:45:55Z</time>
        <extensions><gpxtpx:TrackPointExtension><gpxtpx:hr>153</gpxtpx:hr></gpxtpx:TrackPointExtension></extensions>
      </trkpt>
      <trkpt lat="59.9850131" lon="15.823229">
        <ele>79.2</ele>
        <time>2012-10-30T18:45:56Z</time>
        <extensions><gpxtpx:TrackPointExtension><gpxtpx:hr>152</gpxtpx:hr></gpxtpx:TrackPointExtension></extensions>
      </trkpt>
      <trkpt lat="59.985007" lon="15.8231672">
        <ele>79.2</ele>
        <time>2012-10-30T18:45:57Z</time>
        <extensions><gpxtpx:TrackPointExtension><gpxtpx:hr>152</gpxtpx:hr></gpxtpx:TrackPointExtension></extensions>
      </trkpt>
      <trkpt lat="59.9850015" lon="15.8231183">
        <ele>79.2</ele>
        <time>2012-10-30T18:45:58Z</time>
        <extensions><gpxtpx:TrackPointExtension><gpxtpx:hr>152</gpxtpx:hr></gpxtpx:TrackPointExtension></extensions>
      </trkpt>
      <trkpt lat="59.985005" lon="15.823089">
        <ele>79.2</ele>
        <time>2012-10-30T18:45:59Z</time>
        <extensions><gpxtpx:TrackPointExtension><gpxtpx:hr>152</gpxtpx:hr></gpxtpx:TrackPointExtension></extensions>
      </trkpt>
      <trkpt lat="59.9850035" lon="15.8230453">
        <ele>79.2</ele>
        <time>2012-10-30T18:46:00Z</time>
        <extensions><gpxtpx:TrackPointExtension><gpxtpx:hr>153</gpxtpx:hr></gpxtpx:TrackPointExtension></extensions>
      </trkpt>
      <trkpt lat="59.9849983" lon="15.8229924">
        <ele>79.2</ele>
        <time>2012-10-30T18:46:01Z</time>
        <extensions><gpxtpx:TrackPointExtension><gpxtpx:hr>153</gpxtpx:hr></gpxtpx:TrackPointExtension></extensions>
      </trkpt>
      <trkpt lat="59.9849857" lon="15.8228685">
        <ele>79.2</ele>
        <time>2012-10-30T18:46:04Z</time>
        <extensions><gpxtpx:TrackPointExtension><gpxtpx:hr>154</gpxtpx:hr></gpxtpx:TrackPointExtension></extensions>
      </trkpt>
      <trkpt lat="59.9849808" lon="15.8228164">
        <ele>79.2</ele>
        <time>2012-10-30T18:46:05Z</time>
        <extensions><gpxtpx:TrackPointExtension><gpxtpx:hr>152</gpxtpx:hr></gpxtpx:TrackPointExtension></extensions>
      </trkpt>
      <trkpt lat="59.9849781" lon="15.8227821">
        <ele>79.2</ele>
        <time>2012-10-30T18:46:06Z</time>
        <extensions><gpxtpx:TrackPointExtension><gpxtpx:hr>153</gpxtpx:hr></gpxtpx:TrackPointExtension></extensions>
      </trkpt>
      <trkpt lat="59.9849716" lon="15.8227206">
        <ele>79.2</ele>
        <time>2012-10-30T18:46:07Z</time>
        <extensions><gpxtpx:TrackPointExtension><gpxtpx:hr>153</gpxtpx:hr></gpxtpx:TrackPointExtension></extensions>
      </trkpt>
      <trkpt lat="59.9849621" lon="15.8225858">
        <ele>79.2</ele>
        <time>2012-10-30T18:46:10Z</time>
        <extensions><gpxtpx:TrackPointExtension><gpxtpx:hr>153</gpxtpx:hr></gpxtpx:TrackPointExtension></extensions>
      </trkpt>
      <trkpt lat="59.9849595" lon="15.8225306">
        <ele>79.2</ele>
        <time>2012-10-30T18:46:12Z</time>
        <extensions><gpxtpx:TrackPointExtension><gpxtpx:hr>154</gpxtpx:hr></gpxtpx:TrackPointExtension></extensions>
      </trkpt>
      <trkpt lat="59.9849455" lon="15.8222237">
        <ele>79.2</ele>
        <time>2012-10-30T18:46:17Z</time>
        <extensions><gpxtpx:TrackPointExtension><gpxtpx:hr>156</gpxtpx:hr></gpxtpx:TrackPointExtension></extensions>
      </trkpt>
      <trkpt lat="59.9849402" lon="15.8221825">
        <ele>79.2</ele>
        <time>2012-10-30T18:46:18Z</time>
        <extensions><gpxtpx:TrackPointExtension><gpxtpx:hr>156</gpxtpx:hr></gpxtpx:TrackPointExtension></extensions>
      </trkpt>
      <trkpt lat="59.9849317" lon="15.8221167">
        <ele>79.2</ele>
        <time>2012-10-30T18:46:19Z</time>
        <extensions><gpxtpx:TrackPointExtension><gpxtpx:hr>156</gpxtpx:hr></gpxtpx:TrackPointExtension></extensions>
      </trkpt>
      <trkpt lat="59.9849268" lon="15.8220807">
        <ele>79.2</ele>
        <time>2012-10-30T18:46:20Z</time>
        <extensions><gpxtpx:TrackPointExtension><gpxtpx:hr>156</gpxtpx:hr></gpxtpx:TrackPointExtension></extensions>
      </trkpt>
      <trkpt lat="59.9849179" lon="15.8220237">
        <ele>79.2</ele>
        <time>2012-10-30T18:46:21Z</time>
        <extensions><gpxtpx:TrackPointExtension><gpxtpx:hr>157</gpxtpx:hr></gpxtpx:TrackPointExtension></extensions>
      </trkpt>
      <trkpt lat="59.9849185" lon="15.821986">
        <ele>79.2</ele>
        <time>2012-10-30T18:46:22Z</time>
        <extensions><gpxtpx:TrackPointExtension><gpxtpx:hr>157</gpxtpx:hr></gpxtpx:TrackPointExtension></extensions>
      </trkpt>
      <trkpt lat="59.9849191" lon="15.8219455">
        <ele>79.2</ele>
        <time>2012-10-30T18:46:23Z</time>
        <extensions><gpxtpx:TrackPointExtension><gpxtpx:hr>156</gpxtpx:hr></gpxtpx:TrackPointExtension></extensions>
      </trkpt>
      <trkpt lat="59.9849114" lon="15.8219056">
        <ele>79.2</ele>
        <time>2012-10-30T18:46:24Z</time>
        <extensions><gpxtpx:TrackPointExtension><gpxtpx:hr>156</gpxtpx:hr></gpxtpx:TrackPointExtension></extensions>
      </trkpt>
      <trkpt lat="59.9849093" lon="15.8218692">
        <ele>79.2</ele>
        <time>2012-10-30T18:46:25Z</time>
        <extensions><gpxtpx:TrackPointExtension><gpxtpx:hr>156</gpxtpx:hr></gpxtpx:TrackPointExtension></extensions>
      </trkpt>
      <trkpt lat="59.9849072" lon="15.8218493">
        <ele>79.2</ele>
        <time>2012-10-30T18:46:26Z</time>
        <extensions><gpxtpx:TrackPointExtension><gpxtpx:hr>156</gpxtpx:hr></gpxtpx:TrackPointExtension></extensions>
      </trkpt>
      <trkpt lat="59.9849098" lon="15.8218144">
        <ele>79.2</ele>
        <time>2012-10-30T18:46:27Z</time>
        <extensions><gpxtpx:TrackPointExtension><gpxtpx:hr>155</gpxtpx:hr></gpxtpx:TrackPointExtension></extensions>
      </trkpt>
      <trkpt lat="59.9849078" lon="15.8217908">
        <ele>79.4</ele>
        <time>2012-10-30T18:46:28Z</time>
        <extensions><gpxtpx:TrackPointExtension><gpxtpx:hr>154</gpxtpx:hr></gpxtpx:TrackPointExtension></extensions>
      </trkpt>
      <trkpt lat="59.984903" lon="15.821726">
        <ele>79.2</ele>
        <time>2012-10-30T18:46:29Z</time>
        <extensions><gpxtpx:TrackPointExtension><gpxtpx:hr>154</gpxtpx:hr></gpxtpx:TrackPointExtension></extensions>
      </trkpt>
      <trkpt lat="59.9848978" lon="15.8216918">
        <ele>79.2</ele>
        <time>2012-10-30T18:46:30Z</time>
        <extensions><gpxtpx:TrackPointExtension><gpxtpx:hr>155</gpxtpx:hr></gpxtpx:TrackPointExtension></extensions>
      </trkpt>
      <trkpt lat="59.9848966" lon="15.8216527">
        <ele>79.2</ele>
        <time>2012-10-30T18:46:31Z</time>
        <extensions><gpxtpx:TrackPointExtension><gpxtpx:hr>155</gpxtpx:hr></gpxtpx:TrackPointExtension></extensions>
      </trkpt>
      <trkpt lat="59.9848947" lon="15.8216069">
        <ele>79.2</ele>
        <time>2012-10-30T18:46:32Z</time>
        <extensions><gpxtpx:TrackPointExtension><gpxtpx:hr>155</gpxtpx:hr></gpxtpx:TrackPointExtension></extensions>
      </trkpt>
      <trkpt lat="59.9848903" lon="15.8215638">
        <ele>79.2</ele>
        <time>2012-10-30T18:46:33Z</time>
        <extensions><gpxtpx:TrackPointExtension><gpxtpx:hr>155</gpxtpx:hr></gpxtpx:TrackPointExtension></extensions>
      </trkpt>
      <trkpt lat="59.9848872" lon="15.8215275">
        <ele>79.2</ele>
        <time>2012-10-30T18:46:34Z</time>
        <extensions><gpxtpx:TrackPointExtension><gpxtpx:hr>155</gpxtpx:hr></gpxtpx:TrackPointExtension></extensions>
      </trkpt>
      <trkpt lat="59.984883" lon="15.8214711">
        <ele>79.2</ele>
        <time>2012-10-30T18:46:35Z</time>
        <extensions><gpxtpx:TrackPointExtension><gpxtpx:hr>156</gpxtpx:hr></gpxtpx:TrackPointExtension></extensions>
      </trkpt>
      <trkpt lat="59.9848796" lon="15.8214257">
        <ele>79.2</ele>
        <time>2012-10-30T18:46:36Z</time>
        <extensions><gpxtpx:TrackPointExtension><gpxtpx:hr>156</gpxtpx:hr></gpxtpx:TrackPointExtension></extensions>
      </trkpt>
      <trkpt lat="59.9848763" lon="15.8213721">
        <ele>79.2</ele>
        <time>2012-10-30T18:46:37Z</time>
        <extensions><gpxtpx:TrackPointExtension><gpxtpx:hr>157</gpxtpx:hr></gpxtpx:TrackPointExtension></extensions>
      </trkpt>
      <trkpt lat="59.9848749" lon="15.8213441">
        <ele>79.2</ele>
        <time>2012-10-30T18:46:38Z</time>
        <extensions><gpxtpx:TrackPointExtension><gpxtpx:hr>157</gpxtpx:hr></gpxtpx:TrackPointExtension></extensions>
      </trkpt>
      <trkpt lat="59.9848704" lon="15.8212026">
        <ele>79.2</ele>
        <time>2012-10-30T18:46:41Z</time>
        <extensions><gpxtpx:TrackPointExtension><gpxtpx:hr>153</gpxtpx:hr></gpxtpx:TrackPointExtension></extensions>
      </trkpt>
      <trkpt lat="59.9848563" lon="15.8210703">
        <ele>79.2</ele>
        <time>2012-10-30T18:46:44Z</time>
        <extensions><gpxtpx:TrackPointExtension><gpxtpx:hr>152</gpxtpx:hr></gpxtpx:TrackPointExtension></extensions>
      </trkpt>
      <trkpt lat="59.984853" lon="15.8210204">
        <ele>79.2</ele>
        <time>2012-10-30T18:46:45Z</time>
        <extensions><gpxtpx:TrackPointExtension><gpxtpx:hr>152</gpxtpx:hr></gpxtpx:TrackPointExtension></extensions>
      </trkpt>
      <trkpt lat="59.9848497" lon="15.8209774">
        <ele>79.2</ele>
        <time>2012-10-30T18:46:46Z</time>
        <extensions><gpxtpx:TrackPointExtension><gpxtpx:hr>152</gpxtpx:hr></gpxtpx:TrackPointExtension></extensions>
      </trkpt>
      <trkpt lat="59.9848457" lon="15.8209178">
        <ele>79.2</ele>
        <time>2012-10-30T18:46:47Z</time>
        <extensions><gpxtpx:TrackPointExtension><gpxtpx:hr>151</gpxtpx:hr></gpxtpx:TrackPointExtension></extensions>
      </trkpt>
      <trkpt lat="59.9848462" lon="15.8208946">
        <ele>79.2</ele>
        <time>2012-10-30T18:46:48Z</time>
        <extensions><gpxtpx:TrackPointExtension><gpxtpx:hr>151</gpxtpx:hr></gpxtpx:TrackPointExtension></extensions>
      </trkpt>
      <trkpt lat="59.9848463" lon="15.8208248">
        <ele>79.2</ele>
        <time>2012-10-30T18:46:49Z</time>
        <extensions><gpxtpx:TrackPointExtension><gpxtpx:hr>152</gpxtpx:hr></gpxtpx:TrackPointExtension></extensions>
      </trkpt>
      <trkpt lat="59.9848465" lon="15.8207782">
        <ele>79.2</ele>
        <time>2012-10-30T18:46:50Z</time>
        <extensions><gpxtpx:TrackPointExtension><gpxtpx:hr>152</gpxtpx:hr></gpxtpx:TrackPointExtension></extensions>
      </trkpt>
      <trkpt lat="59.9848489" lon="15.8207215">
        <ele>79.2</ele>
        <time>2012-10-30T18:46:51Z</time>
        <extensions><gpxtpx:TrackPointExtension><gpxtpx:hr>153</gpxtpx:hr></gpxtpx:TrackPointExtension></extensions>
      </trkpt>
      <trkpt lat="59.9848673" lon="15.8205795">
        <ele>79.2</ele>
        <time>2012-10-30T18:46:54Z</time>
        <extensions><gpxtpx:TrackPointExtension><gpxtpx:hr>153</gpxtpx:hr></gpxtpx:TrackPointExtension></extensions>
      </trkpt>
      <trkpt lat="59.9848828" lon="15.8205386">
        <ele>79.2</ele>
        <time>2012-10-30T18:46:55Z</time>
        <extensions><gpxtpx:TrackPointExtension><gpxtpx:hr>154</gpxtpx:hr></gpxtpx:TrackPointExtension></extensions>
      </trkpt>
      <trkpt lat="59.984897" lon="15.8205168">
        <ele>79.2</ele>
        <time>2012-10-30T18:46:56Z</time>
        <extensions><gpxtpx:TrackPointExtension><gpxtpx:hr>154</gpxtpx:hr></gpxtpx:TrackPointExtension></extensions>
      </trkpt>
      <trkpt lat="59.9849207" lon="15.8204769">
        <ele>79.2</ele>
        <time>2012-10-30T18:46:57Z</time>
        <extensions><gpxtpx:TrackPointExtension><gpxtpx:hr>153</gpxtpx:hr></gpxtpx:TrackPointExtension></extensions>
      </trkpt>
      <trkpt lat="59.9849648" lon="15.8204349">
        <ele>79.2</ele>
        <time>2012-10-30T18:46:59Z</time>
        <extensions><gpxtpx:TrackPointExtension><gpxtpx:hr>154</gpxtpx:hr></gpxtpx:TrackPointExtension></extensions>
      </trkpt>
      <trkpt lat="59.9849826" lon="15.8204117">
        <ele>79.2</ele>
        <time>2012-10-30T18:47:00Z</time>
        <extensions><gpxtpx:TrackPointExtension><gpxtpx:hr>154</gpxtpx:hr></gpxtpx:TrackPointExtension></extensions>
      </trkpt>
      <trkpt lat="59.9850039" lon="15.8203856">
        <ele>79.2</ele>
        <time>2012-10-30T18:47:01Z</time>
        <extensions><gpxtpx:TrackPointExtension><gpxtpx:hr>154</gpxtpx:hr></gpxtpx:TrackPointExtension></extensions>
      </trkpt>
      <trkpt lat="59.9850251" lon="15.8203707">
        <ele>79.2</ele>
        <time>2012-10-30T18:47:02Z</time>
        <extensions><gpxtpx:TrackPointExtension><gpxtpx:hr>154</gpxtpx:hr></gpxtpx:TrackPointExtension></extensions>
      </trkpt>
      <trkpt lat="59.9850465" lon="15.8203495">
        <ele>79.2</ele>
        <time>2012-10-30T18:47:03Z</time>
        <extensions><gpxtpx:TrackPointExtension><gpxtpx:hr>154</gpxtpx:hr></gpxtpx:TrackPointExtension></extensions>
      </trkpt>
      <trkpt lat="59.9850706" lon="15.8203288">
        <ele>79.2</ele>
        <time>2012-10-30T18:47:04Z</time>
        <extensions><gpxtpx:TrackPointExtension><gpxtpx:hr>153</gpxtpx:hr></gpxtpx:TrackPointExtension></extensions>
      </trkpt>
      <trkpt lat="59.9850964" lon="15.8203081">
        <ele>79.2</ele>
        <time>2012-10-30T18:47:05Z</time>
        <extensions><gpxtpx:TrackPointExtension><gpxtpx:hr>153</gpxtpx:hr></gpxtpx:TrackPointExtension></extensions>
      </trkpt>
      <trkpt lat="59.9851145" lon="15.8203044">
        <ele>79.2</ele>
        <time>2012-10-30T18:47:06Z</time>
        <extensions><gpxtpx:TrackPointExtension><gpxtpx:hr>153</gpxtpx:hr></gpxtpx:TrackPointExtension></extensions>
      </trkpt>
      <trkpt lat="59.9851455" lon="15.8202925">
        <ele>79.2</ele>
        <time>2012-10-30T18:47:07Z</time>
        <extensions><gpxtpx:TrackPointExtension><gpxtpx:hr>154</gpxtpx:hr></gpxtpx:TrackPointExtension></extensions>
      </trkpt>
      <trkpt lat="59.985161" lon="15.8202876">
        <ele>79.2</ele>
        <time>2012-10-30T18:47:08Z</time>
        <extensions><gpxtpx:TrackPointExtension><gpxtpx:hr>154</gpxtpx:hr></gpxtpx:TrackPointExtension></extensions>
      </trkpt>
      <trkpt lat="59.9851905" lon="15.820279">
        <ele>79.2</ele>
        <time>2012-10-30T18:47:09Z</time>
        <extensions><gpxtpx:TrackPointExtension><gpxtpx:hr>154</gpxtpx:hr></gpxtpx:TrackPointExtension></extensions>
      </trkpt>
      <trkpt lat="59.9852079" lon="15.820278">
        <ele>79.2</ele>
        <time>2012-10-30T18:47:10Z</time>
        <extensions><gpxtpx:TrackPointExtension><gpxtpx:hr>154</gpxtpx:hr></gpxtpx:TrackPointExtension></extensions>
      </trkpt>
      <trkpt lat="59.9852382" lon="15.8202849">
        <ele>79.2</ele>
        <time>2012-10-30T18:47:11Z</time>
        <extensions><gpxtpx:TrackPointExtension><gpxtpx:hr>154</gpxtpx:hr></gpxtpx:TrackPointExtension></extensions>
      </trkpt>
      <trkpt lat="59.9852602" lon="15.8202926">
        <ele>79.2</ele>
        <time>2012-10-30T18:47:12Z</time>
        <extensions><gpxtpx:TrackPointExtension><gpxtpx:hr>155</gpxtpx:hr></gpxtpx:TrackPointExtension></extensions>
      </trkpt>
      <trkpt lat="59.9852842" lon="15.8203026">
        <ele>79.2</ele>
        <time>2012-10-30T18:47:13Z</time>
        <extensions><gpxtpx:TrackPointExtension><gpxtpx:hr>155</gpxtpx:hr></gpxtpx:TrackPointExtension></extensions>
      </trkpt>
      <trkpt lat="59.9853108" lon="15.820309">
        <ele>79.4</ele>
        <time>2012-10-30T18:47:14Z</time>
        <extensions><gpxtpx:TrackPointExtension><gpxtpx:hr>156</gpxtpx:hr></gpxtpx:TrackPointExtension></extensions>
      </trkpt>
      <trkpt lat="59.985337" lon="15.8203136">
        <ele>79.2</ele>
        <time>2012-10-30T18:47:15Z</time>
        <extensions><gpxtpx:TrackPointExtension><gpxtpx:hr>155</gpxtpx:hr></gpxtpx:TrackPointExtension></extensions>
      </trkpt>
      <trkpt lat="59.9853411" lon="15.8203175">
        <ele>79.4</ele>
        <time>2012-10-30T18:47:16Z</time>
        <extensions><gpxtpx:TrackPointExtension><gpxtpx:hr>155</gpxtpx:hr></gpxtpx:TrackPointExtension></extensions>
      </trkpt>
      <trkpt lat="59.9853733" lon="15.8203329">
        <ele>79.2</ele>
        <time>2012-10-30T18:47:17Z</time>
        <extensions><gpxtpx:TrackPointExtension><gpxtpx:hr>155</gpxtpx:hr></gpxtpx:TrackPointExtension></extensions>
      </trkpt>
      <trkpt lat="59.9853953" lon="15.820343">
        <ele>79.4</ele>
        <time>2012-10-30T18:47:18Z</time>
        <extensions><gpxtpx:TrackPointExtension><gpxtpx:hr>154</gpxtpx:hr></gpxtpx:TrackPointExtension></extensions>
      </trkpt>
      <trkpt lat="59.9854256" lon="15.8203468">
        <ele>79.2</ele>
        <time>2012-10-30T18:47:19Z</time>
        <extensions><gpxtpx:TrackPointExtension><gpxtpx:hr>155</gpxtpx:hr></gpxtpx:TrackPointExtension></extensions>
      </trkpt>
      <trkpt lat="59.985446" lon="15.8203442">
        <ele>79.2</ele>
        <time>2012-10-30T18:47:20Z</time>
        <extensions><gpxtpx:TrackPointExtension><gpxtpx:hr>155</gpxtpx:hr></gpxtpx:TrackPointExtension></extensions>
      </trkpt>
      <trkpt lat="59.9854757" lon="15.8203352">
        <ele>79.2</ele>
        <time>2012-10-30T18:47:21Z</time>
        <extensions><gpxtpx:TrackPointExtension><gpxtpx:hr>155</gpxtpx:hr></gpxtpx:TrackPointExtension></extensions>
      </trkpt>
      <trkpt lat="59.9854917" lon="15.820315">
        <ele>79.2</ele>
        <time>2012-10-30T18:47:22Z</time>
        <extensions><gpxtpx:TrackPointExtension><gpxtpx:hr>155</gpxtpx:hr></gpxtpx:TrackPointExtension></extensions>
      </trkpt>
      <trkpt lat="59.9855098" lon="15.8202824">
        <ele>79.2</ele>
        <time>2012-10-30T18:47:23Z</time>
        <extensions><gpxtpx:TrackPointExtension><gpxtpx:hr>155</gpxtpx:hr></gpxtpx:TrackPointExtension></extensions>
      </trkpt>
      <trkpt lat="59.9855252" lon="15.8202513">
        <ele>79.2</ele>
        <time>2012-10-30T18:47:24Z</time>
        <extensions><gpxtpx:TrackPointExtension><gpxtpx:hr>154</gpxtpx:hr></gpxtpx:TrackPointExtension></extensions>
      </trkpt>
      <trkpt lat="59.9855457" lon="15.8202155">
        <ele>79.2</ele>
        <time>2012-10-30T18:47:25Z</time>
        <extensions><gpxtpx:TrackPointExtension><gpxtpx:hr>154</gpxtpx:hr></gpxtpx:TrackPointExtension></extensions>
      </trkpt>
      <trkpt lat="59.9855561" lon="15.820189">
        <ele>79.2</ele>
        <time>2012-10-30T18:47:26Z</time>
        <extensions><gpxtpx:TrackPointExtension><gpxtpx:hr>153</gpxtpx:hr></gpxtpx:TrackPointExtension></extensions>
      </trkpt>
      <trkpt lat="59.9855646" lon="15.8201545">
        <ele>79.2</ele>
        <time>2012-10-30T18:47:27Z</time>
        <extensions><gpxtpx:TrackPointExtension><gpxtpx:hr>153</gpxtpx:hr></gpxtpx:TrackPointExtension></extensions>
      </trkpt>
      <trkpt lat="59.9855842" lon="15.8200385">
        <ele>79.2</ele>
        <time>2012-10-30T18:47:30Z</time>
        <extensions><gpxtpx:TrackPointExtension><gpxtpx:hr>154</gpxtpx:hr></gpxtpx:TrackPointExtension></extensions>
      </trkpt>
      <trkpt lat="59.9856008" lon="15.8200074">
        <ele>79.2</ele>
        <time>2012-10-30T18:47:31Z</time>
        <extensions><gpxtpx:TrackPointExtension><gpxtpx:hr>154</gpxtpx:hr></gpxtpx:TrackPointExtension></extensions>
      </trkpt>
      <trkpt lat="59.9856086" lon="15.8199564">
        <ele>79.4</ele>
        <time>2012-10-30T18:47:32Z</time>
        <extensions><gpxtpx:TrackPointExtension><gpxtpx:hr>154</gpxtpx:hr></gpxtpx:TrackPointExtension></extensions>
      </trkpt>
      <trkpt lat="59.9856167" lon="15.8199113">
        <ele>79.2</ele>
        <time>2012-10-30T18:47:33Z</time>
        <extensions><gpxtpx:TrackPointExtension><gpxtpx:hr>154</gpxtpx:hr></gpxtpx:TrackPointExtension></extensions>
      </trkpt>
      <trkpt lat="59.9856267" lon="15.8198879">
        <ele>79.4</ele>
        <time>2012-10-30T18:47:34Z</time>
        <extensions><gpxtpx:TrackPointExtension><gpxtpx:hr>154</gpxtpx:hr></gpxtpx:TrackPointExtension></extensions>
      </trkpt>
      <trkpt lat="59.9856394" lon="15.8198362">
        <ele>79.2</ele>
        <time>2012-10-30T18:47:35Z</time>
        <extensions><gpxtpx:TrackPointExtension><gpxtpx:hr>154</gpxtpx:hr></gpxtpx:TrackPointExtension></extensions>
      </trkpt>
      <trkpt lat="59.9856452" lon="15.8197983">
        <ele>79.4</ele>
        <time>2012-10-30T18:47:36Z</time>
        <extensions><gpxtpx:TrackPointExtension><gpxtpx:hr>155</gpxtpx:hr></gpxtpx:TrackPointExtension></extensions>
      </trkpt>
      <trkpt lat="59.9856592" lon="15.819753">
        <ele>79.2</ele>
        <time>2012-10-30T18:47:37Z</time>
        <extensions><gpxtpx:TrackPointExtension><gpxtpx:hr>155</gpxtpx:hr></gpxtpx:TrackPointExtension></extensions>
      </trkpt>
      <trkpt lat="59.9856662" lon="15.8197229">
        <ele>79.2</ele>
        <time>2012-10-30T18:47:38Z</time>
        <extensions><gpxtpx:TrackPointExtension><gpxtpx:hr>154</gpxtpx:hr></gpxtpx:TrackPointExtension></extensions>
      </trkpt>
      <trkpt lat="59.9856817" lon="15.8196629">
        <ele>79.2</ele>
        <time>2012-10-30T18:47:39Z</time>
        <extensions><gpxtpx:TrackPointExtension><gpxtpx:hr>154</gpxtpx:hr></gpxtpx:TrackPointExtension></extensions>
      </trkpt>
      <trkpt lat="59.9856878" lon="15.8196334">
        <ele>79.2</ele>
        <time>2012-10-30T18:47:40Z</time>
        <extensions><gpxtpx:TrackPointExtension><gpxtpx:hr>153</gpxtpx:hr></gpxtpx:TrackPointExtension></extensions>
      </trkpt>
      <trkpt lat="59.9856994" lon="15.8195873">
        <ele>79.2</ele>
        <time>2012-10-30T18:47:41Z</time>
        <extensions><gpxtpx:TrackPointExtension><gpxtpx:hr>153</gpxtpx:hr></gpxtpx:TrackPointExtension></extensions>
      </trkpt>
      <trkpt lat="59.985712" lon="15.8195461">
        <ele>79.2</ele>
        <time>2012-10-30T18:47:42Z</time>
        <extensions><gpxtpx:TrackPointExtension><gpxtpx:hr>153</gpxtpx:hr></gpxtpx:TrackPointExtension></extensions>
      </trkpt>
      <trkpt lat="59.9857251" lon="15.8195022">
        <ele>79.2</ele>
        <time>2012-10-30T18:47:43Z</time>
        <extensions><gpxtpx:TrackPointExtension><gpxtpx:hr>154</gpxtpx:hr></gpxtpx:TrackPointExtension></extensions>
      </trkpt>
      <trkpt lat="59.9857375" lon="15.8194683">
        <ele>79.2</ele>
        <time>2012-10-30T18:47:44Z</time>
        <extensions><gpxtpx:TrackPointExtension><gpxtpx:hr>153</gpxtpx:hr></gpxtpx:TrackPointExtension></extensions>
      </trkpt>
      <trkpt lat="59.9857584" lon="15.8194256">
        <ele>79.2</ele>
        <time>2012-10-30T18:47:45Z</time>
        <extensions><gpxtpx:TrackPointExtension><gpxtpx:hr>154</gpxtpx:hr></gpxtpx:TrackPointExtension></extensions>
      </trkpt>
      <trkpt lat="59.985776" lon="15.8194063">
        <ele>79.2</ele>
        <time>2012-10-30T18:47:46Z</time>
        <extensions><gpxtpx:TrackPointExtension><gpxtpx:hr>154</gpxtpx:hr></gpxtpx:TrackPointExtension></extensions>
      </trkpt>
      <trkpt lat="59.985803" lon="15.8193826">
        <ele>79.2</ele>
        <time>2012-10-30T18:47:47Z</time>
        <extensions><gpxtpx:TrackPointExtension><gpxtpx:hr>154</gpxtpx:hr></gpxtpx:TrackPointExtension></extensions>
      </trkpt>
      <trkpt lat="59.985815" lon="15.8193867">
        <ele>79.2</ele>
        <time>2012-10-30T18:47:48Z</time>
        <extensions><gpxtpx:TrackPointExtension><gpxtpx:hr>154</gpxtpx:hr></gpxtpx:TrackPointExtension></extensions>
      </trkpt>
      <trkpt lat="59.9858531" lon="15.8193891">
        <ele>79.2</ele>
        <time>2012-10-30T18:47:49Z</time>
        <extensions><gpxtpx:TrackPointExtension><gpxtpx:hr>155</gpxtpx:hr></gpxtpx:TrackPointExtension></extensions>
      </trkpt>
      <trkpt lat="59.9859032" lon="15.8194099">
        <ele>79.2</ele>
        <time>2012-10-30T18:47:51Z</time>
        <extensions><gpxtpx:TrackPointExtension><gpxtpx:hr>153</gpxtpx:hr></gpxtpx:TrackPointExtension></extensions>
      </trkpt>
      <trkpt lat="59.9859164" lon="15.819417">
        <ele>79.2</ele>
        <time>2012-10-30T18:47:52Z</time>
        <extensions><gpxtpx:TrackPointExtension><gpxtpx:hr>155</gpxtpx:hr></gpxtpx:TrackPointExtension></extensions>
      </trkpt>
      <trkpt lat="59.9859447" lon="15.8194223">
        <ele>79.2</ele>
        <time>2012-10-30T18:47:53Z</time>
        <extensions><gpxtpx:TrackPointExtension><gpxtpx:hr>154</gpxtpx:hr></gpxtpx:TrackPointExtension></extensions>
      </trkpt>
      <trkpt lat="59.9859672" lon="15.8194316">
        <ele>79.2</ele>
        <time>2012-10-30T18:47:54Z</time>
        <extensions><gpxtpx:TrackPointExtension><gpxtpx:hr>155</gpxtpx:hr></gpxtpx:TrackPointExtension></extensions>
      </trkpt>
      <trkpt lat="59.9859919" lon="15.8194435">
        <ele>79.2</ele>
        <time>2012-10-30T18:47:55Z</time>
        <extensions><gpxtpx:TrackPointExtension><gpxtpx:hr>155</gpxtpx:hr></gpxtpx:TrackPointExtension></extensions>
      </trkpt>
      <trkpt lat="59.9860154" lon="15.8194528">
        <ele>79.2</ele>
        <time>2012-10-30T18:47:56Z</time>
        <extensions><gpxtpx:TrackPointExtension><gpxtpx:hr>154</gpxtpx:hr></gpxtpx:TrackPointExtension></extensions>
      </trkpt>
      <trkpt lat="59.9860432" lon="15.8194658">
        <ele>79.2</ele>
        <time>2012-10-30T18:47:57Z</time>
        <extensions><gpxtpx:TrackPointExtension><gpxtpx:hr>156</gpxtpx:hr></gpxtpx:TrackPointExtension></extensions>
      </trkpt>
      <trkpt lat="59.9860665" lon="15.8194761">
        <ele>79.2</ele>
        <time>2012-10-30T18:47:58Z</time>
        <extensions><gpxtpx:TrackPointExtension><gpxtpx:hr>157</gpxtpx:hr></gpxtpx:TrackPointExtension></extensions>
      </trkpt>
      <trkpt lat="59.9860881" lon="15.8194912">
        <ele>79.2</ele>
        <time>2012-10-30T18:47:59Z</time>
        <extensions><gpxtpx:TrackPointExtension><gpxtpx:hr>157</gpxtpx:hr></gpxtpx:TrackPointExtension></extensions>
      </trkpt>
      <trkpt lat="59.9861107" lon="15.8194959">
        <ele>79.2</ele>
        <time>2012-10-30T18:48:00Z</time>
        <extensions><gpxtpx:TrackPointExtension><gpxtpx:hr>157</gpxtpx:hr></gpxtpx:TrackPointExtension></extensions>
      </trkpt>
      <trkpt lat="59.9861338" lon="15.8195101">
        <ele>79.2</ele>
        <time>2012-10-30T18:48:01Z</time>
        <extensions><gpxtpx:TrackPointExtension><gpxtpx:hr>157</gpxtpx:hr></gpxtpx:TrackPointExtension></extensions>
      </trkpt>
      <trkpt lat="59.9861561" lon="15.8195197">
        <ele>79.2</ele>
        <time>2012-10-30T18:48:02Z</time>
        <extensions><gpxtpx:TrackPointExtension><gpxtpx:hr>158</gpxtpx:hr></gpxtpx:TrackPointExtension></extensions>
      </trkpt>
      <trkpt lat="59.9861826" lon="15.8195326">
        <ele>79.2</ele>
        <time>2012-10-30T18:48:03Z</time>
        <extensions><gpxtpx:TrackPointExtension><gpxtpx:hr>158</gpxtpx:hr></gpxtpx:TrackPointExtension></extensions>
      </trkpt>
      <trkpt lat="59.9862036" lon="15.8195446">
        <ele>79.2</ele>
        <time>2012-10-30T18:48:04Z</time>
        <extensions><gpxtpx:TrackPointExtension><gpxtpx:hr>159</gpxtpx:hr></gpxtpx:TrackPointExtension></extensions>
      </trkpt>
      <trkpt lat="59.9862313" lon="15.8195599">
        <ele>79.2</ele>
        <time>2012-10-30T18:48:05Z</time>
        <extensions><gpxtpx:TrackPointExtension><gpxtpx:hr>159</gpxtpx:hr></gpxtpx:TrackPointExtension></extensions>
      </trkpt>
      <trkpt lat="59.9862488" lon="15.8195627">
        <ele>79.2</ele>
        <time>2012-10-30T18:48:06Z</time>
        <extensions><gpxtpx:TrackPointExtension><gpxtpx:hr>159</gpxtpx:hr></gpxtpx:TrackPointExtension></extensions>
      </trkpt>
      <trkpt lat="59.9862763" lon="15.8195782">
        <ele>79.2</ele>
        <time>2012-10-30T18:48:07Z</time>
        <extensions><gpxtpx:TrackPointExtension><gpxtpx:hr>158</gpxtpx:hr></gpxtpx:TrackPointExtension></extensions>
      </trkpt>
      <trkpt lat="59.9862918" lon="15.8195901">
        <ele>79.2</ele>
        <time>2012-10-30T18:48:08Z</time>
        <extensions><gpxtpx:TrackPointExtension><gpxtpx:hr>157</gpxtpx:hr></gpxtpx:TrackPointExtension></extensions>
      </trkpt>
      <trkpt lat="59.9863218" lon="15.81961">
        <ele>79.2</ele>
        <time>2012-10-30T18:48:09Z</time>
        <extensions><gpxtpx:TrackPointExtension><gpxtpx:hr>157</gpxtpx:hr></gpxtpx:TrackPointExtension></extensions>
      </trkpt>
      <trkpt lat="59.9863398" lon="15.8196175">
        <ele>79.2</ele>
        <time>2012-10-30T18:48:10Z</time>
        <extensions><gpxtpx:TrackPointExtension><gpxtpx:hr>156</gpxtpx:hr></gpxtpx:TrackPointExtension></extensions>
      </trkpt>
      <trkpt lat="59.986367" lon="15.8196298">
        <ele>79.4</ele>
        <time>2012-10-30T18:48:11Z</time>
        <extensions><gpxtpx:TrackPointExtension><gpxtpx:hr>157</gpxtpx:hr></gpxtpx:TrackPointExtension></extensions>
      </trkpt>
      <trkpt lat="59.9863902" lon="15.8196336">
        <ele>82.2</ele>
        <time>2012-10-30T18:48:12Z</time>
        <extensions><gpxtpx:TrackPointExtension><gpxtpx:hr>158</gpxtpx:hr></gpxtpx:TrackPointExtension></extensions>
      </trkpt>
      <trkpt lat="59.9864309" lon="15.8196458">
        <ele>82.4</ele>
        <time>2012-10-30T18:48:14Z</time>
        <extensions><gpxtpx:TrackPointExtension><gpxtpx:hr>157</gpxtpx:hr></gpxtpx:TrackPointExtension></extensions>
      </trkpt>
      <trkpt lat="59.9864591" lon="15.8196576">
        <ele>82.2</ele>
        <time>2012-10-30T18:48:15Z</time>
        <extensions><gpxtpx:TrackPointExtension><gpxtpx:hr>156</gpxtpx:hr></gpxtpx:TrackPointExtension></extensions>
      </trkpt>
      <trkpt lat="59.9864752" lon="15.8196667">
        <ele>82.4</ele>
        <time>2012-10-30T18:48:16Z</time>
        <extensions><gpxtpx:TrackPointExtension><gpxtpx:hr>153</gpxtpx:hr></gpxtpx:TrackPointExtension></extensions>
      </trkpt>
      <trkpt lat="59.9865017" lon="15.8196813">
        <ele>83.4</ele>
        <time>2012-10-30T18:48:17Z</time>
        <extensions><gpxtpx:TrackPointExtension><gpxtpx:hr>154</gpxtpx:hr></gpxtpx:TrackPointExtension></extensions>
      </trkpt>
      <trkpt lat="59.9865671" lon="15.8196978">
        <ele>83.4</ele>
        <time>2012-10-30T18:48:20Z</time>
        <extensions><gpxtpx:TrackPointExtension><gpxtpx:hr>154</gpxtpx:hr></gpxtpx:TrackPointExtension></extensions>
      </trkpt>
      <trkpt lat="59.9866421" lon="15.8196546">
        <ele>83.4</ele>
        <time>2012-10-30T18:48:24Z</time>
        <extensions><gpxtpx:TrackPointExtension><gpxtpx:hr>155</gpxtpx:hr></gpxtpx:TrackPointExtension></extensions>
      </trkpt>
      <trkpt lat="59.9866458" lon="15.8196133">
        <ele>83.4</ele>
        <time>2012-10-30T18:48:25Z</time>
        <extensions><gpxtpx:TrackPointExtension><gpxtpx:hr>155</gpxtpx:hr></gpxtpx:TrackPointExtension></extensions>
      </trkpt>
      <trkpt lat="59.9866405" lon="15.8195766">
        <ele>83.4</ele>
        <time>2012-10-30T18:48:26Z</time>
        <extensions><gpxtpx:TrackPointExtension><gpxtpx:hr>155</gpxtpx:hr></gpxtpx:TrackPointExtension></extensions>
      </trkpt>
      <trkpt lat="59.9866336" lon="15.8195286">
        <ele>83.4</ele>
        <time>2012-10-30T18:48:27Z</time>
        <extensions><gpxtpx:TrackPointExtension><gpxtpx:hr>154</gpxtpx:hr></gpxtpx:TrackPointExtension></extensions>
      </trkpt>
      <trkpt lat="59.9866326" lon="15.8195121">
        <ele>83.4</ele>
        <time>2012-10-30T18:48:28Z</time>
        <extensions><gpxtpx:TrackPointExtension><gpxtpx:hr>154</gpxtpx:hr></gpxtpx:TrackPointExtension></extensions>
      </trkpt>
      <trkpt lat="59.9866259" lon="15.8194064">
        <ele>84.4</ele>
        <time>2012-10-30T18:48:30Z</time>
        <extensions><gpxtpx:TrackPointExtension><gpxtpx:hr>154</gpxtpx:hr></gpxtpx:TrackPointExtension></extensions>
      </trkpt>
      <trkpt lat="59.9866233" lon="15.8193042">
        <ele>84.4</ele>
        <time>2012-10-30T18:48:32Z</time>
        <extensions><gpxtpx:TrackPointExtension><gpxtpx:hr>154</gpxtpx:hr></gpxtpx:TrackPointExtension></extensions>
      </trkpt>
      <trkpt lat="59.9866192" lon="15.8192482">
        <ele>84.4</ele>
        <time>2012-10-30T18:48:33Z</time>
        <extensions><gpxtpx:TrackPointExtension><gpxtpx:hr>154</gpxtpx:hr></gpxtpx:TrackPointExtension></extensions>
      </trkpt>
      <trkpt lat="59.9866162" lon="15.8192049">
        <ele>84.4</ele>
        <time>2012-10-30T18:48:34Z</time>
        <extensions><gpxtpx:TrackPointExtension><gpxtpx:hr>155</gpxtpx:hr></gpxtpx:TrackPointExtension></extensions>
      </trkpt>
      <trkpt lat="59.9866128" lon="15.8191515">
        <ele>84.4</ele>
        <time>2012-10-30T18:48:35Z</time>
        <extensions><gpxtpx:TrackPointExtension><gpxtpx:hr>156</gpxtpx:hr></gpxtpx:TrackPointExtension></extensions>
      </trkpt>
      <trkpt lat="59.9866123" lon="15.819106">
        <ele>84.4</ele>
        <time>2012-10-30T18:48:36Z</time>
        <extensions><gpxtpx:TrackPointExtension><gpxtpx:hr>156</gpxtpx:hr></gpxtpx:TrackPointExtension></extensions>
      </trkpt>
      <trkpt lat="59.9866055" lon="15.8190485">
        <ele>84.4</ele>
        <time>2012-10-30T18:48:37Z</time>
        <extensions><gpxtpx:TrackPointExtension><gpxtpx:hr>155</gpxtpx:hr></gpxtpx:TrackPointExtension></extensions>
      </trkpt>
      <trkpt lat="59.9866039" lon="15.8190223">
        <ele>84.6</ele>
        <time>2012-10-30T18:48:38Z</time>
        <extensions><gpxtpx:TrackPointExtension><gpxtpx:hr>154</gpxtpx:hr></gpxtpx:TrackPointExtension></extensions>
      </trkpt>
      <trkpt lat="59.9865981" lon="15.8189488">
        <ele>84.4</ele>
        <time>2012-10-30T18:48:39Z</time>
        <extensions><gpxtpx:TrackPointExtension><gpxtpx:hr>153</gpxtpx:hr></gpxtpx:TrackPointExtension></extensions>
      </trkpt>
      <trkpt lat="59.9865924" lon="15.8189098">
        <ele>84.4</ele>
        <time>2012-10-30T18:48:40Z</time>
        <extensions><gpxtpx:TrackPointExtension><gpxtpx:hr>153</gpxtpx:hr></gpxtpx:TrackPointExtension></extensions>
      </trkpt>
      <trkpt lat="59.9865877" lon="15.8188478">
        <ele>84.4</ele>
        <time>2012-10-30T18:48:41Z</time>
        <extensions><gpxtpx:TrackPointExtension><gpxtpx:hr>153</gpxtpx:hr></gpxtpx:TrackPointExtension></extensions>
      </trkpt>
      <trkpt lat="59.9865866" lon="15.8188031">
        <ele>84.4</ele>
        <time>2012-10-30T18:48:42Z</time>
        <extensions><gpxtpx:TrackPointExtension><gpxtpx:hr>153</gpxtpx:hr></gpxtpx:TrackPointExtension></extensions>
      </trkpt>
      <trkpt lat="59.9865836" lon="15.8187463">
        <ele>84.4</ele>
        <time>2012-10-30T18:48:43Z</time>
        <extensions><gpxtpx:TrackPointExtension><gpxtpx:hr>155</gpxtpx:hr></gpxtpx:TrackPointExtension></extensions>
      </trkpt>
      <trkpt lat="59.9865814" lon="15.8187042">
        <ele>84.4</ele>
        <time>2012-10-30T18:48:44Z</time>
        <extensions><gpxtpx:TrackPointExtension><gpxtpx:hr>154</gpxtpx:hr></gpxtpx:TrackPointExtension></extensions>
      </trkpt>
      <trkpt lat="59.9865766" lon="15.8186484">
        <ele>84.4</ele>
        <time>2012-10-30T18:48:45Z</time>
        <extensions><gpxtpx:TrackPointExtension><gpxtpx:hr>154</gpxtpx:hr></gpxtpx:TrackPointExtension></extensions>
      </trkpt>
      <trkpt lat="59.9865681" lon="15.8185539">
        <ele>84.4</ele>
        <time>2012-10-30T18:48:47Z</time>
        <extensions><gpxtpx:TrackPointExtension><gpxtpx:hr>156</gpxtpx:hr></gpxtpx:TrackPointExtension></extensions>
      </trkpt>
      <trkpt lat="59.9865669" lon="15.8185165">
        <ele>84.4</ele>
        <time>2012-10-30T18:48:48Z</time>
        <extensions><gpxtpx:TrackPointExtension><gpxtpx:hr>157</gpxtpx:hr></gpxtpx:TrackPointExtension></extensions>
      </trkpt>
      <trkpt lat="59.9865645" lon="15.8184373">
        <ele>84.4</ele>
        <time>2012-10-30T18:48:49Z</time>
        <extensions><gpxtpx:TrackPointExtension><gpxtpx:hr>156</gpxtpx:hr></gpxtpx:TrackPointExtension></extensions>
      </trkpt>
      <trkpt lat="59.9865627" lon="15.8183941">
        <ele>84.4</ele>
        <time>2012-10-30T18:48:50Z</time>
        <extensions><gpxtpx:TrackPointExtension><gpxtpx:hr>156</gpxtpx:hr></gpxtpx:TrackPointExtension></extensions>
      </trkpt>
      <trkpt lat="59.9865669" lon="15.8183444">
        <ele>84.4</ele>
        <time>2012-10-30T18:48:51Z</time>
        <extensions><gpxtpx:TrackPointExtension><gpxtpx:hr>156</gpxtpx:hr></gpxtpx:TrackPointExtension></extensions>
      </trkpt>
      <trkpt lat="59.9865725" lon="15.8182989">
        <ele>84.4</ele>
        <time>2012-10-30T18:48:52Z</time>
        <extensions><gpxtpx:TrackPointExtension><gpxtpx:hr>155</gpxtpx:hr></gpxtpx:TrackPointExtension></extensions>
      </trkpt>
      <trkpt lat="59.9865858" lon="15.8182479">
        <ele>84.4</ele>
        <time>2012-10-30T18:48:53Z</time>
        <extensions><gpxtpx:TrackPointExtension><gpxtpx:hr>154</gpxtpx:hr></gpxtpx:TrackPointExtension></extensions>
      </trkpt>
      <trkpt lat="59.9865954" lon="15.8182098">
        <ele>84.4</ele>
        <time>2012-10-30T18:48:54Z</time>
        <extensions><gpxtpx:TrackPointExtension><gpxtpx:hr>153</gpxtpx:hr></gpxtpx:TrackPointExtension></extensions>
      </trkpt>
      <trkpt lat="59.9866121" lon="15.8181635">
        <ele>84.4</ele>
        <time>2012-10-30T18:48:55Z</time>
        <extensions><gpxtpx:TrackPointExtension><gpxtpx:hr>153</gpxtpx:hr></gpxtpx:TrackPointExtension></extensions>
      </trkpt>
      <trkpt lat="59.9866301" lon="15.8181185">
        <ele>84.4</ele>
        <time>2012-10-30T18:48:56Z</time>
        <extensions><gpxtpx:TrackPointExtension><gpxtpx:hr>152</gpxtpx:hr></gpxtpx:TrackPointExtension></extensions>
      </trkpt>
      <trkpt lat="59.9866435" lon="15.8180785">
        <ele>84.4</ele>
        <time>2012-10-30T18:48:57Z</time>
        <extensions><gpxtpx:TrackPointExtension><gpxtpx:hr>152</gpxtpx:hr></gpxtpx:TrackPointExtension></extensions>
      </trkpt>
      <trkpt lat="59.9866496" lon="15.8180628">
        <ele>84.4</ele>
        <time>2012-10-30T18:48:58Z</time>
        <extensions><gpxtpx:TrackPointExtension><gpxtpx:hr>153</gpxtpx:hr></gpxtpx:TrackPointExtension></extensions>
      </trkpt>
      <trkpt lat="59.9866749" lon="15.8179979">
        <ele>84.4</ele>
        <time>2012-10-30T18:48:59Z</time>
        <extensions><gpxtpx:TrackPointExtension><gpxtpx:hr>154</gpxtpx:hr></gpxtpx:TrackPointExtension></extensions>
      </trkpt>
      <trkpt lat="59.9866984" lon="15.8179256">
        <ele>84.4</ele>
        <time>2012-10-30T18:49:01Z</time>
        <extensions><gpxtpx:TrackPointExtension><gpxtpx:hr>155</gpxtpx:hr></gpxtpx:TrackPointExtension></extensions>
      </trkpt>
      <trkpt lat="59.9867149" lon="15.8178823">
        <ele>84.4</ele>
        <time>2012-10-30T18:49:02Z</time>
        <extensions><gpxtpx:TrackPointExtension><gpxtpx:hr>155</gpxtpx:hr></gpxtpx:TrackPointExtension></extensions>
      </trkpt>
      <trkpt lat="59.9867301" lon="15.8178376">
        <ele>84.4</ele>
        <time>2012-10-30T18:49:03Z</time>
        <extensions><gpxtpx:TrackPointExtension><gpxtpx:hr>154</gpxtpx:hr></gpxtpx:TrackPointExtension></extensions>
      </trkpt>
      <trkpt lat="59.9867405" lon="15.8178073">
        <ele>84.4</ele>
        <time>2012-10-30T18:49:04Z</time>
        <extensions><gpxtpx:TrackPointExtension><gpxtpx:hr>153</gpxtpx:hr></gpxtpx:TrackPointExtension></extensions>
      </trkpt>
      <trkpt lat="59.9867554" lon="15.817758">
        <ele>84.4</ele>
        <time>2012-10-30T18:49:05Z</time>
        <extensions><gpxtpx:TrackPointExtension><gpxtpx:hr>153</gpxtpx:hr></gpxtpx:TrackPointExtension></extensions>
      </trkpt>
      <trkpt lat="59.9867663" lon="15.8177201">
        <ele>84.4</ele>
        <time>2012-10-30T18:49:06Z</time>
        <extensions><gpxtpx:TrackPointExtension><gpxtpx:hr>152</gpxtpx:hr></gpxtpx:TrackPointExtension></extensions>
      </trkpt>
      <trkpt lat="59.9867803" lon="15.8176725">
        <ele>84.4</ele>
        <time>2012-10-30T18:49:07Z</time>
        <extensions><gpxtpx:TrackPointExtension><gpxtpx:hr>152</gpxtpx:hr></gpxtpx:TrackPointExtension></extensions>
      </trkpt>
      <trkpt lat="59.9868019" lon="15.8175756">
        <ele>84.4</ele>
        <time>2012-10-30T18:49:09Z</time>
        <extensions><gpxtpx:TrackPointExtension><gpxtpx:hr>155</gpxtpx:hr></gpxtpx:TrackPointExtension></extensions>
      </trkpt>
      <trkpt lat="59.9868085" lon="15.817539">
        <ele>84.4</ele>
        <time>2012-10-30T18:49:10Z</time>
        <extensions><gpxtpx:TrackPointExtension><gpxtpx:hr>156</gpxtpx:hr></gpxtpx:TrackPointExtension></extensions>
      </trkpt>
      <trkpt lat="59.9868196" lon="15.8174777">
        <ele>84.4</ele>
        <time>2012-10-30T18:49:11Z</time>
        <extensions><gpxtpx:TrackPointExtension><gpxtpx:hr>156</gpxtpx:hr></gpxtpx:TrackPointExtension></extensions>
      </trkpt>
      <trkpt lat="59.9868457" lon="15.8172509">
        <ele>84.4</ele>
        <time>2012-10-30T18:49:16Z</time>
        <extensions><gpxtpx:TrackPointExtension><gpxtpx:hr>153</gpxtpx:hr></gpxtpx:TrackPointExtension></extensions>
      </trkpt>
      <trkpt lat="59.9868483" lon="15.8172016">
        <ele>84.4</ele>
        <time>2012-10-30T18:49:17Z</time>
        <extensions><gpxtpx:TrackPointExtension><gpxtpx:hr>153</gpxtpx:hr></gpxtpx:TrackPointExtension></extensions>
      </trkpt>
      <trkpt lat="59.9868495" lon="15.8171548">
        <ele>84.4</ele>
        <time>2012-10-30T18:49:18Z</time>
        <extensions><gpxtpx:TrackPointExtension><gpxtpx:hr>154</gpxtpx:hr></gpxtpx:TrackPointExtension></extensions>
      </trkpt>
      <trkpt lat="59.9868504" lon="15.81711">
        <ele>84.4</ele>
        <time>2012-10-30T18:49:19Z</time>
        <extensions><gpxtpx:TrackPointExtension><gpxtpx:hr>154</gpxtpx:hr></gpxtpx:TrackPointExtension></extensions>
      </trkpt>
      <trkpt lat="59.9868516" lon="15.8170659">
        <ele>84.4</ele>
        <time>2012-10-30T18:49:20Z</time>
        <extensions><gpxtpx:TrackPointExtension><gpxtpx:hr>154</gpxtpx:hr></gpxtpx:TrackPointExtension></extensions>
      </trkpt>
      <trkpt lat="59.9868534" lon="15.8170259">
        <ele>84.4</ele>
        <time>2012-10-30T18:49:21Z</time>
        <extensions><gpxtpx:TrackPointExtension><gpxtpx:hr>154</gpxtpx:hr></gpxtpx:TrackPointExtension></extensions>
      </trkpt>
      <trkpt lat="59.9868534" lon="15.8169972">
        <ele>84.4</ele>
        <time>2012-10-30T18:49:22Z</time>
        <extensions><gpxtpx:TrackPointExtension><gpxtpx:hr>154</gpxtpx:hr></gpxtpx:TrackPointExtension></extensions>
      </trkpt>
      <trkpt lat="59.9868551" lon="15.8169053">
        <ele>84.4</ele>
        <time>2012-10-30T18:49:24Z</time>
        <extensions><gpxtpx:TrackPointExtension><gpxtpx:hr>153</gpxtpx:hr></gpxtpx:TrackPointExtension></extensions>
      </trkpt>
      <trkpt lat="59.9868572" lon="15.8168501">
        <ele>84.4</ele>
        <time>2012-10-30T18:49:25Z</time>
        <extensions><gpxtpx:TrackPointExtension><gpxtpx:hr>154</gpxtpx:hr></gpxtpx:TrackPointExtension></extensions>
      </trkpt>
      <trkpt lat="59.9868573" lon="15.816765">
        <ele>84.4</ele>
        <time>2012-10-30T18:49:27Z</time>
        <extensions><gpxtpx:TrackPointExtension><gpxtpx:hr>154</gpxtpx:hr></gpxtpx:TrackPointExtension></extensions>
      </trkpt>
      <trkpt lat="59.9868539" lon="15.8167232">
        <ele>84.4</ele>
        <time>2012-10-30T18:49:28Z</time>
        <extensions><gpxtpx:TrackPointExtension><gpxtpx:hr>154</gpxtpx:hr></gpxtpx:TrackPointExtension></extensions>
      </trkpt>
      <trkpt lat="59.9868528" lon="15.8166731">
        <ele>84.4</ele>
        <time>2012-10-30T18:49:29Z</time>
        <extensions><gpxtpx:TrackPointExtension><gpxtpx:hr>154</gpxtpx:hr></gpxtpx:TrackPointExtension></extensions>
      </trkpt>
      <trkpt lat="59.9868523" lon="15.8166277">
        <ele>84.4</ele>
        <time>2012-10-30T18:49:30Z</time>
        <extensions><gpxtpx:TrackPointExtension><gpxtpx:hr>154</gpxtpx:hr></gpxtpx:TrackPointExtension></extensions>
      </trkpt>
      <trkpt lat="59.9868516" lon="15.8165821">
        <ele>84.4</ele>
        <time>2012-10-30T18:49:31Z</time>
        <extensions><gpxtpx:TrackPointExtension><gpxtpx:hr>153</gpxtpx:hr></gpxtpx:TrackPointExtension></extensions>
      </trkpt>
      <trkpt lat="59.9868488" lon="15.8165315">
        <ele>84.4</ele>
        <time>2012-10-30T18:49:32Z</time>
        <extensions><gpxtpx:TrackPointExtension><gpxtpx:hr>153</gpxtpx:hr></gpxtpx:TrackPointExtension></extensions>
      </trkpt>
      <trkpt lat="59.986848" lon="15.8164851">
        <ele>84.4</ele>
        <time>2012-10-30T18:49:33Z</time>
        <extensions><gpxtpx:TrackPointExtension><gpxtpx:hr>152</gpxtpx:hr></gpxtpx:TrackPointExtension></extensions>
      </trkpt>
      <trkpt lat="59.9868444" lon="15.8164303">
        <ele>84.4</ele>
        <time>2012-10-30T18:49:34Z</time>
        <extensions><gpxtpx:TrackPointExtension><gpxtpx:hr>151</gpxtpx:hr></gpxtpx:TrackPointExtension></extensions>
      </trkpt>
      <trkpt lat="59.9868426" lon="15.8163866">
        <ele>84.4</ele>
        <time>2012-10-30T18:49:35Z</time>
        <extensions><gpxtpx:TrackPointExtension><gpxtpx:hr>151</gpxtpx:hr></gpxtpx:TrackPointExtension></extensions>
      </trkpt>
      <trkpt lat="59.9868412" lon="15.8163519">
        <ele>84.4</ele>
        <time>2012-10-30T18:49:36Z</time>
        <extensions><gpxtpx:TrackPointExtension><gpxtpx:hr>153</gpxtpx:hr></gpxtpx:TrackPointExtension></extensions>
      </trkpt>
      <trkpt lat="59.9868394" lon="15.8163004">
        <ele>84.4</ele>
        <time>2012-10-30T18:49:37Z</time>
        <extensions><gpxtpx:TrackPointExtension><gpxtpx:hr>152</gpxtpx:hr></gpxtpx:TrackPointExtension></extensions>
      </trkpt>
      <trkpt lat="59.9868356" lon="15.8162728">
        <ele>84.4</ele>
        <time>2012-10-30T18:49:38Z</time>
        <extensions><gpxtpx:TrackPointExtension><gpxtpx:hr>152</gpxtpx:hr></gpxtpx:TrackPointExtension></extensions>
      </trkpt>
      <trkpt lat="59.9868305" lon="15.8162248">
        <ele>84.4</ele>
        <time>2012-10-30T18:49:39Z</time>
        <extensions><gpxtpx:TrackPointExtension><gpxtpx:hr>152</gpxtpx:hr></gpxtpx:TrackPointExtension></extensions>
      </trkpt>
      <trkpt lat="59.9868264" lon="15.8161983">
        <ele>84.4</ele>
        <time>2012-10-30T18:49:40Z</time>
        <extensions><gpxtpx:TrackPointExtension><gpxtpx:hr>152</gpxtpx:hr></gpxtpx:TrackPointExtension></extensions>
      </trkpt>
      <trkpt lat="59.986807" lon="15.8161164">
        <ele>84.4</ele>
        <time>2012-10-30T18:49:42Z</time>
        <extensions><gpxtpx:TrackPointExtension><gpxtpx:hr>152</gpxtpx:hr></gpxtpx:TrackPointExtension></extensions>
      </trkpt>
      <trkpt lat="59.9867919" lon="15.8160986">
        <ele>84.4</ele>
        <time>2012-10-30T18:49:43Z</time>
        <extensions><gpxtpx:TrackPointExtension><gpxtpx:hr>152</gpxtpx:hr></gpxtpx:TrackPointExtension></extensions>
      </trkpt>
      <trkpt lat="59.9867787" lon="15.8160947">
        <ele>84.4</ele>
        <time>2012-10-30T18:49:44Z</time>
        <extensions><gpxtpx:TrackPointExtension><gpxtpx:hr>151</gpxtpx:hr></gpxtpx:TrackPointExtension></extensions>
      </trkpt>
      <trkpt lat="59.986766" lon="15.8160903">
        <ele>84.4</ele>
        <time>2012-10-30T18:49:45Z</time>
        <extensions><gpxtpx:TrackPointExtension><gpxtpx:hr>151</gpxtpx:hr></gpxtpx:TrackPointExtension></extensions>
      </trkpt>
      <trkpt lat="59.9867584" lon="15.8160948">
        <ele>84.4</ele>
        <time>2012-10-30T18:49:46Z</time>
        <extensions><gpxtpx:TrackPointExtension><gpxtpx:hr>150</gpxtpx:hr></gpxtpx:TrackPointExtension></extensions>
      </trkpt>
      <trkpt lat="59.9867343" lon="15.8161042">
        <ele>84.4</ele>
        <time>2012-10-30T18:49:47Z</time>
        <extensions><gpxtpx:TrackPointExtension><gpxtpx:hr>150</gpxtpx:hr></gpxtpx:TrackPointExtension></extensions>
      </trkpt>
      <trkpt lat="59.9867209" lon="15.8161148">
        <ele>84.4</ele>
        <time>2012-10-30T18:49:48Z</time>
        <extensions><gpxtpx:TrackPointExtension><gpxtpx:hr>150</gpxtpx:hr></gpxtpx:TrackPointExtension></extensions>
      </trkpt>
      <trkpt lat="59.9866948" lon="15.816136">
        <ele>84.4</ele>
        <time>2012-10-30T18:49:49Z</time>
        <extensions><gpxtpx:TrackPointExtension><gpxtpx:hr>150</gpxtpx:hr></gpxtpx:TrackPointExtension></extensions>
      </trkpt>
      <trkpt lat="59.9866814" lon="15.8161498">
        <ele>84.4</ele>
        <time>2012-10-30T18:49:50Z</time>
        <extensions><gpxtpx:TrackPointExtension><gpxtpx:hr>150</gpxtpx:hr></gpxtpx:TrackPointExtension></extensions>
      </trkpt>
      <trkpt lat="59.9866518" lon="15.8161728">
        <ele>84.4</ele>
        <time>2012-10-30T18:49:51Z</time>
        <extensions><gpxtpx:TrackPointExtension><gpxtpx:hr>151</gpxtpx:hr></gpxtpx:TrackPointExtension></extensions>
      </trkpt>
      <trkpt lat="59.9866358" lon="15.8162048">
        <ele>84.4</ele>
        <time>2012-10-30T18:49:53Z</time>
        <extensions><gpxtpx:TrackPointExtension><gpxtpx:hr>151</gpxtpx:hr></gpxtpx:TrackPointExtension></extensions>
      </trkpt>
      <trkpt lat="59.986635" lon="15.816208">
        <ele>84.4</ele>
        <time>2012-10-30T18:49:54Z</time>
        <extensions><gpxtpx:TrackPointExtension><gpxtpx:hr>151</gpxtpx:hr></gpxtpx:TrackPointExtension></extensions>
      </trkpt>
      <trkpt lat="59.9866088" lon="15.8162255">
        <ele>84.4</ele>
        <time>2012-10-30T18:50:03Z</time>
        <extensions><gpxtpx:TrackPointExtension><gpxtpx:hr>148</gpxtpx:hr></gpxtpx:TrackPointExtension></extensions>
      </trkpt>
      <trkpt lat="59.9865869" lon="15.8162386">
        <ele>84.4</ele>
        <time>2012-10-30T18:50:04Z</time>
        <extensions><gpxtpx:TrackPointExtension><gpxtpx:hr>148</gpxtpx:hr></gpxtpx:TrackPointExtension></extensions>
      </trkpt>
      <trkpt lat="59.9865604" lon="15.8162588">
        <ele>84.4</ele>
        <time>2012-10-30T18:50:05Z</time>
        <extensions><gpxtpx:TrackPointExtension><gpxtpx:hr>148</gpxtpx:hr></gpxtpx:TrackPointExtension></extensions>
      </trkpt>
      <trkpt lat="59.986542" lon="15.8162749">
        <ele>84.4</ele>
        <time>2012-10-30T18:50:06Z</time>
        <extensions><gpxtpx:TrackPointExtension><gpxtpx:hr>148</gpxtpx:hr></gpxtpx:TrackPointExtension></extensions>
      </trkpt>
      <trkpt lat="59.9865146" lon="15.8162964">
        <ele>84.4</ele>
        <time>2012-10-30T18:50:07Z</time>
        <extensions><gpxtpx:TrackPointExtension><gpxtpx:hr>150</gpxtpx:hr></gpxtpx:TrackPointExtension></extensions>
      </trkpt>
      <trkpt lat="59.9864957" lon="15.8163141">
        <ele>84.4</ele>
        <time>2012-10-30T18:50:08Z</time>
        <extensions><gpxtpx:TrackPointExtension><gpxtpx:hr>150</gpxtpx:hr></gpxtpx:TrackPointExtension></extensions>
      </trkpt>
      <trkpt lat="59.9864685" lon="15.8163381">
        <ele>84.4</ele>
        <time>2012-10-30T18:50:09Z</time>
        <extensions><gpxtpx:TrackPointExtension><gpxtpx:hr>149</gpxtpx:hr></gpxtpx:TrackPointExtension></extensions>
      </trkpt>
      <trkpt lat="59.986417" lon="15.816374">
        <ele>84.4</ele>
        <time>2012-10-30T18:50:11Z</time>
        <extensions><gpxtpx:TrackPointExtension><gpxtpx:hr>148</gpxtpx:hr></gpxtpx:TrackPointExtension></extensions>
      </trkpt>
      <trkpt lat="59.9863957" lon="15.8163923">
        <ele>84.4</ele>
        <time>2012-10-30T18:50:12Z</time>
        <extensions><gpxtpx:TrackPointExtension><gpxtpx:hr>148</gpxtpx:hr></gpxtpx:TrackPointExtension></extensions>
      </trkpt>
      <trkpt lat="59.9863722" lon="15.8164094">
        <ele>84.4</ele>
        <time>2012-10-30T18:50:13Z</time>
        <extensions><gpxtpx:TrackPointExtension><gpxtpx:hr>149</gpxtpx:hr></gpxtpx:TrackPointExtension></extensions>
      </trkpt>
      <trkpt lat="59.9863415" lon="15.8164338">
        <ele>84.4</ele>
        <time>2012-10-30T18:50:14Z</time>
        <extensions><gpxtpx:TrackPointExtension><gpxtpx:hr>149</gpxtpx:hr></gpxtpx:TrackPointExtension></extensions>
      </trkpt>
      <trkpt lat="59.9863171" lon="15.8164541">
        <ele>84.4</ele>
        <time>2012-10-30T18:50:15Z</time>
        <extensions><gpxtpx:TrackPointExtension><gpxtpx:hr>149</gpxtpx:hr></gpxtpx:TrackPointExtension></extensions>
      </trkpt>
      <trkpt lat="59.9863098" lon="15.8164577">
        <ele>84.4</ele>
        <time>2012-10-30T18:50:16Z</time>
        <extensions><gpxtpx:TrackPointExtension><gpxtpx:hr>148</gpxtpx:hr></gpxtpx:TrackPointExtension></extensions>
      </trkpt>
      <trkpt lat="59.9862727" lon="15.8164818">
        <ele>84.4</ele>
        <time>2012-10-30T18:50:17Z</time>
        <extensions><gpxtpx:TrackPointExtension><gpxtpx:hr>147</gpxtpx:hr></gpxtpx:TrackPointExtension></extensions>
      </trkpt>
      <trkpt lat="59.9862514" lon="15.816495">
        <ele>84.4</ele>
        <time>2012-10-30T18:50:18Z</time>
        <extensions><gpxtpx:TrackPointExtension><gpxtpx:hr>147</gpxtpx:hr></gpxtpx:TrackPointExtension></extensions>
      </trkpt>
      <trkpt lat="59.9862208" lon="15.8165047">
        <ele>84.4</ele>
        <time>2012-10-30T18:50:19Z</time>
        <extensions><gpxtpx:TrackPointExtension><gpxtpx:hr>149</gpxtpx:hr></gpxtpx:TrackPointExtension></extensions>
      </trkpt>
      <trkpt lat="59.9862003" lon="15.8165069">
        <ele>84.4</ele>
        <time>2012-10-30T18:50:20Z</time>
        <extensions><gpxtpx:TrackPointExtension><gpxtpx:hr>149</gpxtpx:hr></gpxtpx:TrackPointExtension></extensions>
      </trkpt>
      <trkpt lat="59.9861722" lon="15.8165158">
        <ele>84.4</ele>
        <time>2012-10-30T18:50:21Z</time>
        <extensions><gpxtpx:TrackPointExtension><gpxtpx:hr>148</gpxtpx:hr></gpxtpx:TrackPointExtension></extensions>
      </trkpt>
      <trkpt lat="59.9861511" lon="15.8165166">
        <ele>84.4</ele>
        <time>2012-10-30T18:50:22Z</time>
        <extensions><gpxtpx:TrackPointExtension><gpxtpx:hr>147</gpxtpx:hr></gpxtpx:TrackPointExtension></extensions>
      </trkpt>
      <trkpt lat="59.9860947" lon="15.8165142">
        <ele>84.4</ele>
        <time>2012-10-30T18:50:24Z</time>
        <extensions><gpxtpx:TrackPointExtension><gpxtpx:hr>147</gpxtpx:hr></gpxtpx:TrackPointExtension></extensions>
      </trkpt>
      <trkpt lat="59.9860655" lon="15.816508">
        <ele>84.4</ele>
        <time>2012-10-30T18:50:25Z</time>
        <extensions><gpxtpx:TrackPointExtension><gpxtpx:hr>147</gpxtpx:hr></gpxtpx:TrackPointExtension></extensions>
      </trkpt>
      <trkpt lat="59.9860452" lon="15.816501">
        <ele>84.4</ele>
        <time>2012-10-30T18:50:26Z</time>
        <extensions><gpxtpx:TrackPointExtension><gpxtpx:hr>147</gpxtpx:hr></gpxtpx:TrackPointExtension></extensions>
      </trkpt>
      <trkpt lat="59.9860159" lon="15.8164983">
        <ele>84.4</ele>
        <time>2012-10-30T18:50:27Z</time>
        <extensions><gpxtpx:TrackPointExtension><gpxtpx:hr>146</gpxtpx:hr></gpxtpx:TrackPointExtension></extensions>
      </trkpt>
      <trkpt lat="59.9859914" lon="15.8164957">
        <ele>84.2</ele>
        <time>2012-10-30T18:50:28Z</time>
        <extensions><gpxtpx:TrackPointExtension><gpxtpx:hr>146</gpxtpx:hr></gpxtpx:TrackPointExtension></extensions>
      </trkpt>
      <trkpt lat="59.9859701" lon="15.8164826">
        <ele>84.4</ele>
        <time>2012-10-30T18:50:29Z</time>
        <extensions><gpxtpx:TrackPointExtension><gpxtpx:hr>146</gpxtpx:hr></gpxtpx:TrackPointExtension></extensions>
      </trkpt>
      <trkpt lat="59.9859524" lon="15.8164744">
        <ele>84.4</ele>
        <time>2012-10-30T18:50:30Z</time>
        <extensions><gpxtpx:TrackPointExtension><gpxtpx:hr>146</gpxtpx:hr></gpxtpx:TrackPointExtension></extensions>
      </trkpt>
      <trkpt lat="59.9859201" lon="15.8164709">
        <ele>84.4</ele>
        <time>2012-10-30T18:50:31Z</time>
        <extensions><gpxtpx:TrackPointExtension><gpxtpx:hr>146</gpxtpx:hr></gpxtpx:TrackPointExtension></extensions>
      </trkpt>
      <trkpt lat="59.9858981" lon="15.8164664">
        <ele>84.4</ele>
        <time>2012-10-30T18:50:32Z</time>
        <extensions><gpxtpx:TrackPointExtension><gpxtpx:hr>146</gpxtpx:hr></gpxtpx:TrackPointExtension></extensions>
      </trkpt>
      <trkpt lat="59.9858435" lon="15.8164524">
        <ele>84.4</ele>
        <time>2012-10-30T18:50:34Z</time>
        <extensions><gpxtpx:TrackPointExtension><gpxtpx:hr>146</gpxtpx:hr></gpxtpx:TrackPointExtension></extensions>
      </trkpt>
      <trkpt lat="59.985815" lon="15.8164463">
        <ele>84.4</ele>
        <time>2012-10-30T18:50:35Z</time>
        <extensions><gpxtpx:TrackPointExtension><gpxtpx:hr>146</gpxtpx:hr></gpxtpx:TrackPointExtension></extensions>
      </trkpt>
      <trkpt lat="59.985794" lon="15.8164383">
        <ele>84.4</ele>
        <time>2012-10-30T18:50:36Z</time>
        <extensions><gpxtpx:TrackPointExtension><gpxtpx:hr>146</gpxtpx:hr></gpxtpx:TrackPointExtension></extensions>
      </trkpt>
      <trkpt lat="59.9857619" lon="15.8164298">
        <ele>81.4</ele>
        <time>2012-10-30T18:50:37Z</time>
        <extensions><gpxtpx:TrackPointExtension><gpxtpx:hr>146</gpxtpx:hr></gpxtpx:TrackPointExtension></extensions>
      </trkpt>
      <trkpt lat="59.9857445" lon="15.8164233">
        <ele>81.4</ele>
        <time>2012-10-30T18:50:38Z</time>
        <extensions><gpxtpx:TrackPointExtension><gpxtpx:hr>146</gpxtpx:hr></gpxtpx:TrackPointExtension></extensions>
      </trkpt>
      <trkpt lat="59.9857148" lon="15.8164136">
        <ele>81.4</ele>
        <time>2012-10-30T18:50:39Z</time>
        <extensions><gpxtpx:TrackPointExtension><gpxtpx:hr>146</gpxtpx:hr></gpxtpx:TrackPointExtension></extensions>
      </trkpt>
      <trkpt lat="59.9856135" lon="15.8163624">
        <ele>81.4</ele>
        <time>2012-10-30T18:50:43Z</time>
        <extensions><gpxtpx:TrackPointExtension><gpxtpx:hr>146</gpxtpx:hr></gpxtpx:TrackPointExtension></extensions>
      </trkpt>
      <trkpt lat="59.985587" lon="15.8163501">
        <ele>81.4</ele>
        <time>2012-10-30T18:50:44Z</time>
        <extensions><gpxtpx:TrackPointExtension><gpxtpx:hr>146</gpxtpx:hr></gpxtpx:TrackPointExtension></extensions>
      </trkpt>
      <trkpt lat="59.9855585" lon="15.8163304">
        <ele>81.4</ele>
        <time>2012-10-30T18:50:45Z</time>
        <extensions><gpxtpx:TrackPointExtension><gpxtpx:hr>147</gpxtpx:hr></gpxtpx:TrackPointExtension></extensions>
      </trkpt>
      <trkpt lat="59.9855411" lon="15.8163155">
        <ele>81.4</ele>
        <time>2012-10-30T18:50:46Z</time>
        <extensions><gpxtpx:TrackPointExtension><gpxtpx:hr>146</gpxtpx:hr></gpxtpx:TrackPointExtension></extensions>
      </trkpt>
      <trkpt lat="59.9855114" lon="15.8162853">
        <ele>81.4</ele>
        <time>2012-10-30T18:50:47Z</time>
        <extensions><gpxtpx:TrackPointExtension><gpxtpx:hr>146</gpxtpx:hr></gpxtpx:TrackPointExtension></extensions>
      </trkpt>
      <trkpt lat="59.9854939" lon="15.8162644">
        <ele>81.4</ele>
        <time>2012-10-30T18:50:48Z</time>
        <extensions><gpxtpx:TrackPointExtension><gpxtpx:hr>146</gpxtpx:hr></gpxtpx:TrackPointExtension></extensions>
      </trkpt>
      <trkpt lat="59.9854636" lon="15.816229">
        <ele>81.4</ele>
        <time>2012-10-30T18:50:49Z</time>
        <extensions><gpxtpx:TrackPointExtension><gpxtpx:hr>147</gpxtpx:hr></gpxtpx:TrackPointExtension></extensions>
      </trkpt>
      <trkpt lat="59.9854498" lon="15.8162072">
        <ele>81.4</ele>
        <time>2012-10-30T18:50:50Z</time>
        <extensions><gpxtpx:TrackPointExtension><gpxtpx:hr>146</gpxtpx:hr></gpxtpx:TrackPointExtension></extensions>
      </trkpt>
      <trkpt lat="59.9854262" lon="15.8161701">
        <ele>81.4</ele>
        <time>2012-10-30T18:50:51Z</time>
        <extensions><gpxtpx:TrackPointExtension><gpxtpx:hr>146</gpxtpx:hr></gpxtpx:TrackPointExtension></extensions>
      </trkpt>
      <trkpt lat="59.9854094" lon="15.8161421">
        <ele>81.4</ele>
        <time>2012-10-30T18:50:52Z</time>
        <extensions><gpxtpx:TrackPointExtension><gpxtpx:hr>146</gpxtpx:hr></gpxtpx:TrackPointExtension></extensions>
      </trkpt>
      <trkpt lat="59.9853884" lon="15.816101">
        <ele>81.4</ele>
        <time>2012-10-30T18:50:53Z</time>
        <extensions><gpxtpx:TrackPointExtension><gpxtpx:hr>146</gpxtpx:hr></gpxtpx:TrackPointExtension></extensions>
      </trkpt>
      <trkpt lat="59.9853711" lon="15.8160664">
        <ele>81.4</ele>
        <time>2012-10-30T18:50:54Z</time>
        <extensions><gpxtpx:TrackPointExtension><gpxtpx:hr>145</gpxtpx:hr></gpxtpx:TrackPointExtension></extensions>
      </trkpt>
      <trkpt lat="59.9853501" lon="15.8160235">
        <ele>81.4</ele>
        <time>2012-10-30T18:50:55Z</time>
        <extensions><gpxtpx:TrackPointExtension><gpxtpx:hr>145</gpxtpx:hr></gpxtpx:TrackPointExtension></extensions>
      </trkpt>
      <trkpt lat="59.9853373" lon="15.8159916">
        <ele>81.4</ele>
        <time>2012-10-30T18:50:56Z</time>
        <extensions><gpxtpx:TrackPointExtension><gpxtpx:hr>145</gpxtpx:hr></gpxtpx:TrackPointExtension></extensions>
      </trkpt>
      <trkpt lat="59.9853205" lon="15.8159459">
        <ele>81.4</ele>
        <time>2012-10-30T18:50:57Z</time>
        <extensions><gpxtpx:TrackPointExtension><gpxtpx:hr>144</gpxtpx:hr></gpxtpx:TrackPointExtension></extensions>
      </trkpt>
      <trkpt lat="59.9853106" lon="15.8159169">
        <ele>81.4</ele>
        <time>2012-10-30T18:50:58Z</time>
        <extensions><gpxtpx:TrackPointExtension><gpxtpx:hr>145</gpxtpx:hr></gpxtpx:TrackPointExtension></extensions>
      </trkpt>
      <trkpt lat="59.9852814" lon="15.8158394">
        <ele>81.4</ele>
        <time>2012-10-30T18:51:00Z</time>
        <extensions><gpxtpx:TrackPointExtension><gpxtpx:hr>145</gpxtpx:hr></gpxtpx:TrackPointExtension></extensions>
      </trkpt>
      <trkpt lat="59.9852719" lon="15.8158061">
        <ele>81.4</ele>
        <time>2012-10-30T18:51:01Z</time>
        <extensions><gpxtpx:TrackPointExtension><gpxtpx:hr>145</gpxtpx:hr></gpxtpx:TrackPointExtension></extensions>
      </trkpt>
      <trkpt lat="59.9851997" lon="15.8156563">
        <ele>81.4</ele>
        <time>2012-10-30T18:53:36Z</time>
        <extensions><gpxtpx:TrackPointExtension><gpxtpx:hr>110</gpxtpx:hr></gpxtpx:TrackPointExtension></extensions>
      </trkpt>
      <trkpt lat="59.9851926" lon="15.8156371">
        <ele>81.4</ele>
        <time>2012-10-30T18:53:37Z</time>
        <extensions><gpxtpx:TrackPointExtension><gpxtpx:hr>110</gpxtpx:hr></gpxtpx:TrackPointExtension></extensions>
      </trkpt>
      <trkpt lat="59.9851681" lon="15.8155497">
        <ele>81.4</ele>
        <time>2012-10-30T18:53:40Z</time>
        <extensions><gpxtpx:TrackPointExtension><gpxtpx:hr>111</gpxtpx:hr></gpxtpx:TrackPointExtension></extensions>
      </trkpt>
      <trkpt lat="59.9851528" lon="15.8155035">
        <ele>81.4</ele>
        <time>2012-10-30T18:53:41Z</time>
        <extensions><gpxtpx:TrackPointExtension><gpxtpx:hr>112</gpxtpx:hr></gpxtpx:TrackPointExtension></extensions>
      </trkpt>
      <trkpt lat="59.9851423" lon="15.8154542">
        <ele>81.4</ele>
        <time>2012-10-30T18:53:42Z</time>
        <extensions><gpxtpx:TrackPointExtension><gpxtpx:hr>113</gpxtpx:hr></gpxtpx:TrackPointExtension></extensions>
      </trkpt>
      <trkpt lat="59.9851273" lon="15.815406">
        <ele>81.4</ele>
        <time>2012-10-30T18:53:43Z</time>
        <extensions><gpxtpx:TrackPointExtension><gpxtpx:hr>114</gpxtpx:hr></gpxtpx:TrackPointExtension></extensions>
      </trkpt>
      <trkpt lat="59.9851062" lon="15.8153326">
        <ele>81.4</ele>
        <time>2012-10-30T18:53:45Z</time>
        <extensions><gpxtpx:TrackPointExtension><gpxtpx:hr>116</gpxtpx:hr></gpxtpx:TrackPointExtension></extensions>
      </trkpt>
      <trkpt lat="59.9850935" lon="15.8152809">
        <ele>81.4</ele>
        <time>2012-10-30T18:53:46Z</time>
        <extensions><gpxtpx:TrackPointExtension><gpxtpx:hr>118</gpxtpx:hr></gpxtpx:TrackPointExtension></extensions>
      </trkpt>
      <trkpt lat="59.9850847" lon="15.815243">
        <ele>81.4</ele>
        <time>2012-10-30T18:53:47Z</time>
        <extensions><gpxtpx:TrackPointExtension><gpxtpx:hr>119</gpxtpx:hr></gpxtpx:TrackPointExtension></extensions>
      </trkpt>
      <trkpt lat="59.9850678" lon="15.8151751">
        <ele>81.4</ele>
        <time>2012-10-30T18:53:48Z</time>
        <extensions><gpxtpx:TrackPointExtension><gpxtpx:hr>120</gpxtpx:hr></gpxtpx:TrackPointExtension></extensions>
      </trkpt>
      <trkpt lat="59.9850621" lon="15.8151352">
        <ele>81.4</ele>
        <time>2012-10-30T18:53:49Z</time>
        <extensions><gpxtpx:TrackPointExtension><gpxtpx:hr>120</gpxtpx:hr></gpxtpx:TrackPointExtension></extensions>
      </trkpt>
      <trkpt lat="59.9850512" lon="15.8150809">
        <ele>81.4</ele>
        <time>2012-10-30T18:53:50Z</time>
        <extensions><gpxtpx:TrackPointExtension><gpxtpx:hr>121</gpxtpx:hr></gpxtpx:TrackPointExtension></extensions>
      </trkpt>
      <trkpt lat="59.9850396" lon="15.8150312">
        <ele>81.4</ele>
        <time>2012-10-30T18:53:51Z</time>
        <extensions><gpxtpx:TrackPointExtension><gpxtpx:hr>122</gpxtpx:hr></gpxtpx:TrackPointExtension></extensions>
      </trkpt>
      <trkpt lat="59.985029" lon="15.8149806">
        <ele>81.4</ele>
        <time>2012-10-30T18:53:52Z</time>
        <extensions><gpxtpx:TrackPointExtension><gpxtpx:hr>123</gpxtpx:hr></gpxtpx:TrackPointExtension></extensions>
      </trkpt>
      <trkpt lat="59.9850062" lon="15.8148549">
        <ele>81.4</ele>
        <time>2012-10-30T18:53:55Z</time>
        <extensions><gpxtpx:TrackPointExtension><gpxtpx:hr>126</gpxtpx:hr></gpxtpx:TrackPointExtension></extensions>
      </trkpt>
      <trkpt lat="59.9849912" lon="15.8147577">
        <ele>81.4</ele>
        <time>2012-10-30T18:53:57Z</time>
        <extensions><gpxtpx:TrackPointExtension><gpxtpx:hr>127</gpxtpx:hr></gpxtpx:TrackPointExtension></extensions>
      </trkpt>
      <trkpt lat="59.9849831" lon="15.8147006">
        <ele>81.4</ele>
        <time>2012-10-30T18:53:58Z</time>
        <extensions><gpxtpx:TrackPointExtension><gpxtpx:hr>128</gpxtpx:hr></gpxtpx:TrackPointExtension></extensions>
      </trkpt>
      <trkpt lat="59.9849767" lon="15.8146592">
        <ele>81.4</ele>
        <time>2012-10-30T18:53:59Z</time>
        <extensions><gpxtpx:TrackPointExtension><gpxtpx:hr>129</gpxtpx:hr></gpxtpx:TrackPointExtension></extensions>
      </trkpt>
      <trkpt lat="59.9849675" lon="15.8145954">
        <ele>81.4</ele>
        <time>2012-10-30T18:54:00Z</time>
        <extensions><gpxtpx:TrackPointExtension><gpxtpx:hr>130</gpxtpx:hr></gpxtpx:TrackPointExtension></extensions>
      </trkpt>
      <trkpt lat="59.9849548" lon="15.8144861">
        <ele>81.4</ele>
        <time>2012-10-30T18:54:02Z</time>
        <extensions><gpxtpx:TrackPointExtension><gpxtpx:hr>131</gpxtpx:hr></gpxtpx:TrackPointExtension></extensions>
      </trkpt>
      <trkpt lat="59.9849499" lon="15.8144404">
        <ele>81.4</ele>
        <time>2012-10-30T18:54:03Z</time>
        <extensions><gpxtpx:TrackPointExtension><gpxtpx:hr>132</gpxtpx:hr></gpxtpx:TrackPointExtension></extensions>
      </trkpt>
      <trkpt lat="59.9849439" lon="15.8143821">
        <ele>81.4</ele>
        <time>2012-10-30T18:54:04Z</time>
        <extensions><gpxtpx:TrackPointExtension><gpxtpx:hr>134</gpxtpx:hr></gpxtpx:TrackPointExtension></extensions>
      </trkpt>
      <trkpt lat="59.9849375" lon="15.8143361">
        <ele>81.4</ele>
        <time>2012-10-30T18:54:05Z</time>
        <extensions><gpxtpx:TrackPointExtension><gpxtpx:hr>134</gpxtpx:hr></gpxtpx:TrackPointExtension></extensions>
      </trkpt>
      <trkpt lat="59.9849313" lon="15.8142845">
        <ele>81.4</ele>
        <time>2012-10-30T18:54:06Z</time>
        <extensions><gpxtpx:TrackPointExtension><gpxtpx:hr>135</gpxtpx:hr></gpxtpx:TrackPointExtension></extensions>
      </trkpt>
      <trkpt lat="59.9849274" lon="15.8142355">
        <ele>81.4</ele>
        <time>2012-10-30T18:54:07Z</time>
        <extensions><gpxtpx:TrackPointExtension><gpxtpx:hr>136</gpxtpx:hr></gpxtpx:TrackPointExtension></extensions>
      </trkpt>
      <trkpt lat="59.9849207" lon="15.8141751">
        <ele>81.4</ele>
        <time>2012-10-30T18:54:08Z</time>
        <extensions><gpxtpx:TrackPointExtension><gpxtpx:hr>136</gpxtpx:hr></gpxtpx:TrackPointExtension></extensions>
      </trkpt>
      <trkpt lat="59.9849136" lon="15.8141261">
        <ele>81.4</ele>
        <time>2012-10-30T18:54:09Z</time>
        <extensions><gpxtpx:TrackPointExtension><gpxtpx:hr>137</gpxtpx:hr></gpxtpx:TrackPointExtension></extensions>
      </trkpt>
      <trkpt lat="59.9849086" lon="15.8140782">
        <ele>81.4</ele>
        <time>2012-10-30T18:54:10Z</time>
        <extensions><gpxtpx:TrackPointExtension><gpxtpx:hr>137</gpxtpx:hr></gpxtpx:TrackPointExtension></extensions>
      </trkpt>
      <trkpt lat="59.9849027" lon="15.8140366">
        <ele>81.4</ele>
        <time>2012-10-30T18:54:11Z</time>
        <extensions><gpxtpx:TrackPointExtension><gpxtpx:hr>138</gpxtpx:hr></gpxtpx:TrackPointExtension></extensions>
      </trkpt>
      <trkpt lat="59.9848936" lon="15.8139734">
        <ele>81.4</ele>
        <time>2012-10-30T18:54:12Z</time>
        <extensions><gpxtpx:TrackPointExtension><gpxtpx:hr>138</gpxtpx:hr></gpxtpx:TrackPointExtension></extensions>
      </trkpt>
      <trkpt lat="59.9848895" lon="15.8139443">
        <ele>81.4</ele>
        <time>2012-10-30T18:54:13Z</time>
        <extensions><gpxtpx:TrackPointExtension><gpxtpx:hr>139</gpxtpx:hr></gpxtpx:TrackPointExtension></extensions>
      </trkpt>
      <trkpt lat="59.9848779" lon="15.8138896">
        <ele>81.4</ele>
        <time>2012-10-30T18:54:14Z</time>
        <extensions><gpxtpx:TrackPointExtension><gpxtpx:hr>139</gpxtpx:hr></gpxtpx:TrackPointExtension></extensions>
      </trkpt>
      <trkpt lat="59.9848756" lon="15.8138423">
        <ele>81.4</ele>
        <time>2012-10-30T18:54:15Z</time>
        <extensions><gpxtpx:TrackPointExtension><gpxtpx:hr>140</gpxtpx:hr></gpxtpx:TrackPointExtension></extensions>
      </trkpt>
      <trkpt lat="59.9848704" lon="15.8137942">
        <ele>81.4</ele>
        <time>2012-10-30T18:54:16Z</time>
        <extensions><gpxtpx:TrackPointExtension><gpxtpx:hr>140</gpxtpx:hr></gpxtpx:TrackPointExtension></extensions>
      </trkpt>
      <trkpt lat="59.9848652" lon="15.8137596">
        <ele>81.4</ele>
        <time>2012-10-30T18:54:17Z</time>
        <extensions><gpxtpx:TrackPointExtension><gpxtpx:hr>141</gpxtpx:hr></gpxtpx:TrackPointExtension></extensions>
      </trkpt>
      <trkpt lat="59.9848574" lon="15.8137064">
        <ele>81.4</ele>
        <time>2012-10-30T18:54:18Z</time>
        <extensions><gpxtpx:TrackPointExtension><gpxtpx:hr>141</gpxtpx:hr></gpxtpx:TrackPointExtension></extensions>
      </trkpt>
      <trkpt lat="59.9848504" lon="15.8136679">
        <ele>81.4</ele>
        <time>2012-10-30T18:54:19Z</time>
        <extensions><gpxtpx:TrackPointExtension><gpxtpx:hr>142</gpxtpx:hr></gpxtpx:TrackPointExtension></extensions>
      </trkpt>
      <trkpt lat="59.9848414" lon="15.8136211">
        <ele>81.4</ele>
        <time>2012-10-30T18:54:20Z</time>
        <extensions><gpxtpx:TrackPointExtension><gpxtpx:hr>142</gpxtpx:hr></gpxtpx:TrackPointExtension></extensions>
      </trkpt>
      <trkpt lat="59.9848331" lon="15.813575">
        <ele>81.4</ele>
        <time>2012-10-30T18:54:21Z</time>
        <extensions><gpxtpx:TrackPointExtension><gpxtpx:hr>142</gpxtpx:hr></gpxtpx:TrackPointExtension></extensions>
      </trkpt>
      <trkpt lat="59.9848248" lon="15.8135354">
        <ele>81.4</ele>
        <time>2012-10-30T18:54:22Z</time>
        <extensions><gpxtpx:TrackPointExtension><gpxtpx:hr>143</gpxtpx:hr></gpxtpx:TrackPointExtension></extensions>
      </trkpt>
      <trkpt lat="59.9848177" lon="15.8134942">
        <ele>81.4</ele>
        <time>2012-10-30T18:54:23Z</time>
        <extensions><gpxtpx:TrackPointExtension><gpxtpx:hr>143</gpxtpx:hr></gpxtpx:TrackPointExtension></extensions>
      </trkpt>
      <trkpt lat="59.9848054" lon="15.8134281">
        <ele>81.4</ele>
        <time>2012-10-30T18:54:24Z</time>
        <extensions><gpxtpx:TrackPointExtension><gpxtpx:hr>144</gpxtpx:hr></gpxtpx:TrackPointExtension></extensions>
      </trkpt>
      <trkpt lat="59.9848046" lon="15.8133977">
        <ele>81.4</ele>
        <time>2012-10-30T18:54:25Z</time>
        <extensions><gpxtpx:TrackPointExtension><gpxtpx:hr>145</gpxtpx:hr></gpxtpx:TrackPointExtension></extensions>
      </trkpt>
      <trkpt lat="59.9847947" lon="15.8133354">
        <ele>81.4</ele>
        <time>2012-10-30T18:54:26Z</time>
        <extensions><gpxtpx:TrackPointExtension><gpxtpx:hr>145</gpxtpx:hr></gpxtpx:TrackPointExtension></extensions>
      </trkpt>
      <trkpt lat="59.9847878" lon="15.8133049">
        <ele>84.4</ele>
        <time>2012-10-30T18:54:27Z</time>
        <extensions><gpxtpx:TrackPointExtension><gpxtpx:hr>146</gpxtpx:hr></gpxtpx:TrackPointExtension></extensions>
      </trkpt>
      <trkpt lat="59.9847818" lon="15.8132572">
        <ele>84.4</ele>
        <time>2012-10-30T18:54:28Z</time>
        <extensions><gpxtpx:TrackPointExtension><gpxtpx:hr>146</gpxtpx:hr></gpxtpx:TrackPointExtension></extensions>
      </trkpt>
      <trkpt lat="59.9847597" lon="15.8131621">
        <ele>84.4</ele>
        <time>2012-10-30T18:54:30Z</time>
        <extensions><gpxtpx:TrackPointExtension><gpxtpx:hr>146</gpxtpx:hr></gpxtpx:TrackPointExtension></extensions>
      </trkpt>
      <trkpt lat="59.9846748" lon="15.8128058">
        <ele>84.4</ele>
        <time>2012-10-30T18:54:38Z</time>
        <extensions><gpxtpx:TrackPointExtension><gpxtpx:hr>147</gpxtpx:hr></gpxtpx:TrackPointExtension></extensions>
      </trkpt>
      <trkpt lat="59.9846609" lon="15.8127584">
        <ele>84.4</ele>
        <time>2012-10-30T18:54:39Z</time>
        <extensions><gpxtpx:TrackPointExtension><gpxtpx:hr>147</gpxtpx:hr></gpxtpx:TrackPointExtension></extensions>
      </trkpt>
      <trkpt lat="59.9846512" lon="15.812705">
        <ele>84.4</ele>
        <time>2012-10-30T18:54:40Z</time>
        <extensions><gpxtpx:TrackPointExtension><gpxtpx:hr>148</gpxtpx:hr></gpxtpx:TrackPointExtension></extensions>
      </trkpt>
      <trkpt lat="59.984626" lon="15.8126045">
        <ele>84.4</ele>
        <time>2012-10-30T18:54:42Z</time>
        <extensions><gpxtpx:TrackPointExtension><gpxtpx:hr>148</gpxtpx:hr></gpxtpx:TrackPointExtension></extensions>
      </trkpt>
      <trkpt lat="59.9846199" lon="15.8125743">
        <ele>84.4</ele>
        <time>2012-10-30T18:54:43Z</time>
        <extensions><gpxtpx:TrackPointExtension><gpxtpx:hr>149</gpxtpx:hr></gpxtpx:TrackPointExtension></extensions>
      </trkpt>
      <trkpt lat="59.9846061" lon="15.8125124">
        <ele>84.4</ele>
        <time>2012-10-30T18:54:44Z</time>
        <extensions><gpxtpx:TrackPointExtension><gpxtpx:hr>149</gpxtpx:hr></gpxtpx:TrackPointExtension></extensions>
      </trkpt>
      <trkpt lat="59.9846" lon="15.8124692">
        <ele>84.4</ele>
        <time>2012-10-30T18:54:45Z</time>
        <extensions><gpxtpx:TrackPointExtension><gpxtpx:hr>149</gpxtpx:hr></gpxtpx:TrackPointExtension></extensions>
      </trkpt>
      <trkpt lat="59.9845907" lon="15.8124297">
        <ele>84.4</ele>
        <time>2012-10-30T18:54:46Z</time>
        <extensions><gpxtpx:TrackPointExtension><gpxtpx:hr>149</gpxtpx:hr></gpxtpx:TrackPointExtension></extensions>
      </trkpt>
      <trkpt lat="59.9845819" lon="15.8123802">
        <ele>84.4</ele>
        <time>2012-10-30T18:54:47Z</time>
        <extensions><gpxtpx:TrackPointExtension><gpxtpx:hr>150</gpxtpx:hr></gpxtpx:TrackPointExtension></extensions>
      </trkpt>
      <trkpt lat="59.9845698" lon="15.8123105">
        <ele>84.4</ele>
        <time>2012-10-30T18:54:48Z</time>
        <extensions><gpxtpx:TrackPointExtension><gpxtpx:hr>150</gpxtpx:hr></gpxtpx:TrackPointExtension></extensions>
      </trkpt>
      <trkpt lat="59.9845645" lon="15.8122623">
        <ele>84.4</ele>
        <time>2012-10-30T18:54:49Z</time>
        <extensions><gpxtpx:TrackPointExtension><gpxtpx:hr>151</gpxtpx:hr></gpxtpx:TrackPointExtension></extensions>
      </trkpt>
      <trkpt lat="59.9845607" lon="15.8122028">
        <ele>84.4</ele>
        <time>2012-10-30T18:54:50Z</time>
        <extensions><gpxtpx:TrackPointExtension><gpxtpx:hr>151</gpxtpx:hr></gpxtpx:TrackPointExtension></extensions>
      </trkpt>
      <trkpt lat="59.9845625" lon="15.8121515">
        <ele>84.4</ele>
        <time>2012-10-30T18:54:51Z</time>
        <extensions><gpxtpx:TrackPointExtension><gpxtpx:hr>151</gpxtpx:hr></gpxtpx:TrackPointExtension></extensions>
      </trkpt>
      <trkpt lat="59.9845622" lon="15.8120859">
        <ele>84.4</ele>
        <time>2012-10-30T18:54:52Z</time>
        <extensions><gpxtpx:TrackPointExtension><gpxtpx:hr>152</gpxtpx:hr></gpxtpx:TrackPointExtension></extensions>
      </trkpt>
      <trkpt lat="59.9845671" lon="15.8120565">
        <ele>84.4</ele>
        <time>2012-10-30T18:54:53Z</time>
        <extensions><gpxtpx:TrackPointExtension><gpxtpx:hr>152</gpxtpx:hr></gpxtpx:TrackPointExtension></extensions>
      </trkpt>
      <trkpt lat="59.9845778" lon="15.8119889">
        <ele>84.4</ele>
        <time>2012-10-30T18:54:54Z</time>
        <extensions><gpxtpx:TrackPointExtension><gpxtpx:hr>152</gpxtpx:hr></gpxtpx:TrackPointExtension></extensions>
      </trkpt>
      <trkpt lat="59.9845859" lon="15.8119517">
        <ele>84.4</ele>
        <time>2012-10-30T18:54:55Z</time>
        <extensions><gpxtpx:TrackPointExtension><gpxtpx:hr>152</gpxtpx:hr></gpxtpx:TrackPointExtension></extensions>
      </trkpt>
      <trkpt lat="59.9845981" lon="15.8119065">
        <ele>84.4</ele>
        <time>2012-10-30T18:54:56Z</time>
        <extensions><gpxtpx:TrackPointExtension><gpxtpx:hr>153</gpxtpx:hr></gpxtpx:TrackPointExtension></extensions>
      </trkpt>
      <trkpt lat="59.984608" lon="15.8118671">
        <ele>84.4</ele>
        <time>2012-10-30T18:54:57Z</time>
        <extensions><gpxtpx:TrackPointExtension><gpxtpx:hr>153</gpxtpx:hr></gpxtpx:TrackPointExtension></extensions>
      </trkpt>
      <trkpt lat="59.9846187" lon="15.8118328">
        <ele>84.4</ele>
        <time>2012-10-30T18:54:58Z</time>
        <extensions><gpxtpx:TrackPointExtension><gpxtpx:hr>154</gpxtpx:hr></gpxtpx:TrackPointExtension></extensions>
      </trkpt>
      <trkpt lat="59.9846252" lon="15.8118107">
        <ele>84.4</ele>
        <time>2012-10-30T18:54:59Z</time>
        <extensions><gpxtpx:TrackPointExtension><gpxtpx:hr>154</gpxtpx:hr></gpxtpx:TrackPointExtension></extensions>
      </trkpt>
      <trkpt lat="59.984644" lon="15.8117738">
        <ele>84.4</ele>
        <time>2012-10-30T18:55:00Z</time>
        <extensions><gpxtpx:TrackPointExtension><gpxtpx:hr>154</gpxtpx:hr></gpxtpx:TrackPointExtension></extensions>
      </trkpt>
      <trkpt lat="59.9846663" lon="15.8117324">
        <ele>84.4</ele>
        <time>2012-10-30T18:55:01Z</time>
        <extensions><gpxtpx:TrackPointExtension><gpxtpx:hr>154</gpxtpx:hr></gpxtpx:TrackPointExtension></extensions>
      </trkpt>
      <trkpt lat="59.9846855" lon="15.8116976">
        <ele>84.4</ele>
        <time>2012-10-30T18:55:02Z</time>
        <extensions><gpxtpx:TrackPointExtension><gpxtpx:hr>154</gpxtpx:hr></gpxtpx:TrackPointExtension></extensions>
      </trkpt>
      <trkpt lat="59.9847106" lon="15.8116612">
        <ele>84.4</ele>
        <time>2012-10-30T18:55:03Z</time>
        <extensions><gpxtpx:TrackPointExtension><gpxtpx:hr>154</gpxtpx:hr></gpxtpx:TrackPointExtension></extensions>
      </trkpt>
      <trkpt lat="59.9847523" lon="15.8116082">
        <ele>84.4</ele>
        <time>2012-10-30T18:55:05Z</time>
        <extensions><gpxtpx:TrackPointExtension><gpxtpx:hr>153</gpxtpx:hr></gpxtpx:TrackPointExtension></extensions>
      </trkpt>
      <trkpt lat="59.9847813" lon="15.8115793">
        <ele>84.4</ele>
        <time>2012-10-30T18:55:06Z</time>
        <extensions><gpxtpx:TrackPointExtension><gpxtpx:hr>154</gpxtpx:hr></gpxtpx:TrackPointExtension></extensions>
      </trkpt>
      <trkpt lat="59.9847986" lon="15.8115599">
        <ele>84.4</ele>
        <time>2012-10-30T18:55:07Z</time>
        <extensions><gpxtpx:TrackPointExtension><gpxtpx:hr>154</gpxtpx:hr></gpxtpx:TrackPointExtension></extensions>
      </trkpt>
      <trkpt lat="59.9848268" lon="15.8115315">
        <ele>84.4</ele>
        <time>2012-10-30T18:55:08Z</time>
        <extensions><gpxtpx:TrackPointExtension><gpxtpx:hr>154</gpxtpx:hr></gpxtpx:TrackPointExtension></extensions>
      </trkpt>
      <trkpt lat="59.9848491" lon="15.8115063">
        <ele>84.4</ele>
        <time>2012-10-30T18:55:09Z</time>
        <extensions><gpxtpx:TrackPointExtension><gpxtpx:hr>154</gpxtpx:hr></gpxtpx:TrackPointExtension></extensions>
      </trkpt>
      <trkpt lat="59.9848753" lon="15.8114735">
        <ele>84.4</ele>
        <time>2012-10-30T18:55:10Z</time>
        <extensions><gpxtpx:TrackPointExtension><gpxtpx:hr>154</gpxtpx:hr></gpxtpx:TrackPointExtension></extensions>
      </trkpt>
      <trkpt lat="59.9848936" lon="15.8114462">
        <ele>84.4</ele>
        <time>2012-10-30T18:55:11Z</time>
        <extensions><gpxtpx:TrackPointExtension><gpxtpx:hr>154</gpxtpx:hr></gpxtpx:TrackPointExtension></extensions>
      </trkpt>
      <trkpt lat="59.9849194" lon="15.811409">
        <ele>84.4</ele>
        <time>2012-10-30T18:55:12Z</time>
        <extensions><gpxtpx:TrackPointExtension><gpxtpx:hr>154</gpxtpx:hr></gpxtpx:TrackPointExtension></extensions>
      </trkpt>
      <trkpt lat="59.9849351" lon="15.8113841">
        <ele>84.4</ele>
        <time>2012-10-30T18:55:13Z</time>
        <extensions><gpxtpx:TrackPointExtension><gpxtpx:hr>153</gpxtpx:hr></gpxtpx:TrackPointExtension></extensions>
      </trkpt>
      <trkpt lat="59.9849603" lon="15.8113393">
        <ele>84.4</ele>
        <time>2012-10-30T18:55:14Z</time>
        <extensions><gpxtpx:TrackPointExtension><gpxtpx:hr>154</gpxtpx:hr></gpxtpx:TrackPointExtension></extensions>
      </trkpt>
      <trkpt lat="59.984996" lon="15.8112701">
        <ele>84.4</ele>
        <time>2012-10-30T18:55:16Z</time>
        <extensions><gpxtpx:TrackPointExtension><gpxtpx:hr>154</gpxtpx:hr></gpxtpx:TrackPointExtension></extensions>
      </trkpt>
      <trkpt lat="59.9850121" lon="15.8112431">
        <ele>84.4</ele>
        <time>2012-10-30T18:55:17Z</time>
        <extensions><gpxtpx:TrackPointExtension><gpxtpx:hr>155</gpxtpx:hr></gpxtpx:TrackPointExtension></extensions>
      </trkpt>
      <trkpt lat="59.9850911" lon="15.811091">
        <ele>84.4</ele>
        <time>2012-10-30T18:55:21Z</time>
        <extensions><gpxtpx:TrackPointExtension><gpxtpx:hr>155</gpxtpx:hr></gpxtpx:TrackPointExtension></extensions>
      </trkpt>
      <trkpt lat="59.9851077" lon="15.8110577">
        <ele>84.4</ele>
        <time>2012-10-30T18:55:22Z</time>
        <extensions><gpxtpx:TrackPointExtension><gpxtpx:hr>155</gpxtpx:hr></gpxtpx:TrackPointExtension></extensions>
      </trkpt>
      <trkpt lat="59.9851428" lon="15.8109691">
        <ele>84.4</ele>
        <time>2012-10-30T18:55:24Z</time>
        <extensions><gpxtpx:TrackPointExtension><gpxtpx:hr>154</gpxtpx:hr></gpxtpx:TrackPointExtension></extensions>
      </trkpt>
      <trkpt lat="59.9851636" lon="15.8109363">
        <ele>84.4</ele>
        <time>2012-10-30T18:55:25Z</time>
        <extensions><gpxtpx:TrackPointExtension><gpxtpx:hr>155</gpxtpx:hr></gpxtpx:TrackPointExtension></extensions>
      </trkpt>
      <trkpt lat="59.9851843" lon="15.810901">
        <ele>84.4</ele>
        <time>2012-10-30T18:55:26Z</time>
        <extensions><gpxtpx:TrackPointExtension><gpxtpx:hr>155</gpxtpx:hr></gpxtpx:TrackPointExtension></extensions>
      </trkpt>
      <trkpt lat="59.9852267" lon="15.8108269">
        <ele>84.4</ele>
        <time>2012-10-30T18:55:28Z</time>
        <extensions><gpxtpx:TrackPointExtension><gpxtpx:hr>154</gpxtpx:hr></gpxtpx:TrackPointExtension></extensions>
      </trkpt>
      <trkpt lat="59.9853273" lon="15.8106662">
        <ele>84.4</ele>
        <time>2012-10-30T18:55:33Z</time>
        <extensions><gpxtpx:TrackPointExtension><gpxtpx:hr>156</gpxtpx:hr></gpxtpx:TrackPointExtension></extensions>
      </trkpt>
      <trkpt lat="59.9853566" lon="15.8106336">
        <ele>84.4</ele>
        <time>2012-10-30T18:55:34Z</time>
        <extensions><gpxtpx:TrackPointExtension><gpxtpx:hr>156</gpxtpx:hr></gpxtpx:TrackPointExtension></extensions>
      </trkpt>
      <trkpt lat="59.985375" lon="15.8106089">
        <ele>84.4</ele>
        <time>2012-10-30T18:55:35Z</time>
        <extensions><gpxtpx:TrackPointExtension><gpxtpx:hr>156</gpxtpx:hr></gpxtpx:TrackPointExtension></extensions>
      </trkpt>
      <trkpt lat="59.9854004" lon="15.8105787">
        <ele>84.4</ele>
        <time>2012-10-30T18:55:36Z</time>
        <extensions><gpxtpx:TrackPointExtension><gpxtpx:hr>156</gpxtpx:hr></gpxtpx:TrackPointExtension></extensions>
      </trkpt>
      <trkpt lat="59.9854202" lon="15.8105566">
        <ele>84.4</ele>
        <time>2012-10-30T18:55:37Z</time>
        <extensions><gpxtpx:TrackPointExtension><gpxtpx:hr>156</gpxtpx:hr></gpxtpx:TrackPointExtension></extensions>
      </trkpt>
      <trkpt lat="59.9854486" lon="15.8105328">
        <ele>84.4</ele>
        <time>2012-10-30T18:55:38Z</time>
        <extensions><gpxtpx:TrackPointExtension><gpxtpx:hr>156</gpxtpx:hr></gpxtpx:TrackPointExtension></extensions>
      </trkpt>
      <trkpt lat="59.9854705" lon="15.8105121">
        <ele>84.4</ele>
        <time>2012-10-30T18:55:39Z</time>
        <extensions><gpxtpx:TrackPointExtension><gpxtpx:hr>156</gpxtpx:hr></gpxtpx:TrackPointExtension></extensions>
      </trkpt>
      <trkpt lat="59.9854981" lon="15.8104833">
        <ele>84.4</ele>
        <time>2012-10-30T18:55:40Z</time>
        <extensions><gpxtpx:TrackPointExtension><gpxtpx:hr>156</gpxtpx:hr></gpxtpx:TrackPointExtension></extensions>
      </trkpt>
      <trkpt lat="59.9855197" lon="15.8104693">
        <ele>84.4</ele>
        <time>2012-10-30T18:55:41Z</time>
        <extensions><gpxtpx:TrackPointExtension><gpxtpx:hr>156</gpxtpx:hr></gpxtpx:TrackPointExtension></extensions>
      </trkpt>
      <trkpt lat="59.9855474" lon="15.8104491">
        <ele>84.4</ele>
        <time>2012-10-30T18:55:42Z</time>
        <extensions><gpxtpx:TrackPointExtension><gpxtpx:hr>156</gpxtpx:hr></gpxtpx:TrackPointExtension></extensions>
      </trkpt>
      <trkpt lat="59.9855635" lon="15.8104302">
        <ele>84.4</ele>
        <time>2012-10-30T18:55:43Z</time>
        <extensions><gpxtpx:TrackPointExtension><gpxtpx:hr>156</gpxtpx:hr></gpxtpx:TrackPointExtension></extensions>
      </trkpt>
      <trkpt lat="59.9855924" lon="15.8104064">
        <ele>84.4</ele>
        <time>2012-10-30T18:55:44Z</time>
        <extensions><gpxtpx:TrackPointExtension><gpxtpx:hr>156</gpxtpx:hr></gpxtpx:TrackPointExtension></extensions>
      </trkpt>
      <trkpt lat="59.9856155" lon="15.8103872">
        <ele>84.4</ele>
        <time>2012-10-30T18:55:45Z</time>
        <extensions><gpxtpx:TrackPointExtension><gpxtpx:hr>157</gpxtpx:hr></gpxtpx:TrackPointExtension></extensions>
      </trkpt>
      <trkpt lat="59.985637" lon="15.8103695">
        <ele>84.4</ele>
        <time>2012-10-30T18:55:46Z</time>
        <extensions><gpxtpx:TrackPointExtension><gpxtpx:hr>157</gpxtpx:hr></gpxtpx:TrackPointExtension></extensions>
      </trkpt>
      <trkpt lat="59.9856547" lon="15.8103516">
        <ele>84.4</ele>
        <time>2012-10-30T18:55:47Z</time>
        <extensions><gpxtpx:TrackPointExtension><gpxtpx:hr>157</gpxtpx:hr></gpxtpx:TrackPointExtension></extensions>
      </trkpt>
      <trkpt lat="59.9856765" lon="15.8103322">
        <ele>84.4</ele>
        <time>2012-10-30T18:55:48Z</time>
        <extensions><gpxtpx:TrackPointExtension><gpxtpx:hr>157</gpxtpx:hr></gpxtpx:TrackPointExtension></extensions>
      </trkpt>
      <trkpt lat="59.985697" lon="15.8103173">
        <ele>84.4</ele>
        <time>2012-10-30T18:55:49Z</time>
        <extensions><gpxtpx:TrackPointExtension><gpxtpx:hr>158</gpxtpx:hr></gpxtpx:TrackPointExtension></extensions>
      </trkpt>
      <trkpt lat="59.9857179" lon="15.8102956">
        <ele>84.4</ele>
        <time>2012-10-30T18:55:50Z</time>
        <extensions><gpxtpx:TrackPointExtension><gpxtpx:hr>157</gpxtpx:hr></gpxtpx:TrackPointExtension></extensions>
      </trkpt>
      <trkpt lat="59.9857385" lon="15.8102782">
        <ele>84.4</ele>
        <time>2012-10-30T18:55:51Z</time>
        <extensions><gpxtpx:TrackPointExtension><gpxtpx:hr>158</gpxtpx:hr></gpxtpx:TrackPointExtension></extensions>
      </trkpt>
      <trkpt lat="59.9857603" lon="15.8102663">
        <ele>85.6</ele>
        <time>2012-10-30T18:55:52Z</time>
        <extensions><gpxtpx:TrackPointExtension><gpxtpx:hr>158</gpxtpx:hr></gpxtpx:TrackPointExtension></extensions>
      </trkpt>
      <trkpt lat="59.9857749" lon="15.8102579">
        <ele>85.6</ele>
        <time>2012-10-30T18:55:53Z</time>
        <extensions><gpxtpx:TrackPointExtension><gpxtpx:hr>158</gpxtpx:hr></gpxtpx:TrackPointExtension></extensions>
      </trkpt>
      <trkpt lat="59.9858001" lon="15.8102389">
        <ele>85.6</ele>
        <time>2012-10-30T18:55:54Z</time>
        <extensions><gpxtpx:TrackPointExtension><gpxtpx:hr>157</gpxtpx:hr></gpxtpx:TrackPointExtension></extensions>
      </trkpt>
      <trkpt lat="59.9858141" lon="15.8102311">
        <ele>85.4</ele>
        <time>2012-10-30T18:55:55Z</time>
        <extensions><gpxtpx:TrackPointExtension><gpxtpx:hr>158</gpxtpx:hr></gpxtpx:TrackPointExtension></extensions>
      </trkpt>
      <trkpt lat="59.9858367" lon="15.8102178">
        <ele>86.6</ele>
        <time>2012-10-30T18:55:56Z</time>
        <extensions><gpxtpx:TrackPointExtension><gpxtpx:hr>158</gpxtpx:hr></gpxtpx:TrackPointExtension></extensions>
      </trkpt>
      <trkpt lat="59.985857" lon="15.8102011">
        <ele>86.6</ele>
        <time>2012-10-30T18:55:57Z</time>
        <extensions><gpxtpx:TrackPointExtension><gpxtpx:hr>158</gpxtpx:hr></gpxtpx:TrackPointExtension></extensions>
      </trkpt>
      <trkpt lat="59.9858819" lon="15.810181">
        <ele>86.6</ele>
        <time>2012-10-30T18:55:58Z</time>
        <extensions><gpxtpx:TrackPointExtension><gpxtpx:hr>158</gpxtpx:hr></gpxtpx:TrackPointExtension></extensions>
      </trkpt>
      <trkpt lat="59.985905" lon="15.8101701">
        <ele>86.6</ele>
        <time>2012-10-30T18:55:59Z</time>
        <extensions><gpxtpx:TrackPointExtension><gpxtpx:hr>159</gpxtpx:hr></gpxtpx:TrackPointExtension></extensions>
      </trkpt>
      <trkpt lat="59.985949" lon="15.8101332">
        <ele>86.6</ele>
        <time>2012-10-30T18:56:01Z</time>
        <extensions><gpxtpx:TrackPointExtension><gpxtpx:hr>159</gpxtpx:hr></gpxtpx:TrackPointExtension></extensions>
      </trkpt>
      <trkpt lat="59.9859769" lon="15.8101222">
        <ele>86.6</ele>
        <time>2012-10-30T18:56:02Z</time>
        <extensions><gpxtpx:TrackPointExtension><gpxtpx:hr>159</gpxtpx:hr></gpxtpx:TrackPointExtension></extensions>
      </trkpt>
      <trkpt lat="59.9859968" lon="15.8101064">
        <ele>86.6</ele>
        <time>2012-10-30T18:56:03Z</time>
        <extensions><gpxtpx:TrackPointExtension><gpxtpx:hr>159</gpxtpx:hr></gpxtpx:TrackPointExtension></extensions>
      </trkpt>
      <trkpt lat="59.9860255" lon="15.8100873">
        <ele>86.6</ele>
        <time>2012-10-30T18:56:04Z</time>
        <extensions><gpxtpx:TrackPointExtension><gpxtpx:hr>160</gpxtpx:hr></gpxtpx:TrackPointExtension></extensions>
      </trkpt>
      <trkpt lat="59.9860441" lon="15.8100741">
        <ele>86.6</ele>
        <time>2012-10-30T18:56:05Z</time>
        <extensions><gpxtpx:TrackPointExtension><gpxtpx:hr>160</gpxtpx:hr></gpxtpx:TrackPointExtension></extensions>
      </trkpt>
      <trkpt lat="59.9860686" lon="15.8100567">
        <ele>86.6</ele>
        <time>2012-10-30T18:56:06Z</time>
        <extensions><gpxtpx:TrackPointExtension><gpxtpx:hr>160</gpxtpx:hr></gpxtpx:TrackPointExtension></extensions>
      </trkpt>
      <trkpt lat="59.9860879" lon="15.8100431">
        <ele>86.6</ele>
        <time>2012-10-30T18:56:07Z</time>
        <extensions><gpxtpx:TrackPointExtension><gpxtpx:hr>160</gpxtpx:hr></gpxtpx:TrackPointExtension></extensions>
      </trkpt>
      <trkpt lat="59.986113" lon="15.810024">
        <ele>87.6</ele>
        <time>2012-10-30T18:56:08Z</time>
        <extensions><gpxtpx:TrackPointExtension><gpxtpx:hr>160</gpxtpx:hr></gpxtpx:TrackPointExtension></extensions>
      </trkpt>
      <trkpt lat="59.9861785" lon="15.8099786">
        <ele>87.8</ele>
        <time>2012-10-30T18:56:11Z</time>
        <extensions><gpxtpx:TrackPointExtension><gpxtpx:hr>159</gpxtpx:hr></gpxtpx:TrackPointExtension></extensions>
      </trkpt>
      <trkpt lat="59.9862047" lon="15.8099684">
        <ele>87.6</ele>
        <time>2012-10-30T18:56:12Z</time>
        <extensions><gpxtpx:TrackPointExtension><gpxtpx:hr>159</gpxtpx:hr></gpxtpx:TrackPointExtension></extensions>
      </trkpt>
      <trkpt lat="59.9862222" lon="15.8099539">
        <ele>87.8</ele>
        <time>2012-10-30T18:56:13Z</time>
        <extensions><gpxtpx:TrackPointExtension><gpxtpx:hr>159</gpxtpx:hr></gpxtpx:TrackPointExtension></extensions>
      </trkpt>
      <trkpt lat="59.9862514" lon="15.8099326">
        <ele>87.6</ele>
        <time>2012-10-30T18:56:14Z</time>
        <extensions><gpxtpx:TrackPointExtension><gpxtpx:hr>159</gpxtpx:hr></gpxtpx:TrackPointExtension></extensions>
      </trkpt>
      <trkpt lat="59.9862726" lon="15.8099238">
        <ele>87.8</ele>
        <time>2012-10-30T18:56:15Z</time>
        <extensions><gpxtpx:TrackPointExtension><gpxtpx:hr>159</gpxtpx:hr></gpxtpx:TrackPointExtension></extensions>
      </trkpt>
      <trkpt lat="59.9863008" lon="15.809913">
        <ele>87.6</ele>
        <time>2012-10-30T18:56:16Z</time>
        <extensions><gpxtpx:TrackPointExtension><gpxtpx:hr>159</gpxtpx:hr></gpxtpx:TrackPointExtension></extensions>
      </trkpt>
      <trkpt lat="59.9863248" lon="15.8099028">
        <ele>87.8</ele>
        <time>2012-10-30T18:56:17Z</time>
        <extensions><gpxtpx:TrackPointExtension><gpxtpx:hr>159</gpxtpx:hr></gpxtpx:TrackPointExtension></extensions>
      </trkpt>
      <trkpt lat="59.9863693" lon="15.8098846">
        <ele>87.8</ele>
        <time>2012-10-30T18:56:19Z</time>
        <extensions><gpxtpx:TrackPointExtension><gpxtpx:hr>159</gpxtpx:hr></gpxtpx:TrackPointExtension></extensions>
      </trkpt>
      <trkpt lat="59.9863963" lon="15.8098785">
        <ele>87.6</ele>
        <time>2012-10-30T18:56:20Z</time>
        <extensions><gpxtpx:TrackPointExtension><gpxtpx:hr>158</gpxtpx:hr></gpxtpx:TrackPointExtension></extensions>
      </trkpt>
      <trkpt lat="59.9864212" lon="15.8098721">
        <ele>87.8</ele>
        <time>2012-10-30T18:56:21Z</time>
        <extensions><gpxtpx:TrackPointExtension><gpxtpx:hr>158</gpxtpx:hr></gpxtpx:TrackPointExtension></extensions>
      </trkpt>
      <trkpt lat="59.9864461" lon="15.8098637">
        <ele>88.8</ele>
        <time>2012-10-30T18:56:22Z</time>
        <extensions><gpxtpx:TrackPointExtension><gpxtpx:hr>158</gpxtpx:hr></gpxtpx:TrackPointExtension></extensions>
      </trkpt>
      <trkpt lat="59.9864628" lon="15.8098541">
        <ele>88.8</ele>
        <time>2012-10-30T18:56:23Z</time>
        <extensions><gpxtpx:TrackPointExtension><gpxtpx:hr>158</gpxtpx:hr></gpxtpx:TrackPointExtension></extensions>
      </trkpt>
      <trkpt lat="59.9864893" lon="15.8098402">
        <ele>88.8</ele>
        <time>2012-10-30T18:56:24Z</time>
        <extensions><gpxtpx:TrackPointExtension><gpxtpx:hr>159</gpxtpx:hr></gpxtpx:TrackPointExtension></extensions>
      </trkpt>
      <trkpt lat="59.9865146" lon="15.8098327">
        <ele>88.8</ele>
        <time>2012-10-30T18:56:25Z</time>
        <extensions><gpxtpx:TrackPointExtension><gpxtpx:hr>159</gpxtpx:hr></gpxtpx:TrackPointExtension></extensions>
      </trkpt>
      <trkpt lat="59.9865421" lon="15.8098275">
        <ele>88.8</ele>
        <time>2012-10-30T18:56:26Z</time>
        <extensions><gpxtpx:TrackPointExtension><gpxtpx:hr>159</gpxtpx:hr></gpxtpx:TrackPointExtension></extensions>
      </trkpt>
      <trkpt lat="59.9865588" lon="15.8098298">
        <ele>88.8</ele>
        <time>2012-10-30T18:56:27Z</time>
        <extensions><gpxtpx:TrackPointExtension><gpxtpx:hr>159</gpxtpx:hr></gpxtpx:TrackPointExtension></extensions>
      </trkpt>
      <trkpt lat="59.9865874" lon="15.8098311">
        <ele>88.8</ele>
        <time>2012-10-30T18:56:28Z</time>
        <extensions><gpxtpx:TrackPointExtension><gpxtpx:hr>159</gpxtpx:hr></gpxtpx:TrackPointExtension></extensions>
      </trkpt>
      <trkpt lat="59.9866078" lon="15.8098381">
        <ele>88.8</ele>
        <time>2012-10-30T18:56:29Z</time>
        <extensions><gpxtpx:TrackPointExtension><gpxtpx:hr>159</gpxtpx:hr></gpxtpx:TrackPointExtension></extensions>
      </trkpt>
      <trkpt lat="59.9866327" lon="15.8098438">
        <ele>88.8</ele>
        <time>2012-10-30T18:56:30Z</time>
        <extensions><gpxtpx:TrackPointExtension><gpxtpx:hr>159</gpxtpx:hr></gpxtpx:TrackPointExtension></extensions>
      </trkpt>
      <trkpt lat="59.9866659" lon="15.8098583">
        <ele>88.8</ele>
        <time>2012-10-30T18:56:31Z</time>
        <extensions><gpxtpx:TrackPointExtension><gpxtpx:hr>159</gpxtpx:hr></gpxtpx:TrackPointExtension></extensions>
      </trkpt>
      <trkpt lat="59.9866886" lon="15.8098661">
        <ele>88.8</ele>
        <time>2012-10-30T18:56:32Z</time>
        <extensions><gpxtpx:TrackPointExtension><gpxtpx:hr>159</gpxtpx:hr></gpxtpx:TrackPointExtension></extensions>
      </trkpt>
      <trkpt lat="59.986705" lon="15.8098753">
        <ele>88.8</ele>
        <time>2012-10-30T18:56:33Z</time>
        <extensions><gpxtpx:TrackPointExtension><gpxtpx:hr>159</gpxtpx:hr></gpxtpx:TrackPointExtension></extensions>
      </trkpt>
      <trkpt lat="59.9867341" lon="15.8098963">
        <ele>89.8</ele>
        <time>2012-10-30T18:56:34Z</time>
        <extensions><gpxtpx:TrackPointExtension><gpxtpx:hr>159</gpxtpx:hr></gpxtpx:TrackPointExtension></extensions>
      </trkpt>
      <trkpt lat="59.9867528" lon="15.8099122">
        <ele>89.8</ele>
        <time>2012-10-30T18:56:35Z</time>
        <extensions><gpxtpx:TrackPointExtension><gpxtpx:hr>160</gpxtpx:hr></gpxtpx:TrackPointExtension></extensions>
      </trkpt>
      <trkpt lat="59.9867778" lon="15.8099373">
        <ele>89.8</ele>
        <time>2012-10-30T18:56:36Z</time>
        <extensions><gpxtpx:TrackPointExtension><gpxtpx:hr>160</gpxtpx:hr></gpxtpx:TrackPointExtension></extensions>
      </trkpt>
      <trkpt lat="59.9867952" lon="15.8099597">
        <ele>89.8</ele>
        <time>2012-10-30T18:56:37Z</time>
        <extensions><gpxtpx:TrackPointExtension><gpxtpx:hr>160</gpxtpx:hr></gpxtpx:TrackPointExtension></extensions>
      </trkpt>
      <trkpt lat="59.9868214" lon="15.8099855">
        <ele>89.8</ele>
        <time>2012-10-30T18:56:38Z</time>
        <extensions><gpxtpx:TrackPointExtension><gpxtpx:hr>160</gpxtpx:hr></gpxtpx:TrackPointExtension></extensions>
      </trkpt>
      <trkpt lat="59.9868388" lon="15.810009">
        <ele>89.8</ele>
        <time>2012-10-30T18:56:39Z</time>
        <extensions><gpxtpx:TrackPointExtension><gpxtpx:hr>160</gpxtpx:hr></gpxtpx:TrackPointExtension></extensions>
      </trkpt>
      <trkpt lat="59.9868618" lon="15.8100489">
        <ele>89.8</ele>
        <time>2012-10-30T18:56:40Z</time>
        <extensions><gpxtpx:TrackPointExtension><gpxtpx:hr>160</gpxtpx:hr></gpxtpx:TrackPointExtension></extensions>
      </trkpt>
      <trkpt lat="59.9868782" lon="15.810094">
        <ele>91</ele>
        <time>2012-10-30T18:56:41Z</time>
        <extensions><gpxtpx:TrackPointExtension><gpxtpx:hr>161</gpxtpx:hr></gpxtpx:TrackPointExtension></extensions>
      </trkpt>
      <trkpt lat="59.9868953" lon="15.8101408">
        <ele>91</ele>
        <time>2012-10-30T18:56:42Z</time>
        <extensions><gpxtpx:TrackPointExtension><gpxtpx:hr>161</gpxtpx:hr></gpxtpx:TrackPointExtension></extensions>
      </trkpt>
      <trkpt lat="59.9869051" lon="15.8101761">
        <ele>90.8</ele>
        <time>2012-10-30T18:56:43Z</time>
        <extensions><gpxtpx:TrackPointExtension><gpxtpx:hr>162</gpxtpx:hr></gpxtpx:TrackPointExtension></extensions>
      </trkpt>
      <trkpt lat="59.9869238" lon="15.8102262">
        <ele>90.8</ele>
        <time>2012-10-30T18:56:44Z</time>
        <extensions><gpxtpx:TrackPointExtension><gpxtpx:hr>162</gpxtpx:hr></gpxtpx:TrackPointExtension></extensions>
      </trkpt>
      <trkpt lat="59.9869295" lon="15.8102719">
        <ele>90.8</ele>
        <time>2012-10-30T18:56:45Z</time>
        <extensions><gpxtpx:TrackPointExtension><gpxtpx:hr>162</gpxtpx:hr></gpxtpx:TrackPointExtension></extensions>
      </trkpt>
      <trkpt lat="59.9869419" lon="15.8103226">
        <ele>90.8</ele>
        <time>2012-10-30T18:56:46Z</time>
        <extensions><gpxtpx:TrackPointExtension><gpxtpx:hr>162</gpxtpx:hr></gpxtpx:TrackPointExtension></extensions>
      </trkpt>
      <trkpt lat="59.9869494" lon="15.8103525">
        <ele>91.8</ele>
        <time>2012-10-30T18:56:47Z</time>
        <extensions><gpxtpx:TrackPointExtension><gpxtpx:hr>162</gpxtpx:hr></gpxtpx:TrackPointExtension></extensions>
      </trkpt>
      <trkpt lat="59.986956" lon="15.8104167">
        <ele>91.8</ele>
        <time>2012-10-30T18:56:48Z</time>
        <extensions><gpxtpx:TrackPointExtension><gpxtpx:hr>162</gpxtpx:hr></gpxtpx:TrackPointExtension></extensions>
      </trkpt>
      <trkpt lat="59.9869764" lon="15.8105457">
        <ele>93</ele>
        <time>2012-10-30T18:56:51Z</time>
        <extensions><gpxtpx:TrackPointExtension><gpxtpx:hr>163</gpxtpx:hr></gpxtpx:TrackPointExtension></extensions>
      </trkpt>
      <trkpt lat="59.9869906" lon="15.8106181">
        <ele>93.2</ele>
        <time>2012-10-30T18:56:53Z</time>
        <extensions><gpxtpx:TrackPointExtension><gpxtpx:hr>164</gpxtpx:hr></gpxtpx:TrackPointExtension></extensions>
      </trkpt>
      <trkpt lat="59.9869958" lon="15.8106736">
        <ele>93</ele>
        <time>2012-10-30T18:56:54Z</time>
        <extensions><gpxtpx:TrackPointExtension><gpxtpx:hr>163</gpxtpx:hr></gpxtpx:TrackPointExtension></extensions>
      </trkpt>
      <trkpt lat="59.9870011" lon="15.8107145">
        <ele>93.2</ele>
        <time>2012-10-30T18:56:55Z</time>
        <extensions><gpxtpx:TrackPointExtension><gpxtpx:hr>164</gpxtpx:hr></gpxtpx:TrackPointExtension></extensions>
      </trkpt>
      <trkpt lat="59.9870112" lon="15.8107621">
        <ele>94.2</ele>
        <time>2012-10-30T18:56:56Z</time>
        <extensions><gpxtpx:TrackPointExtension><gpxtpx:hr>163</gpxtpx:hr></gpxtpx:TrackPointExtension></extensions>
      </trkpt>
      <trkpt lat="59.9870262" lon="15.8108383">
        <ele>94.2</ele>
        <time>2012-10-30T18:56:58Z</time>
        <extensions><gpxtpx:TrackPointExtension><gpxtpx:hr>163</gpxtpx:hr></gpxtpx:TrackPointExtension></extensions>
      </trkpt>
      <trkpt lat="59.9870306" lon="15.8108857">
        <ele>94.2</ele>
        <time>2012-10-30T18:56:59Z</time>
        <extensions><gpxtpx:TrackPointExtension><gpxtpx:hr>164</gpxtpx:hr></gpxtpx:TrackPointExtension></extensions>
      </trkpt>
      <trkpt lat="59.9870357" lon="15.8109375">
        <ele>94.2</ele>
        <time>2012-10-30T18:57:00Z</time>
        <extensions><gpxtpx:TrackPointExtension><gpxtpx:hr>163</gpxtpx:hr></gpxtpx:TrackPointExtension></extensions>
      </trkpt>
      <trkpt lat="59.9870419" lon="15.8109823">
        <ele>94.4</ele>
        <time>2012-10-30T18:57:01Z</time>
        <extensions><gpxtpx:TrackPointExtension><gpxtpx:hr>164</gpxtpx:hr></gpxtpx:TrackPointExtension></extensions>
      </trkpt>
      <trkpt lat="59.9870522" lon="15.8110378">
        <ele>94.2</ele>
        <time>2012-10-30T18:57:02Z</time>
        <extensions><gpxtpx:TrackPointExtension><gpxtpx:hr>163</gpxtpx:hr></gpxtpx:TrackPointExtension></extensions>
      </trkpt>
      <trkpt lat="59.9870544" lon="15.8110756">
        <ele>94.2</ele>
        <time>2012-10-30T18:57:03Z</time>
        <extensions><gpxtpx:TrackPointExtension><gpxtpx:hr>163</gpxtpx:hr></gpxtpx:TrackPointExtension></extensions>
      </trkpt>
      <trkpt lat="59.9870631" lon="15.8111326">
        <ele>94.2</ele>
        <time>2012-10-30T18:57:04Z</time>
        <extensions><gpxtpx:TrackPointExtension><gpxtpx:hr>163</gpxtpx:hr></gpxtpx:TrackPointExtension></extensions>
      </trkpt>
      <trkpt lat="59.987068" lon="15.8111735">
        <ele>95.2</ele>
        <time>2012-10-30T18:57:05Z</time>
        <extensions><gpxtpx:TrackPointExtension><gpxtpx:hr>163</gpxtpx:hr></gpxtpx:TrackPointExtension></extensions>
      </trkpt>
      <trkpt lat="59.9870766" lon="15.8112255">
        <ele>95.2</ele>
        <time>2012-10-30T18:57:06Z</time>
        <extensions><gpxtpx:TrackPointExtension><gpxtpx:hr>163</gpxtpx:hr></gpxtpx:TrackPointExtension></extensions>
      </trkpt>
      <trkpt lat="59.9870802" lon="15.8112681">
        <ele>95.2</ele>
        <time>2012-10-30T18:57:07Z</time>
        <extensions><gpxtpx:TrackPointExtension><gpxtpx:hr>164</gpxtpx:hr></gpxtpx:TrackPointExtension></extensions>
      </trkpt>
      <trkpt lat="59.9870854" lon="15.8113336">
        <ele>95.2</ele>
        <time>2012-10-30T18:57:08Z</time>
        <extensions><gpxtpx:TrackPointExtension><gpxtpx:hr>164</gpxtpx:hr></gpxtpx:TrackPointExtension></extensions>
      </trkpt>
      <trkpt lat="59.9870919" lon="15.8113756">
        <ele>95.2</ele>
        <time>2012-10-30T18:57:09Z</time>
        <extensions><gpxtpx:TrackPointExtension><gpxtpx:hr>165</gpxtpx:hr></gpxtpx:TrackPointExtension></extensions>
      </trkpt>
      <trkpt lat="59.9870961" lon="15.811436">
        <ele>96.4</ele>
        <time>2012-10-30T18:57:10Z</time>
        <extensions><gpxtpx:TrackPointExtension><gpxtpx:hr>164</gpxtpx:hr></gpxtpx:TrackPointExtension></extensions>
      </trkpt>
      <trkpt lat="59.9871042" lon="15.8114717">
        <ele>96.4</ele>
        <time>2012-10-30T18:57:11Z</time>
        <extensions><gpxtpx:TrackPointExtension><gpxtpx:hr>165</gpxtpx:hr></gpxtpx:TrackPointExtension></extensions>
      </trkpt>
      <trkpt lat="59.9871104" lon="15.8115315">
        <ele>96.4</ele>
        <time>2012-10-30T18:57:12Z</time>
        <extensions><gpxtpx:TrackPointExtension><gpxtpx:hr>165</gpxtpx:hr></gpxtpx:TrackPointExtension></extensions>
      </trkpt>
      <trkpt lat="59.9871179" lon="15.8115684">
        <ele>96.4</ele>
        <time>2012-10-30T18:57:13Z</time>
        <extensions><gpxtpx:TrackPointExtension><gpxtpx:hr>166</gpxtpx:hr></gpxtpx:TrackPointExtension></extensions>
      </trkpt>
      <trkpt lat="59.9871314" lon="15.81163">
        <ele>96.4</ele>
        <time>2012-10-30T18:57:14Z</time>
        <extensions><gpxtpx:TrackPointExtension><gpxtpx:hr>166</gpxtpx:hr></gpxtpx:TrackPointExtension></extensions>
      </trkpt>
      <trkpt lat="59.9871361" lon="15.8116698">
        <ele>96.4</ele>
        <time>2012-10-30T18:57:15Z</time>
        <extensions><gpxtpx:TrackPointExtension><gpxtpx:hr>166</gpxtpx:hr></gpxtpx:TrackPointExtension></extensions>
      </trkpt>
      <trkpt lat="59.9871448" lon="15.8117186">
        <ele>96.4</ele>
        <time>2012-10-30T18:57:16Z</time>
        <extensions><gpxtpx:TrackPointExtension><gpxtpx:hr>165</gpxtpx:hr></gpxtpx:TrackPointExtension></extensions>
      </trkpt>
      <trkpt lat="59.9871538" lon="15.811754">
        <ele>96.4</ele>
        <time>2012-10-30T18:57:17Z</time>
        <extensions><gpxtpx:TrackPointExtension><gpxtpx:hr>166</gpxtpx:hr></gpxtpx:TrackPointExtension></extensions>
      </trkpt>
      <trkpt lat="59.9871635" lon="15.8118104">
        <ele>96.4</ele>
        <time>2012-10-30T18:57:18Z</time>
        <extensions><gpxtpx:TrackPointExtension><gpxtpx:hr>165</gpxtpx:hr></gpxtpx:TrackPointExtension></extensions>
      </trkpt>
      <trkpt lat="59.9871685" lon="15.8118505">
        <ele>96.4</ele>
        <time>2012-10-30T18:57:19Z</time>
        <extensions><gpxtpx:TrackPointExtension><gpxtpx:hr>166</gpxtpx:hr></gpxtpx:TrackPointExtension></extensions>
      </trkpt>
      <trkpt lat="59.9871781" lon="15.8119127">
        <ele>96.4</ele>
        <time>2012-10-30T18:57:20Z</time>
        <extensions><gpxtpx:TrackPointExtension><gpxtpx:hr>166</gpxtpx:hr></gpxtpx:TrackPointExtension></extensions>
      </trkpt>
      <trkpt lat="59.987186" lon="15.8119588">
        <ele>96.4</ele>
        <time>2012-10-30T18:57:21Z</time>
        <extensions><gpxtpx:TrackPointExtension><gpxtpx:hr>166</gpxtpx:hr></gpxtpx:TrackPointExtension></extensions>
      </trkpt>
      <trkpt lat="59.987197" lon="15.8120043">
        <ele>96.4</ele>
        <time>2012-10-30T18:57:22Z</time>
        <extensions><gpxtpx:TrackPointExtension><gpxtpx:hr>165</gpxtpx:hr></gpxtpx:TrackPointExtension></extensions>
      </trkpt>
      <trkpt lat="59.9872048" lon="15.8120451">
        <ele>96.4</ele>
        <time>2012-10-30T18:57:23Z</time>
        <extensions><gpxtpx:TrackPointExtension><gpxtpx:hr>165</gpxtpx:hr></gpxtpx:TrackPointExtension></extensions>
      </trkpt>
      <trkpt lat="59.9872272" lon="15.8120902">
        <ele>96.4</ele>
        <time>2012-10-30T18:57:24Z</time>
        <extensions><gpxtpx:TrackPointExtension><gpxtpx:hr>165</gpxtpx:hr></gpxtpx:TrackPointExtension></extensions>
      </trkpt>
      <trkpt lat="59.987244" lon="15.8121296">
        <ele>96.4</ele>
        <time>2012-10-30T18:57:25Z</time>
        <extensions><gpxtpx:TrackPointExtension><gpxtpx:hr>165</gpxtpx:hr></gpxtpx:TrackPointExtension></extensions>
      </trkpt>
      <trkpt lat="59.9872563" lon="15.8121702">
        <ele>96.4</ele>
        <time>2012-10-30T18:57:26Z</time>
        <extensions><gpxtpx:TrackPointExtension><gpxtpx:hr>166</gpxtpx:hr></gpxtpx:TrackPointExtension></extensions>
      </trkpt>
      <trkpt lat="59.9872701" lon="15.8121924">
        <ele>96.4</ele>
        <time>2012-10-30T18:57:27Z</time>
        <extensions><gpxtpx:TrackPointExtension><gpxtpx:hr>165</gpxtpx:hr></gpxtpx:TrackPointExtension></extensions>
      </trkpt>
      <trkpt lat="59.9872962" lon="15.8122134">
        <ele>96.4</ele>
        <time>2012-10-30T18:57:28Z</time>
        <extensions><gpxtpx:TrackPointExtension><gpxtpx:hr>165</gpxtpx:hr></gpxtpx:TrackPointExtension></extensions>
      </trkpt>
      <trkpt lat="59.9873168" lon="15.8122126">
        <ele>97.4</ele>
        <time>2012-10-30T18:57:29Z</time>
        <extensions><gpxtpx:TrackPointExtension><gpxtpx:hr>165</gpxtpx:hr></gpxtpx:TrackPointExtension></extensions>
      </trkpt>
      <trkpt lat="59.9873457" lon="15.8122074">
        <ele>97.4</ele>
        <time>2012-10-30T18:57:30Z</time>
        <extensions><gpxtpx:TrackPointExtension><gpxtpx:hr>164</gpxtpx:hr></gpxtpx:TrackPointExtension></extensions>
      </trkpt>
      <trkpt lat="59.9873725" lon="15.8121969">
        <ele>97.4</ele>
        <time>2012-10-30T18:57:31Z</time>
        <extensions><gpxtpx:TrackPointExtension><gpxtpx:hr>164</gpxtpx:hr></gpxtpx:TrackPointExtension></extensions>
      </trkpt>
      <trkpt lat="59.9873974" lon="15.8121848">
        <ele>97.4</ele>
        <time>2012-10-30T18:57:32Z</time>
        <extensions><gpxtpx:TrackPointExtension><gpxtpx:hr>165</gpxtpx:hr></gpxtpx:TrackPointExtension></extensions>
      </trkpt>
      <trkpt lat="59.9874161" lon="15.8121795">
        <ele>97.4</ele>
        <time>2012-10-30T18:57:33Z</time>
        <extensions><gpxtpx:TrackPointExtension><gpxtpx:hr>165</gpxtpx:hr></gpxtpx:TrackPointExtension></extensions>
      </trkpt>
      <trkpt lat="59.9874919" lon="15.8121544">
        <ele>97.4</ele>
        <time>2012-10-30T18:57:36Z</time>
        <extensions><gpxtpx:TrackPointExtension><gpxtpx:hr>164</gpxtpx:hr></gpxtpx:TrackPointExtension></extensions>
      </trkpt>
      <trkpt lat="59.987511" lon="15.8121502">
        <ele>97.4</ele>
        <time>2012-10-30T18:57:37Z</time>
        <extensions><gpxtpx:TrackPointExtension><gpxtpx:hr>164</gpxtpx:hr></gpxtpx:TrackPointExtension></extensions>
      </trkpt>
      <trkpt lat="59.9876045" lon="15.8120809">
        <ele>97.4</ele>
        <time>2012-10-30T18:57:41Z</time>
        <extensions><gpxtpx:TrackPointExtension><gpxtpx:hr>163</gpxtpx:hr></gpxtpx:TrackPointExtension></extensions>
      </trkpt>
      <trkpt lat="59.9876222" lon="15.8120516">
        <ele>98.4</ele>
        <time>2012-10-30T18:57:42Z</time>
        <extensions><gpxtpx:TrackPointExtension><gpxtpx:hr>163</gpxtpx:hr></gpxtpx:TrackPointExtension></extensions>
      </trkpt>
      <trkpt lat="59.9876308" lon="15.8120188">
        <ele>98.4</ele>
        <time>2012-10-30T18:57:43Z</time>
        <extensions><gpxtpx:TrackPointExtension><gpxtpx:hr>163</gpxtpx:hr></gpxtpx:TrackPointExtension></extensions>
      </trkpt>
      <trkpt lat="59.987642" lon="15.8119671">
        <ele>98.4</ele>
        <time>2012-10-30T18:57:44Z</time>
        <extensions><gpxtpx:TrackPointExtension><gpxtpx:hr>162</gpxtpx:hr></gpxtpx:TrackPointExtension></extensions>
      </trkpt>
      <trkpt lat="59.9876457" lon="15.8119236">
        <ele>98.4</ele>
        <time>2012-10-30T18:57:45Z</time>
        <extensions><gpxtpx:TrackPointExtension><gpxtpx:hr>162</gpxtpx:hr></gpxtpx:TrackPointExtension></extensions>
      </trkpt>
      <trkpt lat="59.9876339" lon="15.8117822">
        <ele>98.4</ele>
        <time>2012-10-30T18:57:48Z</time>
        <extensions><gpxtpx:TrackPointExtension><gpxtpx:hr>163</gpxtpx:hr></gpxtpx:TrackPointExtension></extensions>
      </trkpt>
      <trkpt lat="59.9876185" lon="15.8116411">
        <ele>98.4</ele>
        <time>2012-10-30T18:57:51Z</time>
        <extensions><gpxtpx:TrackPointExtension><gpxtpx:hr>162</gpxtpx:hr></gpxtpx:TrackPointExtension></extensions>
      </trkpt>
      <trkpt lat="59.9876133" lon="15.8115962">
        <ele>98.4</ele>
        <time>2012-10-30T18:57:52Z</time>
        <extensions><gpxtpx:TrackPointExtension><gpxtpx:hr>163</gpxtpx:hr></gpxtpx:TrackPointExtension></extensions>
      </trkpt>
      <trkpt lat="59.9876088" lon="15.8115621">
        <ele>98.4</ele>
        <time>2012-10-30T18:57:53Z</time>
        <extensions><gpxtpx:TrackPointExtension><gpxtpx:hr>163</gpxtpx:hr></gpxtpx:TrackPointExtension></extensions>
      </trkpt>
      <trkpt lat="59.9876024" lon="15.8115009">
        <ele>98.4</ele>
        <time>2012-10-30T18:57:54Z</time>
        <extensions><gpxtpx:TrackPointExtension><gpxtpx:hr>163</gpxtpx:hr></gpxtpx:TrackPointExtension></extensions>
      </trkpt>
      <trkpt lat="59.9875965" lon="15.8114574">
        <ele>98.4</ele>
        <time>2012-10-30T18:57:55Z</time>
        <extensions><gpxtpx:TrackPointExtension><gpxtpx:hr>163</gpxtpx:hr></gpxtpx:TrackPointExtension></extensions>
      </trkpt>
      <trkpt lat="59.9875896" lon="15.811395">
        <ele>98.4</ele>
        <time>2012-10-30T18:57:56Z</time>
        <extensions><gpxtpx:TrackPointExtension><gpxtpx:hr>163</gpxtpx:hr></gpxtpx:TrackPointExtension></extensions>
      </trkpt>
      <trkpt lat="59.9875854" lon="15.8113657">
        <ele>98.4</ele>
        <time>2012-10-30T18:57:57Z</time>
        <extensions><gpxtpx:TrackPointExtension><gpxtpx:hr>162</gpxtpx:hr></gpxtpx:TrackPointExtension></extensions>
      </trkpt>
      <trkpt lat="59.9875788" lon="15.8113175">
        <ele>98.4</ele>
        <time>2012-10-30T18:57:58Z</time>
        <extensions><gpxtpx:TrackPointExtension><gpxtpx:hr>163</gpxtpx:hr></gpxtpx:TrackPointExtension></extensions>
      </trkpt>
      <trkpt lat="59.9875721" lon="15.8112795">
        <ele>98.4</ele>
        <time>2012-10-30T18:57:59Z</time>
        <extensions><gpxtpx:TrackPointExtension><gpxtpx:hr>162</gpxtpx:hr></gpxtpx:TrackPointExtension></extensions>
      </trkpt>
      <trkpt lat="59.9875651" lon="15.8112264">
        <ele>98.4</ele>
        <time>2012-10-30T18:58:00Z</time>
        <extensions><gpxtpx:TrackPointExtension><gpxtpx:hr>163</gpxtpx:hr></gpxtpx:TrackPointExtension></extensions>
      </trkpt>
      <trkpt lat="59.9875597" lon="15.8111816">
        <ele>98.4</ele>
        <time>2012-10-30T18:58:01Z</time>
        <extensions><gpxtpx:TrackPointExtension><gpxtpx:hr>162</gpxtpx:hr></gpxtpx:TrackPointExtension></extensions>
      </trkpt>
      <trkpt lat="59.9875486" lon="15.8111231">
        <ele>98.4</ele>
        <time>2012-10-30T18:58:02Z</time>
        <extensions><gpxtpx:TrackPointExtension><gpxtpx:hr>162</gpxtpx:hr></gpxtpx:TrackPointExtension></extensions>
      </trkpt>
      <trkpt lat="59.9875426" lon="15.8110928">
        <ele>98.4</ele>
        <time>2012-10-30T18:58:03Z</time>
        <extensions><gpxtpx:TrackPointExtension><gpxtpx:hr>161</gpxtpx:hr></gpxtpx:TrackPointExtension></extensions>
      </trkpt>
      <trkpt lat="59.9875335" lon="15.8110404">
        <ele>98.4</ele>
        <time>2012-10-30T18:58:04Z</time>
        <extensions><gpxtpx:TrackPointExtension><gpxtpx:hr>161</gpxtpx:hr></gpxtpx:TrackPointExtension></extensions>
      </trkpt>
      <trkpt lat="59.9875292" lon="15.8109988">
        <ele>98.4</ele>
        <time>2012-10-30T18:58:05Z</time>
        <extensions><gpxtpx:TrackPointExtension><gpxtpx:hr>161</gpxtpx:hr></gpxtpx:TrackPointExtension></extensions>
      </trkpt>
      <trkpt lat="59.9875244" lon="15.8109456">
        <ele>98.4</ele>
        <time>2012-10-30T18:58:06Z</time>
        <extensions><gpxtpx:TrackPointExtension><gpxtpx:hr>161</gpxtpx:hr></gpxtpx:TrackPointExtension></extensions>
      </trkpt>
      <trkpt lat="59.987517" lon="15.8109068">
        <ele>98.4</ele>
        <time>2012-10-30T18:58:07Z</time>
        <extensions><gpxtpx:TrackPointExtension><gpxtpx:hr>161</gpxtpx:hr></gpxtpx:TrackPointExtension></extensions>
      </trkpt>
      <trkpt lat="59.9875118" lon="15.8108496">
        <ele>98.4</ele>
        <time>2012-10-30T18:58:08Z</time>
        <extensions><gpxtpx:TrackPointExtension><gpxtpx:hr>161</gpxtpx:hr></gpxtpx:TrackPointExtension></extensions>
      </trkpt>
      <trkpt lat="59.9875054" lon="15.8108099">
        <ele>98.4</ele>
        <time>2012-10-30T18:58:09Z</time>
        <extensions><gpxtpx:TrackPointExtension><gpxtpx:hr>161</gpxtpx:hr></gpxtpx:TrackPointExtension></extensions>
      </trkpt>
      <trkpt lat="59.9874989" lon="15.8107525">
        <ele>98.4</ele>
        <time>2012-10-30T18:58:10Z</time>
        <extensions><gpxtpx:TrackPointExtension><gpxtpx:hr>161</gpxtpx:hr></gpxtpx:TrackPointExtension></extensions>
      </trkpt>
      <trkpt lat="59.9874944" lon="15.8107118">
        <ele>98.4</ele>
        <time>2012-10-30T18:58:11Z</time>
        <extensions><gpxtpx:TrackPointExtension><gpxtpx:hr>161</gpxtpx:hr></gpxtpx:TrackPointExtension></extensions>
      </trkpt>
      <trkpt lat="59.9874882" lon="15.8106547">
        <ele>98.4</ele>
        <time>2012-10-30T18:58:12Z</time>
        <extensions><gpxtpx:TrackPointExtension><gpxtpx:hr>161</gpxtpx:hr></gpxtpx:TrackPointExtension></extensions>
      </trkpt>
      <trkpt lat="59.9874835" lon="15.8105966">
        <ele>98.4</ele>
        <time>2012-10-30T18:58:13Z</time>
        <extensions><gpxtpx:TrackPointExtension><gpxtpx:hr>160</gpxtpx:hr></gpxtpx:TrackPointExtension></extensions>
      </trkpt>
      <trkpt lat="59.9874693" lon="15.8104486">
        <ele>98.4</ele>
        <time>2012-10-30T18:58:16Z</time>
        <extensions><gpxtpx:TrackPointExtension><gpxtpx:hr>159</gpxtpx:hr></gpxtpx:TrackPointExtension></extensions>
      </trkpt>
      <trkpt lat="59.9874524" lon="15.8101474">
        <ele>98.4</ele>
        <time>2012-10-30T18:58:22Z</time>
        <extensions><gpxtpx:TrackPointExtension><gpxtpx:hr>160</gpxtpx:hr></gpxtpx:TrackPointExtension></extensions>
      </trkpt>
      <trkpt lat="59.98745" lon="15.8101041">
        <ele>98.4</ele>
        <time>2012-10-30T18:58:23Z</time>
        <extensions><gpxtpx:TrackPointExtension><gpxtpx:hr>160</gpxtpx:hr></gpxtpx:TrackPointExtension></extensions>
      </trkpt>
      <trkpt lat="59.9874511" lon="15.810066">
        <ele>98.4</ele>
        <time>2012-10-30T18:58:24Z</time>
        <extensions><gpxtpx:TrackPointExtension><gpxtpx:hr>160</gpxtpx:hr></gpxtpx:TrackPointExtension></extensions>
      </trkpt>
      <trkpt lat="59.9874505" lon="15.8100089">
        <ele>98.4</ele>
        <time>2012-10-30T18:58:25Z</time>
        <extensions><gpxtpx:TrackPointExtension><gpxtpx:hr>159</gpxtpx:hr></gpxtpx:TrackPointExtension></extensions>
      </trkpt>
      <trkpt lat="59.9874514" lon="15.8099638">
        <ele>98.4</ele>
        <time>2012-10-30T18:58:26Z</time>
        <extensions><gpxtpx:TrackPointExtension><gpxtpx:hr>159</gpxtpx:hr></gpxtpx:TrackPointExtension></extensions>
      </trkpt>
      <trkpt lat="59.9874535" lon="15.8099033">
        <ele>98.4</ele>
        <time>2012-10-30T18:58:27Z</time>
        <extensions><gpxtpx:TrackPointExtension><gpxtpx:hr>159</gpxtpx:hr></gpxtpx:TrackPointExtension></extensions>
      </trkpt>
      <trkpt lat="59.9874548" lon="15.8098536">
        <ele>98.4</ele>
        <time>2012-10-30T18:58:28Z</time>
        <extensions><gpxtpx:TrackPointExtension><gpxtpx:hr>158</gpxtpx:hr></gpxtpx:TrackPointExtension></extensions>
      </trkpt>
      <trkpt lat="59.9874561" lon="15.8098032">
        <ele>98.4</ele>
        <time>2012-10-30T18:58:29Z</time>
        <extensions><gpxtpx:TrackPointExtension><gpxtpx:hr>158</gpxtpx:hr></gpxtpx:TrackPointExtension></extensions>
      </trkpt>
      <trkpt lat="59.9874633" lon="15.8096542">
        <ele>98.4</ele>
        <time>2012-10-30T18:58:32Z</time>
        <extensions><gpxtpx:TrackPointExtension><gpxtpx:hr>158</gpxtpx:hr></gpxtpx:TrackPointExtension></extensions>
      </trkpt>
      <trkpt lat="59.9874653" lon="15.8095962">
        <ele>98.4</ele>
        <time>2012-10-30T18:58:33Z</time>
        <extensions><gpxtpx:TrackPointExtension><gpxtpx:hr>157</gpxtpx:hr></gpxtpx:TrackPointExtension></extensions>
      </trkpt>
      <trkpt lat="59.9874686" lon="15.8095485">
        <ele>98.4</ele>
        <time>2012-10-30T18:58:34Z</time>
        <extensions><gpxtpx:TrackPointExtension><gpxtpx:hr>157</gpxtpx:hr></gpxtpx:TrackPointExtension></extensions>
      </trkpt>
      <trkpt lat="59.9874726" lon="15.8094798">
        <ele>98.4</ele>
        <time>2012-10-30T18:58:35Z</time>
        <extensions><gpxtpx:TrackPointExtension><gpxtpx:hr>157</gpxtpx:hr></gpxtpx:TrackPointExtension></extensions>
      </trkpt>
      <trkpt lat="59.9874756" lon="15.8094251">
        <ele>98.4</ele>
        <time>2012-10-30T18:58:36Z</time>
        <extensions><gpxtpx:TrackPointExtension><gpxtpx:hr>157</gpxtpx:hr></gpxtpx:TrackPointExtension></extensions>
      </trkpt>
      <trkpt lat="59.9874794" lon="15.8093349">
        <ele>95.4</ele>
        <time>2012-10-30T18:58:38Z</time>
        <extensions><gpxtpx:TrackPointExtension><gpxtpx:hr>157</gpxtpx:hr></gpxtpx:TrackPointExtension></extensions>
      </trkpt>
      <trkpt lat="59.9874801" lon="15.809265">
        <ele>95.4</ele>
        <time>2012-10-30T18:58:39Z</time>
        <extensions><gpxtpx:TrackPointExtension><gpxtpx:hr>158</gpxtpx:hr></gpxtpx:TrackPointExtension></extensions>
      </trkpt>
      <trkpt lat="59.9874806" lon="15.8092311">
        <ele>95.4</ele>
        <time>2012-10-30T18:58:40Z</time>
        <extensions><gpxtpx:TrackPointExtension><gpxtpx:hr>157</gpxtpx:hr></gpxtpx:TrackPointExtension></extensions>
      </trkpt>
      <trkpt lat="59.9874813" lon="15.809165">
        <ele>95.4</ele>
        <time>2012-10-30T18:58:41Z</time>
        <extensions><gpxtpx:TrackPointExtension><gpxtpx:hr>158</gpxtpx:hr></gpxtpx:TrackPointExtension></extensions>
      </trkpt>
      <trkpt lat="59.987482" lon="15.8090573">
        <ele>95.4</ele>
        <time>2012-10-30T18:58:43Z</time>
        <extensions><gpxtpx:TrackPointExtension><gpxtpx:hr>158</gpxtpx:hr></gpxtpx:TrackPointExtension></extensions>
      </trkpt>
      <trkpt lat="59.9874904" lon="15.8090088">
        <ele>95.2</ele>
        <time>2012-10-30T18:58:44Z</time>
        <extensions><gpxtpx:TrackPointExtension><gpxtpx:hr>158</gpxtpx:hr></gpxtpx:TrackPointExtension></extensions>
      </trkpt>
      <trkpt lat="59.987496" lon="15.8089496">
        <ele>95.4</ele>
        <time>2012-10-30T18:58:45Z</time>
        <extensions><gpxtpx:TrackPointExtension><gpxtpx:hr>157</gpxtpx:hr></gpxtpx:TrackPointExtension></extensions>
      </trkpt>
      <trkpt lat="59.9874956" lon="15.8089118">
        <ele>95.4</ele>
        <time>2012-10-30T18:58:46Z</time>
        <extensions><gpxtpx:TrackPointExtension><gpxtpx:hr>157</gpxtpx:hr></gpxtpx:TrackPointExtension></extensions>
      </trkpt>
      <trkpt lat="59.9874988" lon="15.808858">
        <ele>95.4</ele>
        <time>2012-10-30T18:58:47Z</time>
        <extensions><gpxtpx:TrackPointExtension><gpxtpx:hr>157</gpxtpx:hr></gpxtpx:TrackPointExtension></extensions>
      </trkpt>
      <trkpt lat="59.9875039" lon="15.8088114">
        <ele>94.4</ele>
        <time>2012-10-30T18:58:48Z</time>
        <extensions><gpxtpx:TrackPointExtension><gpxtpx:hr>156</gpxtpx:hr></gpxtpx:TrackPointExtension></extensions>
      </trkpt>
      <trkpt lat="59.9875092" lon="15.8087414">
        <ele>94.4</ele>
        <time>2012-10-30T18:58:49Z</time>
        <extensions><gpxtpx:TrackPointExtension><gpxtpx:hr>156</gpxtpx:hr></gpxtpx:TrackPointExtension></extensions>
      </trkpt>
      <trkpt lat="59.9875117" lon="15.8086838">
        <ele>94.4</ele>
        <time>2012-10-30T18:58:50Z</time>
        <extensions><gpxtpx:TrackPointExtension><gpxtpx:hr>155</gpxtpx:hr></gpxtpx:TrackPointExtension></extensions>
      </trkpt>
      <trkpt lat="59.9875148" lon="15.8086342">
        <ele>94.4</ele>
        <time>2012-10-30T18:58:51Z</time>
        <extensions><gpxtpx:TrackPointExtension><gpxtpx:hr>155</gpxtpx:hr></gpxtpx:TrackPointExtension></extensions>
      </trkpt>
      <trkpt lat="59.9875195" lon="15.8085951">
        <ele>94.4</ele>
        <time>2012-10-30T18:58:52Z</time>
        <extensions><gpxtpx:TrackPointExtension><gpxtpx:hr>154</gpxtpx:hr></gpxtpx:TrackPointExtension></extensions>
      </trkpt>
      <trkpt lat="59.9875246" lon="15.8085379">
        <ele>94.4</ele>
        <time>2012-10-30T18:58:53Z</time>
        <extensions><gpxtpx:TrackPointExtension><gpxtpx:hr>154</gpxtpx:hr></gpxtpx:TrackPointExtension></extensions>
      </trkpt>
      <trkpt lat="59.9875293" lon="15.8084889">
        <ele>94.2</ele>
        <time>2012-10-30T18:58:54Z</time>
        <extensions><gpxtpx:TrackPointExtension><gpxtpx:hr>153</gpxtpx:hr></gpxtpx:TrackPointExtension></extensions>
      </trkpt>
      <trkpt lat="59.9875336" lon="15.8084347">
        <ele>94.4</ele>
        <time>2012-10-30T18:58:55Z</time>
        <extensions><gpxtpx:TrackPointExtension><gpxtpx:hr>154</gpxtpx:hr></gpxtpx:TrackPointExtension></extensions>
      </trkpt>
      <trkpt lat="59.9875367" lon="15.8083851">
        <ele>94.2</ele>
        <time>2012-10-30T18:58:56Z</time>
        <extensions><gpxtpx:TrackPointExtension><gpxtpx:hr>154</gpxtpx:hr></gpxtpx:TrackPointExtension></extensions>
      </trkpt>
      <trkpt lat="59.987545" lon="15.8083322">
        <ele>94.4</ele>
        <time>2012-10-30T18:58:57Z</time>
        <extensions><gpxtpx:TrackPointExtension><gpxtpx:hr>155</gpxtpx:hr></gpxtpx:TrackPointExtension></extensions>
      </trkpt>
      <trkpt lat="59.9875507" lon="15.8083105">
        <ele>94.4</ele>
        <time>2012-10-30T18:58:58Z</time>
        <extensions><gpxtpx:TrackPointExtension><gpxtpx:hr>155</gpxtpx:hr></gpxtpx:TrackPointExtension></extensions>
      </trkpt>
      <trkpt lat="59.9875635" lon="15.8082383">
        <ele>94.4</ele>
        <time>2012-10-30T18:58:59Z</time>
        <extensions><gpxtpx:TrackPointExtension><gpxtpx:hr>156</gpxtpx:hr></gpxtpx:TrackPointExtension></extensions>
      </trkpt>
      <trkpt lat="59.9875716" lon="15.8081922">
        <ele>94.4</ele>
        <time>2012-10-30T18:59:00Z</time>
        <extensions><gpxtpx:TrackPointExtension><gpxtpx:hr>156</gpxtpx:hr></gpxtpx:TrackPointExtension></extensions>
      </trkpt>
      <trkpt lat="59.987582" lon="15.8081408">
        <ele>93.4</ele>
        <time>2012-10-30T18:59:01Z</time>
        <extensions><gpxtpx:TrackPointExtension><gpxtpx:hr>157</gpxtpx:hr></gpxtpx:TrackPointExtension></extensions>
      </trkpt>
      <trkpt lat="59.9875902" lon="15.808091">
        <ele>93.4</ele>
        <time>2012-10-30T18:59:02Z</time>
        <extensions><gpxtpx:TrackPointExtension><gpxtpx:hr>157</gpxtpx:hr></gpxtpx:TrackPointExtension></extensions>
      </trkpt>
      <trkpt lat="59.9875906" lon="15.8080502">
        <ele>93.4</ele>
        <time>2012-10-30T18:59:03Z</time>
        <extensions><gpxtpx:TrackPointExtension><gpxtpx:hr>157</gpxtpx:hr></gpxtpx:TrackPointExtension></extensions>
      </trkpt>
      <trkpt lat="59.9875883" lon="15.8080037">
        <ele>93.4</ele>
        <time>2012-10-30T18:59:04Z</time>
        <extensions><gpxtpx:TrackPointExtension><gpxtpx:hr>157</gpxtpx:hr></gpxtpx:TrackPointExtension></extensions>
      </trkpt>
      <trkpt lat="59.9875788" lon="15.8079505">
        <ele>93.4</ele>
        <time>2012-10-30T18:59:05Z</time>
        <extensions><gpxtpx:TrackPointExtension><gpxtpx:hr>157</gpxtpx:hr></gpxtpx:TrackPointExtension></extensions>
      </trkpt>
      <trkpt lat="59.9875723" lon="15.8079084">
        <ele>93.4</ele>
        <time>2012-10-30T18:59:06Z</time>
        <extensions><gpxtpx:TrackPointExtension><gpxtpx:hr>157</gpxtpx:hr></gpxtpx:TrackPointExtension></extensions>
      </trkpt>
      <trkpt lat="59.9875615" lon="15.8078533">
        <ele>93.4</ele>
        <time>2012-10-30T18:59:07Z</time>
        <extensions><gpxtpx:TrackPointExtension><gpxtpx:hr>157</gpxtpx:hr></gpxtpx:TrackPointExtension></extensions>
      </trkpt>
      <trkpt lat="59.9875528" lon="15.8078092">
        <ele>93.2</ele>
        <time>2012-10-30T18:59:08Z</time>
        <extensions><gpxtpx:TrackPointExtension><gpxtpx:hr>157</gpxtpx:hr></gpxtpx:TrackPointExtension></extensions>
      </trkpt>
      <trkpt lat="59.9875429" lon="15.8077657">
        <ele>92.4</ele>
        <time>2012-10-30T18:59:09Z</time>
        <extensions><gpxtpx:TrackPointExtension><gpxtpx:hr>157</gpxtpx:hr></gpxtpx:TrackPointExtension></extensions>
      </trkpt>
      <trkpt lat="59.987512" lon="15.8076355">
        <ele>92.4</ele>
        <time>2012-10-30T18:59:12Z</time>
        <extensions><gpxtpx:TrackPointExtension><gpxtpx:hr>158</gpxtpx:hr></gpxtpx:TrackPointExtension></extensions>
      </trkpt>
      <trkpt lat="59.9874988" lon="15.8075781">
        <ele>92.4</ele>
        <time>2012-10-30T18:59:13Z</time>
        <extensions><gpxtpx:TrackPointExtension><gpxtpx:hr>157</gpxtpx:hr></gpxtpx:TrackPointExtension></extensions>
      </trkpt>
      <trkpt lat="59.9874873" lon="15.8075347">
        <ele>92.4</ele>
        <time>2012-10-30T18:59:14Z</time>
        <extensions><gpxtpx:TrackPointExtension><gpxtpx:hr>157</gpxtpx:hr></gpxtpx:TrackPointExtension></extensions>
      </trkpt>
      <trkpt lat="59.9874677" lon="15.8074501">
        <ele>92.4</ele>
        <time>2012-10-30T18:59:16Z</time>
        <extensions><gpxtpx:TrackPointExtension><gpxtpx:hr>157</gpxtpx:hr></gpxtpx:TrackPointExtension></extensions>
      </trkpt>
      <trkpt lat="59.9874516" lon="15.8073944">
        <ele>92.4</ele>
        <time>2012-10-30T18:59:17Z</time>
        <extensions><gpxtpx:TrackPointExtension><gpxtpx:hr>157</gpxtpx:hr></gpxtpx:TrackPointExtension></extensions>
      </trkpt>
      <trkpt lat="59.9874475" lon="15.807363">
        <ele>92.4</ele>
        <time>2012-10-30T18:59:18Z</time>
        <extensions><gpxtpx:TrackPointExtension><gpxtpx:hr>157</gpxtpx:hr></gpxtpx:TrackPointExtension></extensions>
      </trkpt>
      <trkpt lat="59.987434" lon="15.8072987">
        <ele>91.2</ele>
        <time>2012-10-30T18:59:19Z</time>
        <extensions><gpxtpx:TrackPointExtension><gpxtpx:hr>156</gpxtpx:hr></gpxtpx:TrackPointExtension></extensions>
      </trkpt>
      <trkpt lat="59.9874212" lon="15.8072609">
        <ele>91.2</ele>
        <time>2012-10-30T18:59:20Z</time>
        <extensions><gpxtpx:TrackPointExtension><gpxtpx:hr>156</gpxtpx:hr></gpxtpx:TrackPointExtension></extensions>
      </trkpt>
      <trkpt lat="59.9874065" lon="15.8072169">
        <ele>91.2</ele>
        <time>2012-10-30T18:59:21Z</time>
        <extensions><gpxtpx:TrackPointExtension><gpxtpx:hr>156</gpxtpx:hr></gpxtpx:TrackPointExtension></extensions>
      </trkpt>
      <trkpt lat="59.9873934" lon="15.8071811">
        <ele>91.2</ele>
        <time>2012-10-30T18:59:22Z</time>
        <extensions><gpxtpx:TrackPointExtension><gpxtpx:hr>156</gpxtpx:hr></gpxtpx:TrackPointExtension></extensions>
      </trkpt>
      <trkpt lat="59.9873837" lon="15.8071419">
        <ele>91.2</ele>
        <time>2012-10-30T18:59:23Z</time>
        <extensions><gpxtpx:TrackPointExtension><gpxtpx:hr>156</gpxtpx:hr></gpxtpx:TrackPointExtension></extensions>
      </trkpt>
      <trkpt lat="59.9873754" lon="15.8071114">
        <ele>91.2</ele>
        <time>2012-10-30T18:59:24Z</time>
        <extensions><gpxtpx:TrackPointExtension><gpxtpx:hr>156</gpxtpx:hr></gpxtpx:TrackPointExtension></extensions>
      </trkpt>
      <trkpt lat="59.9873584" lon="15.8070709">
        <ele>91.4</ele>
        <time>2012-10-30T18:59:25Z</time>
        <extensions><gpxtpx:TrackPointExtension><gpxtpx:hr>157</gpxtpx:hr></gpxtpx:TrackPointExtension></extensions>
      </trkpt>
      <trkpt lat="59.9873439" lon="15.8070463">
        <ele>91.2</ele>
        <time>2012-10-30T18:59:26Z</time>
        <extensions><gpxtpx:TrackPointExtension><gpxtpx:hr>156</gpxtpx:hr></gpxtpx:TrackPointExtension></extensions>
      </trkpt>
      <trkpt lat="59.9873237" lon="15.8070074">
        <ele>91.2</ele>
        <time>2012-10-30T18:59:27Z</time>
        <extensions><gpxtpx:TrackPointExtension><gpxtpx:hr>157</gpxtpx:hr></gpxtpx:TrackPointExtension></extensions>
      </trkpt>
      <trkpt lat="59.9873083" lon="15.8069766">
        <ele>91.2</ele>
        <time>2012-10-30T18:59:28Z</time>
        <extensions><gpxtpx:TrackPointExtension><gpxtpx:hr>157</gpxtpx:hr></gpxtpx:TrackPointExtension></extensions>
      </trkpt>
      <trkpt lat="59.9872848" lon="15.8069574">
        <ele>91.2</ele>
        <time>2012-10-30T18:59:29Z</time>
        <extensions><gpxtpx:TrackPointExtension><gpxtpx:hr>157</gpxtpx:hr></gpxtpx:TrackPointExtension></extensions>
      </trkpt>
      <trkpt lat="59.987264" lon="15.806937">
        <ele>91.2</ele>
        <time>2012-10-30T18:59:30Z</time>
        <extensions><gpxtpx:TrackPointExtension><gpxtpx:hr>157</gpxtpx:hr></gpxtpx:TrackPointExtension></extensions>
      </trkpt>
      <trkpt lat="59.9872457" lon="15.8069129">
        <ele>91.4</ele>
        <time>2012-10-30T18:59:31Z</time>
        <extensions><gpxtpx:TrackPointExtension><gpxtpx:hr>157</gpxtpx:hr></gpxtpx:TrackPointExtension></extensions>
      </trkpt>
      <trkpt lat="59.9872215" lon="15.8068935">
        <ele>91.2</ele>
        <time>2012-10-30T18:59:32Z</time>
        <extensions><gpxtpx:TrackPointExtension><gpxtpx:hr>156</gpxtpx:hr></gpxtpx:TrackPointExtension></extensions>
      </trkpt>
      <trkpt lat="59.9871954" lon="15.8068768">
        <ele>91.2</ele>
        <time>2012-10-30T18:59:33Z</time>
        <extensions><gpxtpx:TrackPointExtension><gpxtpx:hr>157</gpxtpx:hr></gpxtpx:TrackPointExtension></extensions>
      </trkpt>
      <trkpt lat="59.9871775" lon="15.8068589">
        <ele>91.2</ele>
        <time>2012-10-30T18:59:34Z</time>
        <extensions><gpxtpx:TrackPointExtension><gpxtpx:hr>156</gpxtpx:hr></gpxtpx:TrackPointExtension></extensions>
      </trkpt>
      <trkpt lat="59.9871508" lon="15.8068396">
        <ele>91.2</ele>
        <time>2012-10-30T18:59:35Z</time>
        <extensions><gpxtpx:TrackPointExtension><gpxtpx:hr>156</gpxtpx:hr></gpxtpx:TrackPointExtension></extensions>
      </trkpt>
      <trkpt lat="59.9871258" lon="15.8068284">
        <ele>91.2</ele>
        <time>2012-10-30T18:59:36Z</time>
        <extensions><gpxtpx:TrackPointExtension><gpxtpx:hr>156</gpxtpx:hr></gpxtpx:TrackPointExtension></extensions>
      </trkpt>
      <trkpt lat="59.9870985" lon="15.8068124">
        <ele>91.2</ele>
        <time>2012-10-30T18:59:37Z</time>
        <extensions><gpxtpx:TrackPointExtension><gpxtpx:hr>156</gpxtpx:hr></gpxtpx:TrackPointExtension></extensions>
      </trkpt>
      <trkpt lat="59.9870825" lon="15.8067957">
        <ele>91.2</ele>
        <time>2012-10-30T18:59:38Z</time>
        <extensions><gpxtpx:TrackPointExtension><gpxtpx:hr>156</gpxtpx:hr></gpxtpx:TrackPointExtension></extensions>
      </trkpt>
      <trkpt lat="59.9870472" lon="15.8067744">
        <ele>91.2</ele>
        <time>2012-10-30T18:59:39Z</time>
        <extensions><gpxtpx:TrackPointExtension><gpxtpx:hr>156</gpxtpx:hr></gpxtpx:TrackPointExtension></extensions>
      </trkpt>
      <trkpt lat="59.9870279" lon="15.8067627">
        <ele>91.2</ele>
        <time>2012-10-30T18:59:40Z</time>
        <extensions><gpxtpx:TrackPointExtension><gpxtpx:hr>155</gpxtpx:hr></gpxtpx:TrackPointExtension></extensions>
      </trkpt>
      <trkpt lat="59.9869993" lon="15.8067423">
        <ele>91.2</ele>
        <time>2012-10-30T18:59:41Z</time>
        <extensions><gpxtpx:TrackPointExtension><gpxtpx:hr>156</gpxtpx:hr></gpxtpx:TrackPointExtension></extensions>
      </trkpt>
      <trkpt lat="59.9869723" lon="15.8067264">
        <ele>91.2</ele>
        <time>2012-10-30T18:59:42Z</time>
        <extensions><gpxtpx:TrackPointExtension><gpxtpx:hr>156</gpxtpx:hr></gpxtpx:TrackPointExtension></extensions>
      </trkpt>
      <trkpt lat="59.986945" lon="15.8067166">
        <ele>91.2</ele>
        <time>2012-10-30T18:59:43Z</time>
        <extensions><gpxtpx:TrackPointExtension><gpxtpx:hr>156</gpxtpx:hr></gpxtpx:TrackPointExtension></extensions>
      </trkpt>
      <trkpt lat="59.9869249" lon="15.8067089">
        <ele>91.4</ele>
        <time>2012-10-30T18:59:44Z</time>
        <extensions><gpxtpx:TrackPointExtension><gpxtpx:hr>156</gpxtpx:hr></gpxtpx:TrackPointExtension></extensions>
      </trkpt>
      <trkpt lat="59.9868967" lon="15.8066963">
        <ele>91.4</ele>
        <time>2012-10-30T18:59:45Z</time>
        <extensions><gpxtpx:TrackPointExtension><gpxtpx:hr>156</gpxtpx:hr></gpxtpx:TrackPointExtension></extensions>
      </trkpt>
      <trkpt lat="59.9868758" lon="15.8066847">
        <ele>91.4</ele>
        <time>2012-10-30T18:59:46Z</time>
        <extensions><gpxtpx:TrackPointExtension><gpxtpx:hr>156</gpxtpx:hr></gpxtpx:TrackPointExtension></extensions>
      </trkpt>
      <trkpt lat="59.9868452" lon="15.8066729">
        <ele>91.4</ele>
        <time>2012-10-30T18:59:47Z</time>
        <extensions><gpxtpx:TrackPointExtension><gpxtpx:hr>157</gpxtpx:hr></gpxtpx:TrackPointExtension></extensions>
      </trkpt>
      <trkpt lat="59.9868331" lon="15.8066606">
        <ele>91.4</ele>
        <time>2012-10-30T18:59:48Z</time>
        <extensions><gpxtpx:TrackPointExtension><gpxtpx:hr>157</gpxtpx:hr></gpxtpx:TrackPointExtension></extensions>
      </trkpt>
      <trkpt lat="59.9867976" lon="15.806638">
        <ele>91.4</ele>
        <time>2012-10-30T18:59:49Z</time>
        <extensions><gpxtpx:TrackPointExtension><gpxtpx:hr>157</gpxtpx:hr></gpxtpx:TrackPointExtension></extensions>
      </trkpt>
      <trkpt lat="59.9867806" lon="15.806628">
        <ele>91.4</ele>
        <time>2012-10-30T18:59:50Z</time>
        <extensions><gpxtpx:TrackPointExtension><gpxtpx:hr>157</gpxtpx:hr></gpxtpx:TrackPointExtension></extensions>
      </trkpt>
      <trkpt lat="59.986756" lon="15.806618">
        <ele>91.4</ele>
        <time>2012-10-30T18:59:51Z</time>
        <extensions><gpxtpx:TrackPointExtension><gpxtpx:hr>157</gpxtpx:hr></gpxtpx:TrackPointExtension></extensions>
      </trkpt>
      <trkpt lat="59.9867313" lon="15.8066069">
        <ele>91.4</ele>
        <time>2012-10-30T18:59:52Z</time>
        <extensions><gpxtpx:TrackPointExtension><gpxtpx:hr>156</gpxtpx:hr></gpxtpx:TrackPointExtension></extensions>
      </trkpt>
      <trkpt lat="59.9866876" lon="15.8065802">
        <ele>91.4</ele>
        <time>2012-10-30T18:59:54Z</time>
        <extensions><gpxtpx:TrackPointExtension><gpxtpx:hr>156</gpxtpx:hr></gpxtpx:TrackPointExtension></extensions>
      </trkpt>
      <trkpt lat="59.9866632" lon="15.8065601">
        <ele>91.4</ele>
        <time>2012-10-30T18:59:55Z</time>
        <extensions><gpxtpx:TrackPointExtension><gpxtpx:hr>156</gpxtpx:hr></gpxtpx:TrackPointExtension></extensions>
      </trkpt>
      <trkpt lat="59.9866444" lon="15.8065464">
        <ele>91.4</ele>
        <time>2012-10-30T18:59:56Z</time>
        <extensions><gpxtpx:TrackPointExtension><gpxtpx:hr>156</gpxtpx:hr></gpxtpx:TrackPointExtension></extensions>
      </trkpt>
      <trkpt lat="59.9866192" lon="15.806518">
        <ele>91.4</ele>
        <time>2012-10-30T18:59:57Z</time>
        <extensions><gpxtpx:TrackPointExtension><gpxtpx:hr>157</gpxtpx:hr></gpxtpx:TrackPointExtension></extensions>
      </trkpt>
      <trkpt lat="59.9866005" lon="15.8065004">
        <ele>91.4</ele>
        <time>2012-10-30T18:59:58Z</time>
        <extensions><gpxtpx:TrackPointExtension><gpxtpx:hr>157</gpxtpx:hr></gpxtpx:TrackPointExtension></extensions>
      </trkpt>
      <trkpt lat="59.9865839" lon="15.8064816">
        <ele>91.4</ele>
        <time>2012-10-30T18:59:59Z</time>
        <extensions><gpxtpx:TrackPointExtension><gpxtpx:hr>157</gpxtpx:hr></gpxtpx:TrackPointExtension></extensions>
      </trkpt>
      <trkpt lat="59.9865645" lon="15.8064549">
        <ele>91.4</ele>
        <time>2012-10-30T19:00:00Z</time>
        <extensions><gpxtpx:TrackPointExtension><gpxtpx:hr>157</gpxtpx:hr></gpxtpx:TrackPointExtension></extensions>
      </trkpt>
      <trkpt lat="59.9865461" lon="15.8064265">
        <ele>91.4</ele>
        <time>2012-10-30T19:00:01Z</time>
        <extensions><gpxtpx:TrackPointExtension><gpxtpx:hr>157</gpxtpx:hr></gpxtpx:TrackPointExtension></extensions>
      </trkpt>
      <trkpt lat="59.9864937" lon="15.8063388">
        <ele>91.4</ele>
        <time>2012-10-30T19:00:04Z</time>
        <extensions><gpxtpx:TrackPointExtension><gpxtpx:hr>157</gpxtpx:hr></gpxtpx:TrackPointExtension></extensions>
      </trkpt>
      <trkpt lat="59.9864589" lon="15.8062713">
        <ele>91.4</ele>
        <time>2012-10-30T19:00:06Z</time>
        <extensions><gpxtpx:TrackPointExtension><gpxtpx:hr>158</gpxtpx:hr></gpxtpx:TrackPointExtension></extensions>
      </trkpt>
      <trkpt lat="59.9864353" lon="15.8062277">
        <ele>91.4</ele>
        <time>2012-10-30T19:00:07Z</time>
        <extensions><gpxtpx:TrackPointExtension><gpxtpx:hr>157</gpxtpx:hr></gpxtpx:TrackPointExtension></extensions>
      </trkpt>
      <trkpt lat="59.9864179" lon="15.806195">
        <ele>91.4</ele>
        <time>2012-10-30T19:00:08Z</time>
        <extensions><gpxtpx:TrackPointExtension><gpxtpx:hr>158</gpxtpx:hr></gpxtpx:TrackPointExtension></extensions>
      </trkpt>
      <trkpt lat="59.9863983" lon="15.8061535">
        <ele>91.4</ele>
        <time>2012-10-30T19:00:09Z</time>
        <extensions><gpxtpx:TrackPointExtension><gpxtpx:hr>158</gpxtpx:hr></gpxtpx:TrackPointExtension></extensions>
      </trkpt>
      <trkpt lat="59.9863177" lon="15.8060193">
        <ele>91.4</ele>
        <time>2012-10-30T19:00:13Z</time>
        <extensions><gpxtpx:TrackPointExtension><gpxtpx:hr>159</gpxtpx:hr></gpxtpx:TrackPointExtension></extensions>
      </trkpt>
      <trkpt lat="59.9862993" lon="15.8059841">
        <ele>91.4</ele>
        <time>2012-10-30T19:00:14Z</time>
        <extensions><gpxtpx:TrackPointExtension><gpxtpx:hr>160</gpxtpx:hr></gpxtpx:TrackPointExtension></extensions>
      </trkpt>
      <trkpt lat="59.9862813" lon="15.8059421">
        <ele>91.4</ele>
        <time>2012-10-30T19:00:15Z</time>
        <extensions><gpxtpx:TrackPointExtension><gpxtpx:hr>159</gpxtpx:hr></gpxtpx:TrackPointExtension></extensions>
      </trkpt>
      <trkpt lat="59.9862397" lon="15.8058514">
        <ele>91.2</ele>
        <time>2012-10-30T19:00:18Z</time>
        <extensions><gpxtpx:TrackPointExtension><gpxtpx:hr>160</gpxtpx:hr></gpxtpx:TrackPointExtension></extensions>
      </trkpt>
      <trkpt lat="59.986221" lon="15.8058045">
        <ele>91.4</ele>
        <time>2012-10-30T19:00:19Z</time>
        <extensions><gpxtpx:TrackPointExtension><gpxtpx:hr>160</gpxtpx:hr></gpxtpx:TrackPointExtension></extensions>
      </trkpt>
      <trkpt lat="59.9862053" lon="15.8057676">
        <ele>91.2</ele>
        <time>2012-10-30T19:00:20Z</time>
        <extensions><gpxtpx:TrackPointExtension><gpxtpx:hr>160</gpxtpx:hr></gpxtpx:TrackPointExtension></extensions>
      </trkpt>
      <trkpt lat="59.9861877" lon="15.8057293">
        <ele>91.4</ele>
        <time>2012-10-30T19:00:21Z</time>
        <extensions><gpxtpx:TrackPointExtension><gpxtpx:hr>159</gpxtpx:hr></gpxtpx:TrackPointExtension></extensions>
      </trkpt>
      <trkpt lat="59.9861719" lon="15.8056957">
        <ele>91.2</ele>
        <time>2012-10-30T19:00:22Z</time>
        <extensions><gpxtpx:TrackPointExtension><gpxtpx:hr>159</gpxtpx:hr></gpxtpx:TrackPointExtension></extensions>
      </trkpt>
      <trkpt lat="59.9861571" lon="15.8056614">
        <ele>91.4</ele>
        <time>2012-10-30T19:00:23Z</time>
        <extensions><gpxtpx:TrackPointExtension><gpxtpx:hr>159</gpxtpx:hr></gpxtpx:TrackPointExtension></extensions>
      </trkpt>
      <trkpt lat="59.9861342" lon="15.8056171">
        <ele>91.2</ele>
        <time>2012-10-30T19:00:24Z</time>
        <extensions><gpxtpx:TrackPointExtension><gpxtpx:hr>159</gpxtpx:hr></gpxtpx:TrackPointExtension></extensions>
      </trkpt>
      <trkpt lat="59.9861155" lon="15.8055863">
        <ele>91.2</ele>
        <time>2012-10-30T19:00:25Z</time>
        <extensions><gpxtpx:TrackPointExtension><gpxtpx:hr>159</gpxtpx:hr></gpxtpx:TrackPointExtension></extensions>
      </trkpt>
      <trkpt lat="59.9860978" lon="15.8055566">
        <ele>91.2</ele>
        <time>2012-10-30T19:00:26Z</time>
        <extensions><gpxtpx:TrackPointExtension><gpxtpx:hr>160</gpxtpx:hr></gpxtpx:TrackPointExtension></extensions>
      </trkpt>
      <trkpt lat="59.986075" lon="15.8055143">
        <ele>91.4</ele>
        <time>2012-10-30T19:00:27Z</time>
        <extensions><gpxtpx:TrackPointExtension><gpxtpx:hr>160</gpxtpx:hr></gpxtpx:TrackPointExtension></extensions>
      </trkpt>
      <trkpt lat="59.9860561" lon="15.8054822">
        <ele>91.4</ele>
        <time>2012-10-30T19:00:28Z</time>
        <extensions><gpxtpx:TrackPointExtension><gpxtpx:hr>160</gpxtpx:hr></gpxtpx:TrackPointExtension></extensions>
      </trkpt>
      <trkpt lat="59.9860416" lon="15.8054599">
        <ele>91.2</ele>
        <time>2012-10-30T19:00:29Z</time>
        <extensions><gpxtpx:TrackPointExtension><gpxtpx:hr>160</gpxtpx:hr></gpxtpx:TrackPointExtension></extensions>
      </trkpt>
      <trkpt lat="59.9860276" lon="15.8054312">
        <ele>91.4</ele>
        <time>2012-10-30T19:00:30Z</time>
        <extensions><gpxtpx:TrackPointExtension><gpxtpx:hr>161</gpxtpx:hr></gpxtpx:TrackPointExtension></extensions>
      </trkpt>
      <trkpt lat="59.9860064" lon="15.8053837">
        <ele>91.4</ele>
        <time>2012-10-30T19:00:31Z</time>
        <extensions><gpxtpx:TrackPointExtension><gpxtpx:hr>161</gpxtpx:hr></gpxtpx:TrackPointExtension></extensions>
      </trkpt>
      <trkpt lat="59.9859888" lon="15.8053486">
        <ele>91.4</ele>
        <time>2012-10-30T19:00:32Z</time>
        <extensions><gpxtpx:TrackPointExtension><gpxtpx:hr>161</gpxtpx:hr></gpxtpx:TrackPointExtension></extensions>
      </trkpt>
      <trkpt lat="59.985973" lon="15.8053164">
        <ele>91.4</ele>
        <time>2012-10-30T19:00:33Z</time>
        <extensions><gpxtpx:TrackPointExtension><gpxtpx:hr>161</gpxtpx:hr></gpxtpx:TrackPointExtension></extensions>
      </trkpt>
      <trkpt lat="59.9859575" lon="15.805285">
        <ele>91.4</ele>
        <time>2012-10-30T19:00:34Z</time>
        <extensions><gpxtpx:TrackPointExtension><gpxtpx:hr>161</gpxtpx:hr></gpxtpx:TrackPointExtension></extensions>
      </trkpt>
      <trkpt lat="59.9859465" lon="15.8052575">
        <ele>91.4</ele>
        <time>2012-10-30T19:00:35Z</time>
        <extensions><gpxtpx:TrackPointExtension><gpxtpx:hr>160</gpxtpx:hr></gpxtpx:TrackPointExtension></extensions>
      </trkpt>
      <trkpt lat="59.985908" lon="15.8051824">
        <ele>91.4</ele>
        <time>2012-10-30T19:00:37Z</time>
        <extensions><gpxtpx:TrackPointExtension><gpxtpx:hr>161</gpxtpx:hr></gpxtpx:TrackPointExtension></extensions>
      </trkpt>
      <trkpt lat="59.9858953" lon="15.8051597">
        <ele>91.4</ele>
        <time>2012-10-30T19:00:38Z</time>
        <extensions><gpxtpx:TrackPointExtension><gpxtpx:hr>161</gpxtpx:hr></gpxtpx:TrackPointExtension></extensions>
      </trkpt>
      <trkpt lat="59.9858406" lon="15.8050483">
        <ele>91.4</ele>
        <time>2012-10-30T19:00:41Z</time>
        <extensions><gpxtpx:TrackPointExtension><gpxtpx:hr>162</gpxtpx:hr></gpxtpx:TrackPointExtension></extensions>
      </trkpt>
      <trkpt lat="59.9857914" lon="15.8049551">
        <ele>91.4</ele>
        <time>2012-10-30T19:00:44Z</time>
        <extensions><gpxtpx:TrackPointExtension><gpxtpx:hr>161</gpxtpx:hr></gpxtpx:TrackPointExtension></extensions>
      </trkpt>
      <trkpt lat="59.9857717" lon="15.804915">
        <ele>91.4</ele>
        <time>2012-10-30T19:00:45Z</time>
        <extensions><gpxtpx:TrackPointExtension><gpxtpx:hr>162</gpxtpx:hr></gpxtpx:TrackPointExtension></extensions>
      </trkpt>
      <trkpt lat="59.9857615" lon="15.8048911">
        <ele>94.4</ele>
        <time>2012-10-30T19:00:46Z</time>
        <extensions><gpxtpx:TrackPointExtension><gpxtpx:hr>162</gpxtpx:hr></gpxtpx:TrackPointExtension></extensions>
      </trkpt>
      <trkpt lat="59.9857418" lon="15.8048519">
        <ele>94.4</ele>
        <time>2012-10-30T19:00:47Z</time>
        <extensions><gpxtpx:TrackPointExtension><gpxtpx:hr>162</gpxtpx:hr></gpxtpx:TrackPointExtension></extensions>
      </trkpt>
      <trkpt lat="59.9857252" lon="15.8048274">
        <ele>94.4</ele>
        <time>2012-10-30T19:00:48Z</time>
        <extensions><gpxtpx:TrackPointExtension><gpxtpx:hr>162</gpxtpx:hr></gpxtpx:TrackPointExtension></extensions>
      </trkpt>
      <trkpt lat="59.9857021" lon="15.8047891">
        <ele>94.4</ele>
        <time>2012-10-30T19:00:49Z</time>
        <extensions><gpxtpx:TrackPointExtension><gpxtpx:hr>163</gpxtpx:hr></gpxtpx:TrackPointExtension></extensions>
      </trkpt>
      <trkpt lat="59.9856548" lon="15.8046813">
        <ele>94.4</ele>
        <time>2012-10-30T19:00:52Z</time>
        <extensions><gpxtpx:TrackPointExtension><gpxtpx:hr>163</gpxtpx:hr></gpxtpx:TrackPointExtension></extensions>
      </trkpt>
      <trkpt lat="59.985642" lon="15.8046383">
        <ele>94.4</ele>
        <time>2012-10-30T19:00:53Z</time>
        <extensions><gpxtpx:TrackPointExtension><gpxtpx:hr>163</gpxtpx:hr></gpxtpx:TrackPointExtension></extensions>
      </trkpt>
      <trkpt lat="59.985627" lon="15.8045938">
        <ele>94.4</ele>
        <time>2012-10-30T19:00:54Z</time>
        <extensions><gpxtpx:TrackPointExtension><gpxtpx:hr>162</gpxtpx:hr></gpxtpx:TrackPointExtension></extensions>
      </trkpt>
      <trkpt lat="59.9856103" lon="15.8045538">
        <ele>94.4</ele>
        <time>2012-10-30T19:00:55Z</time>
        <extensions><gpxtpx:TrackPointExtension><gpxtpx:hr>163</gpxtpx:hr></gpxtpx:TrackPointExtension></extensions>
      </trkpt>
      <trkpt lat="59.9855985" lon="15.8045257">
        <ele>95.4</ele>
        <time>2012-10-30T19:00:56Z</time>
        <extensions><gpxtpx:TrackPointExtension><gpxtpx:hr>163</gpxtpx:hr></gpxtpx:TrackPointExtension></extensions>
      </trkpt>
      <trkpt lat="59.9855788" lon="15.8044839">
        <ele>95.4</ele>
        <time>2012-10-30T19:00:57Z</time>
        <extensions><gpxtpx:TrackPointExtension><gpxtpx:hr>163</gpxtpx:hr></gpxtpx:TrackPointExtension></extensions>
      </trkpt>
      <trkpt lat="59.985561" lon="15.8044532">
        <ele>95.4</ele>
        <time>2012-10-30T19:00:59Z</time>
        <extensions><gpxtpx:TrackPointExtension><gpxtpx:hr>164</gpxtpx:hr></gpxtpx:TrackPointExtension></extensions>
      </trkpt>
      <trkpt lat="59.9854946" lon="15.8043581">
        <ele>95.4</ele>
        <time>2012-10-30T19:01:02Z</time>
        <extensions><gpxtpx:TrackPointExtension><gpxtpx:hr>163</gpxtpx:hr></gpxtpx:TrackPointExtension></extensions>
      </trkpt>
      <trkpt lat="59.9854749" lon="15.8043144">
        <ele>95.4</ele>
        <time>2012-10-30T19:01:03Z</time>
        <extensions><gpxtpx:TrackPointExtension><gpxtpx:hr>164</gpxtpx:hr></gpxtpx:TrackPointExtension></extensions>
      </trkpt>
      <trkpt lat="59.9854568" lon="15.8042815">
        <ele>95.6</ele>
        <time>2012-10-30T19:01:04Z</time>
        <extensions><gpxtpx:TrackPointExtension><gpxtpx:hr>163</gpxtpx:hr></gpxtpx:TrackPointExtension></extensions>
      </trkpt>
      <trkpt lat="59.985455" lon="15.8042799">
        <ele>95.6</ele>
        <time>2012-10-30T19:01:05Z</time>
        <extensions><gpxtpx:TrackPointExtension><gpxtpx:hr>164</gpxtpx:hr></gpxtpx:TrackPointExtension></extensions>
      </trkpt>
      <trkpt lat="59.9854205" lon="15.8042138">
        <ele>95.4</ele>
        <time>2012-10-30T19:01:06Z</time>
        <extensions><gpxtpx:TrackPointExtension><gpxtpx:hr>164</gpxtpx:hr></gpxtpx:TrackPointExtension></extensions>
      </trkpt>
      <trkpt lat="59.9854002" lon="15.8041792">
        <ele>96.6</ele>
        <time>2012-10-30T19:01:07Z</time>
        <extensions><gpxtpx:TrackPointExtension><gpxtpx:hr>165</gpxtpx:hr></gpxtpx:TrackPointExtension></extensions>
      </trkpt>
      <trkpt lat="59.9853613" lon="15.8040948">
        <ele>96.6</ele>
        <time>2012-10-30T19:01:09Z</time>
        <extensions><gpxtpx:TrackPointExtension><gpxtpx:hr>164</gpxtpx:hr></gpxtpx:TrackPointExtension></extensions>
      </trkpt>
      <trkpt lat="59.9853471" lon="15.8040656">
        <ele>96.6</ele>
        <time>2012-10-30T19:01:10Z</time>
        <extensions><gpxtpx:TrackPointExtension><gpxtpx:hr>164</gpxtpx:hr></gpxtpx:TrackPointExtension></extensions>
      </trkpt>
      <trkpt lat="59.9853252" lon="15.8040155">
        <ele>96.6</ele>
        <time>2012-10-30T19:01:11Z</time>
        <extensions><gpxtpx:TrackPointExtension><gpxtpx:hr>164</gpxtpx:hr></gpxtpx:TrackPointExtension></extensions>
      </trkpt>
      <trkpt lat="59.9853076" lon="15.8039854">
        <ele>96.6</ele>
        <time>2012-10-30T19:01:12Z</time>
        <extensions><gpxtpx:TrackPointExtension><gpxtpx:hr>164</gpxtpx:hr></gpxtpx:TrackPointExtension></extensions>
      </trkpt>
      <trkpt lat="59.9852948" lon="15.8039571">
        <ele>96.6</ele>
        <time>2012-10-30T19:01:13Z</time>
        <extensions><gpxtpx:TrackPointExtension><gpxtpx:hr>164</gpxtpx:hr></gpxtpx:TrackPointExtension></extensions>
      </trkpt>
      <trkpt lat="59.9852771" lon="15.8039284">
        <ele>96.6</ele>
        <time>2012-10-30T19:01:14Z</time>
        <extensions><gpxtpx:TrackPointExtension><gpxtpx:hr>165</gpxtpx:hr></gpxtpx:TrackPointExtension></extensions>
      </trkpt>
      <trkpt lat="59.9852563" lon="15.8038851">
        <ele>96.6</ele>
        <time>2012-10-30T19:01:15Z</time>
        <extensions><gpxtpx:TrackPointExtension><gpxtpx:hr>164</gpxtpx:hr></gpxtpx:TrackPointExtension></extensions>
      </trkpt>
      <trkpt lat="59.985244" lon="15.8038572">
        <ele>96.6</ele>
        <time>2012-10-30T19:01:16Z</time>
        <extensions><gpxtpx:TrackPointExtension><gpxtpx:hr>164</gpxtpx:hr></gpxtpx:TrackPointExtension></extensions>
      </trkpt>
      <trkpt lat="59.9852238" lon="15.8038137">
        <ele>96.6</ele>
        <time>2012-10-30T19:01:17Z</time>
        <extensions><gpxtpx:TrackPointExtension><gpxtpx:hr>164</gpxtpx:hr></gpxtpx:TrackPointExtension></extensions>
      </trkpt>
      <trkpt lat="59.9852123" lon="15.8037873">
        <ele>96.6</ele>
        <time>2012-10-30T19:01:18Z</time>
        <extensions><gpxtpx:TrackPointExtension><gpxtpx:hr>164</gpxtpx:hr></gpxtpx:TrackPointExtension></extensions>
      </trkpt>
      <trkpt lat="59.985191" lon="15.8037426">
        <ele>96.6</ele>
        <time>2012-10-30T19:01:19Z</time>
        <extensions><gpxtpx:TrackPointExtension><gpxtpx:hr>164</gpxtpx:hr></gpxtpx:TrackPointExtension></extensions>
      </trkpt>
      <trkpt lat="59.9851802" lon="15.8037198">
        <ele>96.6</ele>
        <time>2012-10-30T19:01:20Z</time>
        <extensions><gpxtpx:TrackPointExtension><gpxtpx:hr>164</gpxtpx:hr></gpxtpx:TrackPointExtension></extensions>
      </trkpt>
      <trkpt lat="59.9851622" lon="15.8036788">
        <ele>96.6</ele>
        <time>2012-10-30T19:01:21Z</time>
        <extensions><gpxtpx:TrackPointExtension><gpxtpx:hr>165</gpxtpx:hr></gpxtpx:TrackPointExtension></extensions>
      </trkpt>
      <trkpt lat="59.9851459" lon="15.803645">
        <ele>96.8</ele>
        <time>2012-10-30T19:01:22Z</time>
        <extensions><gpxtpx:TrackPointExtension><gpxtpx:hr>165</gpxtpx:hr></gpxtpx:TrackPointExtension></extensions>
      </trkpt>
      <trkpt lat="59.9851398" lon="15.8036286">
        <ele>96.6</ele>
        <time>2012-10-30T19:01:23Z</time>
        <extensions><gpxtpx:TrackPointExtension><gpxtpx:hr>165</gpxtpx:hr></gpxtpx:TrackPointExtension></extensions>
      </trkpt>
      <trkpt lat="59.9851175" lon="15.80358">
        <ele>96.6</ele>
        <time>2012-10-30T19:01:24Z</time>
        <extensions><gpxtpx:TrackPointExtension><gpxtpx:hr>165</gpxtpx:hr></gpxtpx:TrackPointExtension></extensions>
      </trkpt>
      <trkpt lat="59.9850995" lon="15.8035474">
        <ele>96.6</ele>
        <time>2012-10-30T19:01:25Z</time>
        <extensions><gpxtpx:TrackPointExtension><gpxtpx:hr>165</gpxtpx:hr></gpxtpx:TrackPointExtension></extensions>
      </trkpt>
      <trkpt lat="59.9850877" lon="15.8035251">
        <ele>96.6</ele>
        <time>2012-10-30T19:01:26Z</time>
        <extensions><gpxtpx:TrackPointExtension><gpxtpx:hr>165</gpxtpx:hr></gpxtpx:TrackPointExtension></extensions>
      </trkpt>
      <trkpt lat="59.9850207" lon="15.8033852">
        <ele>97.6</ele>
        <time>2012-10-30T19:01:30Z</time>
        <extensions><gpxtpx:TrackPointExtension><gpxtpx:hr>165</gpxtpx:hr></gpxtpx:TrackPointExtension></extensions>
      </trkpt>
      <trkpt lat="59.9850028" lon="15.8033502">
        <ele>97.6</ele>
        <time>2012-10-30T19:01:31Z</time>
        <extensions><gpxtpx:TrackPointExtension><gpxtpx:hr>164</gpxtpx:hr></gpxtpx:TrackPointExtension></extensions>
      </trkpt>
      <trkpt lat="59.9849854" lon="15.8033152">
        <ele>97.6</ele>
        <time>2012-10-30T19:01:32Z</time>
        <extensions><gpxtpx:TrackPointExtension><gpxtpx:hr>165</gpxtpx:hr></gpxtpx:TrackPointExtension></extensions>
      </trkpt>
      <trkpt lat="59.9849694" lon="15.8032774">
        <ele>97.6</ele>
        <time>2012-10-30T19:01:33Z</time>
        <extensions><gpxtpx:TrackPointExtension><gpxtpx:hr>165</gpxtpx:hr></gpxtpx:TrackPointExtension></extensions>
      </trkpt>
      <trkpt lat="59.9849547" lon="15.8032443">
        <ele>97.6</ele>
        <time>2012-10-30T19:01:34Z</time>
        <extensions><gpxtpx:TrackPointExtension><gpxtpx:hr>165</gpxtpx:hr></gpxtpx:TrackPointExtension></extensions>
      </trkpt>
      <trkpt lat="59.9849367" lon="15.8032107">
        <ele>97.6</ele>
        <time>2012-10-30T19:01:35Z</time>
        <extensions><gpxtpx:TrackPointExtension><gpxtpx:hr>165</gpxtpx:hr></gpxtpx:TrackPointExtension></extensions>
      </trkpt>
      <trkpt lat="59.9848742" lon="15.8030571">
        <ele>97.6</ele>
        <time>2012-10-30T19:01:39Z</time>
        <extensions><gpxtpx:TrackPointExtension><gpxtpx:hr>166</gpxtpx:hr></gpxtpx:TrackPointExtension></extensions>
      </trkpt>
      <trkpt lat="59.9848622" lon="15.8030299">
        <ele>97.6</ele>
        <time>2012-10-30T19:01:40Z</time>
        <extensions><gpxtpx:TrackPointExtension><gpxtpx:hr>166</gpxtpx:hr></gpxtpx:TrackPointExtension></extensions>
      </trkpt>
      <trkpt lat="59.9848418" lon="15.8029793">
        <ele>98.8</ele>
        <time>2012-10-30T19:01:41Z</time>
        <extensions><gpxtpx:TrackPointExtension><gpxtpx:hr>166</gpxtpx:hr></gpxtpx:TrackPointExtension></extensions>
      </trkpt>
      <trkpt lat="59.984823" lon="15.8029366">
        <ele>98.8</ele>
        <time>2012-10-30T19:01:42Z</time>
        <extensions><gpxtpx:TrackPointExtension><gpxtpx:hr>166</gpxtpx:hr></gpxtpx:TrackPointExtension></extensions>
      </trkpt>
      <trkpt lat="59.9848097" lon="15.8028968">
        <ele>98.8</ele>
        <time>2012-10-30T19:01:43Z</time>
        <extensions><gpxtpx:TrackPointExtension><gpxtpx:hr>166</gpxtpx:hr></gpxtpx:TrackPointExtension></extensions>
      </trkpt>
      <trkpt lat="59.9847932" lon="15.8028586">
        <ele>98.8</ele>
        <time>2012-10-30T19:01:44Z</time>
        <extensions><gpxtpx:TrackPointExtension><gpxtpx:hr>166</gpxtpx:hr></gpxtpx:TrackPointExtension></extensions>
      </trkpt>
      <trkpt lat="59.9847777" lon="15.8028279">
        <ele>98.8</ele>
        <time>2012-10-30T19:01:45Z</time>
        <extensions><gpxtpx:TrackPointExtension><gpxtpx:hr>166</gpxtpx:hr></gpxtpx:TrackPointExtension></extensions>
      </trkpt>
      <trkpt lat="59.9847683" lon="15.8027949">
        <ele>98.8</ele>
        <time>2012-10-30T19:01:46Z</time>
        <extensions><gpxtpx:TrackPointExtension><gpxtpx:hr>166</gpxtpx:hr></gpxtpx:TrackPointExtension></extensions>
      </trkpt>
      <trkpt lat="59.9847535" lon="15.8027517">
        <ele>98.8</ele>
        <time>2012-10-30T19:01:47Z</time>
        <extensions><gpxtpx:TrackPointExtension><gpxtpx:hr>167</gpxtpx:hr></gpxtpx:TrackPointExtension></extensions>
      </trkpt>
      <trkpt lat="59.9847433" lon="15.8027281">
        <ele>99.8</ele>
        <time>2012-10-30T19:01:48Z</time>
        <extensions><gpxtpx:TrackPointExtension><gpxtpx:hr>166</gpxtpx:hr></gpxtpx:TrackPointExtension></extensions>
      </trkpt>
      <trkpt lat="59.9847271" lon="15.8026789">
        <ele>100</ele>
        <time>2012-10-30T19:01:49Z</time>
        <extensions><gpxtpx:TrackPointExtension><gpxtpx:hr>166</gpxtpx:hr></gpxtpx:TrackPointExtension></extensions>
      </trkpt>
      <trkpt lat="59.9847154" lon="15.8026449">
        <ele>99.8</ele>
        <time>2012-10-30T19:01:50Z</time>
        <extensions><gpxtpx:TrackPointExtension><gpxtpx:hr>166</gpxtpx:hr></gpxtpx:TrackPointExtension></extensions>
      </trkpt>
      <trkpt lat="59.984701" lon="15.8026049">
        <ele>99.8</ele>
        <time>2012-10-30T19:01:51Z</time>
        <extensions><gpxtpx:TrackPointExtension><gpxtpx:hr>166</gpxtpx:hr></gpxtpx:TrackPointExtension></extensions>
      </trkpt>
      <trkpt lat="59.9846795" lon="15.802538">
        <ele>99.8</ele>
        <time>2012-10-30T19:01:53Z</time>
        <extensions><gpxtpx:TrackPointExtension><gpxtpx:hr>166</gpxtpx:hr></gpxtpx:TrackPointExtension></extensions>
      </trkpt>
      <trkpt lat="59.9846694" lon="15.8024974">
        <ele>99.8</ele>
        <time>2012-10-30T19:01:54Z</time>
        <extensions><gpxtpx:TrackPointExtension><gpxtpx:hr>166</gpxtpx:hr></gpxtpx:TrackPointExtension></extensions>
      </trkpt>
      <trkpt lat="59.9846561" lon="15.8024481">
        <ele>100.8</ele>
        <time>2012-10-30T19:01:55Z</time>
        <extensions><gpxtpx:TrackPointExtension><gpxtpx:hr>166</gpxtpx:hr></gpxtpx:TrackPointExtension></extensions>
      </trkpt>
      <trkpt lat="59.9846476" lon="15.8024153">
        <ele>101</ele>
        <time>2012-10-30T19:01:56Z</time>
        <extensions><gpxtpx:TrackPointExtension><gpxtpx:hr>166</gpxtpx:hr></gpxtpx:TrackPointExtension></extensions>
      </trkpt>
      <trkpt lat="59.9846339" lon="15.8023657">
        <ele>100.8</ele>
        <time>2012-10-30T19:01:57Z</time>
        <extensions><gpxtpx:TrackPointExtension><gpxtpx:hr>167</gpxtpx:hr></gpxtpx:TrackPointExtension></extensions>
      </trkpt>
      <trkpt lat="59.9846269" lon="15.8023368">
        <ele>100.8</ele>
        <time>2012-10-30T19:01:58Z</time>
        <extensions><gpxtpx:TrackPointExtension><gpxtpx:hr>167</gpxtpx:hr></gpxtpx:TrackPointExtension></extensions>
      </trkpt>
      <trkpt lat="59.9846086" lon="15.8022823">
        <ele>100.8</ele>
        <time>2012-10-30T19:01:59Z</time>
        <extensions><gpxtpx:TrackPointExtension><gpxtpx:hr>167</gpxtpx:hr></gpxtpx:TrackPointExtension></extensions>
      </trkpt>
      <trkpt lat="59.9846016" lon="15.8022514">
        <ele>100.8</ele>
        <time>2012-10-30T19:02:00Z</time>
        <extensions><gpxtpx:TrackPointExtension><gpxtpx:hr>166</gpxtpx:hr></gpxtpx:TrackPointExtension></extensions>
      </trkpt>
      <trkpt lat="59.98459" lon="15.802207">
        <ele>102</ele>
        <time>2012-10-30T19:02:01Z</time>
        <extensions><gpxtpx:TrackPointExtension><gpxtpx:hr>167</gpxtpx:hr></gpxtpx:TrackPointExtension></extensions>
      </trkpt>
      <trkpt lat="59.9845794" lon="15.8021601">
        <ele>102</ele>
        <time>2012-10-30T19:02:02Z</time>
        <extensions><gpxtpx:TrackPointExtension><gpxtpx:hr>167</gpxtpx:hr></gpxtpx:TrackPointExtension></extensions>
      </trkpt>
      <trkpt lat="59.9845702" lon="15.8021232">
        <ele>102</ele>
        <time>2012-10-30T19:02:03Z</time>
        <extensions><gpxtpx:TrackPointExtension><gpxtpx:hr>167</gpxtpx:hr></gpxtpx:TrackPointExtension></extensions>
      </trkpt>
      <trkpt lat="59.984563" lon="15.8020937">
        <ele>102</ele>
        <time>2012-10-30T19:02:04Z</time>
        <extensions><gpxtpx:TrackPointExtension><gpxtpx:hr>167</gpxtpx:hr></gpxtpx:TrackPointExtension></extensions>
      </trkpt>
      <trkpt lat="59.9845498" lon="15.8020462">
        <ele>101.8</ele>
        <time>2012-10-30T19:02:05Z</time>
        <extensions><gpxtpx:TrackPointExtension><gpxtpx:hr>167</gpxtpx:hr></gpxtpx:TrackPointExtension></extensions>
      </trkpt>
      <trkpt lat="59.9845401" lon="15.8020169">
        <ele>101.8</ele>
        <time>2012-10-30T19:02:06Z</time>
        <extensions><gpxtpx:TrackPointExtension><gpxtpx:hr>167</gpxtpx:hr></gpxtpx:TrackPointExtension></extensions>
      </trkpt>
      <trkpt lat="59.9845301" lon="15.8019746">
        <ele>101.8</ele>
        <time>2012-10-30T19:02:07Z</time>
        <extensions><gpxtpx:TrackPointExtension><gpxtpx:hr>167</gpxtpx:hr></gpxtpx:TrackPointExtension></extensions>
      </trkpt>
      <trkpt lat="59.9845213" lon="15.801942">
        <ele>101.8</ele>
        <time>2012-10-30T19:02:08Z</time>
        <extensions><gpxtpx:TrackPointExtension><gpxtpx:hr>166</gpxtpx:hr></gpxtpx:TrackPointExtension></extensions>
      </trkpt>
      <trkpt lat="59.9845051" lon="15.8018856">
        <ele>103</ele>
        <time>2012-10-30T19:02:09Z</time>
        <extensions><gpxtpx:TrackPointExtension><gpxtpx:hr>167</gpxtpx:hr></gpxtpx:TrackPointExtension></extensions>
      </trkpt>
      <trkpt lat="59.9844981" lon="15.8018553">
        <ele>103</ele>
        <time>2012-10-30T19:02:10Z</time>
        <extensions><gpxtpx:TrackPointExtension><gpxtpx:hr>167</gpxtpx:hr></gpxtpx:TrackPointExtension></extensions>
      </trkpt>
      <trkpt lat="59.9844611" lon="15.8017211">
        <ele>103</ele>
        <time>2012-10-30T19:02:13Z</time>
        <extensions><gpxtpx:TrackPointExtension><gpxtpx:hr>167</gpxtpx:hr></gpxtpx:TrackPointExtension></extensions>
      </trkpt>
      <trkpt lat="59.9844499" lon="15.8016821">
        <ele>103</ele>
        <time>2012-10-30T19:02:14Z</time>
        <extensions><gpxtpx:TrackPointExtension><gpxtpx:hr>168</gpxtpx:hr></gpxtpx:TrackPointExtension></extensions>
      </trkpt>
      <trkpt lat="59.9844326" lon="15.8016325">
        <ele>103</ele>
        <time>2012-10-30T19:02:15Z</time>
        <extensions><gpxtpx:TrackPointExtension><gpxtpx:hr>168</gpxtpx:hr></gpxtpx:TrackPointExtension></extensions>
      </trkpt>
      <trkpt lat="59.9844264" lon="15.8015986">
        <ele>103</ele>
        <time>2012-10-30T19:02:16Z</time>
        <extensions><gpxtpx:TrackPointExtension><gpxtpx:hr>168</gpxtpx:hr></gpxtpx:TrackPointExtension></extensions>
      </trkpt>
      <trkpt lat="59.9844042" lon="15.8015117">
        <ele>103</ele>
        <time>2012-10-30T19:02:18Z</time>
        <extensions><gpxtpx:TrackPointExtension><gpxtpx:hr>168</gpxtpx:hr></gpxtpx:TrackPointExtension></extensions>
      </trkpt>
      <trkpt lat="59.9843887" lon="15.8014586">
        <ele>103</ele>
        <time>2012-10-30T19:02:19Z</time>
        <extensions><gpxtpx:TrackPointExtension><gpxtpx:hr>168</gpxtpx:hr></gpxtpx:TrackPointExtension></extensions>
      </trkpt>
      <trkpt lat="59.9843798" lon="15.8014213">
        <ele>103</ele>
        <time>2012-10-30T19:02:20Z</time>
        <extensions><gpxtpx:TrackPointExtension><gpxtpx:hr>168</gpxtpx:hr></gpxtpx:TrackPointExtension></extensions>
      </trkpt>
      <trkpt lat="59.9843376" lon="15.8012783">
        <ele>103</ele>
        <time>2012-10-30T19:02:23Z</time>
        <extensions><gpxtpx:TrackPointExtension><gpxtpx:hr>168</gpxtpx:hr></gpxtpx:TrackPointExtension></extensions>
      </trkpt>
      <trkpt lat="59.9843291" lon="15.8012433">
        <ele>103</ele>
        <time>2012-10-30T19:02:24Z</time>
        <extensions><gpxtpx:TrackPointExtension><gpxtpx:hr>168</gpxtpx:hr></gpxtpx:TrackPointExtension></extensions>
      </trkpt>
      <trkpt lat="59.9843141" lon="15.8011893">
        <ele>103</ele>
        <time>2012-10-30T19:02:25Z</time>
        <extensions><gpxtpx:TrackPointExtension><gpxtpx:hr>168</gpxtpx:hr></gpxtpx:TrackPointExtension></extensions>
      </trkpt>
      <trkpt lat="59.984303" lon="15.8011521">
        <ele>103</ele>
        <time>2012-10-30T19:02:26Z</time>
        <extensions><gpxtpx:TrackPointExtension><gpxtpx:hr>168</gpxtpx:hr></gpxtpx:TrackPointExtension></extensions>
      </trkpt>
      <trkpt lat="59.984291" lon="15.801102">
        <ele>103</ele>
        <time>2012-10-30T19:02:27Z</time>
        <extensions><gpxtpx:TrackPointExtension><gpxtpx:hr>168</gpxtpx:hr></gpxtpx:TrackPointExtension></extensions>
      </trkpt>
      <trkpt lat="59.9842647" lon="15.801006">
        <ele>103</ele>
        <time>2012-10-30T19:02:29Z</time>
        <extensions><gpxtpx:TrackPointExtension><gpxtpx:hr>168</gpxtpx:hr></gpxtpx:TrackPointExtension></extensions>
      </trkpt>
      <trkpt lat="59.984241" lon="15.8009206">
        <ele>104</ele>
        <time>2012-10-30T19:02:31Z</time>
        <extensions><gpxtpx:TrackPointExtension><gpxtpx:hr>168</gpxtpx:hr></gpxtpx:TrackPointExtension></extensions>
      </trkpt>
      <trkpt lat="59.9842117" lon="15.8007902">
        <ele>104</ele>
        <time>2012-10-30T19:02:34Z</time>
        <extensions><gpxtpx:TrackPointExtension><gpxtpx:hr>168</gpxtpx:hr></gpxtpx:TrackPointExtension></extensions>
      </trkpt>
      <trkpt lat="59.9841989" lon="15.8007372">
        <ele>104</ele>
        <time>2012-10-30T19:02:35Z</time>
        <extensions><gpxtpx:TrackPointExtension><gpxtpx:hr>167</gpxtpx:hr></gpxtpx:TrackPointExtension></extensions>
      </trkpt>
      <trkpt lat="59.9841887" lon="15.8007005">
        <ele>104</ele>
        <time>2012-10-30T19:02:36Z</time>
        <extensions><gpxtpx:TrackPointExtension><gpxtpx:hr>167</gpxtpx:hr></gpxtpx:TrackPointExtension></extensions>
      </trkpt>
      <trkpt lat="59.9841772" lon="15.8006501">
        <ele>104</ele>
        <time>2012-10-30T19:02:37Z</time>
        <extensions><gpxtpx:TrackPointExtension><gpxtpx:hr>166</gpxtpx:hr></gpxtpx:TrackPointExtension></extensions>
      </trkpt>
      <trkpt lat="59.9841686" lon="15.8006177">
        <ele>104</ele>
        <time>2012-10-30T19:02:38Z</time>
        <extensions><gpxtpx:TrackPointExtension><gpxtpx:hr>166</gpxtpx:hr></gpxtpx:TrackPointExtension></extensions>
      </trkpt>
      <trkpt lat="59.984149" lon="15.8005533">
        <ele>104</ele>
        <time>2012-10-30T19:02:39Z</time>
        <extensions><gpxtpx:TrackPointExtension><gpxtpx:hr>166</gpxtpx:hr></gpxtpx:TrackPointExtension></extensions>
      </trkpt>
      <trkpt lat="59.9841386" lon="15.800521">
        <ele>104</ele>
        <time>2012-10-30T19:02:40Z</time>
        <extensions><gpxtpx:TrackPointExtension><gpxtpx:hr>166</gpxtpx:hr></gpxtpx:TrackPointExtension></extensions>
      </trkpt>
      <trkpt lat="59.9841277" lon="15.8004765">
        <ele>104</ele>
        <time>2012-10-30T19:02:41Z</time>
        <extensions><gpxtpx:TrackPointExtension><gpxtpx:hr>166</gpxtpx:hr></gpxtpx:TrackPointExtension></extensions>
      </trkpt>
      <trkpt lat="59.984112" lon="15.8004227">
        <ele>104</ele>
        <time>2012-10-30T19:02:42Z</time>
        <extensions><gpxtpx:TrackPointExtension><gpxtpx:hr>166</gpxtpx:hr></gpxtpx:TrackPointExtension></extensions>
      </trkpt>
      <trkpt lat="59.9841006" lon="15.8003932">
        <ele>104</ele>
        <time>2012-10-30T19:02:43Z</time>
        <extensions><gpxtpx:TrackPointExtension><gpxtpx:hr>166</gpxtpx:hr></gpxtpx:TrackPointExtension></extensions>
      </trkpt>
      <trkpt lat="59.9840881" lon="15.8003459">
        <ele>104</ele>
        <time>2012-10-30T19:02:44Z</time>
        <extensions><gpxtpx:TrackPointExtension><gpxtpx:hr>166</gpxtpx:hr></gpxtpx:TrackPointExtension></extensions>
      </trkpt>
      <trkpt lat="59.9840763" lon="15.8003045">
        <ele>104</ele>
        <time>2012-10-30T19:02:45Z</time>
        <extensions><gpxtpx:TrackPointExtension><gpxtpx:hr>166</gpxtpx:hr></gpxtpx:TrackPointExtension></extensions>
      </trkpt>
      <trkpt lat="59.9840491" lon="15.8002206">
        <ele>104</ele>
        <time>2012-10-30T19:02:47Z</time>
        <extensions><gpxtpx:TrackPointExtension><gpxtpx:hr>165</gpxtpx:hr></gpxtpx:TrackPointExtension></extensions>
      </trkpt>
      <trkpt lat="59.9840389" lon="15.8001914">
        <ele>104</ele>
        <time>2012-10-30T19:02:48Z</time>
        <extensions><gpxtpx:TrackPointExtension><gpxtpx:hr>165</gpxtpx:hr></gpxtpx:TrackPointExtension></extensions>
      </trkpt>
      <trkpt lat="59.9840177" lon="15.8001392">
        <ele>104</ele>
        <time>2012-10-30T19:02:49Z</time>
        <extensions><gpxtpx:TrackPointExtension><gpxtpx:hr>165</gpxtpx:hr></gpxtpx:TrackPointExtension></extensions>
      </trkpt>
      <trkpt lat="59.9840032" lon="15.8001135">
        <ele>104</ele>
        <time>2012-10-30T19:02:50Z</time>
        <extensions><gpxtpx:TrackPointExtension><gpxtpx:hr>165</gpxtpx:hr></gpxtpx:TrackPointExtension></extensions>
      </trkpt>
      <trkpt lat="59.9839854" lon="15.8000754">
        <ele>104</ele>
        <time>2012-10-30T19:02:51Z</time>
        <extensions><gpxtpx:TrackPointExtension><gpxtpx:hr>165</gpxtpx:hr></gpxtpx:TrackPointExtension></extensions>
      </trkpt>
      <trkpt lat="59.9839701" lon="15.8000436">
        <ele>104</ele>
        <time>2012-10-30T19:02:52Z</time>
        <extensions><gpxtpx:TrackPointExtension><gpxtpx:hr>165</gpxtpx:hr></gpxtpx:TrackPointExtension></extensions>
      </trkpt>
      <trkpt lat="59.9839525" lon="15.8000177">
        <ele>104</ele>
        <time>2012-10-30T19:02:53Z</time>
        <extensions><gpxtpx:TrackPointExtension><gpxtpx:hr>165</gpxtpx:hr></gpxtpx:TrackPointExtension></extensions>
      </trkpt>
      <trkpt lat="59.983937" lon="15.7999896">
        <ele>104</ele>
        <time>2012-10-30T19:02:54Z</time>
        <extensions><gpxtpx:TrackPointExtension><gpxtpx:hr>165</gpxtpx:hr></gpxtpx:TrackPointExtension></extensions>
      </trkpt>
      <trkpt lat="59.9839204" lon="15.7999564">
        <ele>104</ele>
        <time>2012-10-30T19:02:55Z</time>
        <extensions><gpxtpx:TrackPointExtension><gpxtpx:hr>165</gpxtpx:hr></gpxtpx:TrackPointExtension></extensions>
      </trkpt>
      <trkpt lat="59.9839041" lon="15.799941">
        <ele>104</ele>
        <time>2012-10-30T19:02:56Z</time>
        <extensions><gpxtpx:TrackPointExtension><gpxtpx:hr>164</gpxtpx:hr></gpxtpx:TrackPointExtension></extensions>
      </trkpt>
      <trkpt lat="59.9838835" lon="15.7999109">
        <ele>104</ele>
        <time>2012-10-30T19:02:57Z</time>
        <extensions><gpxtpx:TrackPointExtension><gpxtpx:hr>165</gpxtpx:hr></gpxtpx:TrackPointExtension></extensions>
      </trkpt>
      <trkpt lat="59.9838701" lon="15.7998886">
        <ele>103.8</ele>
        <time>2012-10-30T19:02:58Z</time>
        <extensions><gpxtpx:TrackPointExtension><gpxtpx:hr>165</gpxtpx:hr></gpxtpx:TrackPointExtension></extensions>
      </trkpt>
      <trkpt lat="59.9838431" lon="15.7998573">
        <ele>104</ele>
        <time>2012-10-30T19:02:59Z</time>
        <extensions><gpxtpx:TrackPointExtension><gpxtpx:hr>165</gpxtpx:hr></gpxtpx:TrackPointExtension></extensions>
      </trkpt>
      <trkpt lat="59.9838211" lon="15.7998325">
        <ele>104</ele>
        <time>2012-10-30T19:03:00Z</time>
        <extensions><gpxtpx:TrackPointExtension><gpxtpx:hr>165</gpxtpx:hr></gpxtpx:TrackPointExtension></extensions>
      </trkpt>
      <trkpt lat="59.983807" lon="15.7998102">
        <ele>104</ele>
        <time>2012-10-30T19:03:01Z</time>
        <extensions><gpxtpx:TrackPointExtension><gpxtpx:hr>164</gpxtpx:hr></gpxtpx:TrackPointExtension></extensions>
      </trkpt>
      <trkpt lat="59.9837929" lon="15.7997897">
        <ele>104</ele>
        <time>2012-10-30T19:03:02Z</time>
        <extensions><gpxtpx:TrackPointExtension><gpxtpx:hr>164</gpxtpx:hr></gpxtpx:TrackPointExtension></extensions>
      </trkpt>
      <trkpt lat="59.9837735" lon="15.7997668">
        <ele>104</ele>
        <time>2012-10-30T19:03:03Z</time>
        <extensions><gpxtpx:TrackPointExtension><gpxtpx:hr>164</gpxtpx:hr></gpxtpx:TrackPointExtension></extensions>
      </trkpt>
      <trkpt lat="59.983747" lon="15.799726">
        <ele>104</ele>
        <time>2012-10-30T19:03:04Z</time>
        <extensions><gpxtpx:TrackPointExtension><gpxtpx:hr>164</gpxtpx:hr></gpxtpx:TrackPointExtension></extensions>
      </trkpt>
      <trkpt lat="59.983724" lon="15.7996908">
        <ele>104</ele>
        <time>2012-10-30T19:03:05Z</time>
        <extensions><gpxtpx:TrackPointExtension><gpxtpx:hr>164</gpxtpx:hr></gpxtpx:TrackPointExtension></extensions>
      </trkpt>
      <trkpt lat="59.9837044" lon="15.7996628">
        <ele>104</ele>
        <time>2012-10-30T19:03:06Z</time>
        <extensions><gpxtpx:TrackPointExtension><gpxtpx:hr>164</gpxtpx:hr></gpxtpx:TrackPointExtension></extensions>
      </trkpt>
      <trkpt lat="59.9836784" lon="15.799632">
        <ele>104</ele>
        <time>2012-10-30T19:03:07Z</time>
        <extensions><gpxtpx:TrackPointExtension><gpxtpx:hr>164</gpxtpx:hr></gpxtpx:TrackPointExtension></extensions>
      </trkpt>
      <trkpt lat="59.9836644" lon="15.799616">
        <ele>104</ele>
        <time>2012-10-30T19:03:08Z</time>
        <extensions><gpxtpx:TrackPointExtension><gpxtpx:hr>164</gpxtpx:hr></gpxtpx:TrackPointExtension></extensions>
      </trkpt>
      <trkpt lat="59.9836143" lon="15.7995475">
        <ele>104</ele>
        <time>2012-10-30T19:03:10Z</time>
        <extensions><gpxtpx:TrackPointExtension><gpxtpx:hr>163</gpxtpx:hr></gpxtpx:TrackPointExtension></extensions>
      </trkpt>
      <trkpt lat="59.9835932" lon="15.7995201">
        <ele>104</ele>
        <time>2012-10-30T19:03:11Z</time>
        <extensions><gpxtpx:TrackPointExtension><gpxtpx:hr>163</gpxtpx:hr></gpxtpx:TrackPointExtension></extensions>
      </trkpt>
      <trkpt lat="59.9835734" lon="15.7994936">
        <ele>104</ele>
        <time>2012-10-30T19:03:12Z</time>
        <extensions><gpxtpx:TrackPointExtension><gpxtpx:hr>164</gpxtpx:hr></gpxtpx:TrackPointExtension></extensions>
      </trkpt>
      <trkpt lat="59.9835495" lon="15.7994661">
        <ele>104</ele>
        <time>2012-10-30T19:03:13Z</time>
        <extensions><gpxtpx:TrackPointExtension><gpxtpx:hr>164</gpxtpx:hr></gpxtpx:TrackPointExtension></extensions>
      </trkpt>
      <trkpt lat="59.9835304" lon="15.7994416">
        <ele>104</ele>
        <time>2012-10-30T19:03:14Z</time>
        <extensions><gpxtpx:TrackPointExtension><gpxtpx:hr>164</gpxtpx:hr></gpxtpx:TrackPointExtension></extensions>
      </trkpt>
      <trkpt lat="59.9835114" lon="15.799414">
        <ele>104</ele>
        <time>2012-10-30T19:03:15Z</time>
        <extensions><gpxtpx:TrackPointExtension><gpxtpx:hr>164</gpxtpx:hr></gpxtpx:TrackPointExtension></extensions>
      </trkpt>
      <trkpt lat="59.9834893" lon="15.7993891">
        <ele>104</ele>
        <time>2012-10-30T19:03:16Z</time>
        <extensions><gpxtpx:TrackPointExtension><gpxtpx:hr>163</gpxtpx:hr></gpxtpx:TrackPointExtension></extensions>
      </trkpt>
      <trkpt lat="59.9834671" lon="15.7993609">
        <ele>104</ele>
        <time>2012-10-30T19:03:17Z</time>
        <extensions><gpxtpx:TrackPointExtension><gpxtpx:hr>163</gpxtpx:hr></gpxtpx:TrackPointExtension></extensions>
      </trkpt>
      <trkpt lat="59.9833077" lon="15.7991617">
        <ele>104</ele>
        <time>2012-10-30T19:03:24Z</time>
        <extensions><gpxtpx:TrackPointExtension><gpxtpx:hr>163</gpxtpx:hr></gpxtpx:TrackPointExtension></extensions>
      </trkpt>
      <trkpt lat="59.9832906" lon="15.7991349">
        <ele>104</ele>
        <time>2012-10-30T19:03:25Z</time>
        <extensions><gpxtpx:TrackPointExtension><gpxtpx:hr>163</gpxtpx:hr></gpxtpx:TrackPointExtension></extensions>
      </trkpt>
      <trkpt lat="59.9832695" lon="15.7991107">
        <ele>104</ele>
        <time>2012-10-30T19:03:26Z</time>
        <extensions><gpxtpx:TrackPointExtension><gpxtpx:hr>163</gpxtpx:hr></gpxtpx:TrackPointExtension></extensions>
      </trkpt>
      <trkpt lat="59.9832453" lon="15.7990832">
        <ele>104</ele>
        <time>2012-10-30T19:03:27Z</time>
        <extensions><gpxtpx:TrackPointExtension><gpxtpx:hr>163</gpxtpx:hr></gpxtpx:TrackPointExtension></extensions>
      </trkpt>
      <trkpt lat="59.9832316" lon="15.7990653">
        <ele>104</ele>
        <time>2012-10-30T19:03:28Z</time>
        <extensions><gpxtpx:TrackPointExtension><gpxtpx:hr>163</gpxtpx:hr></gpxtpx:TrackPointExtension></extensions>
      </trkpt>
      <trkpt lat="59.9831993" lon="15.7990283">
        <ele>104</ele>
        <time>2012-10-30T19:03:29Z</time>
        <extensions><gpxtpx:TrackPointExtension><gpxtpx:hr>163</gpxtpx:hr></gpxtpx:TrackPointExtension></extensions>
      </trkpt>
      <trkpt lat="59.9831776" lon="15.7990046">
        <ele>104</ele>
        <time>2012-10-30T19:03:30Z</time>
        <extensions><gpxtpx:TrackPointExtension><gpxtpx:hr>163</gpxtpx:hr></gpxtpx:TrackPointExtension></extensions>
      </trkpt>
      <trkpt lat="59.9831564" lon="15.7989767">
        <ele>104</ele>
        <time>2012-10-30T19:03:31Z</time>
        <extensions><gpxtpx:TrackPointExtension><gpxtpx:hr>163</gpxtpx:hr></gpxtpx:TrackPointExtension></extensions>
      </trkpt>
      <trkpt lat="59.9831354" lon="15.7989504">
        <ele>104</ele>
        <time>2012-10-30T19:03:32Z</time>
        <extensions><gpxtpx:TrackPointExtension><gpxtpx:hr>163</gpxtpx:hr></gpxtpx:TrackPointExtension></extensions>
      </trkpt>
      <trkpt lat="59.983119" lon="15.7989316">
        <ele>104</ele>
        <time>2012-10-30T19:03:33Z</time>
        <extensions><gpxtpx:TrackPointExtension><gpxtpx:hr>163</gpxtpx:hr></gpxtpx:TrackPointExtension></extensions>
      </trkpt>
      <trkpt lat="59.9830988" lon="15.7989073">
        <ele>104</ele>
        <time>2012-10-30T19:03:34Z</time>
        <extensions><gpxtpx:TrackPointExtension><gpxtpx:hr>163</gpxtpx:hr></gpxtpx:TrackPointExtension></extensions>
      </trkpt>
      <trkpt lat="59.9830819" lon="15.7988825">
        <ele>104</ele>
        <time>2012-10-30T19:03:35Z</time>
        <extensions><gpxtpx:TrackPointExtension><gpxtpx:hr>163</gpxtpx:hr></gpxtpx:TrackPointExtension></extensions>
      </trkpt>
      <trkpt lat="59.9830555" lon="15.7988478">
        <ele>104</ele>
        <time>2012-10-30T19:03:36Z</time>
        <extensions><gpxtpx:TrackPointExtension><gpxtpx:hr>163</gpxtpx:hr></gpxtpx:TrackPointExtension></extensions>
      </trkpt>
      <trkpt lat="59.9830319" lon="15.7988165">
        <ele>104</ele>
        <time>2012-10-30T19:03:37Z</time>
        <extensions><gpxtpx:TrackPointExtension><gpxtpx:hr>164</gpxtpx:hr></gpxtpx:TrackPointExtension></extensions>
      </trkpt>
      <trkpt lat="59.9829636" lon="15.798729">
        <ele>104</ele>
        <time>2012-10-30T19:03:40Z</time>
        <extensions><gpxtpx:TrackPointExtension><gpxtpx:hr>163</gpxtpx:hr></gpxtpx:TrackPointExtension></extensions>
      </trkpt>
      <trkpt lat="59.9829418" lon="15.7986979">
        <ele>104</ele>
        <time>2012-10-30T19:03:41Z</time>
        <extensions><gpxtpx:TrackPointExtension><gpxtpx:hr>163</gpxtpx:hr></gpxtpx:TrackPointExtension></extensions>
      </trkpt>
      <trkpt lat="59.982923" lon="15.7986732">
        <ele>104</ele>
        <time>2012-10-30T19:03:42Z</time>
        <extensions><gpxtpx:TrackPointExtension><gpxtpx:hr>163</gpxtpx:hr></gpxtpx:TrackPointExtension></extensions>
      </trkpt>
      <trkpt lat="59.9828988" lon="15.7986422">
        <ele>104</ele>
        <time>2012-10-30T19:03:43Z</time>
        <extensions><gpxtpx:TrackPointExtension><gpxtpx:hr>163</gpxtpx:hr></gpxtpx:TrackPointExtension></extensions>
      </trkpt>
      <trkpt lat="59.9828777" lon="15.7986143">
        <ele>104</ele>
        <time>2012-10-30T19:03:44Z</time>
        <extensions><gpxtpx:TrackPointExtension><gpxtpx:hr>163</gpxtpx:hr></gpxtpx:TrackPointExtension></extensions>
      </trkpt>
      <trkpt lat="59.9828621" lon="15.7985909">
        <ele>104</ele>
        <time>2012-10-30T19:03:45Z</time>
        <extensions><gpxtpx:TrackPointExtension><gpxtpx:hr>163</gpxtpx:hr></gpxtpx:TrackPointExtension></extensions>
      </trkpt>
      <trkpt lat="59.9828441" lon="15.7985687">
        <ele>104</ele>
        <time>2012-10-30T19:03:46Z</time>
        <extensions><gpxtpx:TrackPointExtension><gpxtpx:hr>163</gpxtpx:hr></gpxtpx:TrackPointExtension></extensions>
      </trkpt>
      <trkpt lat="59.9828223" lon="15.7985449">
        <ele>104</ele>
        <time>2012-10-30T19:03:47Z</time>
        <extensions><gpxtpx:TrackPointExtension><gpxtpx:hr>163</gpxtpx:hr></gpxtpx:TrackPointExtension></extensions>
      </trkpt>
      <trkpt lat="59.9828066" lon="15.7985244">
        <ele>104</ele>
        <time>2012-10-30T19:03:48Z</time>
        <extensions><gpxtpx:TrackPointExtension><gpxtpx:hr>163</gpxtpx:hr></gpxtpx:TrackPointExtension></extensions>
      </trkpt>
      <trkpt lat="59.9827751" lon="15.7984828">
        <ele>104</ele>
        <time>2012-10-30T19:03:49Z</time>
        <extensions><gpxtpx:TrackPointExtension><gpxtpx:hr>163</gpxtpx:hr></gpxtpx:TrackPointExtension></extensions>
      </trkpt>
      <trkpt lat="59.9826879" lon="15.7983819">
        <ele>104</ele>
        <time>2012-10-30T19:03:53Z</time>
        <extensions><gpxtpx:TrackPointExtension><gpxtpx:hr>162</gpxtpx:hr></gpxtpx:TrackPointExtension></extensions>
      </trkpt>
      <trkpt lat="59.9826663" lon="15.7983611">
        <ele>103.8</ele>
        <time>2012-10-30T19:03:54Z</time>
        <extensions><gpxtpx:TrackPointExtension><gpxtpx:hr>162</gpxtpx:hr></gpxtpx:TrackPointExtension></extensions>
      </trkpt>
      <trkpt lat="59.9826479" lon="15.7983461">
        <ele>104</ele>
        <time>2012-10-30T19:03:55Z</time>
        <extensions><gpxtpx:TrackPointExtension><gpxtpx:hr>162</gpxtpx:hr></gpxtpx:TrackPointExtension></extensions>
      </trkpt>
      <trkpt lat="59.9826271" lon="15.7983245">
        <ele>104</ele>
        <time>2012-10-30T19:03:56Z</time>
        <extensions><gpxtpx:TrackPointExtension><gpxtpx:hr>161</gpxtpx:hr></gpxtpx:TrackPointExtension></extensions>
      </trkpt>
      <trkpt lat="59.9825974" lon="15.7982982">
        <ele>104</ele>
        <time>2012-10-30T19:03:57Z</time>
        <extensions><gpxtpx:TrackPointExtension><gpxtpx:hr>161</gpxtpx:hr></gpxtpx:TrackPointExtension></extensions>
      </trkpt>
      <trkpt lat="59.9825815" lon="15.7982788">
        <ele>104</ele>
        <time>2012-10-30T19:03:58Z</time>
        <extensions><gpxtpx:TrackPointExtension><gpxtpx:hr>161</gpxtpx:hr></gpxtpx:TrackPointExtension></extensions>
      </trkpt>
      <trkpt lat="59.9825456" lon="15.798246">
        <ele>104</ele>
        <time>2012-10-30T19:03:59Z</time>
        <extensions><gpxtpx:TrackPointExtension><gpxtpx:hr>160</gpxtpx:hr></gpxtpx:TrackPointExtension></extensions>
      </trkpt>
      <trkpt lat="59.9825242" lon="15.7982274">
        <ele>104</ele>
        <time>2012-10-30T19:04:00Z</time>
        <extensions><gpxtpx:TrackPointExtension><gpxtpx:hr>161</gpxtpx:hr></gpxtpx:TrackPointExtension></extensions>
      </trkpt>
      <trkpt lat="59.9824981" lon="15.7982051">
        <ele>104</ele>
        <time>2012-10-30T19:04:01Z</time>
        <extensions><gpxtpx:TrackPointExtension><gpxtpx:hr>161</gpxtpx:hr></gpxtpx:TrackPointExtension></extensions>
      </trkpt>
      <trkpt lat="59.9824565" lon="15.7981782">
        <ele>104</ele>
        <time>2012-10-30T19:04:03Z</time>
        <extensions><gpxtpx:TrackPointExtension><gpxtpx:hr>161</gpxtpx:hr></gpxtpx:TrackPointExtension></extensions>
      </trkpt>
      <trkpt lat="59.9824325" lon="15.7981583">
        <ele>104</ele>
        <time>2012-10-30T19:04:04Z</time>
        <extensions><gpxtpx:TrackPointExtension><gpxtpx:hr>162</gpxtpx:hr></gpxtpx:TrackPointExtension></extensions>
      </trkpt>
      <trkpt lat="59.9824052" lon="15.7981336">
        <ele>104</ele>
        <time>2012-10-30T19:04:05Z</time>
        <extensions><gpxtpx:TrackPointExtension><gpxtpx:hr>162</gpxtpx:hr></gpxtpx:TrackPointExtension></extensions>
      </trkpt>
      <trkpt lat="59.9823824" lon="15.7981176">
        <ele>104</ele>
        <time>2012-10-30T19:04:06Z</time>
        <extensions><gpxtpx:TrackPointExtension><gpxtpx:hr>162</gpxtpx:hr></gpxtpx:TrackPointExtension></extensions>
      </trkpt>
      <trkpt lat="59.9822777" lon="15.7980542">
        <ele>104</ele>
        <time>2012-10-30T19:04:10Z</time>
        <extensions><gpxtpx:TrackPointExtension><gpxtpx:hr>162</gpxtpx:hr></gpxtpx:TrackPointExtension></extensions>
      </trkpt>
      <trkpt lat="59.9822549" lon="15.7980363">
        <ele>104</ele>
        <time>2012-10-30T19:04:11Z</time>
        <extensions><gpxtpx:TrackPointExtension><gpxtpx:hr>162</gpxtpx:hr></gpxtpx:TrackPointExtension></extensions>
      </trkpt>
      <trkpt lat="59.9822067" lon="15.7980067">
        <ele>104</ele>
        <time>2012-10-30T19:04:13Z</time>
        <extensions><gpxtpx:TrackPointExtension><gpxtpx:hr>162</gpxtpx:hr></gpxtpx:TrackPointExtension></extensions>
      </trkpt>
      <trkpt lat="59.9820149" lon="15.7979091">
        <ele>104</ele>
        <time>2012-10-30T19:04:21Z</time>
        <extensions><gpxtpx:TrackPointExtension><gpxtpx:hr>162</gpxtpx:hr></gpxtpx:TrackPointExtension></extensions>
      </trkpt>
      <trkpt lat="59.9818496" lon="15.7978239">
        <ele>103.8</ele>
        <time>2012-10-30T19:04:28Z</time>
        <extensions><gpxtpx:TrackPointExtension><gpxtpx:hr>161</gpxtpx:hr></gpxtpx:TrackPointExtension></extensions>
      </trkpt>
      <trkpt lat="59.9818257" lon="15.797814">
        <ele>104</ele>
        <time>2012-10-30T19:04:29Z</time>
        <extensions><gpxtpx:TrackPointExtension><gpxtpx:hr>161</gpxtpx:hr></gpxtpx:TrackPointExtension></extensions>
      </trkpt>
      <trkpt lat="59.9817504" lon="15.7977688">
        <ele>103.8</ele>
        <time>2012-10-30T19:04:32Z</time>
        <extensions><gpxtpx:TrackPointExtension><gpxtpx:hr>161</gpxtpx:hr></gpxtpx:TrackPointExtension></extensions>
      </trkpt>
      <trkpt lat="59.9817245" lon="15.7977529">
        <ele>104</ele>
        <time>2012-10-30T19:04:33Z</time>
        <extensions><gpxtpx:TrackPointExtension><gpxtpx:hr>161</gpxtpx:hr></gpxtpx:TrackPointExtension></extensions>
      </trkpt>
      <trkpt lat="59.9817034" lon="15.7977393">
        <ele>103.8</ele>
        <time>2012-10-30T19:04:34Z</time>
        <extensions><gpxtpx:TrackPointExtension><gpxtpx:hr>161</gpxtpx:hr></gpxtpx:TrackPointExtension></extensions>
      </trkpt>
      <trkpt lat="59.9816734" lon="15.7977215">
        <ele>104</ele>
        <time>2012-10-30T19:04:35Z</time>
        <extensions><gpxtpx:TrackPointExtension><gpxtpx:hr>160</gpxtpx:hr></gpxtpx:TrackPointExtension></extensions>
      </trkpt>
      <trkpt lat="59.9816416" lon="15.7977032">
        <ele>103.8</ele>
        <time>2012-10-30T19:04:36Z</time>
        <extensions><gpxtpx:TrackPointExtension><gpxtpx:hr>159</gpxtpx:hr></gpxtpx:TrackPointExtension></extensions>
      </trkpt>
      <trkpt lat="59.9816357" lon="15.7976998">
        <ele>104</ele>
        <time>2012-10-30T19:04:37Z</time>
        <extensions><gpxtpx:TrackPointExtension><gpxtpx:hr>158</gpxtpx:hr></gpxtpx:TrackPointExtension></extensions>
      </trkpt>
      <trkpt lat="59.9816049" lon="15.7976855">
        <ele>104</ele>
        <time>2012-10-30T19:04:38Z</time>
        <extensions><gpxtpx:TrackPointExtension><gpxtpx:hr>158</gpxtpx:hr></gpxtpx:TrackPointExtension></extensions>
      </trkpt>
      <trkpt lat="59.9815893" lon="15.7976731">
        <ele>104</ele>
        <time>2012-10-30T19:04:39Z</time>
        <extensions><gpxtpx:TrackPointExtension><gpxtpx:hr>156</gpxtpx:hr></gpxtpx:TrackPointExtension></extensions>
      </trkpt>
      <trkpt lat="59.9815113" lon="15.7976365">
        <ele>104</ele>
        <time>2012-10-30T19:04:42Z</time>
        <extensions><gpxtpx:TrackPointExtension><gpxtpx:hr>155</gpxtpx:hr></gpxtpx:TrackPointExtension></extensions>
      </trkpt>
      <trkpt lat="59.9814247" lon="15.7975693">
        <ele>104</ele>
        <time>2012-10-30T19:04:46Z</time>
        <extensions><gpxtpx:TrackPointExtension><gpxtpx:hr>158</gpxtpx:hr></gpxtpx:TrackPointExtension></extensions>
      </trkpt>
      <trkpt lat="59.9813795" lon="15.7975305">
        <ele>104</ele>
        <time>2012-10-30T19:04:48Z</time>
        <extensions><gpxtpx:TrackPointExtension><gpxtpx:hr>159</gpxtpx:hr></gpxtpx:TrackPointExtension></extensions>
      </trkpt>
      <trkpt lat="59.9812823" lon="15.797471">
        <ele>104</ele>
        <time>2012-10-30T19:04:52Z</time>
        <extensions><gpxtpx:TrackPointExtension><gpxtpx:hr>162</gpxtpx:hr></gpxtpx:TrackPointExtension></extensions>
      </trkpt>
      <trkpt lat="59.9811883" lon="15.7974081">
        <ele>104</ele>
        <time>2012-10-30T19:04:56Z</time>
        <extensions><gpxtpx:TrackPointExtension><gpxtpx:hr>163</gpxtpx:hr></gpxtpx:TrackPointExtension></extensions>
      </trkpt>
      <trkpt lat="59.9811526" lon="15.7973763">
        <ele>104</ele>
        <time>2012-10-30T19:04:58Z</time>
        <extensions><gpxtpx:TrackPointExtension><gpxtpx:hr>163</gpxtpx:hr></gpxtpx:TrackPointExtension></extensions>
      </trkpt>
      <trkpt lat="59.9811259" lon="15.7973482">
        <ele>104</ele>
        <time>2012-10-30T19:04:59Z</time>
        <extensions><gpxtpx:TrackPointExtension><gpxtpx:hr>164</gpxtpx:hr></gpxtpx:TrackPointExtension></extensions>
      </trkpt>
      <trkpt lat="59.9810843" lon="15.79729">
        <ele>104</ele>
        <time>2012-10-30T19:05:01Z</time>
        <extensions><gpxtpx:TrackPointExtension><gpxtpx:hr>164</gpxtpx:hr></gpxtpx:TrackPointExtension></extensions>
      </trkpt>
      <trkpt lat="59.9810639" lon="15.7972603">
        <ele>104</ele>
        <time>2012-10-30T19:05:02Z</time>
        <extensions><gpxtpx:TrackPointExtension><gpxtpx:hr>165</gpxtpx:hr></gpxtpx:TrackPointExtension></extensions>
      </trkpt>
      <trkpt lat="59.981044" lon="15.7972271">
        <ele>104</ele>
        <time>2012-10-30T19:05:03Z</time>
        <extensions><gpxtpx:TrackPointExtension><gpxtpx:hr>164</gpxtpx:hr></gpxtpx:TrackPointExtension></extensions>
      </trkpt>
      <trkpt lat="59.9810208" lon="15.7971919">
        <ele>104</ele>
        <time>2012-10-30T19:05:04Z</time>
        <extensions><gpxtpx:TrackPointExtension><gpxtpx:hr>165</gpxtpx:hr></gpxtpx:TrackPointExtension></extensions>
      </trkpt>
      <trkpt lat="59.981004" lon="15.797165">
        <ele>104</ele>
        <time>2012-10-30T19:05:05Z</time>
        <extensions><gpxtpx:TrackPointExtension><gpxtpx:hr>165</gpxtpx:hr></gpxtpx:TrackPointExtension></extensions>
      </trkpt>
      <trkpt lat="59.9809838" lon="15.7971307">
        <ele>104</ele>
        <time>2012-10-30T19:05:06Z</time>
        <extensions><gpxtpx:TrackPointExtension><gpxtpx:hr>166</gpxtpx:hr></gpxtpx:TrackPointExtension></extensions>
      </trkpt>
      <trkpt lat="59.9809686" lon="15.7971062">
        <ele>104</ele>
        <time>2012-10-30T19:05:07Z</time>
        <extensions><gpxtpx:TrackPointExtension><gpxtpx:hr>166</gpxtpx:hr></gpxtpx:TrackPointExtension></extensions>
      </trkpt>
      <trkpt lat="59.9809502" lon="15.7970771">
        <ele>104</ele>
        <time>2012-10-30T19:05:08Z</time>
        <extensions><gpxtpx:TrackPointExtension><gpxtpx:hr>165</gpxtpx:hr></gpxtpx:TrackPointExtension></extensions>
      </trkpt>
      <trkpt lat="59.9809294" lon="15.797043">
        <ele>104</ele>
        <time>2012-10-30T19:05:09Z</time>
        <extensions><gpxtpx:TrackPointExtension><gpxtpx:hr>166</gpxtpx:hr></gpxtpx:TrackPointExtension></extensions>
      </trkpt>
      <trkpt lat="59.9809067" lon="15.797006">
        <ele>104</ele>
        <time>2012-10-30T19:05:10Z</time>
        <extensions><gpxtpx:TrackPointExtension><gpxtpx:hr>166</gpxtpx:hr></gpxtpx:TrackPointExtension></extensions>
      </trkpt>
      <trkpt lat="59.980891" lon="15.7969806">
        <ele>105.2</ele>
        <time>2012-10-30T19:05:11Z</time>
        <extensions><gpxtpx:TrackPointExtension><gpxtpx:hr>165</gpxtpx:hr></gpxtpx:TrackPointExtension></extensions>
      </trkpt>
      <trkpt lat="59.9808734" lon="15.796952">
        <ele>105.2</ele>
        <time>2012-10-30T19:05:12Z</time>
        <extensions><gpxtpx:TrackPointExtension><gpxtpx:hr>166</gpxtpx:hr></gpxtpx:TrackPointExtension></extensions>
      </trkpt>
      <trkpt lat="59.980853" lon="15.7969191">
        <ele>105.2</ele>
        <time>2012-10-30T19:05:13Z</time>
        <extensions><gpxtpx:TrackPointExtension><gpxtpx:hr>166</gpxtpx:hr></gpxtpx:TrackPointExtension></extensions>
      </trkpt>
      <trkpt lat="59.9808318" lon="15.7968859">
        <ele>105.2</ele>
        <time>2012-10-30T19:05:14Z</time>
        <extensions><gpxtpx:TrackPointExtension><gpxtpx:hr>166</gpxtpx:hr></gpxtpx:TrackPointExtension></extensions>
      </trkpt>
      <trkpt lat="59.9807606" lon="15.796769">
        <ele>105.2</ele>
        <time>2012-10-30T19:05:18Z</time>
        <extensions><gpxtpx:TrackPointExtension><gpxtpx:hr>166</gpxtpx:hr></gpxtpx:TrackPointExtension></extensions>
      </trkpt>
      <trkpt lat="59.9806002" lon="15.7965185">
        <ele>105.2</ele>
        <time>2012-10-30T19:05:26Z</time>
        <extensions><gpxtpx:TrackPointExtension><gpxtpx:hr>167</gpxtpx:hr></gpxtpx:TrackPointExtension></extensions>
      </trkpt>
      <trkpt lat="59.9805813" lon="15.7964879">
        <ele>105.2</ele>
        <time>2012-10-30T19:05:27Z</time>
        <extensions><gpxtpx:TrackPointExtension><gpxtpx:hr>167</gpxtpx:hr></gpxtpx:TrackPointExtension></extensions>
      </trkpt>
      <trkpt lat="59.9805668" lon="15.7964644">
        <ele>105.2</ele>
        <time>2012-10-30T19:05:28Z</time>
        <extensions><gpxtpx:TrackPointExtension><gpxtpx:hr>167</gpxtpx:hr></gpxtpx:TrackPointExtension></extensions>
      </trkpt>
      <trkpt lat="59.9805438" lon="15.7964306">
        <ele>105.2</ele>
        <time>2012-10-30T19:05:29Z</time>
        <extensions><gpxtpx:TrackPointExtension><gpxtpx:hr>166</gpxtpx:hr></gpxtpx:TrackPointExtension></extensions>
      </trkpt>
      <trkpt lat="59.9804289" lon="15.7962538">
        <ele>106.2</ele>
        <time>2012-10-30T19:05:35Z</time>
        <extensions><gpxtpx:TrackPointExtension><gpxtpx:hr>167</gpxtpx:hr></gpxtpx:TrackPointExtension></extensions>
      </trkpt>
      <trkpt lat="59.9804074" lon="15.7962191">
        <ele>106.2</ele>
        <time>2012-10-30T19:05:36Z</time>
        <extensions><gpxtpx:TrackPointExtension><gpxtpx:hr>167</gpxtpx:hr></gpxtpx:TrackPointExtension></extensions>
      </trkpt>
      <trkpt lat="59.9803942" lon="15.7961914">
        <ele>106.2</ele>
        <time>2012-10-30T19:05:37Z</time>
        <extensions><gpxtpx:TrackPointExtension><gpxtpx:hr>167</gpxtpx:hr></gpxtpx:TrackPointExtension></extensions>
      </trkpt>
      <trkpt lat="59.9803822" lon="15.7961533">
        <ele>106.2</ele>
        <time>2012-10-30T19:05:38Z</time>
        <extensions><gpxtpx:TrackPointExtension><gpxtpx:hr>167</gpxtpx:hr></gpxtpx:TrackPointExtension></extensions>
      </trkpt>
      <trkpt lat="59.9803715" lon="15.7961033">
        <ele>106.2</ele>
        <time>2012-10-30T19:05:39Z</time>
        <extensions><gpxtpx:TrackPointExtension><gpxtpx:hr>168</gpxtpx:hr></gpxtpx:TrackPointExtension></extensions>
      </trkpt>
      <trkpt lat="59.9803611" lon="15.7960467">
        <ele>106.2</ele>
        <time>2012-10-30T19:05:40Z</time>
        <extensions><gpxtpx:TrackPointExtension><gpxtpx:hr>167</gpxtpx:hr></gpxtpx:TrackPointExtension></extensions>
      </trkpt>
      <trkpt lat="59.9803523" lon="15.7960036">
        <ele>106.2</ele>
        <time>2012-10-30T19:05:41Z</time>
        <extensions><gpxtpx:TrackPointExtension><gpxtpx:hr>167</gpxtpx:hr></gpxtpx:TrackPointExtension></extensions>
      </trkpt>
      <trkpt lat="59.9803442" lon="15.7959587">
        <ele>106.2</ele>
        <time>2012-10-30T19:05:42Z</time>
        <extensions><gpxtpx:TrackPointExtension><gpxtpx:hr>167</gpxtpx:hr></gpxtpx:TrackPointExtension></extensions>
      </trkpt>
      <trkpt lat="59.9803352" lon="15.7959072">
        <ele>106.2</ele>
        <time>2012-10-30T19:05:43Z</time>
        <extensions><gpxtpx:TrackPointExtension><gpxtpx:hr>167</gpxtpx:hr></gpxtpx:TrackPointExtension></extensions>
      </trkpt>
      <trkpt lat="59.9803251" lon="15.7958596">
        <ele>106.2</ele>
        <time>2012-10-30T19:05:44Z</time>
        <extensions><gpxtpx:TrackPointExtension><gpxtpx:hr>167</gpxtpx:hr></gpxtpx:TrackPointExtension></extensions>
      </trkpt>
      <trkpt lat="59.9803192" lon="15.7958223">
        <ele>106.2</ele>
        <time>2012-10-30T19:05:45Z</time>
        <extensions><gpxtpx:TrackPointExtension><gpxtpx:hr>167</gpxtpx:hr></gpxtpx:TrackPointExtension></extensions>
      </trkpt>
      <trkpt lat="59.9803134" lon="15.7957705">
        <ele>106.2</ele>
        <time>2012-10-30T19:05:46Z</time>
        <extensions><gpxtpx:TrackPointExtension><gpxtpx:hr>166</gpxtpx:hr></gpxtpx:TrackPointExtension></extensions>
      </trkpt>
      <trkpt lat="59.980309" lon="15.7957342">
        <ele>106.2</ele>
        <time>2012-10-30T19:05:47Z</time>
        <extensions><gpxtpx:TrackPointExtension><gpxtpx:hr>166</gpxtpx:hr></gpxtpx:TrackPointExtension></extensions>
      </trkpt>
      <trkpt lat="59.9803028" lon="15.7956885">
        <ele>106.2</ele>
        <time>2012-10-30T19:05:48Z</time>
        <extensions><gpxtpx:TrackPointExtension><gpxtpx:hr>167</gpxtpx:hr></gpxtpx:TrackPointExtension></extensions>
      </trkpt>
      <trkpt lat="59.9802953" lon="15.795637">
        <ele>106.2</ele>
        <time>2012-10-30T19:05:49Z</time>
        <extensions><gpxtpx:TrackPointExtension><gpxtpx:hr>166</gpxtpx:hr></gpxtpx:TrackPointExtension></extensions>
      </trkpt>
      <trkpt lat="59.9802866" lon="15.795584">
        <ele>106.2</ele>
        <time>2012-10-30T19:05:50Z</time>
        <extensions><gpxtpx:TrackPointExtension><gpxtpx:hr>166</gpxtpx:hr></gpxtpx:TrackPointExtension></extensions>
      </trkpt>
      <trkpt lat="59.9802666" lon="15.7954441">
        <ele>106.2</ele>
        <time>2012-10-30T19:05:53Z</time>
        <extensions><gpxtpx:TrackPointExtension><gpxtpx:hr>165</gpxtpx:hr></gpxtpx:TrackPointExtension></extensions>
      </trkpt>
      <trkpt lat="59.9802571" lon="15.7953898">
        <ele>106.2</ele>
        <time>2012-10-30T19:05:54Z</time>
        <extensions><gpxtpx:TrackPointExtension><gpxtpx:hr>165</gpxtpx:hr></gpxtpx:TrackPointExtension></extensions>
      </trkpt>
      <trkpt lat="59.9802505" lon="15.7953496">
        <ele>106.2</ele>
        <time>2012-10-30T19:05:55Z</time>
        <extensions><gpxtpx:TrackPointExtension><gpxtpx:hr>165</gpxtpx:hr></gpxtpx:TrackPointExtension></extensions>
      </trkpt>
      <trkpt lat="59.9802426" lon="15.7952992">
        <ele>106.2</ele>
        <time>2012-10-30T19:05:56Z</time>
        <extensions><gpxtpx:TrackPointExtension><gpxtpx:hr>165</gpxtpx:hr></gpxtpx:TrackPointExtension></extensions>
      </trkpt>
      <trkpt lat="59.9802312" lon="15.7952195">
        <ele>106.4</ele>
        <time>2012-10-30T19:05:58Z</time>
        <extensions><gpxtpx:TrackPointExtension><gpxtpx:hr>166</gpxtpx:hr></gpxtpx:TrackPointExtension></extensions>
      </trkpt>
      <trkpt lat="59.9802198" lon="15.7951805">
        <ele>106.2</ele>
        <time>2012-10-30T19:05:59Z</time>
        <extensions><gpxtpx:TrackPointExtension><gpxtpx:hr>165</gpxtpx:hr></gpxtpx:TrackPointExtension></extensions>
      </trkpt>
      <trkpt lat="59.9802083" lon="15.7951285">
        <ele>106.2</ele>
        <time>2012-10-30T19:06:00Z</time>
        <extensions><gpxtpx:TrackPointExtension><gpxtpx:hr>165</gpxtpx:hr></gpxtpx:TrackPointExtension></extensions>
      </trkpt>
      <trkpt lat="59.980201" lon="15.795085">
        <ele>106.2</ele>
        <time>2012-10-30T19:06:01Z</time>
        <extensions><gpxtpx:TrackPointExtension><gpxtpx:hr>165</gpxtpx:hr></gpxtpx:TrackPointExtension></extensions>
      </trkpt>
      <trkpt lat="59.9801947" lon="15.7950398">
        <ele>106.2</ele>
        <time>2012-10-30T19:06:02Z</time>
        <extensions><gpxtpx:TrackPointExtension><gpxtpx:hr>165</gpxtpx:hr></gpxtpx:TrackPointExtension></extensions>
      </trkpt>
      <trkpt lat="59.9801882" lon="15.7949885">
        <ele>106.2</ele>
        <time>2012-10-30T19:06:03Z</time>
        <extensions><gpxtpx:TrackPointExtension><gpxtpx:hr>164</gpxtpx:hr></gpxtpx:TrackPointExtension></extensions>
      </trkpt>
      <trkpt lat="59.9801556" lon="15.7947601">
        <ele>106.4</ele>
        <time>2012-10-30T19:06:08Z</time>
        <extensions><gpxtpx:TrackPointExtension><gpxtpx:hr>165</gpxtpx:hr></gpxtpx:TrackPointExtension></extensions>
      </trkpt>
      <trkpt lat="59.9801496" lon="15.7947094">
        <ele>106.2</ele>
        <time>2012-10-30T19:06:09Z</time>
        <extensions><gpxtpx:TrackPointExtension><gpxtpx:hr>165</gpxtpx:hr></gpxtpx:TrackPointExtension></extensions>
      </trkpt>
      <trkpt lat="59.9801394" lon="15.7946151">
        <ele>106.2</ele>
        <time>2012-10-30T19:06:11Z</time>
        <extensions><gpxtpx:TrackPointExtension><gpxtpx:hr>165</gpxtpx:hr></gpxtpx:TrackPointExtension></extensions>
      </trkpt>
      <trkpt lat="59.9801342" lon="15.7945751">
        <ele>106.2</ele>
        <time>2012-10-30T19:06:12Z</time>
        <extensions><gpxtpx:TrackPointExtension><gpxtpx:hr>165</gpxtpx:hr></gpxtpx:TrackPointExtension></extensions>
      </trkpt>
      <trkpt lat="59.9801249" lon="15.7945266">
        <ele>106.2</ele>
        <time>2012-10-30T19:06:13Z</time>
        <extensions><gpxtpx:TrackPointExtension><gpxtpx:hr>165</gpxtpx:hr></gpxtpx:TrackPointExtension></extensions>
      </trkpt>
      <trkpt lat="59.9801161" lon="15.7944803">
        <ele>106.2</ele>
        <time>2012-10-30T19:06:14Z</time>
        <extensions><gpxtpx:TrackPointExtension><gpxtpx:hr>166</gpxtpx:hr></gpxtpx:TrackPointExtension></extensions>
      </trkpt>
      <trkpt lat="59.9801047" lon="15.7944186">
        <ele>106.4</ele>
        <time>2012-10-30T19:06:15Z</time>
        <extensions><gpxtpx:TrackPointExtension><gpxtpx:hr>165</gpxtpx:hr></gpxtpx:TrackPointExtension></extensions>
      </trkpt>
      <trkpt lat="59.980099" lon="15.7943438">
        <ele>106.2</ele>
        <time>2012-10-30T19:06:17Z</time>
        <extensions><gpxtpx:TrackPointExtension><gpxtpx:hr>166</gpxtpx:hr></gpxtpx:TrackPointExtension></extensions>
      </trkpt>
      <trkpt lat="59.9800916" lon="15.7942806">
        <ele>107.4</ele>
        <time>2012-10-30T19:06:18Z</time>
        <extensions><gpxtpx:TrackPointExtension><gpxtpx:hr>165</gpxtpx:hr></gpxtpx:TrackPointExtension></extensions>
      </trkpt>
      <trkpt lat="59.980088" lon="15.7942501">
        <ele>107.4</ele>
        <time>2012-10-30T19:06:19Z</time>
        <extensions><gpxtpx:TrackPointExtension><gpxtpx:hr>166</gpxtpx:hr></gpxtpx:TrackPointExtension></extensions>
      </trkpt>
      <trkpt lat="59.9800776" lon="15.7941911">
        <ele>107.4</ele>
        <time>2012-10-30T19:06:20Z</time>
        <extensions><gpxtpx:TrackPointExtension><gpxtpx:hr>166</gpxtpx:hr></gpxtpx:TrackPointExtension></extensions>
      </trkpt>
      <trkpt lat="59.9800739" lon="15.7941617">
        <ele>107.4</ele>
        <time>2012-10-30T19:06:21Z</time>
        <extensions><gpxtpx:TrackPointExtension><gpxtpx:hr>166</gpxtpx:hr></gpxtpx:TrackPointExtension></extensions>
      </trkpt>
      <trkpt lat="59.9800648" lon="15.7940999">
        <ele>107.4</ele>
        <time>2012-10-30T19:06:22Z</time>
        <extensions><gpxtpx:TrackPointExtension><gpxtpx:hr>166</gpxtpx:hr></gpxtpx:TrackPointExtension></extensions>
      </trkpt>
      <trkpt lat="59.9800563" lon="15.7940602">
        <ele>107.4</ele>
        <time>2012-10-30T19:06:23Z</time>
        <extensions><gpxtpx:TrackPointExtension><gpxtpx:hr>165</gpxtpx:hr></gpxtpx:TrackPointExtension></extensions>
      </trkpt>
      <trkpt lat="59.9800478" lon="15.7940063">
        <ele>108.4</ele>
        <time>2012-10-30T19:06:24Z</time>
        <extensions><gpxtpx:TrackPointExtension><gpxtpx:hr>165</gpxtpx:hr></gpxtpx:TrackPointExtension></extensions>
      </trkpt>
      <trkpt lat="59.9800454" lon="15.7939836">
        <ele>108.4</ele>
        <time>2012-10-30T19:06:25Z</time>
        <extensions><gpxtpx:TrackPointExtension><gpxtpx:hr>166</gpxtpx:hr></gpxtpx:TrackPointExtension></extensions>
      </trkpt>
      <trkpt lat="59.98004" lon="15.7939393">
        <ele>108.4</ele>
        <time>2012-10-30T19:06:26Z</time>
        <extensions><gpxtpx:TrackPointExtension><gpxtpx:hr>165</gpxtpx:hr></gpxtpx:TrackPointExtension></extensions>
      </trkpt>
      <trkpt lat="59.98004" lon="15.7939343">
        <ele>108.4</ele>
        <time>2012-10-30T19:06:29Z</time>
        <extensions><gpxtpx:TrackPointExtension><gpxtpx:hr>165</gpxtpx:hr></gpxtpx:TrackPointExtension></extensions>
      </trkpt>
      <trkpt lat="59.9800431" lon="15.7939038">
        <ele>108.4</ele>
        <time>2012-10-30T19:06:31Z</time>
        <extensions><gpxtpx:TrackPointExtension><gpxtpx:hr>165</gpxtpx:hr></gpxtpx:TrackPointExtension></extensions>
      </trkpt>
      <trkpt lat="59.980068" lon="15.7938453">
        <ele>108.4</ele>
        <time>2012-10-30T19:06:33Z</time>
        <extensions><gpxtpx:TrackPointExtension><gpxtpx:hr>164</gpxtpx:hr></gpxtpx:TrackPointExtension></extensions>
      </trkpt>
      <trkpt lat="59.9800907" lon="15.793804">
        <ele>108.4</ele>
        <time>2012-10-30T19:06:34Z</time>
        <extensions><gpxtpx:TrackPointExtension><gpxtpx:hr>164</gpxtpx:hr></gpxtpx:TrackPointExtension></extensions>
      </trkpt>
      <trkpt lat="59.9801033" lon="15.7937776">
        <ele>108.4</ele>
        <time>2012-10-30T19:06:35Z</time>
        <extensions><gpxtpx:TrackPointExtension><gpxtpx:hr>164</gpxtpx:hr></gpxtpx:TrackPointExtension></extensions>
      </trkpt>
      <trkpt lat="59.9801218" lon="15.7937294">
        <ele>108.4</ele>
        <time>2012-10-30T19:06:36Z</time>
        <extensions><gpxtpx:TrackPointExtension><gpxtpx:hr>165</gpxtpx:hr></gpxtpx:TrackPointExtension></extensions>
      </trkpt>
      <trkpt lat="59.980129" lon="15.7937109">
        <ele>109.4</ele>
        <time>2012-10-30T19:06:37Z</time>
        <extensions><gpxtpx:TrackPointExtension><gpxtpx:hr>165</gpxtpx:hr></gpxtpx:TrackPointExtension></extensions>
      </trkpt>
      <trkpt lat="59.9801726" lon="15.7935868">
        <ele>109.4</ele>
        <time>2012-10-30T19:06:40Z</time>
        <extensions><gpxtpx:TrackPointExtension><gpxtpx:hr>165</gpxtpx:hr></gpxtpx:TrackPointExtension></extensions>
      </trkpt>
      <trkpt lat="59.9802811" lon="15.7934009">
        <ele>109.4</ele>
        <time>2012-10-30T19:06:46Z</time>
        <extensions><gpxtpx:TrackPointExtension><gpxtpx:hr>165</gpxtpx:hr></gpxtpx:TrackPointExtension></extensions>
      </trkpt>
      <trkpt lat="59.9803228" lon="15.7933425">
        <ele>109.4</ele>
        <time>2012-10-30T19:06:48Z</time>
        <extensions><gpxtpx:TrackPointExtension><gpxtpx:hr>165</gpxtpx:hr></gpxtpx:TrackPointExtension></extensions>
      </trkpt>
      <trkpt lat="59.9803361" lon="15.7933225">
        <ele>109.4</ele>
        <time>2012-10-30T19:06:49Z</time>
        <extensions><gpxtpx:TrackPointExtension><gpxtpx:hr>165</gpxtpx:hr></gpxtpx:TrackPointExtension></extensions>
      </trkpt>
      <trkpt lat="59.9803637" lon="15.7932854">
        <ele>109.4</ele>
        <time>2012-10-30T19:06:50Z</time>
        <extensions><gpxtpx:TrackPointExtension><gpxtpx:hr>165</gpxtpx:hr></gpxtpx:TrackPointExtension></extensions>
      </trkpt>
      <trkpt lat="59.9803772" lon="15.7932667">
        <ele>109.4</ele>
        <time>2012-10-30T19:06:51Z</time>
        <extensions><gpxtpx:TrackPointExtension><gpxtpx:hr>165</gpxtpx:hr></gpxtpx:TrackPointExtension></extensions>
      </trkpt>
      <trkpt lat="59.9804094" lon="15.7932179">
        <ele>109.4</ele>
        <time>2012-10-30T19:06:52Z</time>
        <extensions><gpxtpx:TrackPointExtension><gpxtpx:hr>165</gpxtpx:hr></gpxtpx:TrackPointExtension></extensions>
      </trkpt>
      <trkpt lat="59.9804227" lon="15.7931877">
        <ele>109.4</ele>
        <time>2012-10-30T19:06:53Z</time>
        <extensions><gpxtpx:TrackPointExtension><gpxtpx:hr>164</gpxtpx:hr></gpxtpx:TrackPointExtension></extensions>
      </trkpt>
      <trkpt lat="59.9804426" lon="15.7931374">
        <ele>109.4</ele>
        <time>2012-10-30T19:06:54Z</time>
        <extensions><gpxtpx:TrackPointExtension><gpxtpx:hr>164</gpxtpx:hr></gpxtpx:TrackPointExtension></extensions>
      </trkpt>
      <trkpt lat="59.9804514" lon="15.7931092">
        <ele>109.4</ele>
        <time>2012-10-30T19:06:55Z</time>
        <extensions><gpxtpx:TrackPointExtension><gpxtpx:hr>164</gpxtpx:hr></gpxtpx:TrackPointExtension></extensions>
      </trkpt>
      <trkpt lat="59.9804709" lon="15.7930504">
        <ele>109.4</ele>
        <time>2012-10-30T19:06:56Z</time>
        <extensions><gpxtpx:TrackPointExtension><gpxtpx:hr>164</gpxtpx:hr></gpxtpx:TrackPointExtension></extensions>
      </trkpt>
      <trkpt lat="59.9804746" lon="15.7930318">
        <ele>109.4</ele>
        <time>2012-10-30T19:06:57Z</time>
        <extensions><gpxtpx:TrackPointExtension><gpxtpx:hr>164</gpxtpx:hr></gpxtpx:TrackPointExtension></extensions>
      </trkpt>
      <trkpt lat="59.9804883" lon="15.7929654">
        <ele>109.4</ele>
        <time>2012-10-30T19:06:58Z</time>
        <extensions><gpxtpx:TrackPointExtension><gpxtpx:hr>164</gpxtpx:hr></gpxtpx:TrackPointExtension></extensions>
      </trkpt>
      <trkpt lat="59.9804926" lon="15.7929331">
        <ele>109.4</ele>
        <time>2012-10-30T19:06:59Z</time>
        <extensions><gpxtpx:TrackPointExtension><gpxtpx:hr>164</gpxtpx:hr></gpxtpx:TrackPointExtension></extensions>
      </trkpt>
      <trkpt lat="59.9804965" lon="15.7928735">
        <ele>109.4</ele>
        <time>2012-10-30T19:07:00Z</time>
        <extensions><gpxtpx:TrackPointExtension><gpxtpx:hr>163</gpxtpx:hr></gpxtpx:TrackPointExtension></extensions>
      </trkpt>
      <trkpt lat="59.9804937" lon="15.7928484">
        <ele>109.4</ele>
        <time>2012-10-30T19:07:01Z</time>
        <extensions><gpxtpx:TrackPointExtension><gpxtpx:hr>163</gpxtpx:hr></gpxtpx:TrackPointExtension></extensions>
      </trkpt>
      <trkpt lat="59.9804869" lon="15.7927981">
        <ele>109.4</ele>
        <time>2012-10-30T19:07:02Z</time>
        <extensions><gpxtpx:TrackPointExtension><gpxtpx:hr>163</gpxtpx:hr></gpxtpx:TrackPointExtension></extensions>
      </trkpt>
      <trkpt lat="59.9804832" lon="15.7927619">
        <ele>109.4</ele>
        <time>2012-10-30T19:07:03Z</time>
        <extensions><gpxtpx:TrackPointExtension><gpxtpx:hr>163</gpxtpx:hr></gpxtpx:TrackPointExtension></extensions>
      </trkpt>
      <trkpt lat="59.980473" lon="15.7927006">
        <ele>109.4</ele>
        <time>2012-10-30T19:07:04Z</time>
        <extensions><gpxtpx:TrackPointExtension><gpxtpx:hr>164</gpxtpx:hr></gpxtpx:TrackPointExtension></extensions>
      </trkpt>
      <trkpt lat="59.9804694" lon="15.7926726">
        <ele>109.4</ele>
        <time>2012-10-30T19:07:05Z</time>
        <extensions><gpxtpx:TrackPointExtension><gpxtpx:hr>163</gpxtpx:hr></gpxtpx:TrackPointExtension></extensions>
      </trkpt>
      <trkpt lat="59.9804564" lon="15.7926173">
        <ele>109.4</ele>
        <time>2012-10-30T19:07:06Z</time>
        <extensions><gpxtpx:TrackPointExtension><gpxtpx:hr>163</gpxtpx:hr></gpxtpx:TrackPointExtension></extensions>
      </trkpt>
      <trkpt lat="59.9804128" lon="15.7924661">
        <ele>109.4</ele>
        <time>2012-10-30T19:07:10Z</time>
        <extensions><gpxtpx:TrackPointExtension><gpxtpx:hr>163</gpxtpx:hr></gpxtpx:TrackPointExtension></extensions>
      </trkpt>
      <trkpt lat="59.9803649" lon="15.79236">
        <ele>109.4</ele>
        <time>2012-10-30T19:07:13Z</time>
        <extensions><gpxtpx:TrackPointExtension><gpxtpx:hr>164</gpxtpx:hr></gpxtpx:TrackPointExtension></extensions>
      </trkpt>
      <trkpt lat="59.980344" lon="15.7923158">
        <ele>109.4</ele>
        <time>2012-10-30T19:07:14Z</time>
        <extensions><gpxtpx:TrackPointExtension><gpxtpx:hr>164</gpxtpx:hr></gpxtpx:TrackPointExtension></extensions>
      </trkpt>
      <trkpt lat="59.9803336" lon="15.7922914">
        <ele>109.4</ele>
        <time>2012-10-30T19:07:15Z</time>
        <extensions><gpxtpx:TrackPointExtension><gpxtpx:hr>164</gpxtpx:hr></gpxtpx:TrackPointExtension></extensions>
      </trkpt>
      <trkpt lat="59.9803078" lon="15.7922437">
        <ele>109.4</ele>
        <time>2012-10-30T19:07:16Z</time>
        <extensions><gpxtpx:TrackPointExtension><gpxtpx:hr>164</gpxtpx:hr></gpxtpx:TrackPointExtension></extensions>
      </trkpt>
      <trkpt lat="59.9803" lon="15.7922251">
        <ele>109.4</ele>
        <time>2012-10-30T19:07:17Z</time>
        <extensions><gpxtpx:TrackPointExtension><gpxtpx:hr>164</gpxtpx:hr></gpxtpx:TrackPointExtension></extensions>
      </trkpt>
      <trkpt lat="59.980277" lon="15.7921793">
        <ele>109.4</ele>
        <time>2012-10-30T19:07:18Z</time>
        <extensions><gpxtpx:TrackPointExtension><gpxtpx:hr>165</gpxtpx:hr></gpxtpx:TrackPointExtension></extensions>
      </trkpt>
      <trkpt lat="59.9802618" lon="15.7921564">
        <ele>109.4</ele>
        <time>2012-10-30T19:07:19Z</time>
        <extensions><gpxtpx:TrackPointExtension><gpxtpx:hr>166</gpxtpx:hr></gpxtpx:TrackPointExtension></extensions>
      </trkpt>
      <trkpt lat="59.9802382" lon="15.792116">
        <ele>109.4</ele>
        <time>2012-10-30T19:07:20Z</time>
        <extensions><gpxtpx:TrackPointExtension><gpxtpx:hr>166</gpxtpx:hr></gpxtpx:TrackPointExtension></extensions>
      </trkpt>
      <trkpt lat="59.9802166" lon="15.7920713">
        <ele>109.6</ele>
        <time>2012-10-30T19:07:22Z</time>
        <extensions><gpxtpx:TrackPointExtension><gpxtpx:hr>166</gpxtpx:hr></gpxtpx:TrackPointExtension></extensions>
      </trkpt>
      <trkpt lat="59.9801909" lon="15.7920253">
        <ele>109.4</ele>
        <time>2012-10-30T19:07:23Z</time>
        <extensions><gpxtpx:TrackPointExtension><gpxtpx:hr>166</gpxtpx:hr></gpxtpx:TrackPointExtension></extensions>
      </trkpt>
      <trkpt lat="59.9801748" lon="15.7919813">
        <ele>109.4</ele>
        <time>2012-10-30T19:07:24Z</time>
        <extensions><gpxtpx:TrackPointExtension><gpxtpx:hr>167</gpxtpx:hr></gpxtpx:TrackPointExtension></extensions>
      </trkpt>
      <trkpt lat="59.9801693" lon="15.7919594">
        <ele>109.4</ele>
        <time>2012-10-30T19:07:25Z</time>
        <extensions><gpxtpx:TrackPointExtension><gpxtpx:hr>167</gpxtpx:hr></gpxtpx:TrackPointExtension></extensions>
      </trkpt>
      <trkpt lat="59.9801615" lon="15.7919034">
        <ele>109.4</ele>
        <time>2012-10-30T19:07:26Z</time>
        <extensions><gpxtpx:TrackPointExtension><gpxtpx:hr>167</gpxtpx:hr></gpxtpx:TrackPointExtension></extensions>
      </trkpt>
      <trkpt lat="59.9801842" lon="15.7918185">
        <ele>109.4</ele>
        <time>2012-10-30T19:07:29Z</time>
        <extensions><gpxtpx:TrackPointExtension><gpxtpx:hr>166</gpxtpx:hr></gpxtpx:TrackPointExtension></extensions>
      </trkpt>
      <trkpt lat="59.9802846" lon="15.7917527">
        <ele>109.4</ele>
        <time>2012-10-30T19:07:34Z</time>
        <extensions><gpxtpx:TrackPointExtension><gpxtpx:hr>164</gpxtpx:hr></gpxtpx:TrackPointExtension></extensions>
      </trkpt>
      <trkpt lat="59.980298" lon="15.7917432">
        <ele>109.4</ele>
        <time>2012-10-30T19:07:35Z</time>
        <extensions><gpxtpx:TrackPointExtension><gpxtpx:hr>164</gpxtpx:hr></gpxtpx:TrackPointExtension></extensions>
      </trkpt>
      <trkpt lat="59.9803287" lon="15.7917226">
        <ele>106.4</ele>
        <time>2012-10-30T19:07:36Z</time>
        <extensions><gpxtpx:TrackPointExtension><gpxtpx:hr>164</gpxtpx:hr></gpxtpx:TrackPointExtension></extensions>
      </trkpt>
      <trkpt lat="59.9803446" lon="15.7917096">
        <ele>106.4</ele>
        <time>2012-10-30T19:07:37Z</time>
        <extensions><gpxtpx:TrackPointExtension><gpxtpx:hr>164</gpxtpx:hr></gpxtpx:TrackPointExtension></extensions>
      </trkpt>
      <trkpt lat="59.980378" lon="15.7916844">
        <ele>106.4</ele>
        <time>2012-10-30T19:07:38Z</time>
        <extensions><gpxtpx:TrackPointExtension><gpxtpx:hr>163</gpxtpx:hr></gpxtpx:TrackPointExtension></extensions>
      </trkpt>
      <trkpt lat="59.9803906" lon="15.7916703">
        <ele>106.4</ele>
        <time>2012-10-30T19:07:39Z</time>
        <extensions><gpxtpx:TrackPointExtension><gpxtpx:hr>163</gpxtpx:hr></gpxtpx:TrackPointExtension></extensions>
      </trkpt>
      <trkpt lat="59.9804224" lon="15.791631">
        <ele>105.2</ele>
        <time>2012-10-30T19:07:40Z</time>
        <extensions><gpxtpx:TrackPointExtension><gpxtpx:hr>163</gpxtpx:hr></gpxtpx:TrackPointExtension></extensions>
      </trkpt>
      <trkpt lat="59.9804366" lon="15.7916107">
        <ele>105.4</ele>
        <time>2012-10-30T19:07:41Z</time>
        <extensions><gpxtpx:TrackPointExtension><gpxtpx:hr>163</gpxtpx:hr></gpxtpx:TrackPointExtension></extensions>
      </trkpt>
      <trkpt lat="59.980464" lon="15.7915782">
        <ele>105.2</ele>
        <time>2012-10-30T19:07:42Z</time>
        <extensions><gpxtpx:TrackPointExtension><gpxtpx:hr>163</gpxtpx:hr></gpxtpx:TrackPointExtension></extensions>
      </trkpt>
      <trkpt lat="59.9804818" lon="15.7915567">
        <ele>105.4</ele>
        <time>2012-10-30T19:07:43Z</time>
        <extensions><gpxtpx:TrackPointExtension><gpxtpx:hr>163</gpxtpx:hr></gpxtpx:TrackPointExtension></extensions>
      </trkpt>
      <trkpt lat="59.980506" lon="15.7915114">
        <ele>105.2</ele>
        <time>2012-10-30T19:07:44Z</time>
        <extensions><gpxtpx:TrackPointExtension><gpxtpx:hr>163</gpxtpx:hr></gpxtpx:TrackPointExtension></extensions>
      </trkpt>
      <trkpt lat="59.9805144" lon="15.7914902">
        <ele>105.4</ele>
        <time>2012-10-30T19:07:45Z</time>
        <extensions><gpxtpx:TrackPointExtension><gpxtpx:hr>162</gpxtpx:hr></gpxtpx:TrackPointExtension></extensions>
      </trkpt>
      <trkpt lat="59.9805364" lon="15.7914336">
        <ele>104.2</ele>
        <time>2012-10-30T19:07:46Z</time>
        <extensions><gpxtpx:TrackPointExtension><gpxtpx:hr>162</gpxtpx:hr></gpxtpx:TrackPointExtension></extensions>
      </trkpt>
      <trkpt lat="59.9805412" lon="15.7914099">
        <ele>104.2</ele>
        <time>2012-10-30T19:07:47Z</time>
        <extensions><gpxtpx:TrackPointExtension><gpxtpx:hr>161</gpxtpx:hr></gpxtpx:TrackPointExtension></extensions>
      </trkpt>
      <trkpt lat="59.9805569" lon="15.7913203">
        <ele>104.2</ele>
        <time>2012-10-30T19:07:49Z</time>
        <extensions><gpxtpx:TrackPointExtension><gpxtpx:hr>161</gpxtpx:hr></gpxtpx:TrackPointExtension></extensions>
      </trkpt>
      <trkpt lat="59.9805613" lon="15.7912559">
        <ele>104.2</ele>
        <time>2012-10-30T19:07:50Z</time>
        <extensions><gpxtpx:TrackPointExtension><gpxtpx:hr>162</gpxtpx:hr></gpxtpx:TrackPointExtension></extensions>
      </trkpt>
      <trkpt lat="59.9805592" lon="15.7912288">
        <ele>104.2</ele>
        <time>2012-10-30T19:07:51Z</time>
        <extensions><gpxtpx:TrackPointExtension><gpxtpx:hr>162</gpxtpx:hr></gpxtpx:TrackPointExtension></extensions>
      </trkpt>
      <trkpt lat="59.9805585" lon="15.7911694">
        <ele>104.2</ele>
        <time>2012-10-30T19:07:52Z</time>
        <extensions><gpxtpx:TrackPointExtension><gpxtpx:hr>162</gpxtpx:hr></gpxtpx:TrackPointExtension></extensions>
      </trkpt>
      <trkpt lat="59.9805583" lon="15.7911297">
        <ele>104.2</ele>
        <time>2012-10-30T19:07:53Z</time>
        <extensions><gpxtpx:TrackPointExtension><gpxtpx:hr>162</gpxtpx:hr></gpxtpx:TrackPointExtension></extensions>
      </trkpt>
      <trkpt lat="59.9805238" lon="15.7908517">
        <ele>104.2</ele>
        <time>2012-10-30T19:07:59Z</time>
        <extensions><gpxtpx:TrackPointExtension><gpxtpx:hr>162</gpxtpx:hr></gpxtpx:TrackPointExtension></extensions>
      </trkpt>
      <trkpt lat="59.9805129" lon="15.7907862">
        <ele>104.2</ele>
        <time>2012-10-30T19:08:00Z</time>
        <extensions><gpxtpx:TrackPointExtension><gpxtpx:hr>162</gpxtpx:hr></gpxtpx:TrackPointExtension></extensions>
      </trkpt>
      <trkpt lat="59.9805068" lon="15.790751">
        <ele>104.2</ele>
        <time>2012-10-30T19:08:01Z</time>
        <extensions><gpxtpx:TrackPointExtension><gpxtpx:hr>162</gpxtpx:hr></gpxtpx:TrackPointExtension></extensions>
      </trkpt>
      <trkpt lat="59.9804968" lon="15.790691">
        <ele>104.2</ele>
        <time>2012-10-30T19:08:02Z</time>
        <extensions><gpxtpx:TrackPointExtension><gpxtpx:hr>162</gpxtpx:hr></gpxtpx:TrackPointExtension></extensions>
      </trkpt>
      <trkpt lat="59.980493" lon="15.7906615">
        <ele>104.2</ele>
        <time>2012-10-30T19:08:03Z</time>
        <extensions><gpxtpx:TrackPointExtension><gpxtpx:hr>161</gpxtpx:hr></gpxtpx:TrackPointExtension></extensions>
      </trkpt>
      <trkpt lat="59.9804834" lon="15.7906018">
        <ele>104.2</ele>
        <time>2012-10-30T19:08:04Z</time>
        <extensions><gpxtpx:TrackPointExtension><gpxtpx:hr>162</gpxtpx:hr></gpxtpx:TrackPointExtension></extensions>
      </trkpt>
      <trkpt lat="59.9804791" lon="15.7905712">
        <ele>104.2</ele>
        <time>2012-10-30T19:08:05Z</time>
        <extensions><gpxtpx:TrackPointExtension><gpxtpx:hr>161</gpxtpx:hr></gpxtpx:TrackPointExtension></extensions>
      </trkpt>
      <trkpt lat="59.9804699" lon="15.7905137">
        <ele>104.2</ele>
        <time>2012-10-30T19:08:06Z</time>
        <extensions><gpxtpx:TrackPointExtension><gpxtpx:hr>161</gpxtpx:hr></gpxtpx:TrackPointExtension></extensions>
      </trkpt>
      <trkpt lat="59.9804657" lon="15.7904915">
        <ele>104.2</ele>
        <time>2012-10-30T19:08:07Z</time>
        <extensions><gpxtpx:TrackPointExtension><gpxtpx:hr>162</gpxtpx:hr></gpxtpx:TrackPointExtension></extensions>
      </trkpt>
      <trkpt lat="59.980457" lon="15.7904247">
        <ele>104.2</ele>
        <time>2012-10-30T19:08:08Z</time>
        <extensions><gpxtpx:TrackPointExtension><gpxtpx:hr>162</gpxtpx:hr></gpxtpx:TrackPointExtension></extensions>
      </trkpt>
      <trkpt lat="59.9804389" lon="15.7902983">
        <ele>104.2</ele>
        <time>2012-10-30T19:08:11Z</time>
        <extensions><gpxtpx:TrackPointExtension><gpxtpx:hr>161</gpxtpx:hr></gpxtpx:TrackPointExtension></extensions>
      </trkpt>
      <trkpt lat="59.9804237" lon="15.7902353">
        <ele>104.2</ele>
        <time>2012-10-30T19:08:12Z</time>
        <extensions><gpxtpx:TrackPointExtension><gpxtpx:hr>161</gpxtpx:hr></gpxtpx:TrackPointExtension></extensions>
      </trkpt>
      <trkpt lat="59.9804119" lon="15.7902006">
        <ele>104.2</ele>
        <time>2012-10-30T19:08:13Z</time>
        <extensions><gpxtpx:TrackPointExtension><gpxtpx:hr>161</gpxtpx:hr></gpxtpx:TrackPointExtension></extensions>
      </trkpt>
      <trkpt lat="59.9803905" lon="15.7901438">
        <ele>104.2</ele>
        <time>2012-10-30T19:08:14Z</time>
        <extensions><gpxtpx:TrackPointExtension><gpxtpx:hr>161</gpxtpx:hr></gpxtpx:TrackPointExtension></extensions>
      </trkpt>
      <trkpt lat="59.9803663" lon="15.7900989">
        <ele>104.2</ele>
        <time>2012-10-30T19:08:16Z</time>
        <extensions><gpxtpx:TrackPointExtension><gpxtpx:hr>161</gpxtpx:hr></gpxtpx:TrackPointExtension></extensions>
      </trkpt>
      <trkpt lat="59.9803465" lon="15.7900584">
        <ele>104.2</ele>
        <time>2012-10-30T19:08:17Z</time>
        <extensions><gpxtpx:TrackPointExtension><gpxtpx:hr>161</gpxtpx:hr></gpxtpx:TrackPointExtension></extensions>
      </trkpt>
      <trkpt lat="59.9803186" lon="15.7900511">
        <ele>104.2</ele>
        <time>2012-10-30T19:08:18Z</time>
        <extensions><gpxtpx:TrackPointExtension><gpxtpx:hr>161</gpxtpx:hr></gpxtpx:TrackPointExtension></extensions>
      </trkpt>
      <trkpt lat="59.9802931" lon="15.7900325">
        <ele>104.2</ele>
        <time>2012-10-30T19:08:19Z</time>
        <extensions><gpxtpx:TrackPointExtension><gpxtpx:hr>161</gpxtpx:hr></gpxtpx:TrackPointExtension></extensions>
      </trkpt>
      <trkpt lat="59.9802714" lon="15.7900196">
        <ele>104.2</ele>
        <time>2012-10-30T19:08:20Z</time>
        <extensions><gpxtpx:TrackPointExtension><gpxtpx:hr>161</gpxtpx:hr></gpxtpx:TrackPointExtension></extensions>
      </trkpt>
      <trkpt lat="59.9802358" lon="15.7899978">
        <ele>104.2</ele>
        <time>2012-10-30T19:08:22Z</time>
        <extensions><gpxtpx:TrackPointExtension><gpxtpx:hr>161</gpxtpx:hr></gpxtpx:TrackPointExtension></extensions>
      </trkpt>
      <trkpt lat="59.9801991" lon="15.7899838">
        <ele>103.2</ele>
        <time>2012-10-30T19:08:23Z</time>
        <extensions><gpxtpx:TrackPointExtension><gpxtpx:hr>161</gpxtpx:hr></gpxtpx:TrackPointExtension></extensions>
      </trkpt>
      <trkpt lat="59.9801821" lon="15.7899734">
        <ele>103.2</ele>
        <time>2012-10-30T19:08:24Z</time>
        <extensions><gpxtpx:TrackPointExtension><gpxtpx:hr>161</gpxtpx:hr></gpxtpx:TrackPointExtension></extensions>
      </trkpt>
      <trkpt lat="59.9801128" lon="15.7899154">
        <ele>103.2</ele>
        <time>2012-10-30T19:08:27Z</time>
        <extensions><gpxtpx:TrackPointExtension><gpxtpx:hr>162</gpxtpx:hr></gpxtpx:TrackPointExtension></extensions>
      </trkpt>
      <trkpt lat="59.9800714" lon="15.7898817">
        <ele>103.2</ele>
        <time>2012-10-30T19:08:29Z</time>
        <extensions><gpxtpx:TrackPointExtension><gpxtpx:hr>163</gpxtpx:hr></gpxtpx:TrackPointExtension></extensions>
      </trkpt>
      <trkpt lat="59.9800262" lon="15.789816">
        <ele>103.2</ele>
        <time>2012-10-30T19:08:31Z</time>
        <extensions><gpxtpx:TrackPointExtension><gpxtpx:hr>162</gpxtpx:hr></gpxtpx:TrackPointExtension></extensions>
      </trkpt>
      <trkpt lat="59.9800107" lon="15.7897953">
        <ele>103.2</ele>
        <time>2012-10-30T19:08:32Z</time>
        <extensions><gpxtpx:TrackPointExtension><gpxtpx:hr>162</gpxtpx:hr></gpxtpx:TrackPointExtension></extensions>
      </trkpt>
      <trkpt lat="59.9799871" lon="15.7897664">
        <ele>103.2</ele>
        <time>2012-10-30T19:08:33Z</time>
        <extensions><gpxtpx:TrackPointExtension><gpxtpx:hr>162</gpxtpx:hr></gpxtpx:TrackPointExtension></extensions>
      </trkpt>
      <trkpt lat="59.9799718" lon="15.7897493">
        <ele>103.2</ele>
        <time>2012-10-30T19:08:34Z</time>
        <extensions><gpxtpx:TrackPointExtension><gpxtpx:hr>162</gpxtpx:hr></gpxtpx:TrackPointExtension></extensions>
      </trkpt>
      <trkpt lat="59.9799507" lon="15.789728">
        <ele>103.2</ele>
        <time>2012-10-30T19:08:35Z</time>
        <extensions><gpxtpx:TrackPointExtension><gpxtpx:hr>162</gpxtpx:hr></gpxtpx:TrackPointExtension></extensions>
      </trkpt>
      <trkpt lat="59.9799347" lon="15.7897042">
        <ele>103.2</ele>
        <time>2012-10-30T19:08:36Z</time>
        <extensions><gpxtpx:TrackPointExtension><gpxtpx:hr>162</gpxtpx:hr></gpxtpx:TrackPointExtension></extensions>
      </trkpt>
      <trkpt lat="59.9799166" lon="15.7896732">
        <ele>103.2</ele>
        <time>2012-10-30T19:08:37Z</time>
        <extensions><gpxtpx:TrackPointExtension><gpxtpx:hr>163</gpxtpx:hr></gpxtpx:TrackPointExtension></extensions>
      </trkpt>
      <trkpt lat="59.9799011" lon="15.7896472">
        <ele>103.2</ele>
        <time>2012-10-30T19:08:38Z</time>
        <extensions><gpxtpx:TrackPointExtension><gpxtpx:hr>163</gpxtpx:hr></gpxtpx:TrackPointExtension></extensions>
      </trkpt>
      <trkpt lat="59.9798399" lon="15.7895561">
        <ele>103.2</ele>
        <time>2012-10-30T19:08:41Z</time>
        <extensions><gpxtpx:TrackPointExtension><gpxtpx:hr>162</gpxtpx:hr></gpxtpx:TrackPointExtension></extensions>
      </trkpt>
      <trkpt lat="59.9798236" lon="15.7895318">
        <ele>103.2</ele>
        <time>2012-10-30T19:08:42Z</time>
        <extensions><gpxtpx:TrackPointExtension><gpxtpx:hr>163</gpxtpx:hr></gpxtpx:TrackPointExtension></extensions>
      </trkpt>
      <trkpt lat="59.979729" lon="15.7893781">
        <ele>103.2</ele>
        <time>2012-10-30T19:08:47Z</time>
        <extensions><gpxtpx:TrackPointExtension><gpxtpx:hr>163</gpxtpx:hr></gpxtpx:TrackPointExtension></extensions>
      </trkpt>
      <trkpt lat="59.9796319" lon="15.789108">
        <ele>103.2</ele>
        <time>2012-10-30T19:08:54Z</time>
        <extensions><gpxtpx:TrackPointExtension><gpxtpx:hr>163</gpxtpx:hr></gpxtpx:TrackPointExtension></extensions>
      </trkpt>
      <trkpt lat="59.979611" lon="15.7889918">
        <ele>103.2</ele>
        <time>2012-10-30T19:08:57Z</time>
        <extensions><gpxtpx:TrackPointExtension><gpxtpx:hr>164</gpxtpx:hr></gpxtpx:TrackPointExtension></extensions>
      </trkpt>
      <trkpt lat="59.9796066" lon="15.7889491">
        <ele>103.2</ele>
        <time>2012-10-30T19:08:58Z</time>
        <extensions><gpxtpx:TrackPointExtension><gpxtpx:hr>165</gpxtpx:hr></gpxtpx:TrackPointExtension></extensions>
      </trkpt>
      <trkpt lat="59.9796033" lon="15.7889006">
        <ele>103.2</ele>
        <time>2012-10-30T19:08:59Z</time>
        <extensions><gpxtpx:TrackPointExtension><gpxtpx:hr>165</gpxtpx:hr></gpxtpx:TrackPointExtension></extensions>
      </trkpt>
      <trkpt lat="59.9796013" lon="15.7888708">
        <ele>103.2</ele>
        <time>2012-10-30T19:09:00Z</time>
        <extensions><gpxtpx:TrackPointExtension><gpxtpx:hr>165</gpxtpx:hr></gpxtpx:TrackPointExtension></extensions>
      </trkpt>
      <trkpt lat="59.9796073" lon="15.7886948">
        <ele>103.2</ele>
        <time>2012-10-30T19:09:04Z</time>
        <extensions><gpxtpx:TrackPointExtension><gpxtpx:hr>165</gpxtpx:hr></gpxtpx:TrackPointExtension></extensions>
      </trkpt>
      <trkpt lat="59.9796147" lon="15.788649">
        <ele>103.2</ele>
        <time>2012-10-30T19:09:05Z</time>
        <extensions><gpxtpx:TrackPointExtension><gpxtpx:hr>164</gpxtpx:hr></gpxtpx:TrackPointExtension></extensions>
      </trkpt>
      <trkpt lat="59.9796234" lon="15.7886064">
        <ele>103.2</ele>
        <time>2012-10-30T19:09:06Z</time>
        <extensions><gpxtpx:TrackPointExtension><gpxtpx:hr>164</gpxtpx:hr></gpxtpx:TrackPointExtension></extensions>
      </trkpt>
      <trkpt lat="59.9796375" lon="15.7885566">
        <ele>103.2</ele>
        <time>2012-10-30T19:09:07Z</time>
        <extensions><gpxtpx:TrackPointExtension><gpxtpx:hr>164</gpxtpx:hr></gpxtpx:TrackPointExtension></extensions>
      </trkpt>
      <trkpt lat="59.9796473" lon="15.7885264">
        <ele>103.2</ele>
        <time>2012-10-30T19:09:08Z</time>
        <extensions><gpxtpx:TrackPointExtension><gpxtpx:hr>165</gpxtpx:hr></gpxtpx:TrackPointExtension></extensions>
      </trkpt>
      <trkpt lat="59.9796625" lon="15.7884885">
        <ele>103.2</ele>
        <time>2012-10-30T19:09:09Z</time>
        <extensions><gpxtpx:TrackPointExtension><gpxtpx:hr>165</gpxtpx:hr></gpxtpx:TrackPointExtension></extensions>
      </trkpt>
      <trkpt lat="59.9796761" lon="15.788458">
        <ele>103.2</ele>
        <time>2012-10-30T19:09:10Z</time>
        <extensions><gpxtpx:TrackPointExtension><gpxtpx:hr>165</gpxtpx:hr></gpxtpx:TrackPointExtension></extensions>
      </trkpt>
      <trkpt lat="59.9796925" lon="15.7884199">
        <ele>106.4</ele>
        <time>2012-10-30T19:09:11Z</time>
        <extensions><gpxtpx:TrackPointExtension><gpxtpx:hr>165</gpxtpx:hr></gpxtpx:TrackPointExtension></extensions>
      </trkpt>
      <trkpt lat="59.9797022" lon="15.7883939">
        <ele>106.4</ele>
        <time>2012-10-30T19:09:12Z</time>
        <extensions><gpxtpx:TrackPointExtension><gpxtpx:hr>165</gpxtpx:hr></gpxtpx:TrackPointExtension></extensions>
      </trkpt>
      <trkpt lat="59.9797169" lon="15.7883544">
        <ele>106.4</ele>
        <time>2012-10-30T19:09:13Z</time>
        <extensions><gpxtpx:TrackPointExtension><gpxtpx:hr>166</gpxtpx:hr></gpxtpx:TrackPointExtension></extensions>
      </trkpt>
      <trkpt lat="59.9797292" lon="15.7883291">
        <ele>107.8</ele>
        <time>2012-10-30T19:09:14Z</time>
        <extensions><gpxtpx:TrackPointExtension><gpxtpx:hr>167</gpxtpx:hr></gpxtpx:TrackPointExtension></extensions>
      </trkpt>
      <trkpt lat="59.9797427" lon="15.7882894">
        <ele>107.8</ele>
        <time>2012-10-30T19:09:15Z</time>
        <extensions><gpxtpx:TrackPointExtension><gpxtpx:hr>167</gpxtpx:hr></gpxtpx:TrackPointExtension></extensions>
      </trkpt>
      <trkpt lat="59.9797547" lon="15.7882614">
        <ele>107.8</ele>
        <time>2012-10-30T19:09:16Z</time>
        <extensions><gpxtpx:TrackPointExtension><gpxtpx:hr>168</gpxtpx:hr></gpxtpx:TrackPointExtension></extensions>
      </trkpt>
      <trkpt lat="59.9797673" lon="15.7882143">
        <ele>107.8</ele>
        <time>2012-10-30T19:09:17Z</time>
        <extensions><gpxtpx:TrackPointExtension><gpxtpx:hr>168</gpxtpx:hr></gpxtpx:TrackPointExtension></extensions>
      </trkpt>
      <trkpt lat="59.979778" lon="15.788179">
        <ele>109</ele>
        <time>2012-10-30T19:09:18Z</time>
        <extensions><gpxtpx:TrackPointExtension><gpxtpx:hr>169</gpxtpx:hr></gpxtpx:TrackPointExtension></extensions>
      </trkpt>
      <trkpt lat="59.9797873" lon="15.7881396">
        <ele>109</ele>
        <time>2012-10-30T19:09:19Z</time>
        <extensions><gpxtpx:TrackPointExtension><gpxtpx:hr>169</gpxtpx:hr></gpxtpx:TrackPointExtension></extensions>
      </trkpt>
      <trkpt lat="59.9797906" lon="15.7880178">
        <ele>109</ele>
        <time>2012-10-30T19:09:22Z</time>
        <extensions><gpxtpx:TrackPointExtension><gpxtpx:hr>170</gpxtpx:hr></gpxtpx:TrackPointExtension></extensions>
      </trkpt>
      <trkpt lat="59.9797865" lon="15.7879651">
        <ele>109</ele>
        <time>2012-10-30T19:09:23Z</time>
        <extensions><gpxtpx:TrackPointExtension><gpxtpx:hr>171</gpxtpx:hr></gpxtpx:TrackPointExtension></extensions>
      </trkpt>
      <trkpt lat="59.9797824" lon="15.7879327">
        <ele>109</ele>
        <time>2012-10-30T19:09:24Z</time>
        <extensions><gpxtpx:TrackPointExtension><gpxtpx:hr>170</gpxtpx:hr></gpxtpx:TrackPointExtension></extensions>
      </trkpt>
      <trkpt lat="59.9797398" lon="15.7876951">
        <ele>109</ele>
        <time>2012-10-30T19:09:30Z</time>
        <extensions><gpxtpx:TrackPointExtension><gpxtpx:hr>170</gpxtpx:hr></gpxtpx:TrackPointExtension></extensions>
      </trkpt>
      <trkpt lat="59.9796777" lon="15.7874843">
        <ele>105.8</ele>
        <time>2012-10-30T19:09:35Z</time>
        <extensions><gpxtpx:TrackPointExtension><gpxtpx:hr>169</gpxtpx:hr></gpxtpx:TrackPointExtension></extensions>
      </trkpt>
      <trkpt lat="59.9796506" lon="15.7874063">
        <ele>105.8</ele>
        <time>2012-10-30T19:09:37Z</time>
        <extensions><gpxtpx:TrackPointExtension><gpxtpx:hr>169</gpxtpx:hr></gpxtpx:TrackPointExtension></extensions>
      </trkpt>
      <trkpt lat="59.9796401" lon="15.7873688">
        <ele>105.8</ele>
        <time>2012-10-30T19:09:38Z</time>
        <extensions><gpxtpx:TrackPointExtension><gpxtpx:hr>169</gpxtpx:hr></gpxtpx:TrackPointExtension></extensions>
      </trkpt>
      <trkpt lat="59.9796259" lon="15.7873193">
        <ele>105.8</ele>
        <time>2012-10-30T19:09:39Z</time>
        <extensions><gpxtpx:TrackPointExtension><gpxtpx:hr>169</gpxtpx:hr></gpxtpx:TrackPointExtension></extensions>
      </trkpt>
      <trkpt lat="59.9796129" lon="15.7872829">
        <ele>105.8</ele>
        <time>2012-10-30T19:09:40Z</time>
        <extensions><gpxtpx:TrackPointExtension><gpxtpx:hr>168</gpxtpx:hr></gpxtpx:TrackPointExtension></extensions>
      </trkpt>
      <trkpt lat="59.979601" lon="15.78723">
        <ele>105.8</ele>
        <time>2012-10-30T19:09:41Z</time>
        <extensions><gpxtpx:TrackPointExtension><gpxtpx:hr>169</gpxtpx:hr></gpxtpx:TrackPointExtension></extensions>
      </trkpt>
      <trkpt lat="59.9795951" lon="15.7871933">
        <ele>105.8</ele>
        <time>2012-10-30T19:09:42Z</time>
        <extensions><gpxtpx:TrackPointExtension><gpxtpx:hr>169</gpxtpx:hr></gpxtpx:TrackPointExtension></extensions>
      </trkpt>
      <trkpt lat="59.979582" lon="15.7870884">
        <ele>105.8</ele>
        <time>2012-10-30T19:09:44Z</time>
        <extensions><gpxtpx:TrackPointExtension><gpxtpx:hr>168</gpxtpx:hr></gpxtpx:TrackPointExtension></extensions>
      </trkpt>
      <trkpt lat="59.9795812" lon="15.7870297">
        <ele>105.8</ele>
        <time>2012-10-30T19:09:45Z</time>
        <extensions><gpxtpx:TrackPointExtension><gpxtpx:hr>168</gpxtpx:hr></gpxtpx:TrackPointExtension></extensions>
      </trkpt>
      <trkpt lat="59.9795806" lon="15.7869783">
        <ele>105.8</ele>
        <time>2012-10-30T19:09:46Z</time>
        <extensions><gpxtpx:TrackPointExtension><gpxtpx:hr>169</gpxtpx:hr></gpxtpx:TrackPointExtension></extensions>
      </trkpt>
      <trkpt lat="59.9795812" lon="15.7869186">
        <ele>105.8</ele>
        <time>2012-10-30T19:09:47Z</time>
        <extensions><gpxtpx:TrackPointExtension><gpxtpx:hr>169</gpxtpx:hr></gpxtpx:TrackPointExtension></extensions>
      </trkpt>
      <trkpt lat="59.9795841" lon="15.7868722">
        <ele>105.8</ele>
        <time>2012-10-30T19:09:48Z</time>
        <extensions><gpxtpx:TrackPointExtension><gpxtpx:hr>169</gpxtpx:hr></gpxtpx:TrackPointExtension></extensions>
      </trkpt>
      <trkpt lat="59.9795905" lon="15.7868187">
        <ele>105.8</ele>
        <time>2012-10-30T19:09:49Z</time>
        <extensions><gpxtpx:TrackPointExtension><gpxtpx:hr>168</gpxtpx:hr></gpxtpx:TrackPointExtension></extensions>
      </trkpt>
      <trkpt lat="59.9795974" lon="15.7867726">
        <ele>105.8</ele>
        <time>2012-10-30T19:09:50Z</time>
        <extensions><gpxtpx:TrackPointExtension><gpxtpx:hr>169</gpxtpx:hr></gpxtpx:TrackPointExtension></extensions>
      </trkpt>
      <trkpt lat="59.9796048" lon="15.78672">
        <ele>105.8</ele>
        <time>2012-10-30T19:09:51Z</time>
        <extensions><gpxtpx:TrackPointExtension><gpxtpx:hr>169</gpxtpx:hr></gpxtpx:TrackPointExtension></extensions>
      </trkpt>
      <trkpt lat="59.9796193" lon="15.7866223">
        <ele>105.8</ele>
        <time>2012-10-30T19:09:53Z</time>
        <extensions><gpxtpx:TrackPointExtension><gpxtpx:hr>169</gpxtpx:hr></gpxtpx:TrackPointExtension></extensions>
      </trkpt>
      <trkpt lat="59.979627" lon="15.7865846">
        <ele>105.8</ele>
        <time>2012-10-30T19:09:54Z</time>
        <extensions><gpxtpx:TrackPointExtension><gpxtpx:hr>168</gpxtpx:hr></gpxtpx:TrackPointExtension></extensions>
      </trkpt>
      <trkpt lat="59.9796365" lon="15.7865325">
        <ele>105.8</ele>
        <time>2012-10-30T19:09:55Z</time>
        <extensions><gpxtpx:TrackPointExtension><gpxtpx:hr>169</gpxtpx:hr></gpxtpx:TrackPointExtension></extensions>
      </trkpt>
      <trkpt lat="59.9796455" lon="15.7864908">
        <ele>105.8</ele>
        <time>2012-10-30T19:09:56Z</time>
        <extensions><gpxtpx:TrackPointExtension><gpxtpx:hr>169</gpxtpx:hr></gpxtpx:TrackPointExtension></extensions>
      </trkpt>
      <trkpt lat="59.9796555" lon="15.7864444">
        <ele>105.8</ele>
        <time>2012-10-30T19:09:57Z</time>
        <extensions><gpxtpx:TrackPointExtension><gpxtpx:hr>168</gpxtpx:hr></gpxtpx:TrackPointExtension></extensions>
      </trkpt>
      <trkpt lat="59.9796663" lon="15.7863979">
        <ele>105.8</ele>
        <time>2012-10-30T19:09:58Z</time>
        <extensions><gpxtpx:TrackPointExtension><gpxtpx:hr>168</gpxtpx:hr></gpxtpx:TrackPointExtension></extensions>
      </trkpt>
      <trkpt lat="59.979678" lon="15.7863458">
        <ele>105.8</ele>
        <time>2012-10-30T19:09:59Z</time>
        <extensions><gpxtpx:TrackPointExtension><gpxtpx:hr>168</gpxtpx:hr></gpxtpx:TrackPointExtension></extensions>
      </trkpt>
      <trkpt lat="59.9797053" lon="15.7862233">
        <ele>105.8</ele>
        <time>2012-10-30T19:10:02Z</time>
        <extensions><gpxtpx:TrackPointExtension><gpxtpx:hr>169</gpxtpx:hr></gpxtpx:TrackPointExtension></extensions>
      </trkpt>
      <trkpt lat="59.9797152" lon="15.7861609">
        <ele>105.8</ele>
        <time>2012-10-30T19:10:03Z</time>
        <extensions><gpxtpx:TrackPointExtension><gpxtpx:hr>168</gpxtpx:hr></gpxtpx:TrackPointExtension></extensions>
      </trkpt>
      <trkpt lat="59.9797229" lon="15.7861181">
        <ele>105.8</ele>
        <time>2012-10-30T19:10:04Z</time>
        <extensions><gpxtpx:TrackPointExtension><gpxtpx:hr>169</gpxtpx:hr></gpxtpx:TrackPointExtension></extensions>
      </trkpt>
      <trkpt lat="59.9797323" lon="15.786064">
        <ele>105.8</ele>
        <time>2012-10-30T19:10:05Z</time>
        <extensions><gpxtpx:TrackPointExtension><gpxtpx:hr>168</gpxtpx:hr></gpxtpx:TrackPointExtension></extensions>
      </trkpt>
      <trkpt lat="59.9797384" lon="15.7860218">
        <ele>105.8</ele>
        <time>2012-10-30T19:10:06Z</time>
        <extensions><gpxtpx:TrackPointExtension><gpxtpx:hr>169</gpxtpx:hr></gpxtpx:TrackPointExtension></extensions>
      </trkpt>
      <trkpt lat="59.979745" lon="15.7857505">
        <ele>105.8</ele>
        <time>2012-10-30T19:10:11Z</time>
        <extensions><gpxtpx:TrackPointExtension><gpxtpx:hr>169</gpxtpx:hr></gpxtpx:TrackPointExtension></extensions>
      </trkpt>
      <trkpt lat="59.9797397" lon="15.7857122">
        <ele>105.8</ele>
        <time>2012-10-30T19:10:12Z</time>
        <extensions><gpxtpx:TrackPointExtension><gpxtpx:hr>169</gpxtpx:hr></gpxtpx:TrackPointExtension></extensions>
      </trkpt>
      <trkpt lat="59.9797045" lon="15.7854102">
        <ele>105.8</ele>
        <time>2012-10-30T19:10:18Z</time>
        <extensions><gpxtpx:TrackPointExtension><gpxtpx:hr>169</gpxtpx:hr></gpxtpx:TrackPointExtension></extensions>
      </trkpt>
      <trkpt lat="59.9796942" lon="15.7853221">
        <ele>105.8</ele>
        <time>2012-10-30T19:10:20Z</time>
        <extensions><gpxtpx:TrackPointExtension><gpxtpx:hr>169</gpxtpx:hr></gpxtpx:TrackPointExtension></extensions>
      </trkpt>
      <trkpt lat="59.9796874" lon="15.7852614">
        <ele>105.8</ele>
        <time>2012-10-30T19:10:21Z</time>
        <extensions><gpxtpx:TrackPointExtension><gpxtpx:hr>169</gpxtpx:hr></gpxtpx:TrackPointExtension></extensions>
      </trkpt>
      <trkpt lat="59.979682" lon="15.7852108">
        <ele>106</ele>
        <time>2012-10-30T19:10:22Z</time>
        <extensions><gpxtpx:TrackPointExtension><gpxtpx:hr>170</gpxtpx:hr></gpxtpx:TrackPointExtension></extensions>
      </trkpt>
      <trkpt lat="59.9796757" lon="15.7851653">
        <ele>106.2</ele>
        <time>2012-10-30T19:10:23Z</time>
        <extensions><gpxtpx:TrackPointExtension><gpxtpx:hr>170</gpxtpx:hr></gpxtpx:TrackPointExtension></extensions>
      </trkpt>
      <trkpt lat="59.9796658" lon="15.785102">
        <ele>105.8</ele>
        <time>2012-10-30T19:10:24Z</time>
        <extensions><gpxtpx:TrackPointExtension><gpxtpx:hr>170</gpxtpx:hr></gpxtpx:TrackPointExtension></extensions>
      </trkpt>
      <trkpt lat="59.9796544" lon="15.7850364">
        <ele>105.8</ele>
        <time>2012-10-30T19:10:25Z</time>
        <extensions><gpxtpx:TrackPointExtension><gpxtpx:hr>171</gpxtpx:hr></gpxtpx:TrackPointExtension></extensions>
      </trkpt>
      <trkpt lat="59.9796471" lon="15.7849879">
        <ele>105.8</ele>
        <time>2012-10-30T19:10:26Z</time>
        <extensions><gpxtpx:TrackPointExtension><gpxtpx:hr>171</gpxtpx:hr></gpxtpx:TrackPointExtension></extensions>
      </trkpt>
      <trkpt lat="59.9796392" lon="15.7849327">
        <ele>106</ele>
        <time>2012-10-30T19:10:27Z</time>
        <extensions><gpxtpx:TrackPointExtension><gpxtpx:hr>171</gpxtpx:hr></gpxtpx:TrackPointExtension></extensions>
      </trkpt>
      <trkpt lat="59.979633" lon="15.7848774">
        <ele>105.8</ele>
        <time>2012-10-30T19:10:28Z</time>
        <extensions><gpxtpx:TrackPointExtension><gpxtpx:hr>171</gpxtpx:hr></gpxtpx:TrackPointExtension></extensions>
      </trkpt>
      <trkpt lat="59.9796263" lon="15.7848202">
        <ele>108.8</ele>
        <time>2012-10-30T19:10:29Z</time>
        <extensions><gpxtpx:TrackPointExtension><gpxtpx:hr>171</gpxtpx:hr></gpxtpx:TrackPointExtension></extensions>
      </trkpt>
      <trkpt lat="59.9796199" lon="15.7847681">
        <ele>109.2</ele>
        <time>2012-10-30T19:10:30Z</time>
        <extensions><gpxtpx:TrackPointExtension><gpxtpx:hr>171</gpxtpx:hr></gpxtpx:TrackPointExtension></extensions>
      </trkpt>
      <trkpt lat="59.9796131" lon="15.7846576">
        <ele>108.8</ele>
        <time>2012-10-30T19:10:32Z</time>
        <extensions><gpxtpx:TrackPointExtension><gpxtpx:hr>171</gpxtpx:hr></gpxtpx:TrackPointExtension></extensions>
      </trkpt>
      <trkpt lat="59.9796115" lon="15.7845995">
        <ele>108.8</ele>
        <time>2012-10-30T19:10:33Z</time>
        <extensions><gpxtpx:TrackPointExtension><gpxtpx:hr>172</gpxtpx:hr></gpxtpx:TrackPointExtension></extensions>
      </trkpt>
      <trkpt lat="59.9796079" lon="15.784544">
        <ele>110.2</ele>
        <time>2012-10-30T19:10:34Z</time>
        <extensions><gpxtpx:TrackPointExtension><gpxtpx:hr>172</gpxtpx:hr></gpxtpx:TrackPointExtension></extensions>
      </trkpt>
      <trkpt lat="59.9796049" lon="15.7844963">
        <ele>110.2</ele>
        <time>2012-10-30T19:10:35Z</time>
        <extensions><gpxtpx:TrackPointExtension><gpxtpx:hr>172</gpxtpx:hr></gpxtpx:TrackPointExtension></extensions>
      </trkpt>
      <trkpt lat="59.9796024" lon="15.7844572">
        <ele>110.2</ele>
        <time>2012-10-30T19:10:36Z</time>
        <extensions><gpxtpx:TrackPointExtension><gpxtpx:hr>173</gpxtpx:hr></gpxtpx:TrackPointExtension></extensions>
      </trkpt>
      <trkpt lat="59.9795981" lon="15.7844183">
        <ele>111.2</ele>
        <time>2012-10-30T19:10:37Z</time>
        <extensions><gpxtpx:TrackPointExtension><gpxtpx:hr>174</gpxtpx:hr></gpxtpx:TrackPointExtension></extensions>
      </trkpt>
      <trkpt lat="59.9795905" lon="15.7843691">
        <ele>111.2</ele>
        <time>2012-10-30T19:10:38Z</time>
        <extensions><gpxtpx:TrackPointExtension><gpxtpx:hr>174</gpxtpx:hr></gpxtpx:TrackPointExtension></extensions>
      </trkpt>
      <trkpt lat="59.9795822" lon="15.7843223">
        <ele>111.2</ele>
        <time>2012-10-30T19:10:39Z</time>
        <extensions><gpxtpx:TrackPointExtension><gpxtpx:hr>175</gpxtpx:hr></gpxtpx:TrackPointExtension></extensions>
      </trkpt>
      <trkpt lat="59.9795716" lon="15.7842706">
        <ele>111.2</ele>
        <time>2012-10-30T19:10:40Z</time>
        <extensions><gpxtpx:TrackPointExtension><gpxtpx:hr>175</gpxtpx:hr></gpxtpx:TrackPointExtension></extensions>
      </trkpt>
      <trkpt lat="59.9795625" lon="15.7842142">
        <ele>111.2</ele>
        <time>2012-10-30T19:10:41Z</time>
        <extensions><gpxtpx:TrackPointExtension><gpxtpx:hr>175</gpxtpx:hr></gpxtpx:TrackPointExtension></extensions>
      </trkpt>
      <trkpt lat="59.9795542" lon="15.7841559">
        <ele>111.4</ele>
        <time>2012-10-30T19:10:42Z</time>
        <extensions><gpxtpx:TrackPointExtension><gpxtpx:hr>175</gpxtpx:hr></gpxtpx:TrackPointExtension></extensions>
      </trkpt>
      <trkpt lat="59.9795411" lon="15.784102">
        <ele>112.4</ele>
        <time>2012-10-30T19:10:43Z</time>
        <extensions><gpxtpx:TrackPointExtension><gpxtpx:hr>174</gpxtpx:hr></gpxtpx:TrackPointExtension></extensions>
      </trkpt>
      <trkpt lat="59.9795263" lon="15.7840349">
        <ele>113.8</ele>
        <time>2012-10-30T19:10:44Z</time>
        <extensions><gpxtpx:TrackPointExtension><gpxtpx:hr>175</gpxtpx:hr></gpxtpx:TrackPointExtension></extensions>
      </trkpt>
      <trkpt lat="59.9794773" lon="15.7838348">
        <ele>114.8</ele>
        <time>2012-10-30T19:10:48Z</time>
        <extensions><gpxtpx:TrackPointExtension><gpxtpx:hr>175</gpxtpx:hr></gpxtpx:TrackPointExtension></extensions>
      </trkpt>
      <trkpt lat="59.9794649" lon="15.7837967">
        <ele>114.8</ele>
        <time>2012-10-30T19:10:49Z</time>
        <extensions><gpxtpx:TrackPointExtension><gpxtpx:hr>176</gpxtpx:hr></gpxtpx:TrackPointExtension></extensions>
      </trkpt>
      <trkpt lat="59.9794327" lon="15.7837179">
        <ele>114.8</ele>
        <time>2012-10-30T19:10:51Z</time>
        <extensions><gpxtpx:TrackPointExtension><gpxtpx:hr>176</gpxtpx:hr></gpxtpx:TrackPointExtension></extensions>
      </trkpt>
      <trkpt lat="59.979412" lon="15.7836816">
        <ele>114.8</ele>
        <time>2012-10-30T19:10:52Z</time>
        <extensions><gpxtpx:TrackPointExtension><gpxtpx:hr>176</gpxtpx:hr></gpxtpx:TrackPointExtension></extensions>
      </trkpt>
      <trkpt lat="59.9793989" lon="15.7836566">
        <ele>114.8</ele>
        <time>2012-10-30T19:10:53Z</time>
        <extensions><gpxtpx:TrackPointExtension><gpxtpx:hr>176</gpxtpx:hr></gpxtpx:TrackPointExtension></extensions>
      </trkpt>
      <trkpt lat="59.9793805" lon="15.7836175">
        <ele>114.8</ele>
        <time>2012-10-30T19:10:54Z</time>
        <extensions><gpxtpx:TrackPointExtension><gpxtpx:hr>176</gpxtpx:hr></gpxtpx:TrackPointExtension></extensions>
      </trkpt>
      <trkpt lat="59.9793653" lon="15.7835921">
        <ele>114.8</ele>
        <time>2012-10-30T19:10:55Z</time>
        <extensions><gpxtpx:TrackPointExtension><gpxtpx:hr>176</gpxtpx:hr></gpxtpx:TrackPointExtension></extensions>
      </trkpt>
      <trkpt lat="59.979342" lon="15.7835628">
        <ele>114.8</ele>
        <time>2012-10-30T19:10:56Z</time>
        <extensions><gpxtpx:TrackPointExtension><gpxtpx:hr>176</gpxtpx:hr></gpxtpx:TrackPointExtension></extensions>
      </trkpt>
      <trkpt lat="59.9793225" lon="15.7835439">
        <ele>114.8</ele>
        <time>2012-10-30T19:10:57Z</time>
        <extensions><gpxtpx:TrackPointExtension><gpxtpx:hr>175</gpxtpx:hr></gpxtpx:TrackPointExtension></extensions>
      </trkpt>
      <trkpt lat="59.9793046" lon="15.7835211">
        <ele>114.8</ele>
        <time>2012-10-30T19:10:58Z</time>
        <extensions><gpxtpx:TrackPointExtension><gpxtpx:hr>175</gpxtpx:hr></gpxtpx:TrackPointExtension></extensions>
      </trkpt>
      <trkpt lat="59.9792674" lon="15.7834783">
        <ele>114.8</ele>
        <time>2012-10-30T19:11:00Z</time>
        <extensions><gpxtpx:TrackPointExtension><gpxtpx:hr>175</gpxtpx:hr></gpxtpx:TrackPointExtension></extensions>
      </trkpt>
      <trkpt lat="59.9792102" lon="15.7834131">
        <ele>114.8</ele>
        <time>2012-10-30T19:11:03Z</time>
        <extensions><gpxtpx:TrackPointExtension><gpxtpx:hr>174</gpxtpx:hr></gpxtpx:TrackPointExtension></extensions>
      </trkpt>
      <trkpt lat="59.9791854" lon="15.7833817">
        <ele>114.8</ele>
        <time>2012-10-30T19:11:04Z</time>
        <extensions><gpxtpx:TrackPointExtension><gpxtpx:hr>174</gpxtpx:hr></gpxtpx:TrackPointExtension></extensions>
      </trkpt>
      <trkpt lat="59.9791712" lon="15.7833633">
        <ele>114.8</ele>
        <time>2012-10-30T19:11:05Z</time>
        <extensions><gpxtpx:TrackPointExtension><gpxtpx:hr>174</gpxtpx:hr></gpxtpx:TrackPointExtension></extensions>
      </trkpt>
      <trkpt lat="59.9790773" lon="15.7832689">
        <ele>114.8</ele>
        <time>2012-10-30T19:11:10Z</time>
        <extensions><gpxtpx:TrackPointExtension><gpxtpx:hr>173</gpxtpx:hr></gpxtpx:TrackPointExtension></extensions>
      </trkpt>
      <trkpt lat="59.9789893" lon="15.7832028">
        <ele>114.8</ele>
        <time>2012-10-30T19:11:15Z</time>
        <extensions><gpxtpx:TrackPointExtension><gpxtpx:hr>172</gpxtpx:hr></gpxtpx:TrackPointExtension></extensions>
      </trkpt>
      <trkpt lat="59.9788607" lon="15.7831234">
        <ele>114.8</ele>
        <time>2012-10-30T19:11:21Z</time>
        <extensions><gpxtpx:TrackPointExtension><gpxtpx:hr>171</gpxtpx:hr></gpxtpx:TrackPointExtension></extensions>
      </trkpt>
      <trkpt lat="59.9787875" lon="15.7830769">
        <ele>111.8</ele>
        <time>2012-10-30T19:11:24Z</time>
        <extensions><gpxtpx:TrackPointExtension><gpxtpx:hr>171</gpxtpx:hr></gpxtpx:TrackPointExtension></extensions>
      </trkpt>
      <trkpt lat="59.9787705" lon="15.783067">
        <ele>111.8</ele>
        <time>2012-10-30T19:11:25Z</time>
        <extensions><gpxtpx:TrackPointExtension><gpxtpx:hr>171</gpxtpx:hr></gpxtpx:TrackPointExtension></extensions>
      </trkpt>
      <trkpt lat="59.9787461" lon="15.7830535">
        <ele>111.8</ele>
        <time>2012-10-30T19:11:26Z</time>
        <extensions><gpxtpx:TrackPointExtension><gpxtpx:hr>171</gpxtpx:hr></gpxtpx:TrackPointExtension></extensions>
      </trkpt>
      <trkpt lat="59.9787273" lon="15.7830458">
        <ele>111.6</ele>
        <time>2012-10-30T19:11:27Z</time>
        <extensions><gpxtpx:TrackPointExtension><gpxtpx:hr>170</gpxtpx:hr></gpxtpx:TrackPointExtension></extensions>
      </trkpt>
      <trkpt lat="59.9787109" lon="15.783025">
        <ele>111.8</ele>
        <time>2012-10-30T19:11:28Z</time>
        <extensions><gpxtpx:TrackPointExtension><gpxtpx:hr>171</gpxtpx:hr></gpxtpx:TrackPointExtension></extensions>
      </trkpt>
      <trkpt lat="59.978682" lon="15.7830078">
        <ele>110.6</ele>
        <time>2012-10-30T19:11:29Z</time>
        <extensions><gpxtpx:TrackPointExtension><gpxtpx:hr>170</gpxtpx:hr></gpxtpx:TrackPointExtension></extensions>
      </trkpt>
      <trkpt lat="59.978655" lon="15.7829948">
        <ele>110.6</ele>
        <time>2012-10-30T19:11:30Z</time>
        <extensions><gpxtpx:TrackPointExtension><gpxtpx:hr>170</gpxtpx:hr></gpxtpx:TrackPointExtension></extensions>
      </trkpt>
      <trkpt lat="59.9786325" lon="15.782982">
        <ele>109.4</ele>
        <time>2012-10-30T19:11:31Z</time>
        <extensions><gpxtpx:TrackPointExtension><gpxtpx:hr>169</gpxtpx:hr></gpxtpx:TrackPointExtension></extensions>
      </trkpt>
      <trkpt lat="59.9786105" lon="15.7829674">
        <ele>109.6</ele>
        <time>2012-10-30T19:11:32Z</time>
        <extensions><gpxtpx:TrackPointExtension><gpxtpx:hr>170</gpxtpx:hr></gpxtpx:TrackPointExtension></extensions>
      </trkpt>
      <trkpt lat="59.9785926" lon="15.7829595">
        <ele>109.6</ele>
        <time>2012-10-30T19:11:33Z</time>
        <extensions><gpxtpx:TrackPointExtension><gpxtpx:hr>170</gpxtpx:hr></gpxtpx:TrackPointExtension></extensions>
      </trkpt>
      <trkpt lat="59.9785689" lon="15.7829524">
        <ele>109.4</ele>
        <time>2012-10-30T19:11:34Z</time>
        <extensions><gpxtpx:TrackPointExtension><gpxtpx:hr>169</gpxtpx:hr></gpxtpx:TrackPointExtension></extensions>
      </trkpt>
      <trkpt lat="59.978552" lon="15.7829514">
        <ele>109.4</ele>
        <time>2012-10-30T19:11:35Z</time>
        <extensions><gpxtpx:TrackPointExtension><gpxtpx:hr>169</gpxtpx:hr></gpxtpx:TrackPointExtension></extensions>
      </trkpt>
      <trkpt lat="59.9785237" lon="15.7829297">
        <ele>108.4</ele>
        <time>2012-10-30T19:11:36Z</time>
        <extensions><gpxtpx:TrackPointExtension><gpxtpx:hr>169</gpxtpx:hr></gpxtpx:TrackPointExtension></extensions>
      </trkpt>
      <trkpt lat="59.9785068" lon="15.7829155">
        <ele>108.6</ele>
        <time>2012-10-30T19:11:37Z</time>
        <extensions><gpxtpx:TrackPointExtension><gpxtpx:hr>169</gpxtpx:hr></gpxtpx:TrackPointExtension></extensions>
      </trkpt>
      <trkpt lat="59.9784751" lon="15.7828941">
        <ele>108.6</ele>
        <time>2012-10-30T19:11:38Z</time>
        <extensions><gpxtpx:TrackPointExtension><gpxtpx:hr>168</gpxtpx:hr></gpxtpx:TrackPointExtension></extensions>
      </trkpt>
      <trkpt lat="59.9784533" lon="15.7828811">
        <ele>108.6</ele>
        <time>2012-10-30T19:11:39Z</time>
        <extensions><gpxtpx:TrackPointExtension><gpxtpx:hr>168</gpxtpx:hr></gpxtpx:TrackPointExtension></extensions>
      </trkpt>
      <trkpt lat="59.9784255" lon="15.7828655">
        <ele>108.6</ele>
        <time>2012-10-30T19:11:40Z</time>
        <extensions><gpxtpx:TrackPointExtension><gpxtpx:hr>168</gpxtpx:hr></gpxtpx:TrackPointExtension></extensions>
      </trkpt>
      <trkpt lat="59.9783997" lon="15.782842">
        <ele>108.6</ele>
        <time>2012-10-30T19:11:41Z</time>
        <extensions><gpxtpx:TrackPointExtension><gpxtpx:hr>168</gpxtpx:hr></gpxtpx:TrackPointExtension></extensions>
      </trkpt>
      <trkpt lat="59.9783745" lon="15.7828125">
        <ele>107.6</ele>
        <time>2012-10-30T19:11:42Z</time>
        <extensions><gpxtpx:TrackPointExtension><gpxtpx:hr>168</gpxtpx:hr></gpxtpx:TrackPointExtension></extensions>
      </trkpt>
      <trkpt lat="59.9783523" lon="15.7827886">
        <ele>107.4</ele>
        <time>2012-10-30T19:11:43Z</time>
        <extensions><gpxtpx:TrackPointExtension><gpxtpx:hr>168</gpxtpx:hr></gpxtpx:TrackPointExtension></extensions>
      </trkpt>
      <trkpt lat="59.9783259" lon="15.7827568">
        <ele>107.6</ele>
        <time>2012-10-30T19:11:44Z</time>
        <extensions><gpxtpx:TrackPointExtension><gpxtpx:hr>168</gpxtpx:hr></gpxtpx:TrackPointExtension></extensions>
      </trkpt>
      <trkpt lat="59.9783101" lon="15.7827349">
        <ele>107.6</ele>
        <time>2012-10-30T19:11:45Z</time>
        <extensions><gpxtpx:TrackPointExtension><gpxtpx:hr>167</gpxtpx:hr></gpxtpx:TrackPointExtension></extensions>
      </trkpt>
      <trkpt lat="59.9782848" lon="15.7826937">
        <ele>107.4</ele>
        <time>2012-10-30T19:11:46Z</time>
        <extensions><gpxtpx:TrackPointExtension><gpxtpx:hr>167</gpxtpx:hr></gpxtpx:TrackPointExtension></extensions>
      </trkpt>
      <trkpt lat="59.9782678" lon="15.782666">
        <ele>107.6</ele>
        <time>2012-10-30T19:11:47Z</time>
        <extensions><gpxtpx:TrackPointExtension><gpxtpx:hr>168</gpxtpx:hr></gpxtpx:TrackPointExtension></extensions>
      </trkpt>
      <trkpt lat="59.9781905" lon="15.7825346">
        <ele>107.6</ele>
        <time>2012-10-30T19:11:51Z</time>
        <extensions><gpxtpx:TrackPointExtension><gpxtpx:hr>167</gpxtpx:hr></gpxtpx:TrackPointExtension></extensions>
      </trkpt>
      <trkpt lat="59.9780858" lon="15.782288">
        <ele>107.6</ele>
        <time>2012-10-30T19:11:57Z</time>
        <extensions><gpxtpx:TrackPointExtension><gpxtpx:hr>167</gpxtpx:hr></gpxtpx:TrackPointExtension></extensions>
      </trkpt>
      <trkpt lat="59.9780652" lon="15.7822351">
        <ele>106.4</ele>
        <time>2012-10-30T19:11:58Z</time>
        <extensions><gpxtpx:TrackPointExtension><gpxtpx:hr>167</gpxtpx:hr></gpxtpx:TrackPointExtension></extensions>
      </trkpt>
      <trkpt lat="59.9780534" lon="15.7822016">
        <ele>106.4</ele>
        <time>2012-10-30T19:11:59Z</time>
        <extensions><gpxtpx:TrackPointExtension><gpxtpx:hr>166</gpxtpx:hr></gpxtpx:TrackPointExtension></extensions>
      </trkpt>
      <trkpt lat="59.9780178" lon="15.7821116">
        <ele>106.4</ele>
        <time>2012-10-30T19:12:01Z</time>
        <extensions><gpxtpx:TrackPointExtension><gpxtpx:hr>166</gpxtpx:hr></gpxtpx:TrackPointExtension></extensions>
      </trkpt>
      <trkpt lat="59.9779983" lon="15.7820703">
        <ele>106.4</ele>
        <time>2012-10-30T19:12:02Z</time>
        <extensions><gpxtpx:TrackPointExtension><gpxtpx:hr>166</gpxtpx:hr></gpxtpx:TrackPointExtension></extensions>
      </trkpt>
      <trkpt lat="59.9779827" lon="15.7820388">
        <ele>106.4</ele>
        <time>2012-10-30T19:12:03Z</time>
        <extensions><gpxtpx:TrackPointExtension><gpxtpx:hr>166</gpxtpx:hr></gpxtpx:TrackPointExtension></extensions>
      </trkpt>
      <trkpt lat="59.9779656" lon="15.7820007">
        <ele>105.2</ele>
        <time>2012-10-30T19:12:04Z</time>
        <extensions><gpxtpx:TrackPointExtension><gpxtpx:hr>166</gpxtpx:hr></gpxtpx:TrackPointExtension></extensions>
      </trkpt>
      <trkpt lat="59.9779511" lon="15.7819675">
        <ele>105.2</ele>
        <time>2012-10-30T19:12:05Z</time>
        <extensions><gpxtpx:TrackPointExtension><gpxtpx:hr>165</gpxtpx:hr></gpxtpx:TrackPointExtension></extensions>
      </trkpt>
      <trkpt lat="59.9779311" lon="15.7819225">
        <ele>105.2</ele>
        <time>2012-10-30T19:12:06Z</time>
        <extensions><gpxtpx:TrackPointExtension><gpxtpx:hr>166</gpxtpx:hr></gpxtpx:TrackPointExtension></extensions>
      </trkpt>
      <trkpt lat="59.9779189" lon="15.7818919">
        <ele>105.2</ele>
        <time>2012-10-30T19:12:07Z</time>
        <extensions><gpxtpx:TrackPointExtension><gpxtpx:hr>166</gpxtpx:hr></gpxtpx:TrackPointExtension></extensions>
      </trkpt>
      <trkpt lat="59.9778999" lon="15.7818398">
        <ele>105.2</ele>
        <time>2012-10-30T19:12:08Z</time>
        <extensions><gpxtpx:TrackPointExtension><gpxtpx:hr>165</gpxtpx:hr></gpxtpx:TrackPointExtension></extensions>
      </trkpt>
      <trkpt lat="59.9778876" lon="15.7818108">
        <ele>105.2</ele>
        <time>2012-10-30T19:12:09Z</time>
        <extensions><gpxtpx:TrackPointExtension><gpxtpx:hr>164</gpxtpx:hr></gpxtpx:TrackPointExtension></extensions>
      </trkpt>
      <trkpt lat="59.9778704" lon="15.781768">
        <ele>105.2</ele>
        <time>2012-10-30T19:12:10Z</time>
        <extensions><gpxtpx:TrackPointExtension><gpxtpx:hr>164</gpxtpx:hr></gpxtpx:TrackPointExtension></extensions>
      </trkpt>
      <trkpt lat="59.9778533" lon="15.7817267">
        <ele>105.2</ele>
        <time>2012-10-30T19:12:11Z</time>
        <extensions><gpxtpx:TrackPointExtension><gpxtpx:hr>164</gpxtpx:hr></gpxtpx:TrackPointExtension></extensions>
      </trkpt>
      <trkpt lat="59.9778347" lon="15.7816842">
        <ele>105.2</ele>
        <time>2012-10-30T19:12:12Z</time>
        <extensions><gpxtpx:TrackPointExtension><gpxtpx:hr>164</gpxtpx:hr></gpxtpx:TrackPointExtension></extensions>
      </trkpt>
      <trkpt lat="59.9778207" lon="15.7816493">
        <ele>105.2</ele>
        <time>2012-10-30T19:12:13Z</time>
        <extensions><gpxtpx:TrackPointExtension><gpxtpx:hr>164</gpxtpx:hr></gpxtpx:TrackPointExtension></extensions>
      </trkpt>
      <trkpt lat="59.9777998" lon="15.7816065">
        <ele>105.2</ele>
        <time>2012-10-30T19:12:14Z</time>
        <extensions><gpxtpx:TrackPointExtension><gpxtpx:hr>164</gpxtpx:hr></gpxtpx:TrackPointExtension></extensions>
      </trkpt>
      <trkpt lat="59.9777844" lon="15.7815779">
        <ele>105.2</ele>
        <time>2012-10-30T19:12:15Z</time>
        <extensions><gpxtpx:TrackPointExtension><gpxtpx:hr>163</gpxtpx:hr></gpxtpx:TrackPointExtension></extensions>
      </trkpt>
      <trkpt lat="59.977764" lon="15.7815371">
        <ele>105.2</ele>
        <time>2012-10-30T19:12:16Z</time>
        <extensions><gpxtpx:TrackPointExtension><gpxtpx:hr>163</gpxtpx:hr></gpxtpx:TrackPointExtension></extensions>
      </trkpt>
      <trkpt lat="59.9777528" lon="15.7815091">
        <ele>105.2</ele>
        <time>2012-10-30T19:12:17Z</time>
        <extensions><gpxtpx:TrackPointExtension><gpxtpx:hr>163</gpxtpx:hr></gpxtpx:TrackPointExtension></extensions>
      </trkpt>
      <trkpt lat="59.9777308" lon="15.7814684">
        <ele>105.2</ele>
        <time>2012-10-30T19:12:18Z</time>
        <extensions><gpxtpx:TrackPointExtension><gpxtpx:hr>163</gpxtpx:hr></gpxtpx:TrackPointExtension></extensions>
      </trkpt>
      <trkpt lat="59.9777172" lon="15.7814483">
        <ele>105.2</ele>
        <time>2012-10-30T19:12:19Z</time>
        <extensions><gpxtpx:TrackPointExtension><gpxtpx:hr>163</gpxtpx:hr></gpxtpx:TrackPointExtension></extensions>
      </trkpt>
      <trkpt lat="59.9777006" lon="15.7814211">
        <ele>105.2</ele>
        <time>2012-10-30T19:12:20Z</time>
        <extensions><gpxtpx:TrackPointExtension><gpxtpx:hr>162</gpxtpx:hr></gpxtpx:TrackPointExtension></extensions>
      </trkpt>
      <trkpt lat="59.9776825" lon="15.7813921">
        <ele>105.2</ele>
        <time>2012-10-30T19:12:21Z</time>
        <extensions><gpxtpx:TrackPointExtension><gpxtpx:hr>162</gpxtpx:hr></gpxtpx:TrackPointExtension></extensions>
      </trkpt>
      <trkpt lat="59.9776599" lon="15.7813656">
        <ele>105.2</ele>
        <time>2012-10-30T19:12:22Z</time>
        <extensions><gpxtpx:TrackPointExtension><gpxtpx:hr>161</gpxtpx:hr></gpxtpx:TrackPointExtension></extensions>
      </trkpt>
      <trkpt lat="59.9776429" lon="15.781342">
        <ele>105.2</ele>
        <time>2012-10-30T19:12:23Z</time>
        <extensions><gpxtpx:TrackPointExtension><gpxtpx:hr>161</gpxtpx:hr></gpxtpx:TrackPointExtension></extensions>
      </trkpt>
      <trkpt lat="59.9776245" lon="15.7813094">
        <ele>105.2</ele>
        <time>2012-10-30T19:12:24Z</time>
        <extensions><gpxtpx:TrackPointExtension><gpxtpx:hr>161</gpxtpx:hr></gpxtpx:TrackPointExtension></extensions>
      </trkpt>
      <trkpt lat="59.9776053" lon="15.781288">
        <ele>105.2</ele>
        <time>2012-10-30T19:12:25Z</time>
        <extensions><gpxtpx:TrackPointExtension><gpxtpx:hr>161</gpxtpx:hr></gpxtpx:TrackPointExtension></extensions>
      </trkpt>
      <trkpt lat="59.9775787" lon="15.781262">
        <ele>105.2</ele>
        <time>2012-10-30T19:12:26Z</time>
        <extensions><gpxtpx:TrackPointExtension><gpxtpx:hr>162</gpxtpx:hr></gpxtpx:TrackPointExtension></extensions>
      </trkpt>
      <trkpt lat="59.9775637" lon="15.7812476">
        <ele>105.2</ele>
        <time>2012-10-30T19:12:27Z</time>
        <extensions><gpxtpx:TrackPointExtension><gpxtpx:hr>162</gpxtpx:hr></gpxtpx:TrackPointExtension></extensions>
      </trkpt>
      <trkpt lat="59.9775371" lon="15.7812184">
        <ele>105.2</ele>
        <time>2012-10-30T19:12:28Z</time>
        <extensions><gpxtpx:TrackPointExtension><gpxtpx:hr>162</gpxtpx:hr></gpxtpx:TrackPointExtension></extensions>
      </trkpt>
      <trkpt lat="59.9775215" lon="15.7811961">
        <ele>105.2</ele>
        <time>2012-10-30T19:12:29Z</time>
        <extensions><gpxtpx:TrackPointExtension><gpxtpx:hr>162</gpxtpx:hr></gpxtpx:TrackPointExtension></extensions>
      </trkpt>
      <trkpt lat="59.977501" lon="15.7811636">
        <ele>105.2</ele>
        <time>2012-10-30T19:12:30Z</time>
        <extensions><gpxtpx:TrackPointExtension><gpxtpx:hr>162</gpxtpx:hr></gpxtpx:TrackPointExtension></extensions>
      </trkpt>
      <trkpt lat="59.9774848" lon="15.7811312">
        <ele>105.2</ele>
        <time>2012-10-30T19:12:31Z</time>
        <extensions><gpxtpx:TrackPointExtension><gpxtpx:hr>162</gpxtpx:hr></gpxtpx:TrackPointExtension></extensions>
      </trkpt>
      <trkpt lat="59.9774662" lon="15.781087">
        <ele>105.4</ele>
        <time>2012-10-30T19:12:32Z</time>
        <extensions><gpxtpx:TrackPointExtension><gpxtpx:hr>162</gpxtpx:hr></gpxtpx:TrackPointExtension></extensions>
      </trkpt>
      <trkpt lat="59.9774546" lon="15.7810595">
        <ele>105.4</ele>
        <time>2012-10-30T19:12:33Z</time>
        <extensions><gpxtpx:TrackPointExtension><gpxtpx:hr>163</gpxtpx:hr></gpxtpx:TrackPointExtension></extensions>
      </trkpt>
      <trkpt lat="59.9773974" lon="15.7810061">
        <ele>105.2</ele>
        <time>2012-10-30T19:12:35Z</time>
        <extensions><gpxtpx:TrackPointExtension><gpxtpx:hr>163</gpxtpx:hr></gpxtpx:TrackPointExtension></extensions>
      </trkpt>
      <trkpt lat="59.977373" lon="15.780973">
        <ele>105.2</ele>
        <time>2012-10-30T19:12:36Z</time>
        <extensions><gpxtpx:TrackPointExtension><gpxtpx:hr>164</gpxtpx:hr></gpxtpx:TrackPointExtension></extensions>
      </trkpt>
      <trkpt lat="59.9772892" lon="15.7808446">
        <ele>105.2</ele>
        <time>2012-10-30T19:12:41Z</time>
        <extensions><gpxtpx:TrackPointExtension><gpxtpx:hr>164</gpxtpx:hr></gpxtpx:TrackPointExtension></extensions>
      </trkpt>
      <trkpt lat="59.9772556" lon="15.7807864">
        <ele>105.2</ele>
        <time>2012-10-30T19:12:43Z</time>
        <extensions><gpxtpx:TrackPointExtension><gpxtpx:hr>164</gpxtpx:hr></gpxtpx:TrackPointExtension></extensions>
      </trkpt>
      <trkpt lat="59.9772323" lon="15.7807397">
        <ele>105.4</ele>
        <time>2012-10-30T19:12:44Z</time>
        <extensions><gpxtpx:TrackPointExtension><gpxtpx:hr>164</gpxtpx:hr></gpxtpx:TrackPointExtension></extensions>
      </trkpt>
      <trkpt lat="59.9772194" lon="15.7807187">
        <ele>105.2</ele>
        <time>2012-10-30T19:12:45Z</time>
        <extensions><gpxtpx:TrackPointExtension><gpxtpx:hr>164</gpxtpx:hr></gpxtpx:TrackPointExtension></extensions>
      </trkpt>
      <trkpt lat="59.9771893" lon="15.7806784">
        <ele>105.4</ele>
        <time>2012-10-30T19:12:46Z</time>
        <extensions><gpxtpx:TrackPointExtension><gpxtpx:hr>164</gpxtpx:hr></gpxtpx:TrackPointExtension></extensions>
      </trkpt>
      <trkpt lat="59.9771754" lon="15.7806614">
        <ele>105.2</ele>
        <time>2012-10-30T19:12:47Z</time>
        <extensions><gpxtpx:TrackPointExtension><gpxtpx:hr>164</gpxtpx:hr></gpxtpx:TrackPointExtension></extensions>
      </trkpt>
      <trkpt lat="59.9771488" lon="15.7806308">
        <ele>105.2</ele>
        <time>2012-10-30T19:12:48Z</time>
        <extensions><gpxtpx:TrackPointExtension><gpxtpx:hr>164</gpxtpx:hr></gpxtpx:TrackPointExtension></extensions>
      </trkpt>
      <trkpt lat="59.9771365" lon="15.780613">
        <ele>105.2</ele>
        <time>2012-10-30T19:12:49Z</time>
        <extensions><gpxtpx:TrackPointExtension><gpxtpx:hr>164</gpxtpx:hr></gpxtpx:TrackPointExtension></extensions>
      </trkpt>
      <trkpt lat="59.9771024" lon="15.7805774">
        <ele>105.2</ele>
        <time>2012-10-30T19:12:50Z</time>
        <extensions><gpxtpx:TrackPointExtension><gpxtpx:hr>164</gpxtpx:hr></gpxtpx:TrackPointExtension></extensions>
      </trkpt>
      <trkpt lat="59.9770851" lon="15.7805579">
        <ele>105.2</ele>
        <time>2012-10-30T19:12:51Z</time>
        <extensions><gpxtpx:TrackPointExtension><gpxtpx:hr>164</gpxtpx:hr></gpxtpx:TrackPointExtension></extensions>
      </trkpt>
      <trkpt lat="59.9770583" lon="15.7805249">
        <ele>105.2</ele>
        <time>2012-10-30T19:12:52Z</time>
        <extensions><gpxtpx:TrackPointExtension><gpxtpx:hr>164</gpxtpx:hr></gpxtpx:TrackPointExtension></extensions>
      </trkpt>
      <trkpt lat="59.9770376" lon="15.780512">
        <ele>105.2</ele>
        <time>2012-10-30T19:12:53Z</time>
        <extensions><gpxtpx:TrackPointExtension><gpxtpx:hr>164</gpxtpx:hr></gpxtpx:TrackPointExtension></extensions>
      </trkpt>
      <trkpt lat="59.9770077" lon="15.7804914">
        <ele>105.2</ele>
        <time>2012-10-30T19:12:54Z</time>
        <extensions><gpxtpx:TrackPointExtension><gpxtpx:hr>164</gpxtpx:hr></gpxtpx:TrackPointExtension></extensions>
      </trkpt>
      <trkpt lat="59.9769904" lon="15.7804833">
        <ele>105.2</ele>
        <time>2012-10-30T19:12:55Z</time>
        <extensions><gpxtpx:TrackPointExtension><gpxtpx:hr>165</gpxtpx:hr></gpxtpx:TrackPointExtension></extensions>
      </trkpt>
      <trkpt lat="59.9769627" lon="15.7804637">
        <ele>105.2</ele>
        <time>2012-10-30T19:12:56Z</time>
        <extensions><gpxtpx:TrackPointExtension><gpxtpx:hr>164</gpxtpx:hr></gpxtpx:TrackPointExtension></extensions>
      </trkpt>
      <trkpt lat="59.9769511" lon="15.7804566">
        <ele>105.2</ele>
        <time>2012-10-30T19:12:57Z</time>
        <extensions><gpxtpx:TrackPointExtension><gpxtpx:hr>164</gpxtpx:hr></gpxtpx:TrackPointExtension></extensions>
      </trkpt>
      <trkpt lat="59.976921" lon="15.7804319">
        <ele>105.2</ele>
        <time>2012-10-30T19:12:58Z</time>
        <extensions><gpxtpx:TrackPointExtension><gpxtpx:hr>164</gpxtpx:hr></gpxtpx:TrackPointExtension></extensions>
      </trkpt>
      <trkpt lat="59.9769064" lon="15.7804215">
        <ele>105.2</ele>
        <time>2012-10-30T19:12:59Z</time>
        <extensions><gpxtpx:TrackPointExtension><gpxtpx:hr>164</gpxtpx:hr></gpxtpx:TrackPointExtension></extensions>
      </trkpt>
      <trkpt lat="59.9768717" lon="15.7804073">
        <ele>105.2</ele>
        <time>2012-10-30T19:13:00Z</time>
        <extensions><gpxtpx:TrackPointExtension><gpxtpx:hr>164</gpxtpx:hr></gpxtpx:TrackPointExtension></extensions>
      </trkpt>
      <trkpt lat="59.9768563" lon="15.7804052">
        <ele>105.2</ele>
        <time>2012-10-30T19:13:01Z</time>
        <extensions><gpxtpx:TrackPointExtension><gpxtpx:hr>164</gpxtpx:hr></gpxtpx:TrackPointExtension></extensions>
      </trkpt>
      <trkpt lat="59.9768268" lon="15.7803988">
        <ele>105.2</ele>
        <time>2012-10-30T19:13:02Z</time>
        <extensions><gpxtpx:TrackPointExtension><gpxtpx:hr>163</gpxtpx:hr></gpxtpx:TrackPointExtension></extensions>
      </trkpt>
      <trkpt lat="59.9767147" lon="15.7803712">
        <ele>105.2</ele>
        <time>2012-10-30T19:13:06Z</time>
        <extensions><gpxtpx:TrackPointExtension><gpxtpx:hr>164</gpxtpx:hr></gpxtpx:TrackPointExtension></extensions>
      </trkpt>
      <trkpt lat="59.9765986" lon="15.7803493">
        <ele>105.2</ele>
        <time>2012-10-30T19:13:10Z</time>
        <extensions><gpxtpx:TrackPointExtension><gpxtpx:hr>164</gpxtpx:hr></gpxtpx:TrackPointExtension></extensions>
      </trkpt>
      <trkpt lat="59.9765406" lon="15.7803259">
        <ele>104.2</ele>
        <time>2012-10-30T19:13:12Z</time>
        <extensions><gpxtpx:TrackPointExtension><gpxtpx:hr>164</gpxtpx:hr></gpxtpx:TrackPointExtension></extensions>
      </trkpt>
      <trkpt lat="59.9764771" lon="15.7802979">
        <ele>104.2</ele>
        <time>2012-10-30T19:13:15Z</time>
        <extensions><gpxtpx:TrackPointExtension><gpxtpx:hr>164</gpxtpx:hr></gpxtpx:TrackPointExtension></extensions>
      </trkpt>
      <trkpt lat="59.9764284" lon="15.780282">
        <ele>104.2</ele>
        <time>2012-10-30T19:13:17Z</time>
        <extensions><gpxtpx:TrackPointExtension><gpxtpx:hr>165</gpxtpx:hr></gpxtpx:TrackPointExtension></extensions>
      </trkpt>
      <trkpt lat="59.9763934" lon="15.7802785">
        <ele>104.2</ele>
        <time>2012-10-30T19:13:18Z</time>
        <extensions><gpxtpx:TrackPointExtension><gpxtpx:hr>165</gpxtpx:hr></gpxtpx:TrackPointExtension></extensions>
      </trkpt>
      <trkpt lat="59.9763766" lon="15.7802799">
        <ele>104.2</ele>
        <time>2012-10-30T19:13:19Z</time>
        <extensions><gpxtpx:TrackPointExtension><gpxtpx:hr>165</gpxtpx:hr></gpxtpx:TrackPointExtension></extensions>
      </trkpt>
      <trkpt lat="59.9763398" lon="15.7802832">
        <ele>104.2</ele>
        <time>2012-10-30T19:13:20Z</time>
        <extensions><gpxtpx:TrackPointExtension><gpxtpx:hr>165</gpxtpx:hr></gpxtpx:TrackPointExtension></extensions>
      </trkpt>
      <trkpt lat="59.9763255" lon="15.7802831">
        <ele>104.2</ele>
        <time>2012-10-30T19:13:21Z</time>
        <extensions><gpxtpx:TrackPointExtension><gpxtpx:hr>165</gpxtpx:hr></gpxtpx:TrackPointExtension></extensions>
      </trkpt>
      <trkpt lat="59.9762995" lon="15.7802859">
        <ele>104.2</ele>
        <time>2012-10-30T19:13:22Z</time>
        <extensions><gpxtpx:TrackPointExtension><gpxtpx:hr>165</gpxtpx:hr></gpxtpx:TrackPointExtension></extensions>
      </trkpt>
      <trkpt lat="59.9762844" lon="15.7802892">
        <ele>104.2</ele>
        <time>2012-10-30T19:13:23Z</time>
        <extensions><gpxtpx:TrackPointExtension><gpxtpx:hr>165</gpxtpx:hr></gpxtpx:TrackPointExtension></extensions>
      </trkpt>
      <trkpt lat="59.9762558" lon="15.7802963">
        <ele>104.2</ele>
        <time>2012-10-30T19:13:24Z</time>
        <extensions><gpxtpx:TrackPointExtension><gpxtpx:hr>165</gpxtpx:hr></gpxtpx:TrackPointExtension></extensions>
      </trkpt>
      <trkpt lat="59.9762399" lon="15.7803019">
        <ele>104.2</ele>
        <time>2012-10-30T19:13:25Z</time>
        <extensions><gpxtpx:TrackPointExtension><gpxtpx:hr>165</gpxtpx:hr></gpxtpx:TrackPointExtension></extensions>
      </trkpt>
      <trkpt lat="59.9762169" lon="15.7803077">
        <ele>104.2</ele>
        <time>2012-10-30T19:13:26Z</time>
        <extensions><gpxtpx:TrackPointExtension><gpxtpx:hr>164</gpxtpx:hr></gpxtpx:TrackPointExtension></extensions>
      </trkpt>
      <trkpt lat="59.9762036" lon="15.7803102">
        <ele>104.2</ele>
        <time>2012-10-30T19:13:27Z</time>
        <extensions><gpxtpx:TrackPointExtension><gpxtpx:hr>164</gpxtpx:hr></gpxtpx:TrackPointExtension></extensions>
      </trkpt>
      <trkpt lat="59.9761716" lon="15.7803059">
        <ele>104.2</ele>
        <time>2012-10-30T19:13:28Z</time>
        <extensions><gpxtpx:TrackPointExtension><gpxtpx:hr>164</gpxtpx:hr></gpxtpx:TrackPointExtension></extensions>
      </trkpt>
      <trkpt lat="59.9761585" lon="15.7803067">
        <ele>104.2</ele>
        <time>2012-10-30T19:13:29Z</time>
        <extensions><gpxtpx:TrackPointExtension><gpxtpx:hr>165</gpxtpx:hr></gpxtpx:TrackPointExtension></extensions>
      </trkpt>
      <trkpt lat="59.9761277" lon="15.7803114">
        <ele>104.2</ele>
        <time>2012-10-30T19:13:30Z</time>
        <extensions><gpxtpx:TrackPointExtension><gpxtpx:hr>165</gpxtpx:hr></gpxtpx:TrackPointExtension></extensions>
      </trkpt>
      <trkpt lat="59.9761093" lon="15.7803126">
        <ele>104.2</ele>
        <time>2012-10-30T19:13:31Z</time>
        <extensions><gpxtpx:TrackPointExtension><gpxtpx:hr>165</gpxtpx:hr></gpxtpx:TrackPointExtension></extensions>
      </trkpt>
      <trkpt lat="59.9760798" lon="15.7803208">
        <ele>104.2</ele>
        <time>2012-10-30T19:13:32Z</time>
        <extensions><gpxtpx:TrackPointExtension><gpxtpx:hr>164</gpxtpx:hr></gpxtpx:TrackPointExtension></extensions>
      </trkpt>
      <trkpt lat="59.9760629" lon="15.7803308">
        <ele>104.2</ele>
        <time>2012-10-30T19:13:33Z</time>
        <extensions><gpxtpx:TrackPointExtension><gpxtpx:hr>164</gpxtpx:hr></gpxtpx:TrackPointExtension></extensions>
      </trkpt>
      <trkpt lat="59.97604" lon="15.7803389">
        <ele>104.2</ele>
        <time>2012-10-30T19:13:34Z</time>
        <extensions><gpxtpx:TrackPointExtension><gpxtpx:hr>164</gpxtpx:hr></gpxtpx:TrackPointExtension></extensions>
      </trkpt>
      <trkpt lat="59.9760223" lon="15.7803424">
        <ele>104.2</ele>
        <time>2012-10-30T19:13:35Z</time>
        <extensions><gpxtpx:TrackPointExtension><gpxtpx:hr>164</gpxtpx:hr></gpxtpx:TrackPointExtension></extensions>
      </trkpt>
      <trkpt lat="59.975986" lon="15.7803533">
        <ele>104.2</ele>
        <time>2012-10-30T19:13:36Z</time>
        <extensions><gpxtpx:TrackPointExtension><gpxtpx:hr>164</gpxtpx:hr></gpxtpx:TrackPointExtension></extensions>
      </trkpt>
      <trkpt lat="59.9759726" lon="15.7803597">
        <ele>104.2</ele>
        <time>2012-10-30T19:13:37Z</time>
        <extensions><gpxtpx:TrackPointExtension><gpxtpx:hr>163</gpxtpx:hr></gpxtpx:TrackPointExtension></extensions>
      </trkpt>
      <trkpt lat="59.9759495" lon="15.7803651">
        <ele>104.2</ele>
        <time>2012-10-30T19:13:38Z</time>
        <extensions><gpxtpx:TrackPointExtension><gpxtpx:hr>163</gpxtpx:hr></gpxtpx:TrackPointExtension></extensions>
      </trkpt>
      <trkpt lat="59.9759347" lon="15.7803651">
        <ele>104.2</ele>
        <time>2012-10-30T19:13:39Z</time>
        <extensions><gpxtpx:TrackPointExtension><gpxtpx:hr>163</gpxtpx:hr></gpxtpx:TrackPointExtension></extensions>
      </trkpt>
      <trkpt lat="59.9759109" lon="15.7803711">
        <ele>104.2</ele>
        <time>2012-10-30T19:13:40Z</time>
        <extensions><gpxtpx:TrackPointExtension><gpxtpx:hr>162</gpxtpx:hr></gpxtpx:TrackPointExtension></extensions>
      </trkpt>
      <trkpt lat="59.9758979" lon="15.7803758">
        <ele>104.2</ele>
        <time>2012-10-30T19:13:41Z</time>
        <extensions><gpxtpx:TrackPointExtension><gpxtpx:hr>161</gpxtpx:hr></gpxtpx:TrackPointExtension></extensions>
      </trkpt>
      <trkpt lat="59.9758602" lon="15.7803943">
        <ele>104.2</ele>
        <time>2012-10-30T19:13:43Z</time>
        <extensions><gpxtpx:TrackPointExtension><gpxtpx:hr>160</gpxtpx:hr></gpxtpx:TrackPointExtension></extensions>
      </trkpt>
      <trkpt lat="59.9757393" lon="15.7803979">
        <ele>104.2</ele>
        <time>2012-10-30T19:13:48Z</time>
        <extensions><gpxtpx:TrackPointExtension><gpxtpx:hr>160</gpxtpx:hr></gpxtpx:TrackPointExtension></extensions>
      </trkpt>
      <trkpt lat="59.9756702" lon="15.7803816">
        <ele>104.2</ele>
        <time>2012-10-30T19:13:51Z</time>
        <extensions><gpxtpx:TrackPointExtension><gpxtpx:hr>163</gpxtpx:hr></gpxtpx:TrackPointExtension></extensions>
      </trkpt>
      <trkpt lat="59.9756187" lon="15.7803776">
        <ele>104.2</ele>
        <time>2012-10-30T19:13:53Z</time>
        <extensions><gpxtpx:TrackPointExtension><gpxtpx:hr>163</gpxtpx:hr></gpxtpx:TrackPointExtension></extensions>
      </trkpt>
      <trkpt lat="59.9755835" lon="15.7803687">
        <ele>104.2</ele>
        <time>2012-10-30T19:13:54Z</time>
        <extensions><gpxtpx:TrackPointExtension><gpxtpx:hr>163</gpxtpx:hr></gpxtpx:TrackPointExtension></extensions>
      </trkpt>
      <trkpt lat="59.975564" lon="15.7803628">
        <ele>104.2</ele>
        <time>2012-10-30T19:13:55Z</time>
        <extensions><gpxtpx:TrackPointExtension><gpxtpx:hr>165</gpxtpx:hr></gpxtpx:TrackPointExtension></extensions>
      </trkpt>
      <trkpt lat="59.9755413" lon="15.7803548">
        <ele>104.2</ele>
        <time>2012-10-30T19:13:56Z</time>
        <extensions><gpxtpx:TrackPointExtension><gpxtpx:hr>165</gpxtpx:hr></gpxtpx:TrackPointExtension></extensions>
      </trkpt>
      <trkpt lat="59.975527" lon="15.7803426">
        <ele>104.2</ele>
        <time>2012-10-30T19:13:57Z</time>
        <extensions><gpxtpx:TrackPointExtension><gpxtpx:hr>165</gpxtpx:hr></gpxtpx:TrackPointExtension></extensions>
      </trkpt>
      <trkpt lat="59.9754941" lon="15.7803223">
        <ele>104.2</ele>
        <time>2012-10-30T19:13:58Z</time>
        <extensions><gpxtpx:TrackPointExtension><gpxtpx:hr>165</gpxtpx:hr></gpxtpx:TrackPointExtension></extensions>
      </trkpt>
      <trkpt lat="59.9754777" lon="15.780312">
        <ele>104.2</ele>
        <time>2012-10-30T19:13:59Z</time>
        <extensions><gpxtpx:TrackPointExtension><gpxtpx:hr>165</gpxtpx:hr></gpxtpx:TrackPointExtension></extensions>
      </trkpt>
      <trkpt lat="59.9754438" lon="15.7802929">
        <ele>104.2</ele>
        <time>2012-10-30T19:14:00Z</time>
        <extensions><gpxtpx:TrackPointExtension><gpxtpx:hr>165</gpxtpx:hr></gpxtpx:TrackPointExtension></extensions>
      </trkpt>
      <trkpt lat="59.975425" lon="15.7802839">
        <ele>104.2</ele>
        <time>2012-10-30T19:14:01Z</time>
        <extensions><gpxtpx:TrackPointExtension><gpxtpx:hr>165</gpxtpx:hr></gpxtpx:TrackPointExtension></extensions>
      </trkpt>
      <trkpt lat="59.9753928" lon="15.7802664">
        <ele>104.2</ele>
        <time>2012-10-30T19:14:02Z</time>
        <extensions><gpxtpx:TrackPointExtension><gpxtpx:hr>165</gpxtpx:hr></gpxtpx:TrackPointExtension></extensions>
      </trkpt>
      <trkpt lat="59.9753764" lon="15.780256">
        <ele>104.2</ele>
        <time>2012-10-30T19:14:03Z</time>
        <extensions><gpxtpx:TrackPointExtension><gpxtpx:hr>164</gpxtpx:hr></gpxtpx:TrackPointExtension></extensions>
      </trkpt>
      <trkpt lat="59.9753415" lon="15.7802282">
        <ele>104.2</ele>
        <time>2012-10-30T19:14:04Z</time>
        <extensions><gpxtpx:TrackPointExtension><gpxtpx:hr>165</gpxtpx:hr></gpxtpx:TrackPointExtension></extensions>
      </trkpt>
      <trkpt lat="59.9753206" lon="15.7802095">
        <ele>104.2</ele>
        <time>2012-10-30T19:14:05Z</time>
        <extensions><gpxtpx:TrackPointExtension><gpxtpx:hr>165</gpxtpx:hr></gpxtpx:TrackPointExtension></extensions>
      </trkpt>
      <trkpt lat="59.9752872" lon="15.7801783">
        <ele>104.2</ele>
        <time>2012-10-30T19:14:06Z</time>
        <extensions><gpxtpx:TrackPointExtension><gpxtpx:hr>164</gpxtpx:hr></gpxtpx:TrackPointExtension></extensions>
      </trkpt>
      <trkpt lat="59.9752441" lon="15.7801253">
        <ele>104.2</ele>
        <time>2012-10-30T19:14:08Z</time>
        <extensions><gpxtpx:TrackPointExtension><gpxtpx:hr>165</gpxtpx:hr></gpxtpx:TrackPointExtension></extensions>
      </trkpt>
      <trkpt lat="59.9752298" lon="15.7801038">
        <ele>104.2</ele>
        <time>2012-10-30T19:14:09Z</time>
        <extensions><gpxtpx:TrackPointExtension><gpxtpx:hr>165</gpxtpx:hr></gpxtpx:TrackPointExtension></extensions>
      </trkpt>
      <trkpt lat="59.9751555" lon="15.7800134">
        <ele>104.2</ele>
        <time>2012-10-30T19:14:12Z</time>
        <extensions><gpxtpx:TrackPointExtension><gpxtpx:hr>165</gpxtpx:hr></gpxtpx:TrackPointExtension></extensions>
      </trkpt>
      <trkpt lat="59.9751413" lon="15.7799999">
        <ele>104.2</ele>
        <time>2012-10-30T19:14:13Z</time>
        <extensions><gpxtpx:TrackPointExtension><gpxtpx:hr>165</gpxtpx:hr></gpxtpx:TrackPointExtension></extensions>
      </trkpt>
      <trkpt lat="59.975114" lon="15.7799693">
        <ele>104.2</ele>
        <time>2012-10-30T19:14:14Z</time>
        <extensions><gpxtpx:TrackPointExtension><gpxtpx:hr>165</gpxtpx:hr></gpxtpx:TrackPointExtension></extensions>
      </trkpt>
      <trkpt lat="59.9751" lon="15.7799577">
        <ele>104.2</ele>
        <time>2012-10-30T19:14:15Z</time>
        <extensions><gpxtpx:TrackPointExtension><gpxtpx:hr>166</gpxtpx:hr></gpxtpx:TrackPointExtension></extensions>
      </trkpt>
      <trkpt lat="59.9750693" lon="15.7799315">
        <ele>104.2</ele>
        <time>2012-10-30T19:14:16Z</time>
        <extensions><gpxtpx:TrackPointExtension><gpxtpx:hr>166</gpxtpx:hr></gpxtpx:TrackPointExtension></extensions>
      </trkpt>
      <trkpt lat="59.9750491" lon="15.7799141">
        <ele>104.2</ele>
        <time>2012-10-30T19:14:17Z</time>
        <extensions><gpxtpx:TrackPointExtension><gpxtpx:hr>165</gpxtpx:hr></gpxtpx:TrackPointExtension></extensions>
      </trkpt>
      <trkpt lat="59.9750282" lon="15.7798981">
        <ele>104.2</ele>
        <time>2012-10-30T19:14:18Z</time>
        <extensions><gpxtpx:TrackPointExtension><gpxtpx:hr>166</gpxtpx:hr></gpxtpx:TrackPointExtension></extensions>
      </trkpt>
      <trkpt lat="59.9749676" lon="15.7798416">
        <ele>104.2</ele>
        <time>2012-10-30T19:14:21Z</time>
        <extensions><gpxtpx:TrackPointExtension><gpxtpx:hr>165</gpxtpx:hr></gpxtpx:TrackPointExtension></extensions>
      </trkpt>
      <trkpt lat="59.9749196" lon="15.7797997">
        <ele>104.2</ele>
        <time>2012-10-30T19:14:23Z</time>
        <extensions><gpxtpx:TrackPointExtension><gpxtpx:hr>165</gpxtpx:hr></gpxtpx:TrackPointExtension></extensions>
      </trkpt>
      <trkpt lat="59.9748949" lon="15.7797805">
        <ele>104.2</ele>
        <time>2012-10-30T19:14:24Z</time>
        <extensions><gpxtpx:TrackPointExtension><gpxtpx:hr>166</gpxtpx:hr></gpxtpx:TrackPointExtension></extensions>
      </trkpt>
      <trkpt lat="59.9748406" lon="15.7797274">
        <ele>104.2</ele>
        <time>2012-10-30T19:14:27Z</time>
        <extensions><gpxtpx:TrackPointExtension><gpxtpx:hr>165</gpxtpx:hr></gpxtpx:TrackPointExtension></extensions>
      </trkpt>
      <trkpt lat="59.9748132" lon="15.7797078">
        <ele>104.2</ele>
        <time>2012-10-30T19:14:28Z</time>
        <extensions><gpxtpx:TrackPointExtension><gpxtpx:hr>165</gpxtpx:hr></gpxtpx:TrackPointExtension></extensions>
      </trkpt>
      <trkpt lat="59.9747958" lon="15.7796963">
        <ele>104.2</ele>
        <time>2012-10-30T19:14:29Z</time>
        <extensions><gpxtpx:TrackPointExtension><gpxtpx:hr>166</gpxtpx:hr></gpxtpx:TrackPointExtension></extensions>
      </trkpt>
      <trkpt lat="59.9747806" lon="15.7796904">
        <ele>104.2</ele>
        <time>2012-10-30T19:14:30Z</time>
        <extensions><gpxtpx:TrackPointExtension><gpxtpx:hr>166</gpxtpx:hr></gpxtpx:TrackPointExtension></extensions>
      </trkpt>
      <trkpt lat="59.9747628" lon="15.7796796">
        <ele>104.2</ele>
        <time>2012-10-30T19:14:31Z</time>
        <extensions><gpxtpx:TrackPointExtension><gpxtpx:hr>166</gpxtpx:hr></gpxtpx:TrackPointExtension></extensions>
      </trkpt>
      <trkpt lat="59.9747376" lon="15.7796702">
        <ele>104.2</ele>
        <time>2012-10-30T19:14:32Z</time>
        <extensions><gpxtpx:TrackPointExtension><gpxtpx:hr>165</gpxtpx:hr></gpxtpx:TrackPointExtension></extensions>
      </trkpt>
      <trkpt lat="59.9747271" lon="15.7796671">
        <ele>104.2</ele>
        <time>2012-10-30T19:14:33Z</time>
        <extensions><gpxtpx:TrackPointExtension><gpxtpx:hr>165</gpxtpx:hr></gpxtpx:TrackPointExtension></extensions>
      </trkpt>
      <trkpt lat="59.9747015" lon="15.7796521">
        <ele>104.2</ele>
        <time>2012-10-30T19:14:34Z</time>
        <extensions><gpxtpx:TrackPointExtension><gpxtpx:hr>166</gpxtpx:hr></gpxtpx:TrackPointExtension></extensions>
      </trkpt>
      <trkpt lat="59.9746868" lon="15.779639">
        <ele>104.2</ele>
        <time>2012-10-30T19:14:35Z</time>
        <extensions><gpxtpx:TrackPointExtension><gpxtpx:hr>166</gpxtpx:hr></gpxtpx:TrackPointExtension></extensions>
      </trkpt>
      <trkpt lat="59.9746613" lon="15.7796234">
        <ele>104.2</ele>
        <time>2012-10-30T19:14:36Z</time>
        <extensions><gpxtpx:TrackPointExtension><gpxtpx:hr>166</gpxtpx:hr></gpxtpx:TrackPointExtension></extensions>
      </trkpt>
      <trkpt lat="59.9746434" lon="15.7796092">
        <ele>104.2</ele>
        <time>2012-10-30T19:14:37Z</time>
        <extensions><gpxtpx:TrackPointExtension><gpxtpx:hr>166</gpxtpx:hr></gpxtpx:TrackPointExtension></extensions>
      </trkpt>
      <trkpt lat="59.9746151" lon="15.7795796">
        <ele>104.2</ele>
        <time>2012-10-30T19:14:38Z</time>
        <extensions><gpxtpx:TrackPointExtension><gpxtpx:hr>166</gpxtpx:hr></gpxtpx:TrackPointExtension></extensions>
      </trkpt>
      <trkpt lat="59.9745963" lon="15.7795708">
        <ele>104.2</ele>
        <time>2012-10-30T19:14:39Z</time>
        <extensions><gpxtpx:TrackPointExtension><gpxtpx:hr>166</gpxtpx:hr></gpxtpx:TrackPointExtension></extensions>
      </trkpt>
      <trkpt lat="59.9745697" lon="15.7795474">
        <ele>104.2</ele>
        <time>2012-10-30T19:14:40Z</time>
        <extensions><gpxtpx:TrackPointExtension><gpxtpx:hr>166</gpxtpx:hr></gpxtpx:TrackPointExtension></extensions>
      </trkpt>
      <trkpt lat="59.9745542" lon="15.7795386">
        <ele>104.2</ele>
        <time>2012-10-30T19:14:41Z</time>
        <extensions><gpxtpx:TrackPointExtension><gpxtpx:hr>166</gpxtpx:hr></gpxtpx:TrackPointExtension></extensions>
      </trkpt>
      <trkpt lat="59.9745301" lon="15.7795295">
        <ele>104.2</ele>
        <time>2012-10-30T19:14:42Z</time>
        <extensions><gpxtpx:TrackPointExtension><gpxtpx:hr>166</gpxtpx:hr></gpxtpx:TrackPointExtension></extensions>
      </trkpt>
      <trkpt lat="59.9745138" lon="15.7795232">
        <ele>104.2</ele>
        <time>2012-10-30T19:14:43Z</time>
        <extensions><gpxtpx:TrackPointExtension><gpxtpx:hr>167</gpxtpx:hr></gpxtpx:TrackPointExtension></extensions>
      </trkpt>
      <trkpt lat="59.9744884" lon="15.7794972">
        <ele>104.2</ele>
        <time>2012-10-30T19:14:44Z</time>
        <extensions><gpxtpx:TrackPointExtension><gpxtpx:hr>166</gpxtpx:hr></gpxtpx:TrackPointExtension></extensions>
      </trkpt>
      <trkpt lat="59.9744474" lon="15.7794784">
        <ele>104.2</ele>
        <time>2012-10-30T19:14:46Z</time>
        <extensions><gpxtpx:TrackPointExtension><gpxtpx:hr>166</gpxtpx:hr></gpxtpx:TrackPointExtension></extensions>
      </trkpt>
      <trkpt lat="59.974361" lon="15.7794413">
        <ele>104.2</ele>
        <time>2012-10-30T19:14:50Z</time>
        <extensions><gpxtpx:TrackPointExtension><gpxtpx:hr>166</gpxtpx:hr></gpxtpx:TrackPointExtension></extensions>
      </trkpt>
      <trkpt lat="59.9743457" lon="15.7794307">
        <ele>104.2</ele>
        <time>2012-10-30T19:14:51Z</time>
        <extensions><gpxtpx:TrackPointExtension><gpxtpx:hr>165</gpxtpx:hr></gpxtpx:TrackPointExtension></extensions>
      </trkpt>
      <trkpt lat="59.9743232" lon="15.7794238">
        <ele>104.2</ele>
        <time>2012-10-30T19:14:52Z</time>
        <extensions><gpxtpx:TrackPointExtension><gpxtpx:hr>165</gpxtpx:hr></gpxtpx:TrackPointExtension></extensions>
      </trkpt>
      <trkpt lat="59.974248" lon="15.7793887">
        <ele>104.2</ele>
        <time>2012-10-30T19:14:55Z</time>
        <extensions><gpxtpx:TrackPointExtension><gpxtpx:hr>165</gpxtpx:hr></gpxtpx:TrackPointExtension></extensions>
      </trkpt>
      <trkpt lat="59.9742221" lon="15.7793759">
        <ele>104.2</ele>
        <time>2012-10-30T19:14:56Z</time>
        <extensions><gpxtpx:TrackPointExtension><gpxtpx:hr>165</gpxtpx:hr></gpxtpx:TrackPointExtension></extensions>
      </trkpt>
      <trkpt lat="59.9741075" lon="15.7793114">
        <ele>104.2</ele>
        <time>2012-10-30T19:15:01Z</time>
        <extensions><gpxtpx:TrackPointExtension><gpxtpx:hr>165</gpxtpx:hr></gpxtpx:TrackPointExtension></extensions>
      </trkpt>
      <trkpt lat="59.9740801" lon="15.7793046">
        <ele>104.2</ele>
        <time>2012-10-30T19:15:02Z</time>
        <extensions><gpxtpx:TrackPointExtension><gpxtpx:hr>165</gpxtpx:hr></gpxtpx:TrackPointExtension></extensions>
      </trkpt>
      <trkpt lat="59.9740625" lon="15.779303">
        <ele>104.2</ele>
        <time>2012-10-30T19:15:03Z</time>
        <extensions><gpxtpx:TrackPointExtension><gpxtpx:hr>165</gpxtpx:hr></gpxtpx:TrackPointExtension></extensions>
      </trkpt>
      <trkpt lat="59.97403" lon="15.7792944">
        <ele>104.2</ele>
        <time>2012-10-30T19:15:04Z</time>
        <extensions><gpxtpx:TrackPointExtension><gpxtpx:hr>165</gpxtpx:hr></gpxtpx:TrackPointExtension></extensions>
      </trkpt>
      <trkpt lat="59.9740145" lon="15.7792817">
        <ele>104.2</ele>
        <time>2012-10-30T19:15:05Z</time>
        <extensions><gpxtpx:TrackPointExtension><gpxtpx:hr>165</gpxtpx:hr></gpxtpx:TrackPointExtension></extensions>
      </trkpt>
      <trkpt lat="59.9739967" lon="15.7792729">
        <ele>104.2</ele>
        <time>2012-10-30T19:15:06Z</time>
        <extensions><gpxtpx:TrackPointExtension><gpxtpx:hr>165</gpxtpx:hr></gpxtpx:TrackPointExtension></extensions>
      </trkpt>
      <trkpt lat="59.9739805" lon="15.7792621">
        <ele>104.2</ele>
        <time>2012-10-30T19:15:07Z</time>
        <extensions><gpxtpx:TrackPointExtension><gpxtpx:hr>166</gpxtpx:hr></gpxtpx:TrackPointExtension></extensions>
      </trkpt>
      <trkpt lat="59.9739532" lon="15.779253">
        <ele>104.2</ele>
        <time>2012-10-30T19:15:08Z</time>
        <extensions><gpxtpx:TrackPointExtension><gpxtpx:hr>166</gpxtpx:hr></gpxtpx:TrackPointExtension></extensions>
      </trkpt>
      <trkpt lat="59.9739353" lon="15.7792435">
        <ele>104.2</ele>
        <time>2012-10-30T19:15:09Z</time>
        <extensions><gpxtpx:TrackPointExtension><gpxtpx:hr>166</gpxtpx:hr></gpxtpx:TrackPointExtension></extensions>
      </trkpt>
      <trkpt lat="59.9739051" lon="15.779233">
        <ele>104.2</ele>
        <time>2012-10-30T19:15:10Z</time>
        <extensions><gpxtpx:TrackPointExtension><gpxtpx:hr>166</gpxtpx:hr></gpxtpx:TrackPointExtension></extensions>
      </trkpt>
      <trkpt lat="59.9738833" lon="15.7792179">
        <ele>104.2</ele>
        <time>2012-10-30T19:15:11Z</time>
        <extensions><gpxtpx:TrackPointExtension><gpxtpx:hr>166</gpxtpx:hr></gpxtpx:TrackPointExtension></extensions>
      </trkpt>
      <trkpt lat="59.9738539" lon="15.7792025">
        <ele>104.2</ele>
        <time>2012-10-30T19:15:12Z</time>
        <extensions><gpxtpx:TrackPointExtension><gpxtpx:hr>167</gpxtpx:hr></gpxtpx:TrackPointExtension></extensions>
      </trkpt>
      <trkpt lat="59.973836" lon="15.7791886">
        <ele>104.2</ele>
        <time>2012-10-30T19:15:13Z</time>
        <extensions><gpxtpx:TrackPointExtension><gpxtpx:hr>167</gpxtpx:hr></gpxtpx:TrackPointExtension></extensions>
      </trkpt>
      <trkpt lat="59.9738072" lon="15.779176">
        <ele>104.2</ele>
        <time>2012-10-30T19:15:14Z</time>
        <extensions><gpxtpx:TrackPointExtension><gpxtpx:hr>167</gpxtpx:hr></gpxtpx:TrackPointExtension></extensions>
      </trkpt>
      <trkpt lat="59.9737913" lon="15.7791695">
        <ele>104.2</ele>
        <time>2012-10-30T19:15:15Z</time>
        <extensions><gpxtpx:TrackPointExtension><gpxtpx:hr>167</gpxtpx:hr></gpxtpx:TrackPointExtension></extensions>
      </trkpt>
      <trkpt lat="59.9737569" lon="15.7791558">
        <ele>104.2</ele>
        <time>2012-10-30T19:15:16Z</time>
        <extensions><gpxtpx:TrackPointExtension><gpxtpx:hr>168</gpxtpx:hr></gpxtpx:TrackPointExtension></extensions>
      </trkpt>
      <trkpt lat="59.9737383" lon="15.7791459">
        <ele>104.2</ele>
        <time>2012-10-30T19:15:17Z</time>
        <extensions><gpxtpx:TrackPointExtension><gpxtpx:hr>168</gpxtpx:hr></gpxtpx:TrackPointExtension></extensions>
      </trkpt>
      <trkpt lat="59.9737089" lon="15.7791367">
        <ele>104.2</ele>
        <time>2012-10-30T19:15:18Z</time>
        <extensions><gpxtpx:TrackPointExtension><gpxtpx:hr>167</gpxtpx:hr></gpxtpx:TrackPointExtension></extensions>
      </trkpt>
      <trkpt lat="59.9736879" lon="15.7791308">
        <ele>104.2</ele>
        <time>2012-10-30T19:15:19Z</time>
        <extensions><gpxtpx:TrackPointExtension><gpxtpx:hr>168</gpxtpx:hr></gpxtpx:TrackPointExtension></extensions>
      </trkpt>
      <trkpt lat="59.9736591" lon="15.7791197">
        <ele>104.2</ele>
        <time>2012-10-30T19:15:20Z</time>
        <extensions><gpxtpx:TrackPointExtension><gpxtpx:hr>168</gpxtpx:hr></gpxtpx:TrackPointExtension></extensions>
      </trkpt>
      <trkpt lat="59.9736405" lon="15.7791074">
        <ele>104.2</ele>
        <time>2012-10-30T19:15:21Z</time>
        <extensions><gpxtpx:TrackPointExtension><gpxtpx:hr>168</gpxtpx:hr></gpxtpx:TrackPointExtension></extensions>
      </trkpt>
      <trkpt lat="59.9736054" lon="15.7790935">
        <ele>104.2</ele>
        <time>2012-10-30T19:15:22Z</time>
        <extensions><gpxtpx:TrackPointExtension><gpxtpx:hr>168</gpxtpx:hr></gpxtpx:TrackPointExtension></extensions>
      </trkpt>
      <trkpt lat="59.9735873" lon="15.7790855">
        <ele>104.2</ele>
        <time>2012-10-30T19:15:23Z</time>
        <extensions><gpxtpx:TrackPointExtension><gpxtpx:hr>168</gpxtpx:hr></gpxtpx:TrackPointExtension></extensions>
      </trkpt>
      <trkpt lat="59.9735554" lon="15.7790763">
        <ele>104.2</ele>
        <time>2012-10-30T19:15:24Z</time>
        <extensions><gpxtpx:TrackPointExtension><gpxtpx:hr>168</gpxtpx:hr></gpxtpx:TrackPointExtension></extensions>
      </trkpt>
      <trkpt lat="59.9735369" lon="15.7790693">
        <ele>104.2</ele>
        <time>2012-10-30T19:15:25Z</time>
        <extensions><gpxtpx:TrackPointExtension><gpxtpx:hr>168</gpxtpx:hr></gpxtpx:TrackPointExtension></extensions>
      </trkpt>
      <trkpt lat="59.9735" lon="15.7790627">
        <ele>104.2</ele>
        <time>2012-10-30T19:15:26Z</time>
        <extensions><gpxtpx:TrackPointExtension><gpxtpx:hr>168</gpxtpx:hr></gpxtpx:TrackPointExtension></extensions>
      </trkpt>
      <trkpt lat="59.9734785" lon="15.7790583">
        <ele>104.2</ele>
        <time>2012-10-30T19:15:27Z</time>
        <extensions><gpxtpx:TrackPointExtension><gpxtpx:hr>169</gpxtpx:hr></gpxtpx:TrackPointExtension></extensions>
      </trkpt>
      <trkpt lat="59.9733915" lon="15.7790469">
        <ele>104.2</ele>
        <time>2012-10-30T19:15:30Z</time>
        <extensions><gpxtpx:TrackPointExtension><gpxtpx:hr>167</gpxtpx:hr></gpxtpx:TrackPointExtension></extensions>
      </trkpt>
      <trkpt lat="59.9733723" lon="15.7790441">
        <ele>104.2</ele>
        <time>2012-10-30T19:15:31Z</time>
        <extensions><gpxtpx:TrackPointExtension><gpxtpx:hr>168</gpxtpx:hr></gpxtpx:TrackPointExtension></extensions>
      </trkpt>
      <trkpt lat="59.9733419" lon="15.779051">
        <ele>104.2</ele>
        <time>2012-10-30T19:15:32Z</time>
        <extensions><gpxtpx:TrackPointExtension><gpxtpx:hr>168</gpxtpx:hr></gpxtpx:TrackPointExtension></extensions>
      </trkpt>
      <trkpt lat="59.9732219" lon="15.7791166">
        <ele>104.2</ele>
        <time>2012-10-30T19:15:37Z</time>
        <extensions><gpxtpx:TrackPointExtension><gpxtpx:hr>168</gpxtpx:hr></gpxtpx:TrackPointExtension></extensions>
      </trkpt>
      <trkpt lat="59.9731947" lon="15.7791614">
        <ele>104.2</ele>
        <time>2012-10-30T19:15:38Z</time>
        <extensions><gpxtpx:TrackPointExtension><gpxtpx:hr>168</gpxtpx:hr></gpxtpx:TrackPointExtension></extensions>
      </trkpt>
      <trkpt lat="59.9731804" lon="15.7791873">
        <ele>104.2</ele>
        <time>2012-10-30T19:15:39Z</time>
        <extensions><gpxtpx:TrackPointExtension><gpxtpx:hr>168</gpxtpx:hr></gpxtpx:TrackPointExtension></extensions>
      </trkpt>
      <trkpt lat="59.9731568" lon="15.7792361">
        <ele>104.2</ele>
        <time>2012-10-30T19:15:40Z</time>
        <extensions><gpxtpx:TrackPointExtension><gpxtpx:hr>167</gpxtpx:hr></gpxtpx:TrackPointExtension></extensions>
      </trkpt>
      <trkpt lat="59.973144" lon="15.7792651">
        <ele>104.2</ele>
        <time>2012-10-30T19:15:41Z</time>
        <extensions><gpxtpx:TrackPointExtension><gpxtpx:hr>168</gpxtpx:hr></gpxtpx:TrackPointExtension></extensions>
      </trkpt>
      <trkpt lat="59.973124" lon="15.7793217">
        <ele>104.2</ele>
        <time>2012-10-30T19:15:42Z</time>
        <extensions><gpxtpx:TrackPointExtension><gpxtpx:hr>168</gpxtpx:hr></gpxtpx:TrackPointExtension></extensions>
      </trkpt>
      <trkpt lat="59.9731111" lon="15.7793553">
        <ele>104.2</ele>
        <time>2012-10-30T19:15:43Z</time>
        <extensions><gpxtpx:TrackPointExtension><gpxtpx:hr>168</gpxtpx:hr></gpxtpx:TrackPointExtension></extensions>
      </trkpt>
      <trkpt lat="59.9730924" lon="15.7794094">
        <ele>104.2</ele>
        <time>2012-10-30T19:15:44Z</time>
        <extensions><gpxtpx:TrackPointExtension><gpxtpx:hr>168</gpxtpx:hr></gpxtpx:TrackPointExtension></extensions>
      </trkpt>
      <trkpt lat="59.9730819" lon="15.7794437">
        <ele>104.2</ele>
        <time>2012-10-30T19:15:45Z</time>
        <extensions><gpxtpx:TrackPointExtension><gpxtpx:hr>167</gpxtpx:hr></gpxtpx:TrackPointExtension></extensions>
      </trkpt>
      <trkpt lat="59.9730665" lon="15.7795039">
        <ele>104.2</ele>
        <time>2012-10-30T19:15:46Z</time>
        <extensions><gpxtpx:TrackPointExtension><gpxtpx:hr>168</gpxtpx:hr></gpxtpx:TrackPointExtension></extensions>
      </trkpt>
      <trkpt lat="59.9730577" lon="15.7795306">
        <ele>104.2</ele>
        <time>2012-10-30T19:15:47Z</time>
        <extensions><gpxtpx:TrackPointExtension><gpxtpx:hr>168</gpxtpx:hr></gpxtpx:TrackPointExtension></extensions>
      </trkpt>
      <trkpt lat="59.9730417" lon="15.7795906">
        <ele>104.2</ele>
        <time>2012-10-30T19:15:48Z</time>
        <extensions><gpxtpx:TrackPointExtension><gpxtpx:hr>168</gpxtpx:hr></gpxtpx:TrackPointExtension></extensions>
      </trkpt>
      <trkpt lat="59.9730349" lon="15.7796254">
        <ele>104.2</ele>
        <time>2012-10-30T19:15:49Z</time>
        <extensions><gpxtpx:TrackPointExtension><gpxtpx:hr>168</gpxtpx:hr></gpxtpx:TrackPointExtension></extensions>
      </trkpt>
      <trkpt lat="59.9730259" lon="15.7796861">
        <ele>104.2</ele>
        <time>2012-10-30T19:15:50Z</time>
        <extensions><gpxtpx:TrackPointExtension><gpxtpx:hr>167</gpxtpx:hr></gpxtpx:TrackPointExtension></extensions>
      </trkpt>
      <trkpt lat="59.9730196" lon="15.7797233">
        <ele>104.2</ele>
        <time>2012-10-30T19:15:51Z</time>
        <extensions><gpxtpx:TrackPointExtension><gpxtpx:hr>168</gpxtpx:hr></gpxtpx:TrackPointExtension></extensions>
      </trkpt>
      <trkpt lat="59.9730091" lon="15.7797927">
        <ele>104.2</ele>
        <time>2012-10-30T19:15:52Z</time>
        <extensions><gpxtpx:TrackPointExtension><gpxtpx:hr>168</gpxtpx:hr></gpxtpx:TrackPointExtension></extensions>
      </trkpt>
      <trkpt lat="59.9730028" lon="15.7798325">
        <ele>104.2</ele>
        <time>2012-10-30T19:15:53Z</time>
        <extensions><gpxtpx:TrackPointExtension><gpxtpx:hr>167</gpxtpx:hr></gpxtpx:TrackPointExtension></extensions>
      </trkpt>
      <trkpt lat="59.9729925" lon="15.7798953">
        <ele>104.2</ele>
        <time>2012-10-30T19:15:54Z</time>
        <extensions><gpxtpx:TrackPointExtension><gpxtpx:hr>167</gpxtpx:hr></gpxtpx:TrackPointExtension></extensions>
      </trkpt>
      <trkpt lat="59.9729885" lon="15.7799375">
        <ele>104.2</ele>
        <time>2012-10-30T19:15:55Z</time>
        <extensions><gpxtpx:TrackPointExtension><gpxtpx:hr>167</gpxtpx:hr></gpxtpx:TrackPointExtension></extensions>
      </trkpt>
      <trkpt lat="59.9729835" lon="15.7799988">
        <ele>104.2</ele>
        <time>2012-10-30T19:15:56Z</time>
        <extensions><gpxtpx:TrackPointExtension><gpxtpx:hr>167</gpxtpx:hr></gpxtpx:TrackPointExtension></extensions>
      </trkpt>
      <trkpt lat="59.9729817" lon="15.7800292">
        <ele>104.2</ele>
        <time>2012-10-30T19:15:57Z</time>
        <extensions><gpxtpx:TrackPointExtension><gpxtpx:hr>167</gpxtpx:hr></gpxtpx:TrackPointExtension></extensions>
      </trkpt>
      <trkpt lat="59.972982" lon="15.7801012">
        <ele>104.2</ele>
        <time>2012-10-30T19:15:58Z</time>
        <extensions><gpxtpx:TrackPointExtension><gpxtpx:hr>167</gpxtpx:hr></gpxtpx:TrackPointExtension></extensions>
      </trkpt>
      <trkpt lat="59.9729844" lon="15.7801395">
        <ele>104.2</ele>
        <time>2012-10-30T19:15:59Z</time>
        <extensions><gpxtpx:TrackPointExtension><gpxtpx:hr>167</gpxtpx:hr></gpxtpx:TrackPointExtension></extensions>
      </trkpt>
      <trkpt lat="59.9729911" lon="15.7801997">
        <ele>104.2</ele>
        <time>2012-10-30T19:16:00Z</time>
        <extensions><gpxtpx:TrackPointExtension><gpxtpx:hr>167</gpxtpx:hr></gpxtpx:TrackPointExtension></extensions>
      </trkpt>
      <trkpt lat="59.9729961" lon="15.7802358">
        <ele>104.2</ele>
        <time>2012-10-30T19:16:01Z</time>
        <extensions><gpxtpx:TrackPointExtension><gpxtpx:hr>167</gpxtpx:hr></gpxtpx:TrackPointExtension></extensions>
      </trkpt>
      <trkpt lat="59.9730105" lon="15.780295">
        <ele>104.2</ele>
        <time>2012-10-30T19:16:02Z</time>
        <extensions><gpxtpx:TrackPointExtension><gpxtpx:hr>168</gpxtpx:hr></gpxtpx:TrackPointExtension></extensions>
      </trkpt>
      <trkpt lat="59.9730221" lon="15.7803234">
        <ele>104.2</ele>
        <time>2012-10-30T19:16:03Z</time>
        <extensions><gpxtpx:TrackPointExtension><gpxtpx:hr>168</gpxtpx:hr></gpxtpx:TrackPointExtension></extensions>
      </trkpt>
      <trkpt lat="59.9730453" lon="15.7803746">
        <ele>104.2</ele>
        <time>2012-10-30T19:16:04Z</time>
        <extensions><gpxtpx:TrackPointExtension><gpxtpx:hr>168</gpxtpx:hr></gpxtpx:TrackPointExtension></extensions>
      </trkpt>
      <trkpt lat="59.9730576" lon="15.7804058">
        <ele>104.2</ele>
        <time>2012-10-30T19:16:05Z</time>
        <extensions><gpxtpx:TrackPointExtension><gpxtpx:hr>168</gpxtpx:hr></gpxtpx:TrackPointExtension></extensions>
      </trkpt>
      <trkpt lat="59.9731119" lon="15.7805243">
        <ele>104.2</ele>
        <time>2012-10-30T19:16:08Z</time>
        <extensions><gpxtpx:TrackPointExtension><gpxtpx:hr>168</gpxtpx:hr></gpxtpx:TrackPointExtension></extensions>
      </trkpt>
      <trkpt lat="59.9731218" lon="15.7805425">
        <ele>104.2</ele>
        <time>2012-10-30T19:16:09Z</time>
        <extensions><gpxtpx:TrackPointExtension><gpxtpx:hr>168</gpxtpx:hr></gpxtpx:TrackPointExtension></extensions>
      </trkpt>
      <trkpt lat="59.9731601" lon="15.7806111">
        <ele>104.2</ele>
        <time>2012-10-30T19:16:11Z</time>
        <extensions><gpxtpx:TrackPointExtension><gpxtpx:hr>169</gpxtpx:hr></gpxtpx:TrackPointExtension></extensions>
      </trkpt>
      <trkpt lat="59.9731856" lon="15.7806469">
        <ele>104.2</ele>
        <time>2012-10-30T19:16:12Z</time>
        <extensions><gpxtpx:TrackPointExtension><gpxtpx:hr>169</gpxtpx:hr></gpxtpx:TrackPointExtension></extensions>
      </trkpt>
      <trkpt lat="59.9732053" lon="15.7806741">
        <ele>104.2</ele>
        <time>2012-10-30T19:16:13Z</time>
        <extensions><gpxtpx:TrackPointExtension><gpxtpx:hr>168</gpxtpx:hr></gpxtpx:TrackPointExtension></extensions>
      </trkpt>
      <trkpt lat="59.9732325" lon="15.7807089">
        <ele>104.2</ele>
        <time>2012-10-30T19:16:14Z</time>
        <extensions><gpxtpx:TrackPointExtension><gpxtpx:hr>168</gpxtpx:hr></gpxtpx:TrackPointExtension></extensions>
      </trkpt>
      <trkpt lat="59.9732746" lon="15.780764">
        <ele>104.2</ele>
        <time>2012-10-30T19:16:16Z</time>
        <extensions><gpxtpx:TrackPointExtension><gpxtpx:hr>169</gpxtpx:hr></gpxtpx:TrackPointExtension></extensions>
      </trkpt>
      <trkpt lat="59.9734281" lon="15.7809973">
        <ele>104.2</ele>
        <time>2012-10-30T19:16:23Z</time>
        <extensions><gpxtpx:TrackPointExtension><gpxtpx:hr>169</gpxtpx:hr></gpxtpx:TrackPointExtension></extensions>
      </trkpt>
      <trkpt lat="59.9734663" lon="15.7810689">
        <ele>104.2</ele>
        <time>2012-10-30T19:16:25Z</time>
        <extensions><gpxtpx:TrackPointExtension><gpxtpx:hr>169</gpxtpx:hr></gpxtpx:TrackPointExtension></extensions>
      </trkpt>
      <trkpt lat="59.9734833" lon="15.7810995">
        <ele>104.2</ele>
        <time>2012-10-30T19:16:26Z</time>
        <extensions><gpxtpx:TrackPointExtension><gpxtpx:hr>169</gpxtpx:hr></gpxtpx:TrackPointExtension></extensions>
      </trkpt>
      <trkpt lat="59.9735327" lon="15.7812144">
        <ele>104.2</ele>
        <time>2012-10-30T19:16:29Z</time>
        <extensions><gpxtpx:TrackPointExtension><gpxtpx:hr>169</gpxtpx:hr></gpxtpx:TrackPointExtension></extensions>
      </trkpt>
      <trkpt lat="59.9735845" lon="15.7813919">
        <ele>104.2</ele>
        <time>2012-10-30T19:16:34Z</time>
        <extensions><gpxtpx:TrackPointExtension><gpxtpx:hr>169</gpxtpx:hr></gpxtpx:TrackPointExtension></extensions>
      </trkpt>
      <trkpt lat="59.9736004" lon="15.7814475">
        <ele>104.2</ele>
        <time>2012-10-30T19:16:35Z</time>
        <extensions><gpxtpx:TrackPointExtension><gpxtpx:hr>168</gpxtpx:hr></gpxtpx:TrackPointExtension></extensions>
      </trkpt>
      <trkpt lat="59.9736169" lon="15.7815026">
        <ele>104.2</ele>
        <time>2012-10-30T19:16:36Z</time>
        <extensions><gpxtpx:TrackPointExtension><gpxtpx:hr>168</gpxtpx:hr></gpxtpx:TrackPointExtension></extensions>
      </trkpt>
      <trkpt lat="59.9736259" lon="15.7815523">
        <ele>104.2</ele>
        <time>2012-10-30T19:16:37Z</time>
        <extensions><gpxtpx:TrackPointExtension><gpxtpx:hr>168</gpxtpx:hr></gpxtpx:TrackPointExtension></extensions>
      </trkpt>
      <trkpt lat="59.9736373" lon="15.7816022">
        <ele>104.2</ele>
        <time>2012-10-30T19:16:38Z</time>
        <extensions><gpxtpx:TrackPointExtension><gpxtpx:hr>168</gpxtpx:hr></gpxtpx:TrackPointExtension></extensions>
      </trkpt>
      <trkpt lat="59.9736487" lon="15.7816389">
        <ele>104.2</ele>
        <time>2012-10-30T19:16:39Z</time>
        <extensions><gpxtpx:TrackPointExtension><gpxtpx:hr>168</gpxtpx:hr></gpxtpx:TrackPointExtension></extensions>
      </trkpt>
      <trkpt lat="59.9736601" lon="15.7817008">
        <ele>104.2</ele>
        <time>2012-10-30T19:16:40Z</time>
        <extensions><gpxtpx:TrackPointExtension><gpxtpx:hr>168</gpxtpx:hr></gpxtpx:TrackPointExtension></extensions>
      </trkpt>
      <trkpt lat="59.9736787" lon="15.7817522">
        <ele>104.2</ele>
        <time>2012-10-30T19:16:41Z</time>
        <extensions><gpxtpx:TrackPointExtension><gpxtpx:hr>168</gpxtpx:hr></gpxtpx:TrackPointExtension></extensions>
      </trkpt>
      <trkpt lat="59.9736876" lon="15.781792">
        <ele>104.2</ele>
        <time>2012-10-30T19:16:42Z</time>
        <extensions><gpxtpx:TrackPointExtension><gpxtpx:hr>168</gpxtpx:hr></gpxtpx:TrackPointExtension></extensions>
      </trkpt>
      <trkpt lat="59.9737004" lon="15.7818473">
        <ele>104.2</ele>
        <time>2012-10-30T19:16:43Z</time>
        <extensions><gpxtpx:TrackPointExtension><gpxtpx:hr>167</gpxtpx:hr></gpxtpx:TrackPointExtension></extensions>
      </trkpt>
      <trkpt lat="59.9737133" lon="15.7818954">
        <ele>104.2</ele>
        <time>2012-10-30T19:16:44Z</time>
        <extensions><gpxtpx:TrackPointExtension><gpxtpx:hr>167</gpxtpx:hr></gpxtpx:TrackPointExtension></extensions>
      </trkpt>
      <trkpt lat="59.9737196" lon="15.7819309">
        <ele>104.2</ele>
        <time>2012-10-30T19:16:45Z</time>
        <extensions><gpxtpx:TrackPointExtension><gpxtpx:hr>167</gpxtpx:hr></gpxtpx:TrackPointExtension></extensions>
      </trkpt>
      <trkpt lat="59.9737406" lon="15.7820312">
        <ele>104.2</ele>
        <time>2012-10-30T19:16:47Z</time>
        <extensions><gpxtpx:TrackPointExtension><gpxtpx:hr>168</gpxtpx:hr></gpxtpx:TrackPointExtension></extensions>
      </trkpt>
      <trkpt lat="59.9737539" lon="15.7820961">
        <ele>104.2</ele>
        <time>2012-10-30T19:16:48Z</time>
        <extensions><gpxtpx:TrackPointExtension><gpxtpx:hr>168</gpxtpx:hr></gpxtpx:TrackPointExtension></extensions>
      </trkpt>
      <trkpt lat="59.9737596" lon="15.7821338">
        <ele>104.2</ele>
        <time>2012-10-30T19:16:49Z</time>
        <extensions><gpxtpx:TrackPointExtension><gpxtpx:hr>168</gpxtpx:hr></gpxtpx:TrackPointExtension></extensions>
      </trkpt>
      <trkpt lat="59.973766" lon="15.7821858">
        <ele>104.2</ele>
        <time>2012-10-30T19:16:50Z</time>
        <extensions><gpxtpx:TrackPointExtension><gpxtpx:hr>167</gpxtpx:hr></gpxtpx:TrackPointExtension></extensions>
      </trkpt>
      <trkpt lat="59.9737747" lon="15.7822339">
        <ele>104.2</ele>
        <time>2012-10-30T19:16:51Z</time>
        <extensions><gpxtpx:TrackPointExtension><gpxtpx:hr>167</gpxtpx:hr></gpxtpx:TrackPointExtension></extensions>
      </trkpt>
      <trkpt lat="59.9737825" lon="15.7822734">
        <ele>104.2</ele>
        <time>2012-10-30T19:16:52Z</time>
        <extensions><gpxtpx:TrackPointExtension><gpxtpx:hr>168</gpxtpx:hr></gpxtpx:TrackPointExtension></extensions>
      </trkpt>
      <trkpt lat="59.9737938" lon="15.7823305">
        <ele>104.2</ele>
        <time>2012-10-30T19:16:53Z</time>
        <extensions><gpxtpx:TrackPointExtension><gpxtpx:hr>168</gpxtpx:hr></gpxtpx:TrackPointExtension></extensions>
      </trkpt>
      <trkpt lat="59.9738002" lon="15.7823837">
        <ele>104.2</ele>
        <time>2012-10-30T19:16:54Z</time>
        <extensions><gpxtpx:TrackPointExtension><gpxtpx:hr>168</gpxtpx:hr></gpxtpx:TrackPointExtension></extensions>
      </trkpt>
      <trkpt lat="59.9738036" lon="15.7824192">
        <ele>104.2</ele>
        <time>2012-10-30T19:16:55Z</time>
        <extensions><gpxtpx:TrackPointExtension><gpxtpx:hr>168</gpxtpx:hr></gpxtpx:TrackPointExtension></extensions>
      </trkpt>
      <trkpt lat="59.9738084" lon="15.782484">
        <ele>104.2</ele>
        <time>2012-10-30T19:16:56Z</time>
        <extensions><gpxtpx:TrackPointExtension><gpxtpx:hr>167</gpxtpx:hr></gpxtpx:TrackPointExtension></extensions>
      </trkpt>
      <trkpt lat="59.97383" lon="15.7826794">
        <ele>104.2</ele>
        <time>2012-10-30T19:17:00Z</time>
        <extensions><gpxtpx:TrackPointExtension><gpxtpx:hr>168</gpxtpx:hr></gpxtpx:TrackPointExtension></extensions>
      </trkpt>
      <trkpt lat="59.9738424" lon="15.7827166">
        <ele>104.2</ele>
        <time>2012-10-30T19:17:01Z</time>
        <extensions><gpxtpx:TrackPointExtension><gpxtpx:hr>168</gpxtpx:hr></gpxtpx:TrackPointExtension></extensions>
      </trkpt>
      <trkpt lat="59.9738829" lon="15.7828827">
        <ele>104.2</ele>
        <time>2012-10-30T19:17:05Z</time>
        <extensions><gpxtpx:TrackPointExtension><gpxtpx:hr>169</gpxtpx:hr></gpxtpx:TrackPointExtension></extensions>
      </trkpt>
      <trkpt lat="59.9739154" lon="15.7829988">
        <ele>104.2</ele>
        <time>2012-10-30T19:17:08Z</time>
        <extensions><gpxtpx:TrackPointExtension><gpxtpx:hr>169</gpxtpx:hr></gpxtpx:TrackPointExtension></extensions>
      </trkpt>
      <trkpt lat="59.9739268" lon="15.7830335">
        <ele>104.2</ele>
        <time>2012-10-30T19:17:09Z</time>
        <extensions><gpxtpx:TrackPointExtension><gpxtpx:hr>169</gpxtpx:hr></gpxtpx:TrackPointExtension></extensions>
      </trkpt>
      <trkpt lat="59.9739434" lon="15.783073">
        <ele>104.2</ele>
        <time>2012-10-30T19:17:10Z</time>
        <extensions><gpxtpx:TrackPointExtension><gpxtpx:hr>169</gpxtpx:hr></gpxtpx:TrackPointExtension></extensions>
      </trkpt>
      <trkpt lat="59.9739564" lon="15.783114">
        <ele>104.2</ele>
        <time>2012-10-30T19:17:11Z</time>
        <extensions><gpxtpx:TrackPointExtension><gpxtpx:hr>169</gpxtpx:hr></gpxtpx:TrackPointExtension></extensions>
      </trkpt>
      <trkpt lat="59.973969" lon="15.7831443">
        <ele>104.2</ele>
        <time>2012-10-30T19:17:12Z</time>
        <extensions><gpxtpx:TrackPointExtension><gpxtpx:hr>169</gpxtpx:hr></gpxtpx:TrackPointExtension></extensions>
      </trkpt>
      <trkpt lat="59.9739912" lon="15.7831955">
        <ele>104.2</ele>
        <time>2012-10-30T19:17:13Z</time>
        <extensions><gpxtpx:TrackPointExtension><gpxtpx:hr>169</gpxtpx:hr></gpxtpx:TrackPointExtension></extensions>
      </trkpt>
      <trkpt lat="59.9740082" lon="15.7832407">
        <ele>104.2</ele>
        <time>2012-10-30T19:17:14Z</time>
        <extensions><gpxtpx:TrackPointExtension><gpxtpx:hr>169</gpxtpx:hr></gpxtpx:TrackPointExtension></extensions>
      </trkpt>
      <trkpt lat="59.974017" lon="15.7832639">
        <ele>104.2</ele>
        <time>2012-10-30T19:17:15Z</time>
        <extensions><gpxtpx:TrackPointExtension><gpxtpx:hr>170</gpxtpx:hr></gpxtpx:TrackPointExtension></extensions>
      </trkpt>
      <trkpt lat="59.9740404" lon="15.7833131">
        <ele>104.2</ele>
        <time>2012-10-30T19:17:16Z</time>
        <extensions><gpxtpx:TrackPointExtension><gpxtpx:hr>170</gpxtpx:hr></gpxtpx:TrackPointExtension></extensions>
      </trkpt>
      <trkpt lat="59.9740753" lon="15.7833777">
        <ele>104.2</ele>
        <time>2012-10-30T19:17:18Z</time>
        <extensions><gpxtpx:TrackPointExtension><gpxtpx:hr>170</gpxtpx:hr></gpxtpx:TrackPointExtension></extensions>
      </trkpt>
      <trkpt lat="59.9740924" lon="15.7834127">
        <ele>104.2</ele>
        <time>2012-10-30T19:17:19Z</time>
        <extensions><gpxtpx:TrackPointExtension><gpxtpx:hr>169</gpxtpx:hr></gpxtpx:TrackPointExtension></extensions>
      </trkpt>
      <trkpt lat="59.974114" lon="15.7834551">
        <ele>104.2</ele>
        <time>2012-10-30T19:17:20Z</time>
        <extensions><gpxtpx:TrackPointExtension><gpxtpx:hr>170</gpxtpx:hr></gpxtpx:TrackPointExtension></extensions>
      </trkpt>
      <trkpt lat="59.9741264" lon="15.7834782">
        <ele>104.2</ele>
        <time>2012-10-30T19:17:21Z</time>
        <extensions><gpxtpx:TrackPointExtension><gpxtpx:hr>170</gpxtpx:hr></gpxtpx:TrackPointExtension></extensions>
      </trkpt>
      <trkpt lat="59.974145" lon="15.7835137">
        <ele>104.2</ele>
        <time>2012-10-30T19:17:22Z</time>
        <extensions><gpxtpx:TrackPointExtension><gpxtpx:hr>170</gpxtpx:hr></gpxtpx:TrackPointExtension></extensions>
      </trkpt>
      <trkpt lat="59.9741688" lon="15.7835634">
        <ele>104.2</ele>
        <time>2012-10-30T19:17:23Z</time>
        <extensions><gpxtpx:TrackPointExtension><gpxtpx:hr>170</gpxtpx:hr></gpxtpx:TrackPointExtension></extensions>
      </trkpt>
      <trkpt lat="59.9741914" lon="15.7836073">
        <ele>104.2</ele>
        <time>2012-10-30T19:17:24Z</time>
        <extensions><gpxtpx:TrackPointExtension><gpxtpx:hr>170</gpxtpx:hr></gpxtpx:TrackPointExtension></extensions>
      </trkpt>
      <trkpt lat="59.9742052" lon="15.7836334">
        <ele>104.2</ele>
        <time>2012-10-30T19:17:25Z</time>
        <extensions><gpxtpx:TrackPointExtension><gpxtpx:hr>170</gpxtpx:hr></gpxtpx:TrackPointExtension></extensions>
      </trkpt>
      <trkpt lat="59.9742336" lon="15.783683">
        <ele>104.2</ele>
        <time>2012-10-30T19:17:26Z</time>
        <extensions><gpxtpx:TrackPointExtension><gpxtpx:hr>170</gpxtpx:hr></gpxtpx:TrackPointExtension></extensions>
      </trkpt>
      <trkpt lat="59.9742464" lon="15.7837128">
        <ele>104.2</ele>
        <time>2012-10-30T19:17:27Z</time>
        <extensions><gpxtpx:TrackPointExtension><gpxtpx:hr>170</gpxtpx:hr></gpxtpx:TrackPointExtension></extensions>
      </trkpt>
      <trkpt lat="59.9742704" lon="15.7837568">
        <ele>104.2</ele>
        <time>2012-10-30T19:17:28Z</time>
        <extensions><gpxtpx:TrackPointExtension><gpxtpx:hr>170</gpxtpx:hr></gpxtpx:TrackPointExtension></extensions>
      </trkpt>
      <trkpt lat="59.9742891" lon="15.7837855">
        <ele>104.2</ele>
        <time>2012-10-30T19:17:29Z</time>
        <extensions><gpxtpx:TrackPointExtension><gpxtpx:hr>170</gpxtpx:hr></gpxtpx:TrackPointExtension></extensions>
      </trkpt>
      <trkpt lat="59.9743035" lon="15.783813">
        <ele>104.2</ele>
        <time>2012-10-30T19:17:30Z</time>
        <extensions><gpxtpx:TrackPointExtension><gpxtpx:hr>170</gpxtpx:hr></gpxtpx:TrackPointExtension></extensions>
      </trkpt>
      <trkpt lat="59.9743191" lon="15.7838391">
        <ele>104.2</ele>
        <time>2012-10-30T19:17:31Z</time>
        <extensions><gpxtpx:TrackPointExtension><gpxtpx:hr>170</gpxtpx:hr></gpxtpx:TrackPointExtension></extensions>
      </trkpt>
      <trkpt lat="59.9743204" lon="15.7838745">
        <ele>104.2</ele>
        <time>2012-10-30T19:17:32Z</time>
        <extensions><gpxtpx:TrackPointExtension><gpxtpx:hr>170</gpxtpx:hr></gpxtpx:TrackPointExtension></extensions>
      </trkpt>
      <trkpt lat="59.9743324" lon="15.7839118">
        <ele>104.2</ele>
        <time>2012-10-30T19:17:33Z</time>
        <extensions><gpxtpx:TrackPointExtension><gpxtpx:hr>170</gpxtpx:hr></gpxtpx:TrackPointExtension></extensions>
      </trkpt>
      <trkpt lat="59.9743553" lon="15.7839464">
        <ele>104.2</ele>
        <time>2012-10-30T19:17:34Z</time>
        <extensions><gpxtpx:TrackPointExtension><gpxtpx:hr>171</gpxtpx:hr></gpxtpx:TrackPointExtension></extensions>
      </trkpt>
      <trkpt lat="59.9743714" lon="15.7839771">
        <ele>104.2</ele>
        <time>2012-10-30T19:17:35Z</time>
        <extensions><gpxtpx:TrackPointExtension><gpxtpx:hr>170</gpxtpx:hr></gpxtpx:TrackPointExtension></extensions>
      </trkpt>
      <trkpt lat="59.9743921" lon="15.7840077">
        <ele>104.2</ele>
        <time>2012-10-30T19:17:36Z</time>
        <extensions><gpxtpx:TrackPointExtension><gpxtpx:hr>170</gpxtpx:hr></gpxtpx:TrackPointExtension></extensions>
      </trkpt>
      <trkpt lat="59.9744037" lon="15.7840282">
        <ele>104.2</ele>
        <time>2012-10-30T19:17:37Z</time>
        <extensions><gpxtpx:TrackPointExtension><gpxtpx:hr>170</gpxtpx:hr></gpxtpx:TrackPointExtension></extensions>
      </trkpt>
      <trkpt lat="59.9744226" lon="15.7840552">
        <ele>104.2</ele>
        <time>2012-10-30T19:17:38Z</time>
        <extensions><gpxtpx:TrackPointExtension><gpxtpx:hr>171</gpxtpx:hr></gpxtpx:TrackPointExtension></extensions>
      </trkpt>
      <trkpt lat="59.9744402" lon="15.784072">
        <ele>104.2</ele>
        <time>2012-10-30T19:17:39Z</time>
        <extensions><gpxtpx:TrackPointExtension><gpxtpx:hr>170</gpxtpx:hr></gpxtpx:TrackPointExtension></extensions>
      </trkpt>
      <trkpt lat="59.9744584" lon="15.7840955">
        <ele>104.2</ele>
        <time>2012-10-30T19:17:40Z</time>
        <extensions><gpxtpx:TrackPointExtension><gpxtpx:hr>171</gpxtpx:hr></gpxtpx:TrackPointExtension></extensions>
      </trkpt>
      <trkpt lat="59.9744727" lon="15.7841189">
        <ele>104.2</ele>
        <time>2012-10-30T19:17:41Z</time>
        <extensions><gpxtpx:TrackPointExtension><gpxtpx:hr>171</gpxtpx:hr></gpxtpx:TrackPointExtension></extensions>
      </trkpt>
      <trkpt lat="59.9744869" lon="15.7841441">
        <ele>104.2</ele>
        <time>2012-10-30T19:17:42Z</time>
        <extensions><gpxtpx:TrackPointExtension><gpxtpx:hr>171</gpxtpx:hr></gpxtpx:TrackPointExtension></extensions>
      </trkpt>
      <trkpt lat="59.9745043" lon="15.7841767">
        <ele>104.2</ele>
        <time>2012-10-30T19:17:43Z</time>
        <extensions><gpxtpx:TrackPointExtension><gpxtpx:hr>171</gpxtpx:hr></gpxtpx:TrackPointExtension></extensions>
      </trkpt>
      <trkpt lat="59.9745235" lon="15.7842087">
        <ele>104.2</ele>
        <time>2012-10-30T19:17:44Z</time>
        <extensions><gpxtpx:TrackPointExtension><gpxtpx:hr>170</gpxtpx:hr></gpxtpx:TrackPointExtension></extensions>
      </trkpt>
      <trkpt lat="59.9745385" lon="15.7842288">
        <ele>104.2</ele>
        <time>2012-10-30T19:17:45Z</time>
        <extensions><gpxtpx:TrackPointExtension><gpxtpx:hr>170</gpxtpx:hr></gpxtpx:TrackPointExtension></extensions>
      </trkpt>
      <trkpt lat="59.9745658" lon="15.7842586">
        <ele>104.2</ele>
        <time>2012-10-30T19:17:46Z</time>
        <extensions><gpxtpx:TrackPointExtension><gpxtpx:hr>170</gpxtpx:hr></gpxtpx:TrackPointExtension></extensions>
      </trkpt>
      <trkpt lat="59.9745809" lon="15.7842748">
        <ele>104.2</ele>
        <time>2012-10-30T19:17:47Z</time>
        <extensions><gpxtpx:TrackPointExtension><gpxtpx:hr>170</gpxtpx:hr></gpxtpx:TrackPointExtension></extensions>
      </trkpt>
      <trkpt lat="59.9746122" lon="15.784326">
        <ele>104.2</ele>
        <time>2012-10-30T19:17:48Z</time>
        <extensions><gpxtpx:TrackPointExtension><gpxtpx:hr>170</gpxtpx:hr></gpxtpx:TrackPointExtension></extensions>
      </trkpt>
      <trkpt lat="59.974633" lon="15.784356">
        <ele>107.6</ele>
        <time>2012-10-30T19:17:49Z</time>
        <extensions><gpxtpx:TrackPointExtension><gpxtpx:hr>170</gpxtpx:hr></gpxtpx:TrackPointExtension></extensions>
      </trkpt>
      <trkpt lat="59.9746616" lon="15.7843831">
        <ele>107.6</ele>
        <time>2012-10-30T19:17:50Z</time>
        <extensions><gpxtpx:TrackPointExtension><gpxtpx:hr>171</gpxtpx:hr></gpxtpx:TrackPointExtension></extensions>
      </trkpt>
      <trkpt lat="59.9746815" lon="15.7844139">
        <ele>108.8</ele>
        <time>2012-10-30T19:17:51Z</time>
        <extensions><gpxtpx:TrackPointExtension><gpxtpx:hr>171</gpxtpx:hr></gpxtpx:TrackPointExtension></extensions>
      </trkpt>
      <trkpt lat="59.9747024" lon="15.7844358">
        <ele>108.8</ele>
        <time>2012-10-30T19:17:52Z</time>
        <extensions><gpxtpx:TrackPointExtension><gpxtpx:hr>171</gpxtpx:hr></gpxtpx:TrackPointExtension></extensions>
      </trkpt>
      <trkpt lat="59.9747298" lon="15.784458">
        <ele>108.8</ele>
        <time>2012-10-30T19:17:53Z</time>
        <extensions><gpxtpx:TrackPointExtension><gpxtpx:hr>172</gpxtpx:hr></gpxtpx:TrackPointExtension></extensions>
      </trkpt>
      <trkpt lat="59.9747568" lon="15.7844797">
        <ele>108.8</ele>
        <time>2012-10-30T19:17:54Z</time>
        <extensions><gpxtpx:TrackPointExtension><gpxtpx:hr>171</gpxtpx:hr></gpxtpx:TrackPointExtension></extensions>
      </trkpt>
      <trkpt lat="59.9747748" lon="15.7844953">
        <ele>108.8</ele>
        <time>2012-10-30T19:17:55Z</time>
        <extensions><gpxtpx:TrackPointExtension><gpxtpx:hr>172</gpxtpx:hr></gpxtpx:TrackPointExtension></extensions>
      </trkpt>
      <trkpt lat="59.9748025" lon="15.7845172">
        <ele>108.8</ele>
        <time>2012-10-30T19:17:56Z</time>
        <extensions><gpxtpx:TrackPointExtension><gpxtpx:hr>172</gpxtpx:hr></gpxtpx:TrackPointExtension></extensions>
      </trkpt>
      <trkpt lat="59.9748186" lon="15.7845369">
        <ele>108.8</ele>
        <time>2012-10-30T19:17:57Z</time>
        <extensions><gpxtpx:TrackPointExtension><gpxtpx:hr>172</gpxtpx:hr></gpxtpx:TrackPointExtension></extensions>
      </trkpt>
      <trkpt lat="59.9748609" lon="15.7845727">
        <ele>108.8</ele>
        <time>2012-10-30T19:17:59Z</time>
        <extensions><gpxtpx:TrackPointExtension><gpxtpx:hr>172</gpxtpx:hr></gpxtpx:TrackPointExtension></extensions>
      </trkpt>
      <trkpt lat="59.9748841" lon="15.7845916">
        <ele>108.8</ele>
        <time>2012-10-30T19:18:00Z</time>
        <extensions><gpxtpx:TrackPointExtension><gpxtpx:hr>172</gpxtpx:hr></gpxtpx:TrackPointExtension></extensions>
      </trkpt>
      <trkpt lat="59.9749035" lon="15.7846104">
        <ele>108.8</ele>
        <time>2012-10-30T19:18:01Z</time>
        <extensions><gpxtpx:TrackPointExtension><gpxtpx:hr>172</gpxtpx:hr></gpxtpx:TrackPointExtension></extensions>
      </trkpt>
      <trkpt lat="59.974923" lon="15.7846276">
        <ele>108.8</ele>
        <time>2012-10-30T19:18:02Z</time>
        <extensions><gpxtpx:TrackPointExtension><gpxtpx:hr>172</gpxtpx:hr></gpxtpx:TrackPointExtension></extensions>
      </trkpt>
      <trkpt lat="59.9749447" lon="15.784652">
        <ele>108.8</ele>
        <time>2012-10-30T19:18:03Z</time>
        <extensions><gpxtpx:TrackPointExtension><gpxtpx:hr>172</gpxtpx:hr></gpxtpx:TrackPointExtension></extensions>
      </trkpt>
      <trkpt lat="59.9749678" lon="15.7846661">
        <ele>108.6</ele>
        <time>2012-10-30T19:18:05Z</time>
        <extensions><gpxtpx:TrackPointExtension><gpxtpx:hr>172</gpxtpx:hr></gpxtpx:TrackPointExtension></extensions>
      </trkpt>
      <trkpt lat="59.9749864" lon="15.7846763">
        <ele>108.4</ele>
        <time>2012-10-30T19:18:06Z</time>
        <extensions><gpxtpx:TrackPointExtension><gpxtpx:hr>172</gpxtpx:hr></gpxtpx:TrackPointExtension></extensions>
      </trkpt>
      <trkpt lat="59.9750645" lon="15.7847623">
        <ele>108.6</ele>
        <time>2012-10-30T19:18:08Z</time>
        <extensions><gpxtpx:TrackPointExtension><gpxtpx:hr>172</gpxtpx:hr></gpxtpx:TrackPointExtension></extensions>
      </trkpt>
      <trkpt lat="59.9750853" lon="15.7847834">
        <ele>108.6</ele>
        <time>2012-10-30T19:18:09Z</time>
        <extensions><gpxtpx:TrackPointExtension><gpxtpx:hr>171</gpxtpx:hr></gpxtpx:TrackPointExtension></extensions>
      </trkpt>
      <trkpt lat="59.9751131" lon="15.784812">
        <ele>105.6</ele>
        <time>2012-10-30T19:18:10Z</time>
        <extensions><gpxtpx:TrackPointExtension><gpxtpx:hr>171</gpxtpx:hr></gpxtpx:TrackPointExtension></extensions>
      </trkpt>
      <trkpt lat="59.9751344" lon="15.7848356">
        <ele>105.8</ele>
        <time>2012-10-30T19:18:11Z</time>
        <extensions><gpxtpx:TrackPointExtension><gpxtpx:hr>171</gpxtpx:hr></gpxtpx:TrackPointExtension></extensions>
      </trkpt>
      <trkpt lat="59.9751807" lon="15.7848957">
        <ele>105.6</ele>
        <time>2012-10-30T19:18:13Z</time>
        <extensions><gpxtpx:TrackPointExtension><gpxtpx:hr>171</gpxtpx:hr></gpxtpx:TrackPointExtension></extensions>
      </trkpt>
      <trkpt lat="59.9752033" lon="15.7849322">
        <ele>105.6</ele>
        <time>2012-10-30T19:18:14Z</time>
        <extensions><gpxtpx:TrackPointExtension><gpxtpx:hr>170</gpxtpx:hr></gpxtpx:TrackPointExtension></extensions>
      </trkpt>
      <trkpt lat="59.9752143" lon="15.7849509">
        <ele>105.6</ele>
        <time>2012-10-30T19:18:15Z</time>
        <extensions><gpxtpx:TrackPointExtension><gpxtpx:hr>170</gpxtpx:hr></gpxtpx:TrackPointExtension></extensions>
      </trkpt>
      <trkpt lat="59.9752362" lon="15.7849923">
        <ele>105.6</ele>
        <time>2012-10-30T19:18:16Z</time>
        <extensions><gpxtpx:TrackPointExtension><gpxtpx:hr>170</gpxtpx:hr></gpxtpx:TrackPointExtension></extensions>
      </trkpt>
      <trkpt lat="59.9752521" lon="15.7850156">
        <ele>105.6</ele>
        <time>2012-10-30T19:18:17Z</time>
        <extensions><gpxtpx:TrackPointExtension><gpxtpx:hr>170</gpxtpx:hr></gpxtpx:TrackPointExtension></extensions>
      </trkpt>
      <trkpt lat="59.9752732" lon="15.7850466">
        <ele>105.6</ele>
        <time>2012-10-30T19:18:18Z</time>
        <extensions><gpxtpx:TrackPointExtension><gpxtpx:hr>170</gpxtpx:hr></gpxtpx:TrackPointExtension></extensions>
      </trkpt>
      <trkpt lat="59.9752933" lon="15.7850718">
        <ele>105.6</ele>
        <time>2012-10-30T19:18:19Z</time>
        <extensions><gpxtpx:TrackPointExtension><gpxtpx:hr>170</gpxtpx:hr></gpxtpx:TrackPointExtension></extensions>
      </trkpt>
      <trkpt lat="59.9753094" lon="15.7850972">
        <ele>104.6</ele>
        <time>2012-10-30T19:18:20Z</time>
        <extensions><gpxtpx:TrackPointExtension><gpxtpx:hr>170</gpxtpx:hr></gpxtpx:TrackPointExtension></extensions>
      </trkpt>
      <trkpt lat="59.9753267" lon="15.7851263">
        <ele>104.6</ele>
        <time>2012-10-30T19:18:21Z</time>
        <extensions><gpxtpx:TrackPointExtension><gpxtpx:hr>170</gpxtpx:hr></gpxtpx:TrackPointExtension></extensions>
      </trkpt>
      <trkpt lat="59.9753447" lon="15.7851507">
        <ele>104.6</ele>
        <time>2012-10-30T19:18:22Z</time>
        <extensions><gpxtpx:TrackPointExtension><gpxtpx:hr>170</gpxtpx:hr></gpxtpx:TrackPointExtension></extensions>
      </trkpt>
      <trkpt lat="59.975368" lon="15.7851704">
        <ele>104.6</ele>
        <time>2012-10-30T19:18:23Z</time>
        <extensions><gpxtpx:TrackPointExtension><gpxtpx:hr>170</gpxtpx:hr></gpxtpx:TrackPointExtension></extensions>
      </trkpt>
      <trkpt lat="59.9753918" lon="15.7852015">
        <ele>104.6</ele>
        <time>2012-10-30T19:18:24Z</time>
        <extensions><gpxtpx:TrackPointExtension><gpxtpx:hr>170</gpxtpx:hr></gpxtpx:TrackPointExtension></extensions>
      </trkpt>
      <trkpt lat="59.9754098" lon="15.7852196">
        <ele>104.6</ele>
        <time>2012-10-30T19:18:25Z</time>
        <extensions><gpxtpx:TrackPointExtension><gpxtpx:hr>169</gpxtpx:hr></gpxtpx:TrackPointExtension></extensions>
      </trkpt>
      <trkpt lat="59.9754348" lon="15.785243">
        <ele>104.6</ele>
        <time>2012-10-30T19:18:26Z</time>
        <extensions><gpxtpx:TrackPointExtension><gpxtpx:hr>170</gpxtpx:hr></gpxtpx:TrackPointExtension></extensions>
      </trkpt>
      <trkpt lat="59.9754476" lon="15.7852659">
        <ele>104.6</ele>
        <time>2012-10-30T19:18:27Z</time>
        <extensions><gpxtpx:TrackPointExtension><gpxtpx:hr>170</gpxtpx:hr></gpxtpx:TrackPointExtension></extensions>
      </trkpt>
      <trkpt lat="59.9754805" lon="15.7853005">
        <ele>104.6</ele>
        <time>2012-10-30T19:18:28Z</time>
        <extensions><gpxtpx:TrackPointExtension><gpxtpx:hr>170</gpxtpx:hr></gpxtpx:TrackPointExtension></extensions>
      </trkpt>
      <trkpt lat="59.9755" lon="15.7853284">
        <ele>104.6</ele>
        <time>2012-10-30T19:18:29Z</time>
        <extensions><gpxtpx:TrackPointExtension><gpxtpx:hr>169</gpxtpx:hr></gpxtpx:TrackPointExtension></extensions>
      </trkpt>
      <trkpt lat="59.9755216" lon="15.7853549">
        <ele>104.6</ele>
        <time>2012-10-30T19:18:30Z</time>
        <extensions><gpxtpx:TrackPointExtension><gpxtpx:hr>170</gpxtpx:hr></gpxtpx:TrackPointExtension></extensions>
      </trkpt>
      <trkpt lat="59.9755665" lon="15.7854098">
        <ele>104.6</ele>
        <time>2012-10-30T19:18:32Z</time>
        <extensions><gpxtpx:TrackPointExtension><gpxtpx:hr>170</gpxtpx:hr></gpxtpx:TrackPointExtension></extensions>
      </trkpt>
      <trkpt lat="59.9756325" lon="15.785518">
        <ele>104.6</ele>
        <time>2012-10-30T19:18:35Z</time>
        <extensions><gpxtpx:TrackPointExtension><gpxtpx:hr>169</gpxtpx:hr></gpxtpx:TrackPointExtension></extensions>
      </trkpt>
      <trkpt lat="59.9756829" lon="15.7856459">
        <ele>104.6</ele>
        <time>2012-10-30T19:18:38Z</time>
        <extensions><gpxtpx:TrackPointExtension><gpxtpx:hr>170</gpxtpx:hr></gpxtpx:TrackPointExtension></extensions>
      </trkpt>
      <trkpt lat="59.9757325" lon="15.7859516">
        <ele>104.6</ele>
        <time>2012-10-30T19:18:44Z</time>
        <extensions><gpxtpx:TrackPointExtension><gpxtpx:hr>170</gpxtpx:hr></gpxtpx:TrackPointExtension></extensions>
      </trkpt>
      <trkpt lat="59.9757401" lon="15.7859883">
        <ele>104.6</ele>
        <time>2012-10-30T19:18:45Z</time>
        <extensions><gpxtpx:TrackPointExtension><gpxtpx:hr>171</gpxtpx:hr></gpxtpx:TrackPointExtension></extensions>
      </trkpt>
      <trkpt lat="59.9757517" lon="15.7860575">
        <ele>104.6</ele>
        <time>2012-10-30T19:18:46Z</time>
        <extensions><gpxtpx:TrackPointExtension><gpxtpx:hr>171</gpxtpx:hr></gpxtpx:TrackPointExtension></extensions>
      </trkpt>
      <trkpt lat="59.9758296" lon="15.7862769">
        <ele>104.6</ele>
        <time>2012-10-30T19:18:51Z</time>
        <extensions><gpxtpx:TrackPointExtension><gpxtpx:hr>170</gpxtpx:hr></gpxtpx:TrackPointExtension></extensions>
      </trkpt>
      <trkpt lat="59.9758546" lon="15.7863771">
        <ele>104.6</ele>
        <time>2012-10-30T19:18:53Z</time>
        <extensions><gpxtpx:TrackPointExtension><gpxtpx:hr>171</gpxtpx:hr></gpxtpx:TrackPointExtension></extensions>
      </trkpt>
      <trkpt lat="59.9758642" lon="15.7864416">
        <ele>104.6</ele>
        <time>2012-10-30T19:18:54Z</time>
        <extensions><gpxtpx:TrackPointExtension><gpxtpx:hr>171</gpxtpx:hr></gpxtpx:TrackPointExtension></extensions>
      </trkpt>
      <trkpt lat="59.9758761" lon="15.7865357">
        <ele>104.6</ele>
        <time>2012-10-30T19:18:56Z</time>
        <extensions><gpxtpx:TrackPointExtension><gpxtpx:hr>171</gpxtpx:hr></gpxtpx:TrackPointExtension></extensions>
      </trkpt>
      <trkpt lat="59.9758773" lon="15.7865726">
        <ele>104.6</ele>
        <time>2012-10-30T19:18:57Z</time>
        <extensions><gpxtpx:TrackPointExtension><gpxtpx:hr>171</gpxtpx:hr></gpxtpx:TrackPointExtension></extensions>
      </trkpt>
      <trkpt lat="59.9758823" lon="15.786625">
        <ele>104.6</ele>
        <time>2012-10-30T19:18:58Z</time>
        <extensions><gpxtpx:TrackPointExtension><gpxtpx:hr>170</gpxtpx:hr></gpxtpx:TrackPointExtension></extensions>
      </trkpt>
      <trkpt lat="59.9758809" lon="15.7866639">
        <ele>104.6</ele>
        <time>2012-10-30T19:18:59Z</time>
        <extensions><gpxtpx:TrackPointExtension><gpxtpx:hr>170</gpxtpx:hr></gpxtpx:TrackPointExtension></extensions>
      </trkpt>
      <trkpt lat="59.9758815" lon="15.7867149">
        <ele>104.6</ele>
        <time>2012-10-30T19:19:00Z</time>
        <extensions><gpxtpx:TrackPointExtension><gpxtpx:hr>171</gpxtpx:hr></gpxtpx:TrackPointExtension></extensions>
      </trkpt>
      <trkpt lat="59.9758871" lon="15.7867635">
        <ele>104.6</ele>
        <time>2012-10-30T19:19:01Z</time>
        <extensions><gpxtpx:TrackPointExtension><gpxtpx:hr>171</gpxtpx:hr></gpxtpx:TrackPointExtension></extensions>
      </trkpt>
      <trkpt lat="59.9758941" lon="15.7867958">
        <ele>104.6</ele>
        <time>2012-10-30T19:19:02Z</time>
        <extensions><gpxtpx:TrackPointExtension><gpxtpx:hr>170</gpxtpx:hr></gpxtpx:TrackPointExtension></extensions>
      </trkpt>
      <trkpt lat="59.9759036" lon="15.7868424">
        <ele>104.6</ele>
        <time>2012-10-30T19:19:03Z</time>
        <extensions><gpxtpx:TrackPointExtension><gpxtpx:hr>170</gpxtpx:hr></gpxtpx:TrackPointExtension></extensions>
      </trkpt>
      <trkpt lat="59.9759153" lon="15.786926">
        <ele>104.6</ele>
        <time>2012-10-30T19:19:05Z</time>
        <extensions><gpxtpx:TrackPointExtension><gpxtpx:hr>170</gpxtpx:hr></gpxtpx:TrackPointExtension></extensions>
      </trkpt>
      <trkpt lat="59.9759311" lon="15.7869746">
        <ele>104.6</ele>
        <time>2012-10-30T19:19:06Z</time>
        <extensions><gpxtpx:TrackPointExtension><gpxtpx:hr>170</gpxtpx:hr></gpxtpx:TrackPointExtension></extensions>
      </trkpt>
      <trkpt lat="59.975935" lon="15.7870086">
        <ele>104.6</ele>
        <time>2012-10-30T19:19:07Z</time>
        <extensions><gpxtpx:TrackPointExtension><gpxtpx:hr>170</gpxtpx:hr></gpxtpx:TrackPointExtension></extensions>
      </trkpt>
      <trkpt lat="59.9759455" lon="15.7870565">
        <ele>104.6</ele>
        <time>2012-10-30T19:19:08Z</time>
        <extensions><gpxtpx:TrackPointExtension><gpxtpx:hr>170</gpxtpx:hr></gpxtpx:TrackPointExtension></extensions>
      </trkpt>
      <trkpt lat="59.9759431" lon="15.787114">
        <ele>104.6</ele>
        <time>2012-10-30T19:19:09Z</time>
        <extensions><gpxtpx:TrackPointExtension><gpxtpx:hr>171</gpxtpx:hr></gpxtpx:TrackPointExtension></extensions>
      </trkpt>
      <trkpt lat="59.9759472" lon="15.7871545">
        <ele>104.6</ele>
        <time>2012-10-30T19:19:10Z</time>
        <extensions><gpxtpx:TrackPointExtension><gpxtpx:hr>170</gpxtpx:hr></gpxtpx:TrackPointExtension></extensions>
      </trkpt>
      <trkpt lat="59.9759566" lon="15.7872043">
        <ele>104.6</ele>
        <time>2012-10-30T19:19:11Z</time>
        <extensions><gpxtpx:TrackPointExtension><gpxtpx:hr>170</gpxtpx:hr></gpxtpx:TrackPointExtension></extensions>
      </trkpt>
      <trkpt lat="59.9759604" lon="15.7872251">
        <ele>104.6</ele>
        <time>2012-10-30T19:19:12Z</time>
        <extensions><gpxtpx:TrackPointExtension><gpxtpx:hr>170</gpxtpx:hr></gpxtpx:TrackPointExtension></extensions>
      </trkpt>
      <trkpt lat="59.9759683" lon="15.7872668">
        <ele>104.6</ele>
        <time>2012-10-30T19:19:13Z</time>
        <extensions><gpxtpx:TrackPointExtension><gpxtpx:hr>170</gpxtpx:hr></gpxtpx:TrackPointExtension></extensions>
      </trkpt>
      <trkpt lat="59.9759746" lon="15.7873352">
        <ele>104.6</ele>
        <time>2012-10-30T19:19:14Z</time>
        <extensions><gpxtpx:TrackPointExtension><gpxtpx:hr>170</gpxtpx:hr></gpxtpx:TrackPointExtension></extensions>
      </trkpt>
      <trkpt lat="59.9759827" lon="15.787355">
        <ele>104.6</ele>
        <time>2012-10-30T19:19:15Z</time>
        <extensions><gpxtpx:TrackPointExtension><gpxtpx:hr>170</gpxtpx:hr></gpxtpx:TrackPointExtension></extensions>
      </trkpt>
      <trkpt lat="59.9759872" lon="15.7874062">
        <ele>104.6</ele>
        <time>2012-10-30T19:19:16Z</time>
        <extensions><gpxtpx:TrackPointExtension><gpxtpx:hr>170</gpxtpx:hr></gpxtpx:TrackPointExtension></extensions>
      </trkpt>
      <trkpt lat="59.9759886" lon="15.7874409">
        <ele>104.6</ele>
        <time>2012-10-30T19:19:17Z</time>
        <extensions><gpxtpx:TrackPointExtension><gpxtpx:hr>170</gpxtpx:hr></gpxtpx:TrackPointExtension></extensions>
      </trkpt>
      <trkpt lat="59.9760091" lon="15.787579">
        <ele>104.6</ele>
        <time>2012-10-30T19:19:20Z</time>
        <extensions><gpxtpx:TrackPointExtension><gpxtpx:hr>170</gpxtpx:hr></gpxtpx:TrackPointExtension></extensions>
      </trkpt>
      <trkpt lat="59.9760279" lon="15.7877759">
        <ele>104.6</ele>
        <time>2012-10-30T19:19:25Z</time>
        <extensions><gpxtpx:TrackPointExtension><gpxtpx:hr>170</gpxtpx:hr></gpxtpx:TrackPointExtension></extensions>
      </trkpt>
      <trkpt lat="59.9760333" lon="15.7878159">
        <ele>104.6</ele>
        <time>2012-10-30T19:19:26Z</time>
        <extensions><gpxtpx:TrackPointExtension><gpxtpx:hr>170</gpxtpx:hr></gpxtpx:TrackPointExtension></extensions>
      </trkpt>
      <trkpt lat="59.9760461" lon="15.7878418">
        <ele>104.6</ele>
        <time>2012-10-30T19:19:27Z</time>
        <extensions><gpxtpx:TrackPointExtension><gpxtpx:hr>170</gpxtpx:hr></gpxtpx:TrackPointExtension></extensions>
      </trkpt>
      <trkpt lat="59.976095" lon="15.7879626">
        <ele>104.6</ele>
        <time>2012-10-30T19:19:30Z</time>
        <extensions><gpxtpx:TrackPointExtension><gpxtpx:hr>170</gpxtpx:hr></gpxtpx:TrackPointExtension></extensions>
      </trkpt>
      <trkpt lat="59.9761119" lon="15.7880069">
        <ele>104.6</ele>
        <time>2012-10-30T19:19:31Z</time>
        <extensions><gpxtpx:TrackPointExtension><gpxtpx:hr>169</gpxtpx:hr></gpxtpx:TrackPointExtension></extensions>
      </trkpt>
      <trkpt lat="59.9761253" lon="15.7880403">
        <ele>104.6</ele>
        <time>2012-10-30T19:19:32Z</time>
        <extensions><gpxtpx:TrackPointExtension><gpxtpx:hr>169</gpxtpx:hr></gpxtpx:TrackPointExtension></extensions>
      </trkpt>
      <trkpt lat="59.9761398" lon="15.7880735">
        <ele>104.6</ele>
        <time>2012-10-30T19:19:33Z</time>
        <extensions><gpxtpx:TrackPointExtension><gpxtpx:hr>170</gpxtpx:hr></gpxtpx:TrackPointExtension></extensions>
      </trkpt>
      <trkpt lat="59.9761595" lon="15.7881232">
        <ele>104.6</ele>
        <time>2012-10-30T19:19:34Z</time>
        <extensions><gpxtpx:TrackPointExtension><gpxtpx:hr>170</gpxtpx:hr></gpxtpx:TrackPointExtension></extensions>
      </trkpt>
      <trkpt lat="59.9761743" lon="15.7881493">
        <ele>104.6</ele>
        <time>2012-10-30T19:19:35Z</time>
        <extensions><gpxtpx:TrackPointExtension><gpxtpx:hr>169</gpxtpx:hr></gpxtpx:TrackPointExtension></extensions>
      </trkpt>
      <trkpt lat="59.9761787" lon="15.7881693">
        <ele>104.6</ele>
        <time>2012-10-30T19:19:36Z</time>
        <extensions><gpxtpx:TrackPointExtension><gpxtpx:hr>168</gpxtpx:hr></gpxtpx:TrackPointExtension></extensions>
      </trkpt>
      <trkpt lat="59.9762188" lon="15.7882495">
        <ele>104.8</ele>
        <time>2012-10-30T19:19:38Z</time>
        <extensions><gpxtpx:TrackPointExtension><gpxtpx:hr>167</gpxtpx:hr></gpxtpx:TrackPointExtension></extensions>
      </trkpt>
      <trkpt lat="59.9762306" lon="15.7882788">
        <ele>104.6</ele>
        <time>2012-10-30T19:19:39Z</time>
        <extensions><gpxtpx:TrackPointExtension><gpxtpx:hr>167</gpxtpx:hr></gpxtpx:TrackPointExtension></extensions>
      </trkpt>
      <trkpt lat="59.9762533" lon="15.788319">
        <ele>104.8</ele>
        <time>2012-10-30T19:19:40Z</time>
        <extensions><gpxtpx:TrackPointExtension><gpxtpx:hr>167</gpxtpx:hr></gpxtpx:TrackPointExtension></extensions>
      </trkpt>
      <trkpt lat="59.976276" lon="15.7883478">
        <ele>104.8</ele>
        <time>2012-10-30T19:19:41Z</time>
        <extensions><gpxtpx:TrackPointExtension><gpxtpx:hr>167</gpxtpx:hr></gpxtpx:TrackPointExtension></extensions>
      </trkpt>
      <trkpt lat="59.9762995" lon="15.7883823">
        <ele>104.6</ele>
        <time>2012-10-30T19:19:42Z</time>
        <extensions><gpxtpx:TrackPointExtension><gpxtpx:hr>167</gpxtpx:hr></gpxtpx:TrackPointExtension></extensions>
      </trkpt>
      <trkpt lat="59.9763259" lon="15.7884209">
        <ele>104.8</ele>
        <time>2012-10-30T19:19:43Z</time>
        <extensions><gpxtpx:TrackPointExtension><gpxtpx:hr>167</gpxtpx:hr></gpxtpx:TrackPointExtension></extensions>
      </trkpt>
      <trkpt lat="59.9763524" lon="15.7884597">
        <ele>104.6</ele>
        <time>2012-10-30T19:19:44Z</time>
        <extensions><gpxtpx:TrackPointExtension><gpxtpx:hr>168</gpxtpx:hr></gpxtpx:TrackPointExtension></extensions>
      </trkpt>
      <trkpt lat="59.9763673" lon="15.7884916">
        <ele>104.6</ele>
        <time>2012-10-30T19:19:45Z</time>
        <extensions><gpxtpx:TrackPointExtension><gpxtpx:hr>168</gpxtpx:hr></gpxtpx:TrackPointExtension></extensions>
      </trkpt>
      <trkpt lat="59.9763899" lon="15.7885505">
        <ele>104.6</ele>
        <time>2012-10-30T19:19:46Z</time>
        <extensions><gpxtpx:TrackPointExtension><gpxtpx:hr>168</gpxtpx:hr></gpxtpx:TrackPointExtension></extensions>
      </trkpt>
      <trkpt lat="59.9763987" lon="15.7885784">
        <ele>104.6</ele>
        <time>2012-10-30T19:19:47Z</time>
        <extensions><gpxtpx:TrackPointExtension><gpxtpx:hr>169</gpxtpx:hr></gpxtpx:TrackPointExtension></extensions>
      </trkpt>
      <trkpt lat="59.976411" lon="15.7886372">
        <ele>104.6</ele>
        <time>2012-10-30T19:19:48Z</time>
        <extensions><gpxtpx:TrackPointExtension><gpxtpx:hr>170</gpxtpx:hr></gpxtpx:TrackPointExtension></extensions>
      </trkpt>
      <trkpt lat="59.9764217" lon="15.7886805">
        <ele>104.6</ele>
        <time>2012-10-30T19:19:49Z</time>
        <extensions><gpxtpx:TrackPointExtension><gpxtpx:hr>170</gpxtpx:hr></gpxtpx:TrackPointExtension></extensions>
      </trkpt>
      <trkpt lat="59.9764315" lon="15.7887309">
        <ele>104.6</ele>
        <time>2012-10-30T19:19:50Z</time>
        <extensions><gpxtpx:TrackPointExtension><gpxtpx:hr>170</gpxtpx:hr></gpxtpx:TrackPointExtension></extensions>
      </trkpt>
      <trkpt lat="59.97644" lon="15.7887644">
        <ele>104.6</ele>
        <time>2012-10-30T19:19:51Z</time>
        <extensions><gpxtpx:TrackPointExtension><gpxtpx:hr>171</gpxtpx:hr></gpxtpx:TrackPointExtension></extensions>
      </trkpt>
      <trkpt lat="59.9764527" lon="15.7888058">
        <ele>104.6</ele>
        <time>2012-10-30T19:19:52Z</time>
        <extensions><gpxtpx:TrackPointExtension><gpxtpx:hr>171</gpxtpx:hr></gpxtpx:TrackPointExtension></extensions>
      </trkpt>
      <trkpt lat="59.9764683" lon="15.7888694">
        <ele>104.6</ele>
        <time>2012-10-30T19:19:53Z</time>
        <extensions><gpxtpx:TrackPointExtension><gpxtpx:hr>171</gpxtpx:hr></gpxtpx:TrackPointExtension></extensions>
      </trkpt>
      <trkpt lat="59.9764834" lon="15.7889195">
        <ele>104.6</ele>
        <time>2012-10-30T19:19:54Z</time>
        <extensions><gpxtpx:TrackPointExtension><gpxtpx:hr>171</gpxtpx:hr></gpxtpx:TrackPointExtension></extensions>
      </trkpt>
      <trkpt lat="59.9764915" lon="15.7889539">
        <ele>104.6</ele>
        <time>2012-10-30T19:19:55Z</time>
        <extensions><gpxtpx:TrackPointExtension><gpxtpx:hr>171</gpxtpx:hr></gpxtpx:TrackPointExtension></extensions>
      </trkpt>
      <trkpt lat="59.9765035" lon="15.7890178">
        <ele>104.6</ele>
        <time>2012-10-30T19:19:56Z</time>
        <extensions><gpxtpx:TrackPointExtension><gpxtpx:hr>171</gpxtpx:hr></gpxtpx:TrackPointExtension></extensions>
      </trkpt>
      <trkpt lat="59.9765096" lon="15.7890441">
        <ele>104.6</ele>
        <time>2012-10-30T19:19:57Z</time>
        <extensions><gpxtpx:TrackPointExtension><gpxtpx:hr>171</gpxtpx:hr></gpxtpx:TrackPointExtension></extensions>
      </trkpt>
      <trkpt lat="59.9765247" lon="15.7890786">
        <ele>104.6</ele>
        <time>2012-10-30T19:19:58Z</time>
        <extensions><gpxtpx:TrackPointExtension><gpxtpx:hr>171</gpxtpx:hr></gpxtpx:TrackPointExtension></extensions>
      </trkpt>
      <trkpt lat="59.9765396" lon="15.7891179">
        <ele>104.6</ele>
        <time>2012-10-30T19:19:59Z</time>
        <extensions><gpxtpx:TrackPointExtension><gpxtpx:hr>171</gpxtpx:hr></gpxtpx:TrackPointExtension></extensions>
      </trkpt>
      <trkpt lat="59.9765548" lon="15.7891529">
        <ele>104.6</ele>
        <time>2012-10-30T19:20:00Z</time>
        <extensions><gpxtpx:TrackPointExtension><gpxtpx:hr>171</gpxtpx:hr></gpxtpx:TrackPointExtension></extensions>
      </trkpt>
      <trkpt lat="59.9765689" lon="15.7891939">
        <ele>104.6</ele>
        <time>2012-10-30T19:20:01Z</time>
        <extensions><gpxtpx:TrackPointExtension><gpxtpx:hr>171</gpxtpx:hr></gpxtpx:TrackPointExtension></extensions>
      </trkpt>
      <trkpt lat="59.9765845" lon="15.7892161">
        <ele>107.6</ele>
        <time>2012-10-30T19:20:02Z</time>
        <extensions><gpxtpx:TrackPointExtension><gpxtpx:hr>172</gpxtpx:hr></gpxtpx:TrackPointExtension></extensions>
      </trkpt>
      <trkpt lat="59.9766035" lon="15.7892593">
        <ele>107.6</ele>
        <time>2012-10-30T19:20:03Z</time>
        <extensions><gpxtpx:TrackPointExtension><gpxtpx:hr>171</gpxtpx:hr></gpxtpx:TrackPointExtension></extensions>
      </trkpt>
      <trkpt lat="59.9766202" lon="15.7893027">
        <ele>107.6</ele>
        <time>2012-10-30T19:20:04Z</time>
        <extensions><gpxtpx:TrackPointExtension><gpxtpx:hr>172</gpxtpx:hr></gpxtpx:TrackPointExtension></extensions>
      </trkpt>
      <trkpt lat="59.9766755" lon="15.7894699">
        <ele>107.8</ele>
        <time>2012-10-30T19:20:08Z</time>
        <extensions><gpxtpx:TrackPointExtension><gpxtpx:hr>172</gpxtpx:hr></gpxtpx:TrackPointExtension></extensions>
      </trkpt>
      <trkpt lat="59.9766844" lon="15.7895035">
        <ele>107.6</ele>
        <time>2012-10-30T19:20:09Z</time>
        <extensions><gpxtpx:TrackPointExtension><gpxtpx:hr>172</gpxtpx:hr></gpxtpx:TrackPointExtension></extensions>
      </trkpt>
      <trkpt lat="59.9767004" lon="15.7895379">
        <ele>107.8</ele>
        <time>2012-10-30T19:20:10Z</time>
        <extensions><gpxtpx:TrackPointExtension><gpxtpx:hr>172</gpxtpx:hr></gpxtpx:TrackPointExtension></extensions>
      </trkpt>
      <trkpt lat="59.976716" lon="15.7895712">
        <ele>107.6</ele>
        <time>2012-10-30T19:20:11Z</time>
        <extensions><gpxtpx:TrackPointExtension><gpxtpx:hr>172</gpxtpx:hr></gpxtpx:TrackPointExtension></extensions>
      </trkpt>
      <trkpt lat="59.9767275" lon="15.7896037">
        <ele>107.6</ele>
        <time>2012-10-30T19:20:12Z</time>
        <extensions><gpxtpx:TrackPointExtension><gpxtpx:hr>171</gpxtpx:hr></gpxtpx:TrackPointExtension></extensions>
      </trkpt>
      <trkpt lat="59.9767531" lon="15.7896367">
        <ele>107.6</ele>
        <time>2012-10-30T19:20:13Z</time>
        <extensions><gpxtpx:TrackPointExtension><gpxtpx:hr>172</gpxtpx:hr></gpxtpx:TrackPointExtension></extensions>
      </trkpt>
      <trkpt lat="59.9767672" lon="15.7896859">
        <ele>107.6</ele>
        <time>2012-10-30T19:20:14Z</time>
        <extensions><gpxtpx:TrackPointExtension><gpxtpx:hr>172</gpxtpx:hr></gpxtpx:TrackPointExtension></extensions>
      </trkpt>
      <trkpt lat="59.976773" lon="15.7897274">
        <ele>107.8</ele>
        <time>2012-10-30T19:20:15Z</time>
        <extensions><gpxtpx:TrackPointExtension><gpxtpx:hr>172</gpxtpx:hr></gpxtpx:TrackPointExtension></extensions>
      </trkpt>
      <trkpt lat="59.9767858" lon="15.7897971">
        <ele>107.6</ele>
        <time>2012-10-30T19:20:16Z</time>
        <extensions><gpxtpx:TrackPointExtension><gpxtpx:hr>172</gpxtpx:hr></gpxtpx:TrackPointExtension></extensions>
      </trkpt>
      <trkpt lat="59.9768097" lon="15.7898971">
        <ele>107.6</ele>
        <time>2012-10-30T19:20:18Z</time>
        <extensions><gpxtpx:TrackPointExtension><gpxtpx:hr>172</gpxtpx:hr></gpxtpx:TrackPointExtension></extensions>
      </trkpt>
      <trkpt lat="59.976816" lon="15.7899435">
        <ele>107.6</ele>
        <time>2012-10-30T19:20:19Z</time>
        <extensions><gpxtpx:TrackPointExtension><gpxtpx:hr>171</gpxtpx:hr></gpxtpx:TrackPointExtension></extensions>
      </trkpt>
      <trkpt lat="59.976826" lon="15.7899864">
        <ele>107.6</ele>
        <time>2012-10-30T19:20:20Z</time>
        <extensions><gpxtpx:TrackPointExtension><gpxtpx:hr>172</gpxtpx:hr></gpxtpx:TrackPointExtension></extensions>
      </trkpt>
      <trkpt lat="59.9768421" lon="15.790019">
        <ele>107.6</ele>
        <time>2012-10-30T19:20:21Z</time>
        <extensions><gpxtpx:TrackPointExtension><gpxtpx:hr>171</gpxtpx:hr></gpxtpx:TrackPointExtension></extensions>
      </trkpt>
      <trkpt lat="59.9768506" lon="15.790059">
        <ele>107.6</ele>
        <time>2012-10-30T19:20:22Z</time>
        <extensions><gpxtpx:TrackPointExtension><gpxtpx:hr>171</gpxtpx:hr></gpxtpx:TrackPointExtension></extensions>
      </trkpt>
      <trkpt lat="59.9768658" lon="15.7901208">
        <ele>107.6</ele>
        <time>2012-10-30T19:20:23Z</time>
        <extensions><gpxtpx:TrackPointExtension><gpxtpx:hr>171</gpxtpx:hr></gpxtpx:TrackPointExtension></extensions>
      </trkpt>
      <trkpt lat="59.976877" lon="15.790181">
        <ele>107.6</ele>
        <time>2012-10-30T19:20:24Z</time>
        <extensions><gpxtpx:TrackPointExtension><gpxtpx:hr>172</gpxtpx:hr></gpxtpx:TrackPointExtension></extensions>
      </trkpt>
      <trkpt lat="59.9768852" lon="15.7902109">
        <ele>107.6</ele>
        <time>2012-10-30T19:20:25Z</time>
        <extensions><gpxtpx:TrackPointExtension><gpxtpx:hr>171</gpxtpx:hr></gpxtpx:TrackPointExtension></extensions>
      </trkpt>
      <trkpt lat="59.976901" lon="15.7902609">
        <ele>107.6</ele>
        <time>2012-10-30T19:20:26Z</time>
        <extensions><gpxtpx:TrackPointExtension><gpxtpx:hr>171</gpxtpx:hr></gpxtpx:TrackPointExtension></extensions>
      </trkpt>
      <trkpt lat="59.9769132" lon="15.7902898">
        <ele>107.6</ele>
        <time>2012-10-30T19:20:27Z</time>
        <extensions><gpxtpx:TrackPointExtension><gpxtpx:hr>171</gpxtpx:hr></gpxtpx:TrackPointExtension></extensions>
      </trkpt>
      <trkpt lat="59.9769249" lon="15.7903176">
        <ele>107.6</ele>
        <time>2012-10-30T19:20:28Z</time>
        <extensions><gpxtpx:TrackPointExtension><gpxtpx:hr>171</gpxtpx:hr></gpxtpx:TrackPointExtension></extensions>
      </trkpt>
      <trkpt lat="59.9769389" lon="15.7903504">
        <ele>107.6</ele>
        <time>2012-10-30T19:20:29Z</time>
        <extensions><gpxtpx:TrackPointExtension><gpxtpx:hr>171</gpxtpx:hr></gpxtpx:TrackPointExtension></extensions>
      </trkpt>
      <trkpt lat="59.9769605" lon="15.790381">
        <ele>107.6</ele>
        <time>2012-10-30T19:20:30Z</time>
        <extensions><gpxtpx:TrackPointExtension><gpxtpx:hr>170</gpxtpx:hr></gpxtpx:TrackPointExtension></extensions>
      </trkpt>
      <trkpt lat="59.9769829" lon="15.790423">
        <ele>107.6</ele>
        <time>2012-10-30T19:20:31Z</time>
        <extensions><gpxtpx:TrackPointExtension><gpxtpx:hr>170</gpxtpx:hr></gpxtpx:TrackPointExtension></extensions>
      </trkpt>
      <trkpt lat="59.977029" lon="15.7905526">
        <ele>107.6</ele>
        <time>2012-10-30T19:20:34Z</time>
        <extensions><gpxtpx:TrackPointExtension><gpxtpx:hr>170</gpxtpx:hr></gpxtpx:TrackPointExtension></extensions>
      </trkpt>
      <trkpt lat="59.9770393" lon="15.7905973">
        <ele>107.6</ele>
        <time>2012-10-30T19:20:35Z</time>
        <extensions><gpxtpx:TrackPointExtension><gpxtpx:hr>170</gpxtpx:hr></gpxtpx:TrackPointExtension></extensions>
      </trkpt>
      <trkpt lat="59.9770477" lon="15.7906489">
        <ele>107.6</ele>
        <time>2012-10-30T19:20:36Z</time>
        <extensions><gpxtpx:TrackPointExtension><gpxtpx:hr>170</gpxtpx:hr></gpxtpx:TrackPointExtension></extensions>
      </trkpt>
      <trkpt lat="59.977049" lon="15.7906834">
        <ele>104.6</ele>
        <time>2012-10-30T19:20:37Z</time>
        <extensions><gpxtpx:TrackPointExtension><gpxtpx:hr>169</gpxtpx:hr></gpxtpx:TrackPointExtension></extensions>
      </trkpt>
      <trkpt lat="59.9770552" lon="15.7907302">
        <ele>104.4</ele>
        <time>2012-10-30T19:20:38Z</time>
        <extensions><gpxtpx:TrackPointExtension><gpxtpx:hr>170</gpxtpx:hr></gpxtpx:TrackPointExtension></extensions>
      </trkpt>
      <trkpt lat="59.9770616" lon="15.7907615">
        <ele>104.6</ele>
        <time>2012-10-30T19:20:39Z</time>
        <extensions><gpxtpx:TrackPointExtension><gpxtpx:hr>169</gpxtpx:hr></gpxtpx:TrackPointExtension></extensions>
      </trkpt>
      <trkpt lat="59.9770655" lon="15.7908089">
        <ele>104.6</ele>
        <time>2012-10-30T19:20:40Z</time>
        <extensions><gpxtpx:TrackPointExtension><gpxtpx:hr>170</gpxtpx:hr></gpxtpx:TrackPointExtension></extensions>
      </trkpt>
      <trkpt lat="59.9770764" lon="15.7908665">
        <ele>104.6</ele>
        <time>2012-10-30T19:20:41Z</time>
        <extensions><gpxtpx:TrackPointExtension><gpxtpx:hr>170</gpxtpx:hr></gpxtpx:TrackPointExtension></extensions>
      </trkpt>
      <trkpt lat="59.9770838" lon="15.7909045">
        <ele>104.6</ele>
        <time>2012-10-30T19:20:42Z</time>
        <extensions><gpxtpx:TrackPointExtension><gpxtpx:hr>170</gpxtpx:hr></gpxtpx:TrackPointExtension></extensions>
      </trkpt>
      <trkpt lat="59.977105" lon="15.7909622">
        <ele>104.6</ele>
        <time>2012-10-30T19:20:43Z</time>
        <extensions><gpxtpx:TrackPointExtension><gpxtpx:hr>170</gpxtpx:hr></gpxtpx:TrackPointExtension></extensions>
      </trkpt>
      <trkpt lat="59.9771199" lon="15.7910162">
        <ele>104.6</ele>
        <time>2012-10-30T19:20:44Z</time>
        <extensions><gpxtpx:TrackPointExtension><gpxtpx:hr>171</gpxtpx:hr></gpxtpx:TrackPointExtension></extensions>
      </trkpt>
      <trkpt lat="59.9771647" lon="15.7911431">
        <ele>104.6</ele>
        <time>2012-10-30T19:20:47Z</time>
        <extensions><gpxtpx:TrackPointExtension><gpxtpx:hr>171</gpxtpx:hr></gpxtpx:TrackPointExtension></extensions>
      </trkpt>
      <trkpt lat="59.9771834" lon="15.791192">
        <ele>104.6</ele>
        <time>2012-10-30T19:20:48Z</time>
        <extensions><gpxtpx:TrackPointExtension><gpxtpx:hr>171</gpxtpx:hr></gpxtpx:TrackPointExtension></extensions>
      </trkpt>
      <trkpt lat="59.9772005" lon="15.7912271">
        <ele>104.6</ele>
        <time>2012-10-30T19:20:49Z</time>
        <extensions><gpxtpx:TrackPointExtension><gpxtpx:hr>171</gpxtpx:hr></gpxtpx:TrackPointExtension></extensions>
      </trkpt>
      <trkpt lat="59.9772173" lon="15.7912624">
        <ele>104.6</ele>
        <time>2012-10-30T19:20:50Z</time>
        <extensions><gpxtpx:TrackPointExtension><gpxtpx:hr>171</gpxtpx:hr></gpxtpx:TrackPointExtension></extensions>
      </trkpt>
      <trkpt lat="59.9772808" lon="15.7913681">
        <ele>104.6</ele>
        <time>2012-10-30T19:20:53Z</time>
        <extensions><gpxtpx:TrackPointExtension><gpxtpx:hr>171</gpxtpx:hr></gpxtpx:TrackPointExtension></extensions>
      </trkpt>
      <trkpt lat="59.9774169" lon="15.7916022">
        <ele>104.6</ele>
        <time>2012-10-30T19:21:00Z</time>
        <extensions><gpxtpx:TrackPointExtension><gpxtpx:hr>171</gpxtpx:hr></gpxtpx:TrackPointExtension></extensions>
      </trkpt>
      <trkpt lat="59.9774344" lon="15.7916362">
        <ele>104.6</ele>
        <time>2012-10-30T19:21:01Z</time>
        <extensions><gpxtpx:TrackPointExtension><gpxtpx:hr>171</gpxtpx:hr></gpxtpx:TrackPointExtension></extensions>
      </trkpt>
      <trkpt lat="59.9775074" lon="15.79177">
        <ele>104.6</ele>
        <time>2012-10-30T19:21:05Z</time>
        <extensions><gpxtpx:TrackPointExtension><gpxtpx:hr>171</gpxtpx:hr></gpxtpx:TrackPointExtension></extensions>
      </trkpt>
      <trkpt lat="59.9775297" lon="15.7918122">
        <ele>104.6</ele>
        <time>2012-10-30T19:21:06Z</time>
        <extensions><gpxtpx:TrackPointExtension><gpxtpx:hr>170</gpxtpx:hr></gpxtpx:TrackPointExtension></extensions>
      </trkpt>
      <trkpt lat="59.977557" lon="15.7918733">
        <ele>104.6</ele>
        <time>2012-10-30T19:21:08Z</time>
        <extensions><gpxtpx:TrackPointExtension><gpxtpx:hr>170</gpxtpx:hr></gpxtpx:TrackPointExtension></extensions>
      </trkpt>
      <trkpt lat="59.9775938" lon="15.7919077">
        <ele>104.6</ele>
        <time>2012-10-30T19:21:10Z</time>
        <extensions><gpxtpx:TrackPointExtension><gpxtpx:hr>170</gpxtpx:hr></gpxtpx:TrackPointExtension></extensions>
      </trkpt>
      <trkpt lat="59.9776319" lon="15.7919484">
        <ele>104.6</ele>
        <time>2012-10-30T19:21:12Z</time>
        <extensions><gpxtpx:TrackPointExtension><gpxtpx:hr>170</gpxtpx:hr></gpxtpx:TrackPointExtension></extensions>
      </trkpt>
      <trkpt lat="59.9776777" lon="15.7919936">
        <ele>104.6</ele>
        <time>2012-10-30T19:21:14Z</time>
        <extensions><gpxtpx:TrackPointExtension><gpxtpx:hr>170</gpxtpx:hr></gpxtpx:TrackPointExtension></extensions>
      </trkpt>
      <trkpt lat="59.9776949" lon="15.7920165">
        <ele>104.6</ele>
        <time>2012-10-30T19:21:15Z</time>
        <extensions><gpxtpx:TrackPointExtension><gpxtpx:hr>170</gpxtpx:hr></gpxtpx:TrackPointExtension></extensions>
      </trkpt>
      <trkpt lat="59.9777261" lon="15.792047">
        <ele>104.6</ele>
        <time>2012-10-30T19:21:16Z</time>
        <extensions><gpxtpx:TrackPointExtension><gpxtpx:hr>169</gpxtpx:hr></gpxtpx:TrackPointExtension></extensions>
      </trkpt>
      <trkpt lat="59.9777415" lon="15.7920591">
        <ele>104.6</ele>
        <time>2012-10-30T19:21:17Z</time>
        <extensions><gpxtpx:TrackPointExtension><gpxtpx:hr>170</gpxtpx:hr></gpxtpx:TrackPointExtension></extensions>
      </trkpt>
      <trkpt lat="59.9777703" lon="15.7920827">
        <ele>104.6</ele>
        <time>2012-10-30T19:21:18Z</time>
        <extensions><gpxtpx:TrackPointExtension><gpxtpx:hr>170</gpxtpx:hr></gpxtpx:TrackPointExtension></extensions>
      </trkpt>
      <trkpt lat="59.9777938" lon="15.7921038">
        <ele>104.6</ele>
        <time>2012-10-30T19:21:19Z</time>
        <extensions><gpxtpx:TrackPointExtension><gpxtpx:hr>169</gpxtpx:hr></gpxtpx:TrackPointExtension></extensions>
      </trkpt>
      <trkpt lat="59.977813" lon="15.7921123">
        <ele>104.6</ele>
        <time>2012-10-30T19:21:20Z</time>
        <extensions><gpxtpx:TrackPointExtension><gpxtpx:hr>169</gpxtpx:hr></gpxtpx:TrackPointExtension></extensions>
      </trkpt>
      <trkpt lat="59.9778347" lon="15.7921263">
        <ele>104.6</ele>
        <time>2012-10-30T19:21:21Z</time>
        <extensions><gpxtpx:TrackPointExtension><gpxtpx:hr>169</gpxtpx:hr></gpxtpx:TrackPointExtension></extensions>
      </trkpt>
      <trkpt lat="59.9778533" lon="15.7921372">
        <ele>104.6</ele>
        <time>2012-10-30T19:21:22Z</time>
        <extensions><gpxtpx:TrackPointExtension><gpxtpx:hr>170</gpxtpx:hr></gpxtpx:TrackPointExtension></extensions>
      </trkpt>
      <trkpt lat="59.9778803" lon="15.7921517">
        <ele>104.6</ele>
        <time>2012-10-30T19:21:23Z</time>
        <extensions><gpxtpx:TrackPointExtension><gpxtpx:hr>170</gpxtpx:hr></gpxtpx:TrackPointExtension></extensions>
      </trkpt>
      <trkpt lat="59.9779047" lon="15.7921679">
        <ele>104.6</ele>
        <time>2012-10-30T19:21:24Z</time>
        <extensions><gpxtpx:TrackPointExtension><gpxtpx:hr>169</gpxtpx:hr></gpxtpx:TrackPointExtension></extensions>
      </trkpt>
      <trkpt lat="59.9779254" lon="15.7921812">
        <ele>104.6</ele>
        <time>2012-10-30T19:21:25Z</time>
        <extensions><gpxtpx:TrackPointExtension><gpxtpx:hr>170</gpxtpx:hr></gpxtpx:TrackPointExtension></extensions>
      </trkpt>
      <trkpt lat="59.9779524" lon="15.7921991">
        <ele>104.6</ele>
        <time>2012-10-30T19:21:26Z</time>
        <extensions><gpxtpx:TrackPointExtension><gpxtpx:hr>170</gpxtpx:hr></gpxtpx:TrackPointExtension></extensions>
      </trkpt>
      <trkpt lat="59.9779695" lon="15.7922134">
        <ele>104.6</ele>
        <time>2012-10-30T19:21:27Z</time>
        <extensions><gpxtpx:TrackPointExtension><gpxtpx:hr>170</gpxtpx:hr></gpxtpx:TrackPointExtension></extensions>
      </trkpt>
      <trkpt lat="59.9779938" lon="15.7922315">
        <ele>104.6</ele>
        <time>2012-10-30T19:21:28Z</time>
        <extensions><gpxtpx:TrackPointExtension><gpxtpx:hr>170</gpxtpx:hr></gpxtpx:TrackPointExtension></extensions>
      </trkpt>
      <trkpt lat="59.9780179" lon="15.7922473">
        <ele>104.6</ele>
        <time>2012-10-30T19:21:29Z</time>
        <extensions><gpxtpx:TrackPointExtension><gpxtpx:hr>170</gpxtpx:hr></gpxtpx:TrackPointExtension></extensions>
      </trkpt>
      <trkpt lat="59.9780369" lon="15.7922627">
        <ele>104.6</ele>
        <time>2012-10-30T19:21:30Z</time>
        <extensions><gpxtpx:TrackPointExtension><gpxtpx:hr>170</gpxtpx:hr></gpxtpx:TrackPointExtension></extensions>
      </trkpt>
      <trkpt lat="59.9780596" lon="15.7922877">
        <ele>104.6</ele>
        <time>2012-10-30T19:21:31Z</time>
        <extensions><gpxtpx:TrackPointExtension><gpxtpx:hr>170</gpxtpx:hr></gpxtpx:TrackPointExtension></extensions>
      </trkpt>
      <trkpt lat="59.9781073" lon="15.7923231">
        <ele>104.6</ele>
        <time>2012-10-30T19:21:33Z</time>
        <extensions><gpxtpx:TrackPointExtension><gpxtpx:hr>170</gpxtpx:hr></gpxtpx:TrackPointExtension></extensions>
      </trkpt>
      <trkpt lat="59.9781304" lon="15.7923449">
        <ele>104.6</ele>
        <time>2012-10-30T19:21:34Z</time>
        <extensions><gpxtpx:TrackPointExtension><gpxtpx:hr>170</gpxtpx:hr></gpxtpx:TrackPointExtension></extensions>
      </trkpt>
      <trkpt lat="59.9781492" lon="15.7923618">
        <ele>104.6</ele>
        <time>2012-10-30T19:21:35Z</time>
        <extensions><gpxtpx:TrackPointExtension><gpxtpx:hr>170</gpxtpx:hr></gpxtpx:TrackPointExtension></extensions>
      </trkpt>
      <trkpt lat="59.9781764" lon="15.79239">
        <ele>104.6</ele>
        <time>2012-10-30T19:21:36Z</time>
        <extensions><gpxtpx:TrackPointExtension><gpxtpx:hr>170</gpxtpx:hr></gpxtpx:TrackPointExtension></extensions>
      </trkpt>
      <trkpt lat="59.9781962" lon="15.7924061">
        <ele>104.6</ele>
        <time>2012-10-30T19:21:37Z</time>
        <extensions><gpxtpx:TrackPointExtension><gpxtpx:hr>170</gpxtpx:hr></gpxtpx:TrackPointExtension></extensions>
      </trkpt>
      <trkpt lat="59.9782423" lon="15.7924564">
        <ele>104.6</ele>
        <time>2012-10-30T19:21:39Z</time>
        <extensions><gpxtpx:TrackPointExtension><gpxtpx:hr>170</gpxtpx:hr></gpxtpx:TrackPointExtension></extensions>
      </trkpt>
      <trkpt lat="59.9784129" lon="15.7925687">
        <ele>104.6</ele>
        <time>2012-10-30T19:21:46Z</time>
        <extensions><gpxtpx:TrackPointExtension><gpxtpx:hr>170</gpxtpx:hr></gpxtpx:TrackPointExtension></extensions>
      </trkpt>
      <trkpt lat="59.9784889" lon="15.7926092">
        <ele>104.6</ele>
        <time>2012-10-30T19:21:49Z</time>
        <extensions><gpxtpx:TrackPointExtension><gpxtpx:hr>170</gpxtpx:hr></gpxtpx:TrackPointExtension></extensions>
      </trkpt>
      <trkpt lat="59.9785139" lon="15.7926229">
        <ele>104.6</ele>
        <time>2012-10-30T19:21:50Z</time>
        <extensions><gpxtpx:TrackPointExtension><gpxtpx:hr>170</gpxtpx:hr></gpxtpx:TrackPointExtension></extensions>
      </trkpt>
      <trkpt lat="59.9785382" lon="15.7926389">
        <ele>104.6</ele>
        <time>2012-10-30T19:21:51Z</time>
        <extensions><gpxtpx:TrackPointExtension><gpxtpx:hr>171</gpxtpx:hr></gpxtpx:TrackPointExtension></extensions>
      </trkpt>
      <trkpt lat="59.9785602" lon="15.7926536">
        <ele>104.6</ele>
        <time>2012-10-30T19:21:52Z</time>
        <extensions><gpxtpx:TrackPointExtension><gpxtpx:hr>171</gpxtpx:hr></gpxtpx:TrackPointExtension></extensions>
      </trkpt>
      <trkpt lat="59.9785952" lon="15.792674">
        <ele>104.6</ele>
        <time>2012-10-30T19:21:53Z</time>
        <extensions><gpxtpx:TrackPointExtension><gpxtpx:hr>171</gpxtpx:hr></gpxtpx:TrackPointExtension></extensions>
      </trkpt>
      <trkpt lat="59.9786234" lon="15.7926923">
        <ele>104.6</ele>
        <time>2012-10-30T19:21:54Z</time>
        <extensions><gpxtpx:TrackPointExtension><gpxtpx:hr>170</gpxtpx:hr></gpxtpx:TrackPointExtension></extensions>
      </trkpt>
      <trkpt lat="59.9786434" lon="15.7927081">
        <ele>104.6</ele>
        <time>2012-10-30T19:21:55Z</time>
        <extensions><gpxtpx:TrackPointExtension><gpxtpx:hr>170</gpxtpx:hr></gpxtpx:TrackPointExtension></extensions>
      </trkpt>
      <trkpt lat="59.978676" lon="15.7927329">
        <ele>104.6</ele>
        <time>2012-10-30T19:21:56Z</time>
        <extensions><gpxtpx:TrackPointExtension><gpxtpx:hr>170</gpxtpx:hr></gpxtpx:TrackPointExtension></extensions>
      </trkpt>
      <trkpt lat="59.97869" lon="15.7927456">
        <ele>104.6</ele>
        <time>2012-10-30T19:21:57Z</time>
        <extensions><gpxtpx:TrackPointExtension><gpxtpx:hr>171</gpxtpx:hr></gpxtpx:TrackPointExtension></extensions>
      </trkpt>
      <trkpt lat="59.9787075" lon="15.7927638">
        <ele>104.6</ele>
        <time>2012-10-30T19:21:58Z</time>
        <extensions><gpxtpx:TrackPointExtension><gpxtpx:hr>171</gpxtpx:hr></gpxtpx:TrackPointExtension></extensions>
      </trkpt>
      <trkpt lat="59.9787413" lon="15.7927907">
        <ele>104.6</ele>
        <time>2012-10-30T19:21:59Z</time>
        <extensions><gpxtpx:TrackPointExtension><gpxtpx:hr>170</gpxtpx:hr></gpxtpx:TrackPointExtension></extensions>
      </trkpt>
      <trkpt lat="59.9787637" lon="15.7928089">
        <ele>104.6</ele>
        <time>2012-10-30T19:22:00Z</time>
        <extensions><gpxtpx:TrackPointExtension><gpxtpx:hr>171</gpxtpx:hr></gpxtpx:TrackPointExtension></extensions>
      </trkpt>
      <trkpt lat="59.9787848" lon="15.7928212">
        <ele>104.6</ele>
        <time>2012-10-30T19:22:01Z</time>
        <extensions><gpxtpx:TrackPointExtension><gpxtpx:hr>170</gpxtpx:hr></gpxtpx:TrackPointExtension></extensions>
      </trkpt>
      <trkpt lat="59.9788017" lon="15.7928253">
        <ele>104.6</ele>
        <time>2012-10-30T19:22:02Z</time>
        <extensions><gpxtpx:TrackPointExtension><gpxtpx:hr>170</gpxtpx:hr></gpxtpx:TrackPointExtension></extensions>
      </trkpt>
      <trkpt lat="59.9788235" lon="15.7928396">
        <ele>104.6</ele>
        <time>2012-10-30T19:22:03Z</time>
        <extensions><gpxtpx:TrackPointExtension><gpxtpx:hr>170</gpxtpx:hr></gpxtpx:TrackPointExtension></extensions>
      </trkpt>
      <trkpt lat="59.9788431" lon="15.7928683">
        <ele>104.6</ele>
        <time>2012-10-30T19:22:04Z</time>
        <extensions><gpxtpx:TrackPointExtension><gpxtpx:hr>170</gpxtpx:hr></gpxtpx:TrackPointExtension></extensions>
      </trkpt>
      <trkpt lat="59.9788592" lon="15.7929013">
        <ele>104.6</ele>
        <time>2012-10-30T19:22:05Z</time>
        <extensions><gpxtpx:TrackPointExtension><gpxtpx:hr>169</gpxtpx:hr></gpxtpx:TrackPointExtension></extensions>
      </trkpt>
      <trkpt lat="59.9788806" lon="15.792942">
        <ele>104.6</ele>
        <time>2012-10-30T19:22:06Z</time>
        <extensions><gpxtpx:TrackPointExtension><gpxtpx:hr>170</gpxtpx:hr></gpxtpx:TrackPointExtension></extensions>
      </trkpt>
      <trkpt lat="59.9788916" lon="15.7929734">
        <ele>104.6</ele>
        <time>2012-10-30T19:22:07Z</time>
        <extensions><gpxtpx:TrackPointExtension><gpxtpx:hr>170</gpxtpx:hr></gpxtpx:TrackPointExtension></extensions>
      </trkpt>
      <trkpt lat="59.9789164" lon="15.7930211">
        <ele>104.6</ele>
        <time>2012-10-30T19:22:08Z</time>
        <extensions><gpxtpx:TrackPointExtension><gpxtpx:hr>170</gpxtpx:hr></gpxtpx:TrackPointExtension></extensions>
      </trkpt>
      <trkpt lat="59.9789288" lon="15.7930487">
        <ele>104.6</ele>
        <time>2012-10-30T19:22:09Z</time>
        <extensions><gpxtpx:TrackPointExtension><gpxtpx:hr>170</gpxtpx:hr></gpxtpx:TrackPointExtension></extensions>
      </trkpt>
      <trkpt lat="59.9789464" lon="15.7930754">
        <ele>104.6</ele>
        <time>2012-10-30T19:22:10Z</time>
        <extensions><gpxtpx:TrackPointExtension><gpxtpx:hr>169</gpxtpx:hr></gpxtpx:TrackPointExtension></extensions>
      </trkpt>
      <trkpt lat="59.9789668" lon="15.7931096">
        <ele>104.6</ele>
        <time>2012-10-30T19:22:11Z</time>
        <extensions><gpxtpx:TrackPointExtension><gpxtpx:hr>170</gpxtpx:hr></gpxtpx:TrackPointExtension></extensions>
      </trkpt>
      <trkpt lat="59.9789864" lon="15.7931377">
        <ele>104.6</ele>
        <time>2012-10-30T19:22:12Z</time>
        <extensions><gpxtpx:TrackPointExtension><gpxtpx:hr>170</gpxtpx:hr></gpxtpx:TrackPointExtension></extensions>
      </trkpt>
      <trkpt lat="59.9790087" lon="15.7931761">
        <ele>104.6</ele>
        <time>2012-10-30T19:22:13Z</time>
        <extensions><gpxtpx:TrackPointExtension><gpxtpx:hr>170</gpxtpx:hr></gpxtpx:TrackPointExtension></extensions>
      </trkpt>
      <trkpt lat="59.9790302" lon="15.7932146">
        <ele>104.6</ele>
        <time>2012-10-30T19:22:14Z</time>
        <extensions><gpxtpx:TrackPointExtension><gpxtpx:hr>170</gpxtpx:hr></gpxtpx:TrackPointExtension></extensions>
      </trkpt>
      <trkpt lat="59.9790464" lon="15.7932441">
        <ele>104.6</ele>
        <time>2012-10-30T19:22:15Z</time>
        <extensions><gpxtpx:TrackPointExtension><gpxtpx:hr>170</gpxtpx:hr></gpxtpx:TrackPointExtension></extensions>
      </trkpt>
      <trkpt lat="59.9790722" lon="15.7932922">
        <ele>104.6</ele>
        <time>2012-10-30T19:22:16Z</time>
        <extensions><gpxtpx:TrackPointExtension><gpxtpx:hr>170</gpxtpx:hr></gpxtpx:TrackPointExtension></extensions>
      </trkpt>
      <trkpt lat="59.9790887" lon="15.7933206">
        <ele>104.6</ele>
        <time>2012-10-30T19:22:17Z</time>
        <extensions><gpxtpx:TrackPointExtension><gpxtpx:hr>170</gpxtpx:hr></gpxtpx:TrackPointExtension></extensions>
      </trkpt>
      <trkpt lat="59.979112" lon="15.7933662">
        <ele>104.6</ele>
        <time>2012-10-30T19:22:18Z</time>
        <extensions><gpxtpx:TrackPointExtension><gpxtpx:hr>171</gpxtpx:hr></gpxtpx:TrackPointExtension></extensions>
      </trkpt>
      <trkpt lat="59.9791267" lon="15.7933927">
        <ele>104.6</ele>
        <time>2012-10-30T19:22:19Z</time>
        <extensions><gpxtpx:TrackPointExtension><gpxtpx:hr>171</gpxtpx:hr></gpxtpx:TrackPointExtension></extensions>
      </trkpt>
      <trkpt lat="59.9791428" lon="15.7934298">
        <ele>104.6</ele>
        <time>2012-10-30T19:22:20Z</time>
        <extensions><gpxtpx:TrackPointExtension><gpxtpx:hr>172</gpxtpx:hr></gpxtpx:TrackPointExtension></extensions>
      </trkpt>
      <trkpt lat="59.9791618" lon="15.7934738">
        <ele>104.6</ele>
        <time>2012-10-30T19:22:21Z</time>
        <extensions><gpxtpx:TrackPointExtension><gpxtpx:hr>172</gpxtpx:hr></gpxtpx:TrackPointExtension></extensions>
      </trkpt>
      <trkpt lat="59.9791851" lon="15.7935549">
        <ele>104.6</ele>
        <time>2012-10-30T19:22:23Z</time>
        <extensions><gpxtpx:TrackPointExtension><gpxtpx:hr>172</gpxtpx:hr></gpxtpx:TrackPointExtension></extensions>
      </trkpt>
      <trkpt lat="59.979192" lon="15.7936089">
        <ele>104.6</ele>
        <time>2012-10-30T19:22:24Z</time>
        <extensions><gpxtpx:TrackPointExtension><gpxtpx:hr>172</gpxtpx:hr></gpxtpx:TrackPointExtension></extensions>
      </trkpt>
      <trkpt lat="59.9791971" lon="15.7937091">
        <ele>104.8</ele>
        <time>2012-10-30T19:22:26Z</time>
        <extensions><gpxtpx:TrackPointExtension><gpxtpx:hr>172</gpxtpx:hr></gpxtpx:TrackPointExtension></extensions>
      </trkpt>
      <trkpt lat="59.9791987" lon="15.7937428">
        <ele>107.6</ele>
        <time>2012-10-30T19:22:27Z</time>
        <extensions><gpxtpx:TrackPointExtension><gpxtpx:hr>172</gpxtpx:hr></gpxtpx:TrackPointExtension></extensions>
      </trkpt>
      <trkpt lat="59.9792003" lon="15.7937876">
        <ele>107.6</ele>
        <time>2012-10-30T19:22:28Z</time>
        <extensions><gpxtpx:TrackPointExtension><gpxtpx:hr>172</gpxtpx:hr></gpxtpx:TrackPointExtension></extensions>
      </trkpt>
      <trkpt lat="59.979202" lon="15.79384">
        <ele>107.6</ele>
        <time>2012-10-30T19:22:29Z</time>
        <extensions><gpxtpx:TrackPointExtension><gpxtpx:hr>172</gpxtpx:hr></gpxtpx:TrackPointExtension></extensions>
      </trkpt>
      <trkpt lat="59.9792048" lon="15.793883">
        <ele>107.6</ele>
        <time>2012-10-30T19:22:30Z</time>
        <extensions><gpxtpx:TrackPointExtension><gpxtpx:hr>172</gpxtpx:hr></gpxtpx:TrackPointExtension></extensions>
      </trkpt>
      <trkpt lat="59.9792067" lon="15.7939321">
        <ele>107.8</ele>
        <time>2012-10-30T19:22:31Z</time>
        <extensions><gpxtpx:TrackPointExtension><gpxtpx:hr>173</gpxtpx:hr></gpxtpx:TrackPointExtension></extensions>
      </trkpt>
      <trkpt lat="59.9792088" lon="15.7939701">
        <ele>107.6</ele>
        <time>2012-10-30T19:22:32Z</time>
        <extensions><gpxtpx:TrackPointExtension><gpxtpx:hr>172</gpxtpx:hr></gpxtpx:TrackPointExtension></extensions>
      </trkpt>
      <trkpt lat="59.9792185" lon="15.7940302">
        <ele>107.6</ele>
        <time>2012-10-30T19:22:33Z</time>
        <extensions><gpxtpx:TrackPointExtension><gpxtpx:hr>173</gpxtpx:hr></gpxtpx:TrackPointExtension></extensions>
      </trkpt>
      <trkpt lat="59.9792273" lon="15.7940699">
        <ele>107.6</ele>
        <time>2012-10-30T19:22:34Z</time>
        <extensions><gpxtpx:TrackPointExtension><gpxtpx:hr>173</gpxtpx:hr></gpxtpx:TrackPointExtension></extensions>
      </trkpt>
      <trkpt lat="59.9792401" lon="15.7941154">
        <ele>108.8</ele>
        <time>2012-10-30T19:22:35Z</time>
        <extensions><gpxtpx:TrackPointExtension><gpxtpx:hr>173</gpxtpx:hr></gpxtpx:TrackPointExtension></extensions>
      </trkpt>
      <trkpt lat="59.9792505" lon="15.7941622">
        <ele>108.8</ele>
        <time>2012-10-30T19:22:36Z</time>
        <extensions><gpxtpx:TrackPointExtension><gpxtpx:hr>173</gpxtpx:hr></gpxtpx:TrackPointExtension></extensions>
      </trkpt>
      <trkpt lat="59.9792593" lon="15.7941957">
        <ele>108.6</ele>
        <time>2012-10-30T19:22:37Z</time>
        <extensions><gpxtpx:TrackPointExtension><gpxtpx:hr>172</gpxtpx:hr></gpxtpx:TrackPointExtension></extensions>
      </trkpt>
      <trkpt lat="59.9792696" lon="15.794241">
        <ele>108.8</ele>
        <time>2012-10-30T19:22:38Z</time>
        <extensions><gpxtpx:TrackPointExtension><gpxtpx:hr>173</gpxtpx:hr></gpxtpx:TrackPointExtension></extensions>
      </trkpt>
      <trkpt lat="59.9792769" lon="15.7942715">
        <ele>108.8</ele>
        <time>2012-10-30T19:22:39Z</time>
        <extensions><gpxtpx:TrackPointExtension><gpxtpx:hr>173</gpxtpx:hr></gpxtpx:TrackPointExtension></extensions>
      </trkpt>
      <trkpt lat="59.9792898" lon="15.7943252">
        <ele>108.6</ele>
        <time>2012-10-30T19:22:40Z</time>
        <extensions><gpxtpx:TrackPointExtension><gpxtpx:hr>173</gpxtpx:hr></gpxtpx:TrackPointExtension></extensions>
      </trkpt>
      <trkpt lat="59.9792976" lon="15.7943696">
        <ele>108.6</ele>
        <time>2012-10-30T19:22:41Z</time>
        <extensions><gpxtpx:TrackPointExtension><gpxtpx:hr>173</gpxtpx:hr></gpxtpx:TrackPointExtension></extensions>
      </trkpt>
      <trkpt lat="59.9793008" lon="15.7944105">
        <ele>108.6</ele>
        <time>2012-10-30T19:22:42Z</time>
        <extensions><gpxtpx:TrackPointExtension><gpxtpx:hr>173</gpxtpx:hr></gpxtpx:TrackPointExtension></extensions>
      </trkpt>
      <trkpt lat="59.979307" lon="15.7944595">
        <ele>108.6</ele>
        <time>2012-10-30T19:22:43Z</time>
        <extensions><gpxtpx:TrackPointExtension><gpxtpx:hr>173</gpxtpx:hr></gpxtpx:TrackPointExtension></extensions>
      </trkpt>
      <trkpt lat="59.9793131" lon="15.7945058">
        <ele>108.6</ele>
        <time>2012-10-30T19:22:44Z</time>
        <extensions><gpxtpx:TrackPointExtension><gpxtpx:hr>173</gpxtpx:hr></gpxtpx:TrackPointExtension></extensions>
      </trkpt>
      <trkpt lat="59.9793161" lon="15.7945314">
        <ele>108.6</ele>
        <time>2012-10-30T19:22:45Z</time>
        <extensions><gpxtpx:TrackPointExtension><gpxtpx:hr>173</gpxtpx:hr></gpxtpx:TrackPointExtension></extensions>
      </trkpt>
      <trkpt lat="59.9793231" lon="15.7945902">
        <ele>108.6</ele>
        <time>2012-10-30T19:22:46Z</time>
        <extensions><gpxtpx:TrackPointExtension><gpxtpx:hr>173</gpxtpx:hr></gpxtpx:TrackPointExtension></extensions>
      </trkpt>
      <trkpt lat="59.9793336" lon="15.794644">
        <ele>108.8</ele>
        <time>2012-10-30T19:22:47Z</time>
        <extensions><gpxtpx:TrackPointExtension><gpxtpx:hr>173</gpxtpx:hr></gpxtpx:TrackPointExtension></extensions>
      </trkpt>
      <trkpt lat="59.9793476" lon="15.7946769">
        <ele>108.6</ele>
        <time>2012-10-30T19:22:48Z</time>
        <extensions><gpxtpx:TrackPointExtension><gpxtpx:hr>174</gpxtpx:hr></gpxtpx:TrackPointExtension></extensions>
      </trkpt>
      <trkpt lat="59.9793588" lon="15.7947092">
        <ele>108.6</ele>
        <time>2012-10-30T19:22:49Z</time>
        <extensions><gpxtpx:TrackPointExtension><gpxtpx:hr>174</gpxtpx:hr></gpxtpx:TrackPointExtension></extensions>
      </trkpt>
      <trkpt lat="59.9793777" lon="15.7947459">
        <ele>108.6</ele>
        <time>2012-10-30T19:22:50Z</time>
        <extensions><gpxtpx:TrackPointExtension><gpxtpx:hr>173</gpxtpx:hr></gpxtpx:TrackPointExtension></extensions>
      </trkpt>
      <trkpt lat="59.979393" lon="15.7947743">
        <ele>108.6</ele>
        <time>2012-10-30T19:22:51Z</time>
        <extensions><gpxtpx:TrackPointExtension><gpxtpx:hr>174</gpxtpx:hr></gpxtpx:TrackPointExtension></extensions>
      </trkpt>
      <trkpt lat="59.9794121" lon="15.7948064">
        <ele>108.6</ele>
        <time>2012-10-30T19:22:52Z</time>
        <extensions><gpxtpx:TrackPointExtension><gpxtpx:hr>174</gpxtpx:hr></gpxtpx:TrackPointExtension></extensions>
      </trkpt>
      <trkpt lat="59.97943" lon="15.7948438">
        <ele>108.6</ele>
        <time>2012-10-30T19:22:53Z</time>
        <extensions><gpxtpx:TrackPointExtension><gpxtpx:hr>173</gpxtpx:hr></gpxtpx:TrackPointExtension></extensions>
      </trkpt>
      <trkpt lat="59.979453" lon="15.7948802">
        <ele>108.6</ele>
        <time>2012-10-30T19:22:54Z</time>
        <extensions><gpxtpx:TrackPointExtension><gpxtpx:hr>173</gpxtpx:hr></gpxtpx:TrackPointExtension></extensions>
      </trkpt>
      <trkpt lat="59.9794777" lon="15.7949172">
        <ele>108.6</ele>
        <time>2012-10-30T19:22:55Z</time>
        <extensions><gpxtpx:TrackPointExtension><gpxtpx:hr>174</gpxtpx:hr></gpxtpx:TrackPointExtension></extensions>
      </trkpt>
      <trkpt lat="59.9794951" lon="15.794942">
        <ele>108.6</ele>
        <time>2012-10-30T19:22:56Z</time>
        <extensions><gpxtpx:TrackPointExtension><gpxtpx:hr>173</gpxtpx:hr></gpxtpx:TrackPointExtension></extensions>
      </trkpt>
      <trkpt lat="59.9795135" lon="15.7949663">
        <ele>108.6</ele>
        <time>2012-10-30T19:22:57Z</time>
        <extensions><gpxtpx:TrackPointExtension><gpxtpx:hr>173</gpxtpx:hr></gpxtpx:TrackPointExtension></extensions>
      </trkpt>
      <trkpt lat="59.9795384" lon="15.7950033">
        <ele>108.6</ele>
        <time>2012-10-30T19:22:58Z</time>
        <extensions><gpxtpx:TrackPointExtension><gpxtpx:hr>174</gpxtpx:hr></gpxtpx:TrackPointExtension></extensions>
      </trkpt>
      <trkpt lat="59.9795618" lon="15.7950369">
        <ele>108.6</ele>
        <time>2012-10-30T19:22:59Z</time>
        <extensions><gpxtpx:TrackPointExtension><gpxtpx:hr>173</gpxtpx:hr></gpxtpx:TrackPointExtension></extensions>
      </trkpt>
      <trkpt lat="59.9795805" lon="15.7950603">
        <ele>108.6</ele>
        <time>2012-10-30T19:23:00Z</time>
        <extensions><gpxtpx:TrackPointExtension><gpxtpx:hr>173</gpxtpx:hr></gpxtpx:TrackPointExtension></extensions>
      </trkpt>
      <trkpt lat="59.9796008" lon="15.7950862">
        <ele>108.6</ele>
        <time>2012-10-30T19:23:01Z</time>
        <extensions><gpxtpx:TrackPointExtension><gpxtpx:hr>173</gpxtpx:hr></gpxtpx:TrackPointExtension></extensions>
      </trkpt>
      <trkpt lat="59.9796193" lon="15.7951144">
        <ele>108.6</ele>
        <time>2012-10-30T19:23:02Z</time>
        <extensions><gpxtpx:TrackPointExtension><gpxtpx:hr>173</gpxtpx:hr></gpxtpx:TrackPointExtension></extensions>
      </trkpt>
      <trkpt lat="59.9796361" lon="15.7951377">
        <ele>108.6</ele>
        <time>2012-10-30T19:23:03Z</time>
        <extensions><gpxtpx:TrackPointExtension><gpxtpx:hr>173</gpxtpx:hr></gpxtpx:TrackPointExtension></extensions>
      </trkpt>
      <trkpt lat="59.9796623" lon="15.7951717">
        <ele>108.6</ele>
        <time>2012-10-30T19:23:04Z</time>
        <extensions><gpxtpx:TrackPointExtension><gpxtpx:hr>173</gpxtpx:hr></gpxtpx:TrackPointExtension></extensions>
      </trkpt>
      <trkpt lat="59.9796785" lon="15.7951947">
        <ele>108.6</ele>
        <time>2012-10-30T19:23:05Z</time>
        <extensions><gpxtpx:TrackPointExtension><gpxtpx:hr>173</gpxtpx:hr></gpxtpx:TrackPointExtension></extensions>
      </trkpt>
      <trkpt lat="59.9797025" lon="15.7952308">
        <ele>108.6</ele>
        <time>2012-10-30T19:23:06Z</time>
        <extensions><gpxtpx:TrackPointExtension><gpxtpx:hr>173</gpxtpx:hr></gpxtpx:TrackPointExtension></extensions>
      </trkpt>
      <trkpt lat="59.9797267" lon="15.7952654">
        <ele>108.6</ele>
        <time>2012-10-30T19:23:07Z</time>
        <extensions><gpxtpx:TrackPointExtension><gpxtpx:hr>173</gpxtpx:hr></gpxtpx:TrackPointExtension></extensions>
      </trkpt>
      <trkpt lat="59.9797647" lon="15.7953211">
        <ele>108.6</ele>
        <time>2012-10-30T19:23:09Z</time>
        <extensions><gpxtpx:TrackPointExtension><gpxtpx:hr>173</gpxtpx:hr></gpxtpx:TrackPointExtension></extensions>
      </trkpt>
      <trkpt lat="59.9797751" lon="15.7953348">
        <ele>108.6</ele>
        <time>2012-10-30T19:23:10Z</time>
        <extensions><gpxtpx:TrackPointExtension><gpxtpx:hr>173</gpxtpx:hr></gpxtpx:TrackPointExtension></extensions>
      </trkpt>
      <trkpt lat="59.9798025" lon="15.7953732">
        <ele>108.6</ele>
        <time>2012-10-30T19:23:11Z</time>
        <extensions><gpxtpx:TrackPointExtension><gpxtpx:hr>172</gpxtpx:hr></gpxtpx:TrackPointExtension></extensions>
      </trkpt>
      <trkpt lat="59.9798212" lon="15.7953972">
        <ele>108.6</ele>
        <time>2012-10-30T19:23:12Z</time>
        <extensions><gpxtpx:TrackPointExtension><gpxtpx:hr>172</gpxtpx:hr></gpxtpx:TrackPointExtension></extensions>
      </trkpt>
      <trkpt lat="59.9799003" lon="15.7955115">
        <ele>108.6</ele>
        <time>2012-10-30T19:23:16Z</time>
        <extensions><gpxtpx:TrackPointExtension><gpxtpx:hr>171</gpxtpx:hr></gpxtpx:TrackPointExtension></extensions>
      </trkpt>
      <trkpt lat="59.9799239" lon="15.7955426">
        <ele>108.8</ele>
        <time>2012-10-30T19:23:17Z</time>
        <extensions><gpxtpx:TrackPointExtension><gpxtpx:hr>171</gpxtpx:hr></gpxtpx:TrackPointExtension></extensions>
      </trkpt>
      <trkpt lat="59.979942" lon="15.7955669">
        <ele>108.6</ele>
        <time>2012-10-30T19:23:18Z</time>
        <extensions><gpxtpx:TrackPointExtension><gpxtpx:hr>172</gpxtpx:hr></gpxtpx:TrackPointExtension></extensions>
      </trkpt>
      <trkpt lat="59.9800177" lon="15.7956761">
        <ele>108.6</ele>
        <time>2012-10-30T19:23:22Z</time>
        <extensions><gpxtpx:TrackPointExtension><gpxtpx:hr>171</gpxtpx:hr></gpxtpx:TrackPointExtension></extensions>
      </trkpt>
      <trkpt lat="59.9800849" lon="15.7957788">
        <ele>108.6</ele>
        <time>2012-10-30T19:23:25Z</time>
        <extensions><gpxtpx:TrackPointExtension><gpxtpx:hr>171</gpxtpx:hr></gpxtpx:TrackPointExtension></extensions>
      </trkpt>
      <trkpt lat="59.9801047" lon="15.7958083">
        <ele>108.6</ele>
        <time>2012-10-30T19:23:26Z</time>
        <extensions><gpxtpx:TrackPointExtension><gpxtpx:hr>171</gpxtpx:hr></gpxtpx:TrackPointExtension></extensions>
      </trkpt>
      <trkpt lat="59.9801467" lon="15.7958639">
        <ele>108.6</ele>
        <time>2012-10-30T19:23:28Z</time>
        <extensions><gpxtpx:TrackPointExtension><gpxtpx:hr>170</gpxtpx:hr></gpxtpx:TrackPointExtension></extensions>
      </trkpt>
      <trkpt lat="59.9802192" lon="15.7959667">
        <ele>108.8</ele>
        <time>2012-10-30T19:23:31Z</time>
        <extensions><gpxtpx:TrackPointExtension><gpxtpx:hr>170</gpxtpx:hr></gpxtpx:TrackPointExtension></extensions>
      </trkpt>
      <trkpt lat="59.9802308" lon="15.7959847">
        <ele>108.6</ele>
        <time>2012-10-30T19:23:32Z</time>
        <extensions><gpxtpx:TrackPointExtension><gpxtpx:hr>170</gpxtpx:hr></gpxtpx:TrackPointExtension></extensions>
      </trkpt>
      <trkpt lat="59.9802838" lon="15.7960629">
        <ele>108.6</ele>
        <time>2012-10-30T19:23:34Z</time>
        <extensions><gpxtpx:TrackPointExtension><gpxtpx:hr>170</gpxtpx:hr></gpxtpx:TrackPointExtension></extensions>
      </trkpt>
      <trkpt lat="59.9803127" lon="15.796103">
        <ele>108.8</ele>
        <time>2012-10-30T19:23:35Z</time>
        <extensions><gpxtpx:TrackPointExtension><gpxtpx:hr>171</gpxtpx:hr></gpxtpx:TrackPointExtension></extensions>
      </trkpt>
      <trkpt lat="59.9803325" lon="15.7961299">
        <ele>108.8</ele>
        <time>2012-10-30T19:23:36Z</time>
        <extensions><gpxtpx:TrackPointExtension><gpxtpx:hr>170</gpxtpx:hr></gpxtpx:TrackPointExtension></extensions>
      </trkpt>
      <trkpt lat="59.9803456" lon="15.7961517">
        <ele>108.6</ele>
        <time>2012-10-30T19:23:37Z</time>
        <extensions><gpxtpx:TrackPointExtension><gpxtpx:hr>170</gpxtpx:hr></gpxtpx:TrackPointExtension></extensions>
      </trkpt>
      <trkpt lat="59.9803742" lon="15.7961953">
        <ele>108.8</ele>
        <time>2012-10-30T19:23:38Z</time>
        <extensions><gpxtpx:TrackPointExtension><gpxtpx:hr>170</gpxtpx:hr></gpxtpx:TrackPointExtension></extensions>
      </trkpt>
      <trkpt lat="59.9803969" lon="15.7962259">
        <ele>108.8</ele>
        <time>2012-10-30T19:23:39Z</time>
        <extensions><gpxtpx:TrackPointExtension><gpxtpx:hr>170</gpxtpx:hr></gpxtpx:TrackPointExtension></extensions>
      </trkpt>
      <trkpt lat="59.9804183" lon="15.7962551">
        <ele>108.6</ele>
        <time>2012-10-30T19:23:40Z</time>
        <extensions><gpxtpx:TrackPointExtension><gpxtpx:hr>171</gpxtpx:hr></gpxtpx:TrackPointExtension></extensions>
      </trkpt>
      <trkpt lat="59.980436" lon="15.796273">
        <ele>108.6</ele>
        <time>2012-10-30T19:23:41Z</time>
        <extensions><gpxtpx:TrackPointExtension><gpxtpx:hr>171</gpxtpx:hr></gpxtpx:TrackPointExtension></extensions>
      </trkpt>
      <trkpt lat="59.9804567" lon="15.7963064">
        <ele>108.6</ele>
        <time>2012-10-30T19:23:42Z</time>
        <extensions><gpxtpx:TrackPointExtension><gpxtpx:hr>170</gpxtpx:hr></gpxtpx:TrackPointExtension></extensions>
      </trkpt>
      <trkpt lat="59.9804807" lon="15.7963405">
        <ele>108.6</ele>
        <time>2012-10-30T19:23:43Z</time>
        <extensions><gpxtpx:TrackPointExtension><gpxtpx:hr>170</gpxtpx:hr></gpxtpx:TrackPointExtension></extensions>
      </trkpt>
      <trkpt lat="59.9804979" lon="15.7963688">
        <ele>108.6</ele>
        <time>2012-10-30T19:23:44Z</time>
        <extensions><gpxtpx:TrackPointExtension><gpxtpx:hr>170</gpxtpx:hr></gpxtpx:TrackPointExtension></extensions>
      </trkpt>
      <trkpt lat="59.9805241" lon="15.7964066">
        <ele>108.6</ele>
        <time>2012-10-30T19:23:45Z</time>
        <extensions><gpxtpx:TrackPointExtension><gpxtpx:hr>170</gpxtpx:hr></gpxtpx:TrackPointExtension></extensions>
      </trkpt>
      <trkpt lat="59.9805407" lon="15.7964335">
        <ele>108.6</ele>
        <time>2012-10-30T19:23:46Z</time>
        <extensions><gpxtpx:TrackPointExtension><gpxtpx:hr>170</gpxtpx:hr></gpxtpx:TrackPointExtension></extensions>
      </trkpt>
      <trkpt lat="59.9805639" lon="15.7964724">
        <ele>108.6</ele>
        <time>2012-10-30T19:23:47Z</time>
        <extensions><gpxtpx:TrackPointExtension><gpxtpx:hr>170</gpxtpx:hr></gpxtpx:TrackPointExtension></extensions>
      </trkpt>
      <trkpt lat="59.9805822" lon="15.7965023">
        <ele>108.6</ele>
        <time>2012-10-30T19:23:48Z</time>
        <extensions><gpxtpx:TrackPointExtension><gpxtpx:hr>170</gpxtpx:hr></gpxtpx:TrackPointExtension></extensions>
      </trkpt>
      <trkpt lat="59.9806004" lon="15.7965366">
        <ele>108.6</ele>
        <time>2012-10-30T19:23:49Z</time>
        <extensions><gpxtpx:TrackPointExtension><gpxtpx:hr>169</gpxtpx:hr></gpxtpx:TrackPointExtension></extensions>
      </trkpt>
      <trkpt lat="59.9806202" lon="15.7965677">
        <ele>108.6</ele>
        <time>2012-10-30T19:23:50Z</time>
        <extensions><gpxtpx:TrackPointExtension><gpxtpx:hr>170</gpxtpx:hr></gpxtpx:TrackPointExtension></extensions>
      </trkpt>
      <trkpt lat="59.980637" lon="15.7965963">
        <ele>108.6</ele>
        <time>2012-10-30T19:23:51Z</time>
        <extensions><gpxtpx:TrackPointExtension><gpxtpx:hr>169</gpxtpx:hr></gpxtpx:TrackPointExtension></extensions>
      </trkpt>
      <trkpt lat="59.9806553" lon="15.7966269">
        <ele>108.6</ele>
        <time>2012-10-30T19:23:52Z</time>
        <extensions><gpxtpx:TrackPointExtension><gpxtpx:hr>170</gpxtpx:hr></gpxtpx:TrackPointExtension></extensions>
      </trkpt>
      <trkpt lat="59.980681" lon="15.7966625">
        <ele>108.6</ele>
        <time>2012-10-30T19:23:53Z</time>
        <extensions><gpxtpx:TrackPointExtension><gpxtpx:hr>170</gpxtpx:hr></gpxtpx:TrackPointExtension></extensions>
      </trkpt>
      <trkpt lat="59.9806999" lon="15.7966919">
        <ele>108.6</ele>
        <time>2012-10-30T19:23:54Z</time>
        <extensions><gpxtpx:TrackPointExtension><gpxtpx:hr>170</gpxtpx:hr></gpxtpx:TrackPointExtension></extensions>
      </trkpt>
      <trkpt lat="59.9807142" lon="15.7967182">
        <ele>108.6</ele>
        <time>2012-10-30T19:23:55Z</time>
        <extensions><gpxtpx:TrackPointExtension><gpxtpx:hr>169</gpxtpx:hr></gpxtpx:TrackPointExtension></extensions>
      </trkpt>
      <trkpt lat="59.9807575" lon="15.7967831">
        <ele>108.6</ele>
        <time>2012-10-30T19:23:57Z</time>
        <extensions><gpxtpx:TrackPointExtension><gpxtpx:hr>169</gpxtpx:hr></gpxtpx:TrackPointExtension></extensions>
      </trkpt>
      <trkpt lat="59.9808965" lon="15.7969842">
        <ele>108.6</ele>
        <time>2012-10-30T19:24:04Z</time>
        <extensions><gpxtpx:TrackPointExtension><gpxtpx:hr>170</gpxtpx:hr></gpxtpx:TrackPointExtension></extensions>
      </trkpt>
      <trkpt lat="59.9809743" lon="15.7971069">
        <ele>108.8</ele>
        <time>2012-10-30T19:24:08Z</time>
        <extensions><gpxtpx:TrackPointExtension><gpxtpx:hr>170</gpxtpx:hr></gpxtpx:TrackPointExtension></extensions>
      </trkpt>
      <trkpt lat="59.9809997" lon="15.7971453">
        <ele>105.6</ele>
        <time>2012-10-30T19:24:09Z</time>
        <extensions><gpxtpx:TrackPointExtension><gpxtpx:hr>170</gpxtpx:hr></gpxtpx:TrackPointExtension></extensions>
      </trkpt>
      <trkpt lat="59.9810154" lon="15.7971735">
        <ele>105.6</ele>
        <time>2012-10-30T19:24:10Z</time>
        <extensions><gpxtpx:TrackPointExtension><gpxtpx:hr>169</gpxtpx:hr></gpxtpx:TrackPointExtension></extensions>
      </trkpt>
      <trkpt lat="59.9810337" lon="15.7972042">
        <ele>105.6</ele>
        <time>2012-10-30T19:24:11Z</time>
        <extensions><gpxtpx:TrackPointExtension><gpxtpx:hr>169</gpxtpx:hr></gpxtpx:TrackPointExtension></extensions>
      </trkpt>
      <trkpt lat="59.9810556" lon="15.7972369">
        <ele>105.6</ele>
        <time>2012-10-30T19:24:12Z</time>
        <extensions><gpxtpx:TrackPointExtension><gpxtpx:hr>169</gpxtpx:hr></gpxtpx:TrackPointExtension></extensions>
      </trkpt>
      <trkpt lat="59.9810754" lon="15.797266">
        <ele>105.6</ele>
        <time>2012-10-30T19:24:13Z</time>
        <extensions><gpxtpx:TrackPointExtension><gpxtpx:hr>169</gpxtpx:hr></gpxtpx:TrackPointExtension></extensions>
      </trkpt>
      <trkpt lat="59.9810978" lon="15.7973006">
        <ele>105.6</ele>
        <time>2012-10-30T19:24:14Z</time>
        <extensions><gpxtpx:TrackPointExtension><gpxtpx:hr>169</gpxtpx:hr></gpxtpx:TrackPointExtension></extensions>
      </trkpt>
      <trkpt lat="59.981113" lon="15.7973235">
        <ele>105.6</ele>
        <time>2012-10-30T19:24:15Z</time>
        <extensions><gpxtpx:TrackPointExtension><gpxtpx:hr>169</gpxtpx:hr></gpxtpx:TrackPointExtension></extensions>
      </trkpt>
      <trkpt lat="59.9811418" lon="15.7973597">
        <ele>105.6</ele>
        <time>2012-10-30T19:24:16Z</time>
        <extensions><gpxtpx:TrackPointExtension><gpxtpx:hr>169</gpxtpx:hr></gpxtpx:TrackPointExtension></extensions>
      </trkpt>
      <trkpt lat="59.9811661" lon="15.7973893">
        <ele>105.6</ele>
        <time>2012-10-30T19:24:17Z</time>
        <extensions><gpxtpx:TrackPointExtension><gpxtpx:hr>169</gpxtpx:hr></gpxtpx:TrackPointExtension></extensions>
      </trkpt>
      <trkpt lat="59.9811882" lon="15.7974132">
        <ele>105.6</ele>
        <time>2012-10-30T19:24:18Z</time>
        <extensions><gpxtpx:TrackPointExtension><gpxtpx:hr>169</gpxtpx:hr></gpxtpx:TrackPointExtension></extensions>
      </trkpt>
      <trkpt lat="59.9812139" lon="15.7974376">
        <ele>105.6</ele>
        <time>2012-10-30T19:24:19Z</time>
        <extensions><gpxtpx:TrackPointExtension><gpxtpx:hr>168</gpxtpx:hr></gpxtpx:TrackPointExtension></extensions>
      </trkpt>
      <trkpt lat="59.9812301" lon="15.7974526">
        <ele>105.6</ele>
        <time>2012-10-30T19:24:20Z</time>
        <extensions><gpxtpx:TrackPointExtension><gpxtpx:hr>169</gpxtpx:hr></gpxtpx:TrackPointExtension></extensions>
      </trkpt>
      <trkpt lat="59.9812591" lon="15.7974786">
        <ele>105.6</ele>
        <time>2012-10-30T19:24:21Z</time>
        <extensions><gpxtpx:TrackPointExtension><gpxtpx:hr>169</gpxtpx:hr></gpxtpx:TrackPointExtension></extensions>
      </trkpt>
      <trkpt lat="59.9812801" lon="15.7974922">
        <ele>105.6</ele>
        <time>2012-10-30T19:24:22Z</time>
        <extensions><gpxtpx:TrackPointExtension><gpxtpx:hr>169</gpxtpx:hr></gpxtpx:TrackPointExtension></extensions>
      </trkpt>
      <trkpt lat="59.9813043" lon="15.7975083">
        <ele>105.6</ele>
        <time>2012-10-30T19:24:23Z</time>
        <extensions><gpxtpx:TrackPointExtension><gpxtpx:hr>168</gpxtpx:hr></gpxtpx:TrackPointExtension></extensions>
      </trkpt>
      <trkpt lat="59.981331" lon="15.7975307">
        <ele>105.6</ele>
        <time>2012-10-30T19:24:24Z</time>
        <extensions><gpxtpx:TrackPointExtension><gpxtpx:hr>168</gpxtpx:hr></gpxtpx:TrackPointExtension></extensions>
      </trkpt>
      <trkpt lat="59.9813593" lon="15.7975472">
        <ele>105.6</ele>
        <time>2012-10-30T19:24:25Z</time>
        <extensions><gpxtpx:TrackPointExtension><gpxtpx:hr>167</gpxtpx:hr></gpxtpx:TrackPointExtension></extensions>
      </trkpt>
      <trkpt lat="59.981378" lon="15.7975558">
        <ele>105.6</ele>
        <time>2012-10-30T19:24:26Z</time>
        <extensions><gpxtpx:TrackPointExtension><gpxtpx:hr>167</gpxtpx:hr></gpxtpx:TrackPointExtension></extensions>
      </trkpt>
      <trkpt lat="59.981407" lon="15.797576">
        <ele>105.6</ele>
        <time>2012-10-30T19:24:27Z</time>
        <extensions><gpxtpx:TrackPointExtension><gpxtpx:hr>167</gpxtpx:hr></gpxtpx:TrackPointExtension></extensions>
      </trkpt>
      <trkpt lat="59.9814335" lon="15.7975898">
        <ele>104.4</ele>
        <time>2012-10-30T19:24:28Z</time>
        <extensions><gpxtpx:TrackPointExtension><gpxtpx:hr>167</gpxtpx:hr></gpxtpx:TrackPointExtension></extensions>
      </trkpt>
      <trkpt lat="59.9814633" lon="15.797605">
        <ele>104.4</ele>
        <time>2012-10-30T19:24:29Z</time>
        <extensions><gpxtpx:TrackPointExtension><gpxtpx:hr>168</gpxtpx:hr></gpxtpx:TrackPointExtension></extensions>
      </trkpt>
      <trkpt lat="59.9814833" lon="15.7976157">
        <ele>104.4</ele>
        <time>2012-10-30T19:24:30Z</time>
        <extensions><gpxtpx:TrackPointExtension><gpxtpx:hr>167</gpxtpx:hr></gpxtpx:TrackPointExtension></extensions>
      </trkpt>
      <trkpt lat="59.9815218" lon="15.7976308">
        <ele>104.4</ele>
        <time>2012-10-30T19:24:31Z</time>
        <extensions><gpxtpx:TrackPointExtension><gpxtpx:hr>167</gpxtpx:hr></gpxtpx:TrackPointExtension></extensions>
      </trkpt>
      <trkpt lat="59.9815396" lon="15.7976412">
        <ele>104.4</ele>
        <time>2012-10-30T19:24:32Z</time>
        <extensions><gpxtpx:TrackPointExtension><gpxtpx:hr>167</gpxtpx:hr></gpxtpx:TrackPointExtension></extensions>
      </trkpt>
      <trkpt lat="59.981567" lon="15.7976612">
        <ele>104.4</ele>
        <time>2012-10-30T19:24:33Z</time>
        <extensions><gpxtpx:TrackPointExtension><gpxtpx:hr>166</gpxtpx:hr></gpxtpx:TrackPointExtension></extensions>
      </trkpt>
      <trkpt lat="59.9815997" lon="15.7976946">
        <ele>103.2</ele>
        <time>2012-10-30T19:24:34Z</time>
        <extensions><gpxtpx:TrackPointExtension><gpxtpx:hr>167</gpxtpx:hr></gpxtpx:TrackPointExtension></extensions>
      </trkpt>
      <trkpt lat="59.9816243" lon="15.7977199">
        <ele>103.2</ele>
        <time>2012-10-30T19:24:35Z</time>
        <extensions><gpxtpx:TrackPointExtension><gpxtpx:hr>167</gpxtpx:hr></gpxtpx:TrackPointExtension></extensions>
      </trkpt>
      <trkpt lat="59.9817255" lon="15.7977146">
        <ele>103.2</ele>
        <time>2012-10-30T19:24:38Z</time>
        <extensions><gpxtpx:TrackPointExtension><gpxtpx:hr>167</gpxtpx:hr></gpxtpx:TrackPointExtension></extensions>
      </trkpt>
      <trkpt lat="59.981744" lon="15.7977607">
        <ele>103.2</ele>
        <time>2012-10-30T19:24:39Z</time>
        <extensions><gpxtpx:TrackPointExtension><gpxtpx:hr>168</gpxtpx:hr></gpxtpx:TrackPointExtension></extensions>
      </trkpt>
      <trkpt lat="59.9817654" lon="15.7977825">
        <ele>103.2</ele>
        <time>2012-10-30T19:24:40Z</time>
        <extensions><gpxtpx:TrackPointExtension><gpxtpx:hr>168</gpxtpx:hr></gpxtpx:TrackPointExtension></extensions>
      </trkpt>
      <trkpt lat="59.9817872" lon="15.7978014">
        <ele>103.2</ele>
        <time>2012-10-30T19:24:41Z</time>
        <extensions><gpxtpx:TrackPointExtension><gpxtpx:hr>168</gpxtpx:hr></gpxtpx:TrackPointExtension></extensions>
      </trkpt>
      <trkpt lat="59.9818069" lon="15.7978162">
        <ele>103.2</ele>
        <time>2012-10-30T19:24:42Z</time>
        <extensions><gpxtpx:TrackPointExtension><gpxtpx:hr>168</gpxtpx:hr></gpxtpx:TrackPointExtension></extensions>
      </trkpt>
      <trkpt lat="59.9818327" lon="15.7978311">
        <ele>103.2</ele>
        <time>2012-10-30T19:24:43Z</time>
        <extensions><gpxtpx:TrackPointExtension><gpxtpx:hr>168</gpxtpx:hr></gpxtpx:TrackPointExtension></extensions>
      </trkpt>
      <trkpt lat="59.9818608" lon="15.7978428">
        <ele>103.2</ele>
        <time>2012-10-30T19:24:44Z</time>
        <extensions><gpxtpx:TrackPointExtension><gpxtpx:hr>168</gpxtpx:hr></gpxtpx:TrackPointExtension></extensions>
      </trkpt>
      <trkpt lat="59.981911" lon="15.7978658">
        <ele>103.2</ele>
        <time>2012-10-30T19:24:46Z</time>
        <extensions><gpxtpx:TrackPointExtension><gpxtpx:hr>168</gpxtpx:hr></gpxtpx:TrackPointExtension></extensions>
      </trkpt>
      <trkpt lat="59.9819599" lon="15.7978943">
        <ele>103.2</ele>
        <time>2012-10-30T19:24:48Z</time>
        <extensions><gpxtpx:TrackPointExtension><gpxtpx:hr>169</gpxtpx:hr></gpxtpx:TrackPointExtension></extensions>
      </trkpt>
      <trkpt lat="59.9819896" lon="15.7979125">
        <ele>103.2</ele>
        <time>2012-10-30T19:24:49Z</time>
        <extensions><gpxtpx:TrackPointExtension><gpxtpx:hr>169</gpxtpx:hr></gpxtpx:TrackPointExtension></extensions>
      </trkpt>
      <trkpt lat="59.9820078" lon="15.7979237">
        <ele>103.2</ele>
        <time>2012-10-30T19:24:50Z</time>
        <extensions><gpxtpx:TrackPointExtension><gpxtpx:hr>170</gpxtpx:hr></gpxtpx:TrackPointExtension></extensions>
      </trkpt>
      <trkpt lat="59.9820555" lon="15.7979497">
        <ele>103.2</ele>
        <time>2012-10-30T19:24:52Z</time>
        <extensions><gpxtpx:TrackPointExtension><gpxtpx:hr>170</gpxtpx:hr></gpxtpx:TrackPointExtension></extensions>
      </trkpt>
      <trkpt lat="59.9820791" lon="15.7979645">
        <ele>103.2</ele>
        <time>2012-10-30T19:24:53Z</time>
        <extensions><gpxtpx:TrackPointExtension><gpxtpx:hr>169</gpxtpx:hr></gpxtpx:TrackPointExtension></extensions>
      </trkpt>
      <trkpt lat="59.982109" lon="15.7979806">
        <ele>103.2</ele>
        <time>2012-10-30T19:24:54Z</time>
        <extensions><gpxtpx:TrackPointExtension><gpxtpx:hr>169</gpxtpx:hr></gpxtpx:TrackPointExtension></extensions>
      </trkpt>
      <trkpt lat="59.9821372" lon="15.7979929">
        <ele>103.2</ele>
        <time>2012-10-30T19:24:55Z</time>
        <extensions><gpxtpx:TrackPointExtension><gpxtpx:hr>170</gpxtpx:hr></gpxtpx:TrackPointExtension></extensions>
      </trkpt>
      <trkpt lat="59.9821571" lon="15.79801">
        <ele>103.2</ele>
        <time>2012-10-30T19:24:56Z</time>
        <extensions><gpxtpx:TrackPointExtension><gpxtpx:hr>170</gpxtpx:hr></gpxtpx:TrackPointExtension></extensions>
      </trkpt>
      <trkpt lat="59.9821799" lon="15.7980248">
        <ele>103.2</ele>
        <time>2012-10-30T19:24:57Z</time>
        <extensions><gpxtpx:TrackPointExtension><gpxtpx:hr>170</gpxtpx:hr></gpxtpx:TrackPointExtension></extensions>
      </trkpt>
      <trkpt lat="59.9822007" lon="15.7980373">
        <ele>103.2</ele>
        <time>2012-10-30T19:24:58Z</time>
        <extensions><gpxtpx:TrackPointExtension><gpxtpx:hr>170</gpxtpx:hr></gpxtpx:TrackPointExtension></extensions>
      </trkpt>
      <trkpt lat="59.9822366" lon="15.7980582">
        <ele>103.2</ele>
        <time>2012-10-30T19:24:59Z</time>
        <extensions><gpxtpx:TrackPointExtension><gpxtpx:hr>170</gpxtpx:hr></gpxtpx:TrackPointExtension></extensions>
      </trkpt>
      <trkpt lat="59.982256" lon="15.7980666">
        <ele>103.2</ele>
        <time>2012-10-30T19:25:00Z</time>
        <extensions><gpxtpx:TrackPointExtension><gpxtpx:hr>170</gpxtpx:hr></gpxtpx:TrackPointExtension></extensions>
      </trkpt>
      <trkpt lat="59.9822848" lon="15.7980856">
        <ele>103.2</ele>
        <time>2012-10-30T19:25:01Z</time>
        <extensions><gpxtpx:TrackPointExtension><gpxtpx:hr>170</gpxtpx:hr></gpxtpx:TrackPointExtension></extensions>
      </trkpt>
      <trkpt lat="59.9823042" lon="15.7980972">
        <ele>103.2</ele>
        <time>2012-10-30T19:25:02Z</time>
        <extensions><gpxtpx:TrackPointExtension><gpxtpx:hr>170</gpxtpx:hr></gpxtpx:TrackPointExtension></extensions>
      </trkpt>
      <trkpt lat="59.9823261" lon="15.7981094">
        <ele>103.2</ele>
        <time>2012-10-30T19:25:03Z</time>
        <extensions><gpxtpx:TrackPointExtension><gpxtpx:hr>170</gpxtpx:hr></gpxtpx:TrackPointExtension></extensions>
      </trkpt>
      <trkpt lat="59.9823519" lon="15.7981342">
        <ele>103.2</ele>
        <time>2012-10-30T19:25:04Z</time>
        <extensions><gpxtpx:TrackPointExtension><gpxtpx:hr>170</gpxtpx:hr></gpxtpx:TrackPointExtension></extensions>
      </trkpt>
      <trkpt lat="59.9823818" lon="15.7981539">
        <ele>103.2</ele>
        <time>2012-10-30T19:25:05Z</time>
        <extensions><gpxtpx:TrackPointExtension><gpxtpx:hr>170</gpxtpx:hr></gpxtpx:TrackPointExtension></extensions>
      </trkpt>
      <trkpt lat="59.9823991" lon="15.798167">
        <ele>103.2</ele>
        <time>2012-10-30T19:25:06Z</time>
        <extensions><gpxtpx:TrackPointExtension><gpxtpx:hr>170</gpxtpx:hr></gpxtpx:TrackPointExtension></extensions>
      </trkpt>
      <trkpt lat="59.9824249" lon="15.798185">
        <ele>103.2</ele>
        <time>2012-10-30T19:25:07Z</time>
        <extensions><gpxtpx:TrackPointExtension><gpxtpx:hr>171</gpxtpx:hr></gpxtpx:TrackPointExtension></extensions>
      </trkpt>
      <trkpt lat="59.9824492" lon="15.7981995">
        <ele>103.2</ele>
        <time>2012-10-30T19:25:08Z</time>
        <extensions><gpxtpx:TrackPointExtension><gpxtpx:hr>170</gpxtpx:hr></gpxtpx:TrackPointExtension></extensions>
      </trkpt>
      <trkpt lat="59.9824689" lon="15.7982164">
        <ele>103.2</ele>
        <time>2012-10-30T19:25:09Z</time>
        <extensions><gpxtpx:TrackPointExtension><gpxtpx:hr>170</gpxtpx:hr></gpxtpx:TrackPointExtension></extensions>
      </trkpt>
      <trkpt lat="59.9824911" lon="15.7982345">
        <ele>103.2</ele>
        <time>2012-10-30T19:25:10Z</time>
        <extensions><gpxtpx:TrackPointExtension><gpxtpx:hr>170</gpxtpx:hr></gpxtpx:TrackPointExtension></extensions>
      </trkpt>
      <trkpt lat="59.9825243" lon="15.79826">
        <ele>103.2</ele>
        <time>2012-10-30T19:25:11Z</time>
        <extensions><gpxtpx:TrackPointExtension><gpxtpx:hr>170</gpxtpx:hr></gpxtpx:TrackPointExtension></extensions>
      </trkpt>
      <trkpt lat="59.9825896" lon="15.7983185">
        <ele>103.2</ele>
        <time>2012-10-30T19:25:14Z</time>
        <extensions><gpxtpx:TrackPointExtension><gpxtpx:hr>171</gpxtpx:hr></gpxtpx:TrackPointExtension></extensions>
      </trkpt>
      <trkpt lat="59.9826093" lon="15.7983331">
        <ele>103.2</ele>
        <time>2012-10-30T19:25:15Z</time>
        <extensions><gpxtpx:TrackPointExtension><gpxtpx:hr>171</gpxtpx:hr></gpxtpx:TrackPointExtension></extensions>
      </trkpt>
      <trkpt lat="59.9826366" lon="15.7983607">
        <ele>103.2</ele>
        <time>2012-10-30T19:25:16Z</time>
        <extensions><gpxtpx:TrackPointExtension><gpxtpx:hr>170</gpxtpx:hr></gpxtpx:TrackPointExtension></extensions>
      </trkpt>
      <trkpt lat="59.982686" lon="15.7984133">
        <ele>103.2</ele>
        <time>2012-10-30T19:25:18Z</time>
        <extensions><gpxtpx:TrackPointExtension><gpxtpx:hr>170</gpxtpx:hr></gpxtpx:TrackPointExtension></extensions>
      </trkpt>
      <trkpt lat="59.9826759" lon="15.7984074">
        <ele>103.2</ele>
        <time>2012-10-30T19:25:19Z</time>
        <extensions><gpxtpx:TrackPointExtension><gpxtpx:hr>170</gpxtpx:hr></gpxtpx:TrackPointExtension></extensions>
      </trkpt>
      <trkpt lat="59.9827054" lon="15.7984453">
        <ele>103.2</ele>
        <time>2012-10-30T19:25:20Z</time>
        <extensions><gpxtpx:TrackPointExtension><gpxtpx:hr>170</gpxtpx:hr></gpxtpx:TrackPointExtension></extensions>
      </trkpt>
      <trkpt lat="59.9827297" lon="15.7984744">
        <ele>103.2</ele>
        <time>2012-10-30T19:25:21Z</time>
        <extensions><gpxtpx:TrackPointExtension><gpxtpx:hr>170</gpxtpx:hr></gpxtpx:TrackPointExtension></extensions>
      </trkpt>
      <trkpt lat="59.9827872" lon="15.7985491">
        <ele>103.2</ele>
        <time>2012-10-30T19:25:23Z</time>
        <extensions><gpxtpx:TrackPointExtension><gpxtpx:hr>169</gpxtpx:hr></gpxtpx:TrackPointExtension></extensions>
      </trkpt>
      <trkpt lat="59.9828664" lon="15.7986528">
        <ele>103.2</ele>
        <time>2012-10-30T19:25:27Z</time>
        <extensions><gpxtpx:TrackPointExtension><gpxtpx:hr>168</gpxtpx:hr></gpxtpx:TrackPointExtension></extensions>
      </trkpt>
      <trkpt lat="59.9828947" lon="15.798691">
        <ele>103.2</ele>
        <time>2012-10-30T19:25:28Z</time>
        <extensions><gpxtpx:TrackPointExtension><gpxtpx:hr>167</gpxtpx:hr></gpxtpx:TrackPointExtension></extensions>
      </trkpt>
      <trkpt lat="59.9829147" lon="15.7987149">
        <ele>103.2</ele>
        <time>2012-10-30T19:25:29Z</time>
        <extensions><gpxtpx:TrackPointExtension><gpxtpx:hr>167</gpxtpx:hr></gpxtpx:TrackPointExtension></extensions>
      </trkpt>
      <trkpt lat="59.9829343" lon="15.7987405">
        <ele>103.2</ele>
        <time>2012-10-30T19:25:30Z</time>
        <extensions><gpxtpx:TrackPointExtension><gpxtpx:hr>166</gpxtpx:hr></gpxtpx:TrackPointExtension></extensions>
      </trkpt>
      <trkpt lat="59.9829525" lon="15.7987694">
        <ele>103.2</ele>
        <time>2012-10-30T19:25:31Z</time>
        <extensions><gpxtpx:TrackPointExtension><gpxtpx:hr>165</gpxtpx:hr></gpxtpx:TrackPointExtension></extensions>
      </trkpt>
      <trkpt lat="59.9829792" lon="15.7988024">
        <ele>103.2</ele>
        <time>2012-10-30T19:25:32Z</time>
        <extensions><gpxtpx:TrackPointExtension><gpxtpx:hr>165</gpxtpx:hr></gpxtpx:TrackPointExtension></extensions>
      </trkpt>
      <trkpt lat="59.9829936" lon="15.7988215">
        <ele>103.2</ele>
        <time>2012-10-30T19:25:33Z</time>
        <extensions><gpxtpx:TrackPointExtension><gpxtpx:hr>165</gpxtpx:hr></gpxtpx:TrackPointExtension></extensions>
      </trkpt>
      <trkpt lat="59.9830205" lon="15.7988582">
        <ele>103.2</ele>
        <time>2012-10-30T19:25:34Z</time>
        <extensions><gpxtpx:TrackPointExtension><gpxtpx:hr>165</gpxtpx:hr></gpxtpx:TrackPointExtension></extensions>
      </trkpt>
      <trkpt lat="59.9830354" lon="15.7988798">
        <ele>103.2</ele>
        <time>2012-10-30T19:25:35Z</time>
        <extensions><gpxtpx:TrackPointExtension><gpxtpx:hr>165</gpxtpx:hr></gpxtpx:TrackPointExtension></extensions>
      </trkpt>
      <trkpt lat="59.983061" lon="15.7989174">
        <ele>103.2</ele>
        <time>2012-10-30T19:25:36Z</time>
        <extensions><gpxtpx:TrackPointExtension><gpxtpx:hr>166</gpxtpx:hr></gpxtpx:TrackPointExtension></extensions>
      </trkpt>
      <trkpt lat="59.9830729" lon="15.7989341">
        <ele>103.2</ele>
        <time>2012-10-30T19:25:37Z</time>
        <extensions><gpxtpx:TrackPointExtension><gpxtpx:hr>166</gpxtpx:hr></gpxtpx:TrackPointExtension></extensions>
      </trkpt>
      <trkpt lat="59.983103" lon="15.7989771">
        <ele>103.2</ele>
        <time>2012-10-30T19:25:38Z</time>
        <extensions><gpxtpx:TrackPointExtension><gpxtpx:hr>167</gpxtpx:hr></gpxtpx:TrackPointExtension></extensions>
      </trkpt>
      <trkpt lat="59.9831179" lon="15.7989967">
        <ele>103.2</ele>
        <time>2012-10-30T19:25:39Z</time>
        <extensions><gpxtpx:TrackPointExtension><gpxtpx:hr>168</gpxtpx:hr></gpxtpx:TrackPointExtension></extensions>
      </trkpt>
      <trkpt lat="59.9831445" lon="15.7990329">
        <ele>103.2</ele>
        <time>2012-10-30T19:25:40Z</time>
        <extensions><gpxtpx:TrackPointExtension><gpxtpx:hr>168</gpxtpx:hr></gpxtpx:TrackPointExtension></extensions>
      </trkpt>
      <trkpt lat="59.983164" lon="15.7990533">
        <ele>103.2</ele>
        <time>2012-10-30T19:25:41Z</time>
        <extensions><gpxtpx:TrackPointExtension><gpxtpx:hr>169</gpxtpx:hr></gpxtpx:TrackPointExtension></extensions>
      </trkpt>
      <trkpt lat="59.9831855" lon="15.7990821">
        <ele>103.2</ele>
        <time>2012-10-30T19:25:42Z</time>
        <extensions><gpxtpx:TrackPointExtension><gpxtpx:hr>169</gpxtpx:hr></gpxtpx:TrackPointExtension></extensions>
      </trkpt>
      <trkpt lat="59.9832029" lon="15.7991063">
        <ele>103.2</ele>
        <time>2012-10-30T19:25:43Z</time>
        <extensions><gpxtpx:TrackPointExtension><gpxtpx:hr>169</gpxtpx:hr></gpxtpx:TrackPointExtension></extensions>
      </trkpt>
      <trkpt lat="59.9832304" lon="15.7991406">
        <ele>103.2</ele>
        <time>2012-10-30T19:25:44Z</time>
        <extensions><gpxtpx:TrackPointExtension><gpxtpx:hr>169</gpxtpx:hr></gpxtpx:TrackPointExtension></extensions>
      </trkpt>
      <trkpt lat="59.9832423" lon="15.7991595">
        <ele>103.2</ele>
        <time>2012-10-30T19:25:45Z</time>
        <extensions><gpxtpx:TrackPointExtension><gpxtpx:hr>169</gpxtpx:hr></gpxtpx:TrackPointExtension></extensions>
      </trkpt>
      <trkpt lat="59.9832705" lon="15.7991981">
        <ele>103.2</ele>
        <time>2012-10-30T19:25:46Z</time>
        <extensions><gpxtpx:TrackPointExtension><gpxtpx:hr>170</gpxtpx:hr></gpxtpx:TrackPointExtension></extensions>
      </trkpt>
      <trkpt lat="59.983314" lon="15.7992536">
        <ele>103.2</ele>
        <time>2012-10-30T19:25:48Z</time>
        <extensions><gpxtpx:TrackPointExtension><gpxtpx:hr>171</gpxtpx:hr></gpxtpx:TrackPointExtension></extensions>
      </trkpt>
      <trkpt lat="59.9833314" lon="15.7992807">
        <ele>103.2</ele>
        <time>2012-10-30T19:25:49Z</time>
        <extensions><gpxtpx:TrackPointExtension><gpxtpx:hr>171</gpxtpx:hr></gpxtpx:TrackPointExtension></extensions>
      </trkpt>
      <trkpt lat="59.9833553" lon="15.7993084">
        <ele>103.2</ele>
        <time>2012-10-30T19:25:50Z</time>
        <extensions><gpxtpx:TrackPointExtension><gpxtpx:hr>171</gpxtpx:hr></gpxtpx:TrackPointExtension></extensions>
      </trkpt>
      <trkpt lat="59.9833732" lon="15.7993318">
        <ele>103.2</ele>
        <time>2012-10-30T19:25:51Z</time>
        <extensions><gpxtpx:TrackPointExtension><gpxtpx:hr>171</gpxtpx:hr></gpxtpx:TrackPointExtension></extensions>
      </trkpt>
      <trkpt lat="59.9833967" lon="15.7993634">
        <ele>103.2</ele>
        <time>2012-10-30T19:25:52Z</time>
        <extensions><gpxtpx:TrackPointExtension><gpxtpx:hr>172</gpxtpx:hr></gpxtpx:TrackPointExtension></extensions>
      </trkpt>
      <trkpt lat="59.9834163" lon="15.7993855">
        <ele>103.2</ele>
        <time>2012-10-30T19:25:53Z</time>
        <extensions><gpxtpx:TrackPointExtension><gpxtpx:hr>171</gpxtpx:hr></gpxtpx:TrackPointExtension></extensions>
      </trkpt>
      <trkpt lat="59.983441" lon="15.7994198">
        <ele>103.2</ele>
        <time>2012-10-30T19:25:54Z</time>
        <extensions><gpxtpx:TrackPointExtension><gpxtpx:hr>171</gpxtpx:hr></gpxtpx:TrackPointExtension></extensions>
      </trkpt>
      <trkpt lat="59.9834552" lon="15.7994349">
        <ele>103.2</ele>
        <time>2012-10-30T19:25:55Z</time>
        <extensions><gpxtpx:TrackPointExtension><gpxtpx:hr>172</gpxtpx:hr></gpxtpx:TrackPointExtension></extensions>
      </trkpt>
      <trkpt lat="59.983486" lon="15.7994742">
        <ele>103.2</ele>
        <time>2012-10-30T19:25:56Z</time>
        <extensions><gpxtpx:TrackPointExtension><gpxtpx:hr>171</gpxtpx:hr></gpxtpx:TrackPointExtension></extensions>
      </trkpt>
      <trkpt lat="59.9834958" lon="15.7994882">
        <ele>103.2</ele>
        <time>2012-10-30T19:25:57Z</time>
        <extensions><gpxtpx:TrackPointExtension><gpxtpx:hr>172</gpxtpx:hr></gpxtpx:TrackPointExtension></extensions>
      </trkpt>
      <trkpt lat="59.9835256" lon="15.799527">
        <ele>103.2</ele>
        <time>2012-10-30T19:25:58Z</time>
        <extensions><gpxtpx:TrackPointExtension><gpxtpx:hr>172</gpxtpx:hr></gpxtpx:TrackPointExtension></extensions>
      </trkpt>
      <trkpt lat="59.9835428" lon="15.7995481">
        <ele>103.2</ele>
        <time>2012-10-30T19:25:59Z</time>
        <extensions><gpxtpx:TrackPointExtension><gpxtpx:hr>171</gpxtpx:hr></gpxtpx:TrackPointExtension></extensions>
      </trkpt>
      <trkpt lat="59.9835662" lon="15.7995827">
        <ele>103.2</ele>
        <time>2012-10-30T19:26:00Z</time>
        <extensions><gpxtpx:TrackPointExtension><gpxtpx:hr>171</gpxtpx:hr></gpxtpx:TrackPointExtension></extensions>
      </trkpt>
      <trkpt lat="59.9835826" lon="15.7996022">
        <ele>103.2</ele>
        <time>2012-10-30T19:26:01Z</time>
        <extensions><gpxtpx:TrackPointExtension><gpxtpx:hr>171</gpxtpx:hr></gpxtpx:TrackPointExtension></extensions>
      </trkpt>
      <trkpt lat="59.9836094" lon="15.7996358">
        <ele>103.2</ele>
        <time>2012-10-30T19:26:02Z</time>
        <extensions><gpxtpx:TrackPointExtension><gpxtpx:hr>172</gpxtpx:hr></gpxtpx:TrackPointExtension></extensions>
      </trkpt>
      <trkpt lat="59.9836235" lon="15.7996531">
        <ele>103.2</ele>
        <time>2012-10-30T19:26:03Z</time>
        <extensions><gpxtpx:TrackPointExtension><gpxtpx:hr>172</gpxtpx:hr></gpxtpx:TrackPointExtension></extensions>
      </trkpt>
      <trkpt lat="59.9836531" lon="15.7996945">
        <ele>103.2</ele>
        <time>2012-10-30T19:26:04Z</time>
        <extensions><gpxtpx:TrackPointExtension><gpxtpx:hr>172</gpxtpx:hr></gpxtpx:TrackPointExtension></extensions>
      </trkpt>
      <trkpt lat="59.9836941" lon="15.7997509">
        <ele>103.2</ele>
        <time>2012-10-30T19:26:06Z</time>
        <extensions><gpxtpx:TrackPointExtension><gpxtpx:hr>171</gpxtpx:hr></gpxtpx:TrackPointExtension></extensions>
      </trkpt>
      <trkpt lat="59.9838313" lon="15.7999529">
        <ele>103.2</ele>
        <time>2012-10-30T19:26:13Z</time>
        <extensions><gpxtpx:TrackPointExtension><gpxtpx:hr>171</gpxtpx:hr></gpxtpx:TrackPointExtension></extensions>
      </trkpt>
      <trkpt lat="59.9838585" lon="15.7999998">
        <ele>103.2</ele>
        <time>2012-10-30T19:26:14Z</time>
        <extensions><gpxtpx:TrackPointExtension><gpxtpx:hr>171</gpxtpx:hr></gpxtpx:TrackPointExtension></extensions>
      </trkpt>
      <trkpt lat="59.9838704" lon="15.8000131">
        <ele>103.2</ele>
        <time>2012-10-30T19:26:15Z</time>
        <extensions><gpxtpx:TrackPointExtension><gpxtpx:hr>171</gpxtpx:hr></gpxtpx:TrackPointExtension></extensions>
      </trkpt>
      <trkpt lat="59.983946" lon="15.8001446">
        <ele>103.2</ele>
        <time>2012-10-30T19:26:19Z</time>
        <extensions><gpxtpx:TrackPointExtension><gpxtpx:hr>171</gpxtpx:hr></gpxtpx:TrackPointExtension></extensions>
      </trkpt>
      <trkpt lat="59.9840688" lon="15.800417">
        <ele>103.2</ele>
        <time>2012-10-30T19:26:26Z</time>
        <extensions><gpxtpx:TrackPointExtension><gpxtpx:hr>171</gpxtpx:hr></gpxtpx:TrackPointExtension></extensions>
      </trkpt>
      <trkpt lat="59.9840747" lon="15.8004456">
        <ele>103.2</ele>
        <time>2012-10-30T19:26:27Z</time>
        <extensions><gpxtpx:TrackPointExtension><gpxtpx:hr>171</gpxtpx:hr></gpxtpx:TrackPointExtension></extensions>
      </trkpt>
      <trkpt lat="59.9840912" lon="15.8005098">
        <ele>103.2</ele>
        <time>2012-10-30T19:26:28Z</time>
        <extensions><gpxtpx:TrackPointExtension><gpxtpx:hr>171</gpxtpx:hr></gpxtpx:TrackPointExtension></extensions>
      </trkpt>
      <trkpt lat="59.9840986" lon="15.8005471">
        <ele>103.2</ele>
        <time>2012-10-30T19:26:29Z</time>
        <extensions><gpxtpx:TrackPointExtension><gpxtpx:hr>171</gpxtpx:hr></gpxtpx:TrackPointExtension></extensions>
      </trkpt>
      <trkpt lat="59.9841134" lon="15.8006031">
        <ele>103.2</ele>
        <time>2012-10-30T19:26:30Z</time>
        <extensions><gpxtpx:TrackPointExtension><gpxtpx:hr>170</gpxtpx:hr></gpxtpx:TrackPointExtension></extensions>
      </trkpt>
      <trkpt lat="59.9841246" lon="15.8006429">
        <ele>103.2</ele>
        <time>2012-10-30T19:26:31Z</time>
        <extensions><gpxtpx:TrackPointExtension><gpxtpx:hr>171</gpxtpx:hr></gpxtpx:TrackPointExtension></extensions>
      </trkpt>
      <trkpt lat="59.9841379" lon="15.800695">
        <ele>103.2</ele>
        <time>2012-10-30T19:26:32Z</time>
        <extensions><gpxtpx:TrackPointExtension><gpxtpx:hr>171</gpxtpx:hr></gpxtpx:TrackPointExtension></extensions>
      </trkpt>
      <trkpt lat="59.9841479" lon="15.8007282">
        <ele>103.2</ele>
        <time>2012-10-30T19:26:33Z</time>
        <extensions><gpxtpx:TrackPointExtension><gpxtpx:hr>171</gpxtpx:hr></gpxtpx:TrackPointExtension></extensions>
      </trkpt>
      <trkpt lat="59.9841657" lon="15.80079">
        <ele>103.2</ele>
        <time>2012-10-30T19:26:34Z</time>
        <extensions><gpxtpx:TrackPointExtension><gpxtpx:hr>171</gpxtpx:hr></gpxtpx:TrackPointExtension></extensions>
      </trkpt>
      <trkpt lat="59.9841727" lon="15.800819">
        <ele>103.2</ele>
        <time>2012-10-30T19:26:35Z</time>
        <extensions><gpxtpx:TrackPointExtension><gpxtpx:hr>170</gpxtpx:hr></gpxtpx:TrackPointExtension></extensions>
      </trkpt>
      <trkpt lat="59.9841911" lon="15.8008803">
        <ele>103.2</ele>
        <time>2012-10-30T19:26:36Z</time>
        <extensions><gpxtpx:TrackPointExtension><gpxtpx:hr>171</gpxtpx:hr></gpxtpx:TrackPointExtension></extensions>
      </trkpt>
      <trkpt lat="59.9842007" lon="15.8009049">
        <ele>103.2</ele>
        <time>2012-10-30T19:26:37Z</time>
        <extensions><gpxtpx:TrackPointExtension><gpxtpx:hr>171</gpxtpx:hr></gpxtpx:TrackPointExtension></extensions>
      </trkpt>
      <trkpt lat="59.9842179" lon="15.8009608">
        <ele>103.2</ele>
        <time>2012-10-30T19:26:38Z</time>
        <extensions><gpxtpx:TrackPointExtension><gpxtpx:hr>170</gpxtpx:hr></gpxtpx:TrackPointExtension></extensions>
      </trkpt>
      <trkpt lat="59.9842272" lon="15.8009944">
        <ele>103.2</ele>
        <time>2012-10-30T19:26:39Z</time>
        <extensions><gpxtpx:TrackPointExtension><gpxtpx:hr>170</gpxtpx:hr></gpxtpx:TrackPointExtension></extensions>
      </trkpt>
      <trkpt lat="59.9842423" lon="15.8010561">
        <ele>103.2</ele>
        <time>2012-10-30T19:26:40Z</time>
        <extensions><gpxtpx:TrackPointExtension><gpxtpx:hr>170</gpxtpx:hr></gpxtpx:TrackPointExtension></extensions>
      </trkpt>
      <trkpt lat="59.9842536" lon="15.801092">
        <ele>103.2</ele>
        <time>2012-10-30T19:26:41Z</time>
        <extensions><gpxtpx:TrackPointExtension><gpxtpx:hr>171</gpxtpx:hr></gpxtpx:TrackPointExtension></extensions>
      </trkpt>
      <trkpt lat="59.9842688" lon="15.8011439">
        <ele>103.2</ele>
        <time>2012-10-30T19:26:42Z</time>
        <extensions><gpxtpx:TrackPointExtension><gpxtpx:hr>170</gpxtpx:hr></gpxtpx:TrackPointExtension></extensions>
      </trkpt>
      <trkpt lat="59.9842804" lon="15.8011768">
        <ele>103.2</ele>
        <time>2012-10-30T19:26:43Z</time>
        <extensions><gpxtpx:TrackPointExtension><gpxtpx:hr>170</gpxtpx:hr></gpxtpx:TrackPointExtension></extensions>
      </trkpt>
      <trkpt lat="59.9842941" lon="15.8012274">
        <ele>103.2</ele>
        <time>2012-10-30T19:26:44Z</time>
        <extensions><gpxtpx:TrackPointExtension><gpxtpx:hr>170</gpxtpx:hr></gpxtpx:TrackPointExtension></extensions>
      </trkpt>
      <trkpt lat="59.9843011" lon="15.8012542">
        <ele>103.2</ele>
        <time>2012-10-30T19:26:45Z</time>
        <extensions><gpxtpx:TrackPointExtension><gpxtpx:hr>170</gpxtpx:hr></gpxtpx:TrackPointExtension></extensions>
      </trkpt>
      <trkpt lat="59.984322" lon="15.8013135">
        <ele>103.2</ele>
        <time>2012-10-30T19:26:46Z</time>
        <extensions><gpxtpx:TrackPointExtension><gpxtpx:hr>170</gpxtpx:hr></gpxtpx:TrackPointExtension></extensions>
      </trkpt>
      <trkpt lat="59.9843456" lon="15.8013983">
        <ele>103.2</ele>
        <time>2012-10-30T19:26:48Z</time>
        <extensions><gpxtpx:TrackPointExtension><gpxtpx:hr>170</gpxtpx:hr></gpxtpx:TrackPointExtension></extensions>
      </trkpt>
      <trkpt lat="59.9843567" lon="15.8014309">
        <ele>103.2</ele>
        <time>2012-10-30T19:26:49Z</time>
        <extensions><gpxtpx:TrackPointExtension><gpxtpx:hr>170</gpxtpx:hr></gpxtpx:TrackPointExtension></extensions>
      </trkpt>
      <trkpt lat="59.9843736" lon="15.8014702">
        <ele>103.2</ele>
        <time>2012-10-30T19:26:50Z</time>
        <extensions><gpxtpx:TrackPointExtension><gpxtpx:hr>170</gpxtpx:hr></gpxtpx:TrackPointExtension></extensions>
      </trkpt>
      <trkpt lat="59.9843783" lon="15.8014992">
        <ele>103.2</ele>
        <time>2012-10-30T19:26:51Z</time>
        <extensions><gpxtpx:TrackPointExtension><gpxtpx:hr>170</gpxtpx:hr></gpxtpx:TrackPointExtension></extensions>
      </trkpt>
      <trkpt lat="59.9843994" lon="15.8015571">
        <ele>103.2</ele>
        <time>2012-10-30T19:26:52Z</time>
        <extensions><gpxtpx:TrackPointExtension><gpxtpx:hr>170</gpxtpx:hr></gpxtpx:TrackPointExtension></extensions>
      </trkpt>
      <trkpt lat="59.9844607" lon="15.8017287">
        <ele>103.2</ele>
        <time>2012-10-30T19:26:56Z</time>
        <extensions><gpxtpx:TrackPointExtension><gpxtpx:hr>169</gpxtpx:hr></gpxtpx:TrackPointExtension></extensions>
      </trkpt>
      <trkpt lat="59.9844656" lon="15.8017533">
        <ele>103.2</ele>
        <time>2012-10-30T19:26:57Z</time>
        <extensions><gpxtpx:TrackPointExtension><gpxtpx:hr>170</gpxtpx:hr></gpxtpx:TrackPointExtension></extensions>
      </trkpt>
      <trkpt lat="59.9844847" lon="15.8018186">
        <ele>103.2</ele>
        <time>2012-10-30T19:26:58Z</time>
        <extensions><gpxtpx:TrackPointExtension><gpxtpx:hr>169</gpxtpx:hr></gpxtpx:TrackPointExtension></extensions>
      </trkpt>
      <trkpt lat="59.984542" lon="15.802044">
        <ele>103.2</ele>
        <time>2012-10-30T19:27:03Z</time>
        <extensions><gpxtpx:TrackPointExtension><gpxtpx:hr>169</gpxtpx:hr></gpxtpx:TrackPointExtension></extensions>
      </trkpt>
      <trkpt lat="59.9845575" lon="15.8021026">
        <ele>103.2</ele>
        <time>2012-10-30T19:27:04Z</time>
        <extensions><gpxtpx:TrackPointExtension><gpxtpx:hr>169</gpxtpx:hr></gpxtpx:TrackPointExtension></extensions>
      </trkpt>
      <trkpt lat="59.9845668" lon="15.8021359">
        <ele>103.2</ele>
        <time>2012-10-30T19:27:05Z</time>
        <extensions><gpxtpx:TrackPointExtension><gpxtpx:hr>169</gpxtpx:hr></gpxtpx:TrackPointExtension></extensions>
      </trkpt>
      <trkpt lat="59.984583" lon="15.8021928">
        <ele>103.2</ele>
        <time>2012-10-30T19:27:06Z</time>
        <extensions><gpxtpx:TrackPointExtension><gpxtpx:hr>169</gpxtpx:hr></gpxtpx:TrackPointExtension></extensions>
      </trkpt>
      <trkpt lat="59.9845888" lon="15.8022243">
        <ele>103.2</ele>
        <time>2012-10-30T19:27:07Z</time>
        <extensions><gpxtpx:TrackPointExtension><gpxtpx:hr>169</gpxtpx:hr></gpxtpx:TrackPointExtension></extensions>
      </trkpt>
      <trkpt lat="59.9846065" lon="15.8022921">
        <ele>103.2</ele>
        <time>2012-10-30T19:27:08Z</time>
        <extensions><gpxtpx:TrackPointExtension><gpxtpx:hr>169</gpxtpx:hr></gpxtpx:TrackPointExtension></extensions>
      </trkpt>
      <trkpt lat="59.9846129" lon="15.8023228">
        <ele>103.2</ele>
        <time>2012-10-30T19:27:09Z</time>
        <extensions><gpxtpx:TrackPointExtension><gpxtpx:hr>170</gpxtpx:hr></gpxtpx:TrackPointExtension></extensions>
      </trkpt>
      <trkpt lat="59.9846266" lon="15.8023785">
        <ele>103.2</ele>
        <time>2012-10-30T19:27:10Z</time>
        <extensions><gpxtpx:TrackPointExtension><gpxtpx:hr>169</gpxtpx:hr></gpxtpx:TrackPointExtension></extensions>
      </trkpt>
      <trkpt lat="59.9846375" lon="15.8024213">
        <ele>103.2</ele>
        <time>2012-10-30T19:27:11Z</time>
        <extensions><gpxtpx:TrackPointExtension><gpxtpx:hr>168</gpxtpx:hr></gpxtpx:TrackPointExtension></extensions>
      </trkpt>
      <trkpt lat="59.9846519" lon="15.8024703">
        <ele>103.2</ele>
        <time>2012-10-30T19:27:12Z</time>
        <extensions><gpxtpx:TrackPointExtension><gpxtpx:hr>169</gpxtpx:hr></gpxtpx:TrackPointExtension></extensions>
      </trkpt>
      <trkpt lat="59.9846595" lon="15.8025142">
        <ele>103.2</ele>
        <time>2012-10-30T19:27:13Z</time>
        <extensions><gpxtpx:TrackPointExtension><gpxtpx:hr>168</gpxtpx:hr></gpxtpx:TrackPointExtension></extensions>
      </trkpt>
      <trkpt lat="59.9846751" lon="15.8025747">
        <ele>103.2</ele>
        <time>2012-10-30T19:27:14Z</time>
        <extensions><gpxtpx:TrackPointExtension><gpxtpx:hr>169</gpxtpx:hr></gpxtpx:TrackPointExtension></extensions>
      </trkpt>
      <trkpt lat="59.9846794" lon="15.8025993">
        <ele>103.2</ele>
        <time>2012-10-30T19:27:15Z</time>
        <extensions><gpxtpx:TrackPointExtension><gpxtpx:hr>169</gpxtpx:hr></gpxtpx:TrackPointExtension></extensions>
      </trkpt>
      <trkpt lat="59.984696" lon="15.8026611">
        <ele>103.2</ele>
        <time>2012-10-30T19:27:16Z</time>
        <extensions><gpxtpx:TrackPointExtension><gpxtpx:hr>168</gpxtpx:hr></gpxtpx:TrackPointExtension></extensions>
      </trkpt>
      <trkpt lat="59.9847291" lon="15.8027636">
        <ele>103.2</ele>
        <time>2012-10-30T19:27:19Z</time>
        <extensions><gpxtpx:TrackPointExtension><gpxtpx:hr>168</gpxtpx:hr></gpxtpx:TrackPointExtension></extensions>
      </trkpt>
      <trkpt lat="59.9847443" lon="15.8028062">
        <ele>103</ele>
        <time>2012-10-30T19:27:20Z</time>
        <extensions><gpxtpx:TrackPointExtension><gpxtpx:hr>168</gpxtpx:hr></gpxtpx:TrackPointExtension></extensions>
      </trkpt>
      <trkpt lat="59.9847458" lon="15.8028249">
        <ele>103.2</ele>
        <time>2012-10-30T19:27:21Z</time>
        <extensions><gpxtpx:TrackPointExtension><gpxtpx:hr>169</gpxtpx:hr></gpxtpx:TrackPointExtension></extensions>
      </trkpt>
      <trkpt lat="59.9847601" lon="15.8028701">
        <ele>103.2</ele>
        <time>2012-10-30T19:27:22Z</time>
        <extensions><gpxtpx:TrackPointExtension><gpxtpx:hr>168</gpxtpx:hr></gpxtpx:TrackPointExtension></extensions>
      </trkpt>
      <trkpt lat="59.9847756" lon="15.8029363">
        <ele>102.2</ele>
        <time>2012-10-30T19:27:23Z</time>
        <extensions><gpxtpx:TrackPointExtension><gpxtpx:hr>168</gpxtpx:hr></gpxtpx:TrackPointExtension></extensions>
      </trkpt>
      <trkpt lat="59.9847905" lon="15.8029817">
        <ele>102.2</ele>
        <time>2012-10-30T19:27:24Z</time>
        <extensions><gpxtpx:TrackPointExtension><gpxtpx:hr>168</gpxtpx:hr></gpxtpx:TrackPointExtension></extensions>
      </trkpt>
      <trkpt lat="59.9848062" lon="15.8030297">
        <ele>102</ele>
        <time>2012-10-30T19:27:25Z</time>
        <extensions><gpxtpx:TrackPointExtension><gpxtpx:hr>168</gpxtpx:hr></gpxtpx:TrackPointExtension></extensions>
      </trkpt>
      <trkpt lat="59.9848378" lon="15.8031258">
        <ele>101.8</ele>
        <time>2012-10-30T19:27:27Z</time>
        <extensions><gpxtpx:TrackPointExtension><gpxtpx:hr>169</gpxtpx:hr></gpxtpx:TrackPointExtension></extensions>
      </trkpt>
      <trkpt lat="59.9848839" lon="15.8032406">
        <ele>101.2</ele>
        <time>2012-10-30T19:27:30Z</time>
        <extensions><gpxtpx:TrackPointExtension><gpxtpx:hr>168</gpxtpx:hr></gpxtpx:TrackPointExtension></extensions>
      </trkpt>
      <trkpt lat="59.9849036" lon="15.8032888">
        <ele>101</ele>
        <time>2012-10-30T19:27:31Z</time>
        <extensions><gpxtpx:TrackPointExtension><gpxtpx:hr>169</gpxtpx:hr></gpxtpx:TrackPointExtension></extensions>
      </trkpt>
      <trkpt lat="59.9849175" lon="15.8033186">
        <ele>101.2</ele>
        <time>2012-10-30T19:27:32Z</time>
        <extensions><gpxtpx:TrackPointExtension><gpxtpx:hr>169</gpxtpx:hr></gpxtpx:TrackPointExtension></extensions>
      </trkpt>
      <trkpt lat="59.9849388" lon="15.8033592">
        <ele>100.2</ele>
        <time>2012-10-30T19:27:33Z</time>
        <extensions><gpxtpx:TrackPointExtension><gpxtpx:hr>169</gpxtpx:hr></gpxtpx:TrackPointExtension></extensions>
      </trkpt>
      <trkpt lat="59.9849762" lon="15.8034298">
        <ele>100.2</ele>
        <time>2012-10-30T19:27:35Z</time>
        <extensions><gpxtpx:TrackPointExtension><gpxtpx:hr>169</gpxtpx:hr></gpxtpx:TrackPointExtension></extensions>
      </trkpt>
      <trkpt lat="59.984996" lon="15.8034662">
        <ele>100</ele>
        <time>2012-10-30T19:27:36Z</time>
        <extensions><gpxtpx:TrackPointExtension><gpxtpx:hr>168</gpxtpx:hr></gpxtpx:TrackPointExtension></extensions>
      </trkpt>
      <trkpt lat="59.9850171" lon="15.8035092">
        <ele>100</ele>
        <time>2012-10-30T19:27:37Z</time>
        <extensions><gpxtpx:TrackPointExtension><gpxtpx:hr>168</gpxtpx:hr></gpxtpx:TrackPointExtension></extensions>
      </trkpt>
      <trkpt lat="59.985032" lon="15.8035377">
        <ele>100.2</ele>
        <time>2012-10-30T19:27:38Z</time>
        <extensions><gpxtpx:TrackPointExtension><gpxtpx:hr>168</gpxtpx:hr></gpxtpx:TrackPointExtension></extensions>
      </trkpt>
      <trkpt lat="59.9850921" lon="15.8036701">
        <ele>100</ele>
        <time>2012-10-30T19:27:41Z</time>
        <extensions><gpxtpx:TrackPointExtension><gpxtpx:hr>168</gpxtpx:hr></gpxtpx:TrackPointExtension></extensions>
      </trkpt>
      <trkpt lat="59.9851103" lon="15.8036998">
        <ele>100.2</ele>
        <time>2012-10-30T19:27:42Z</time>
        <extensions><gpxtpx:TrackPointExtension><gpxtpx:hr>169</gpxtpx:hr></gpxtpx:TrackPointExtension></extensions>
      </trkpt>
      <trkpt lat="59.9851702" lon="15.8038197">
        <ele>100</ele>
        <time>2012-10-30T19:27:45Z</time>
        <extensions><gpxtpx:TrackPointExtension><gpxtpx:hr>167</gpxtpx:hr></gpxtpx:TrackPointExtension></extensions>
      </trkpt>
      <trkpt lat="59.9851808" lon="15.803835">
        <ele>100.2</ele>
        <time>2012-10-30T19:27:46Z</time>
        <extensions><gpxtpx:TrackPointExtension><gpxtpx:hr>167</gpxtpx:hr></gpxtpx:TrackPointExtension></extensions>
      </trkpt>
      <trkpt lat="59.9852071" lon="15.8038877">
        <ele>100</ele>
        <time>2012-10-30T19:27:47Z</time>
        <extensions><gpxtpx:TrackPointExtension><gpxtpx:hr>168</gpxtpx:hr></gpxtpx:TrackPointExtension></extensions>
      </trkpt>
      <trkpt lat="59.9852235" lon="15.8039239">
        <ele>100</ele>
        <time>2012-10-30T19:27:48Z</time>
        <extensions><gpxtpx:TrackPointExtension><gpxtpx:hr>167</gpxtpx:hr></gpxtpx:TrackPointExtension></extensions>
      </trkpt>
      <trkpt lat="59.9852485" lon="15.8039685">
        <ele>98.8</ele>
        <time>2012-10-30T19:27:49Z</time>
        <extensions><gpxtpx:TrackPointExtension><gpxtpx:hr>168</gpxtpx:hr></gpxtpx:TrackPointExtension></extensions>
      </trkpt>
      <trkpt lat="59.9852643" lon="15.8040043">
        <ele>98.8</ele>
        <time>2012-10-30T19:27:50Z</time>
        <extensions><gpxtpx:TrackPointExtension><gpxtpx:hr>167</gpxtpx:hr></gpxtpx:TrackPointExtension></extensions>
      </trkpt>
      <trkpt lat="59.9852854" lon="15.8040463">
        <ele>98.8</ele>
        <time>2012-10-30T19:27:51Z</time>
        <extensions><gpxtpx:TrackPointExtension><gpxtpx:hr>168</gpxtpx:hr></gpxtpx:TrackPointExtension></extensions>
      </trkpt>
      <trkpt lat="59.9853016" lon="15.8040745">
        <ele>98.8</ele>
        <time>2012-10-30T19:27:52Z</time>
        <extensions><gpxtpx:TrackPointExtension><gpxtpx:hr>168</gpxtpx:hr></gpxtpx:TrackPointExtension></extensions>
      </trkpt>
      <trkpt lat="59.9853205" lon="15.8041136">
        <ele>99</ele>
        <time>2012-10-30T19:27:53Z</time>
        <extensions><gpxtpx:TrackPointExtension><gpxtpx:hr>168</gpxtpx:hr></gpxtpx:TrackPointExtension></extensions>
      </trkpt>
      <trkpt lat="59.9853608" lon="15.8041952">
        <ele>99</ele>
        <time>2012-10-30T19:27:55Z</time>
        <extensions><gpxtpx:TrackPointExtension><gpxtpx:hr>167</gpxtpx:hr></gpxtpx:TrackPointExtension></extensions>
      </trkpt>
      <trkpt lat="59.9853982" lon="15.8042693">
        <ele>98.8</ele>
        <time>2012-10-30T19:27:57Z</time>
        <extensions><gpxtpx:TrackPointExtension><gpxtpx:hr>167</gpxtpx:hr></gpxtpx:TrackPointExtension></extensions>
      </trkpt>
      <trkpt lat="59.9854091" lon="15.804289">
        <ele>99</ele>
        <time>2012-10-30T19:27:58Z</time>
        <extensions><gpxtpx:TrackPointExtension><gpxtpx:hr>168</gpxtpx:hr></gpxtpx:TrackPointExtension></extensions>
      </trkpt>
      <trkpt lat="59.9854495" lon="15.8043777">
        <ele>99</ele>
        <time>2012-10-30T19:28:00Z</time>
        <extensions><gpxtpx:TrackPointExtension><gpxtpx:hr>168</gpxtpx:hr></gpxtpx:TrackPointExtension></extensions>
      </trkpt>
      <trkpt lat="59.9854678" lon="15.8044119">
        <ele>99</ele>
        <time>2012-10-30T19:28:01Z</time>
        <extensions><gpxtpx:TrackPointExtension><gpxtpx:hr>168</gpxtpx:hr></gpxtpx:TrackPointExtension></extensions>
      </trkpt>
      <trkpt lat="59.9854841" lon="15.8044464">
        <ele>99</ele>
        <time>2012-10-30T19:28:02Z</time>
        <extensions><gpxtpx:TrackPointExtension><gpxtpx:hr>168</gpxtpx:hr></gpxtpx:TrackPointExtension></extensions>
      </trkpt>
      <trkpt lat="59.9855066" lon="15.8044894">
        <ele>99</ele>
        <time>2012-10-30T19:28:03Z</time>
        <extensions><gpxtpx:TrackPointExtension><gpxtpx:hr>168</gpxtpx:hr></gpxtpx:TrackPointExtension></extensions>
      </trkpt>
      <trkpt lat="59.9855226" lon="15.8045224">
        <ele>98.8</ele>
        <time>2012-10-30T19:28:04Z</time>
        <extensions><gpxtpx:TrackPointExtension><gpxtpx:hr>168</gpxtpx:hr></gpxtpx:TrackPointExtension></extensions>
      </trkpt>
      <trkpt lat="59.9855418" lon="15.8045671">
        <ele>99</ele>
        <time>2012-10-30T19:28:05Z</time>
        <extensions><gpxtpx:TrackPointExtension><gpxtpx:hr>167</gpxtpx:hr></gpxtpx:TrackPointExtension></extensions>
      </trkpt>
      <trkpt lat="59.9855542" lon="15.8045909">
        <ele>99</ele>
        <time>2012-10-30T19:28:06Z</time>
        <extensions><gpxtpx:TrackPointExtension><gpxtpx:hr>167</gpxtpx:hr></gpxtpx:TrackPointExtension></extensions>
      </trkpt>
      <trkpt lat="59.9855967" lon="15.8046719">
        <ele>99</ele>
        <time>2012-10-30T19:28:08Z</time>
        <extensions><gpxtpx:TrackPointExtension><gpxtpx:hr>168</gpxtpx:hr></gpxtpx:TrackPointExtension></extensions>
      </trkpt>
      <trkpt lat="59.9856185" lon="15.8047216">
        <ele>97.8</ele>
        <time>2012-10-30T19:28:09Z</time>
        <extensions><gpxtpx:TrackPointExtension><gpxtpx:hr>168</gpxtpx:hr></gpxtpx:TrackPointExtension></extensions>
      </trkpt>
      <trkpt lat="59.9856283" lon="15.8047549">
        <ele>97.8</ele>
        <time>2012-10-30T19:28:10Z</time>
        <extensions><gpxtpx:TrackPointExtension><gpxtpx:hr>168</gpxtpx:hr></gpxtpx:TrackPointExtension></extensions>
      </trkpt>
      <trkpt lat="59.9856425" lon="15.8048077">
        <ele>97.8</ele>
        <time>2012-10-30T19:28:11Z</time>
        <extensions><gpxtpx:TrackPointExtension><gpxtpx:hr>168</gpxtpx:hr></gpxtpx:TrackPointExtension></extensions>
      </trkpt>
      <trkpt lat="59.9856519" lon="15.8048524">
        <ele>97.8</ele>
        <time>2012-10-30T19:28:12Z</time>
        <extensions><gpxtpx:TrackPointExtension><gpxtpx:hr>168</gpxtpx:hr></gpxtpx:TrackPointExtension></extensions>
      </trkpt>
      <trkpt lat="59.9856633" lon="15.804902">
        <ele>96.8</ele>
        <time>2012-10-30T19:28:13Z</time>
        <extensions><gpxtpx:TrackPointExtension><gpxtpx:hr>168</gpxtpx:hr></gpxtpx:TrackPointExtension></extensions>
      </trkpt>
      <trkpt lat="59.9856671" lon="15.804947">
        <ele>96.8</ele>
        <time>2012-10-30T19:28:14Z</time>
        <extensions><gpxtpx:TrackPointExtension><gpxtpx:hr>168</gpxtpx:hr></gpxtpx:TrackPointExtension></extensions>
      </trkpt>
      <trkpt lat="59.9856733" lon="15.8050034">
        <ele>96.8</ele>
        <time>2012-10-30T19:28:15Z</time>
        <extensions><gpxtpx:TrackPointExtension><gpxtpx:hr>168</gpxtpx:hr></gpxtpx:TrackPointExtension></extensions>
      </trkpt>
      <trkpt lat="59.9856832" lon="15.8050275">
        <ele>96.8</ele>
        <time>2012-10-30T19:28:16Z</time>
        <extensions><gpxtpx:TrackPointExtension><gpxtpx:hr>168</gpxtpx:hr></gpxtpx:TrackPointExtension></extensions>
      </trkpt>
      <trkpt lat="59.9857065" lon="15.805078">
        <ele>96.8</ele>
        <time>2012-10-30T19:28:17Z</time>
        <extensions><gpxtpx:TrackPointExtension><gpxtpx:hr>168</gpxtpx:hr></gpxtpx:TrackPointExtension></extensions>
      </trkpt>
      <trkpt lat="59.9857271" lon="15.8051024">
        <ele>96.8</ele>
        <time>2012-10-30T19:28:18Z</time>
        <extensions><gpxtpx:TrackPointExtension><gpxtpx:hr>167</gpxtpx:hr></gpxtpx:TrackPointExtension></extensions>
      </trkpt>
      <trkpt lat="59.9857562" lon="15.8051398">
        <ele>96.8</ele>
        <time>2012-10-30T19:28:19Z</time>
        <extensions><gpxtpx:TrackPointExtension><gpxtpx:hr>167</gpxtpx:hr></gpxtpx:TrackPointExtension></extensions>
      </trkpt>
      <trkpt lat="59.9857774" lon="15.8051576">
        <ele>96.8</ele>
        <time>2012-10-30T19:28:20Z</time>
        <extensions><gpxtpx:TrackPointExtension><gpxtpx:hr>168</gpxtpx:hr></gpxtpx:TrackPointExtension></extensions>
      </trkpt>
      <trkpt lat="59.9858027" lon="15.8052029">
        <ele>96.8</ele>
        <time>2012-10-30T19:28:21Z</time>
        <extensions><gpxtpx:TrackPointExtension><gpxtpx:hr>167</gpxtpx:hr></gpxtpx:TrackPointExtension></extensions>
      </trkpt>
      <trkpt lat="59.98582" lon="15.8052214">
        <ele>96.8</ele>
        <time>2012-10-30T19:28:22Z</time>
        <extensions><gpxtpx:TrackPointExtension><gpxtpx:hr>168</gpxtpx:hr></gpxtpx:TrackPointExtension></extensions>
      </trkpt>
      <trkpt lat="59.9858404" lon="15.8052533">
        <ele>96.8</ele>
        <time>2012-10-30T19:28:23Z</time>
        <extensions><gpxtpx:TrackPointExtension><gpxtpx:hr>168</gpxtpx:hr></gpxtpx:TrackPointExtension></extensions>
      </trkpt>
      <trkpt lat="59.9858707" lon="15.8052979">
        <ele>95.8</ele>
        <time>2012-10-30T19:28:24Z</time>
        <extensions><gpxtpx:TrackPointExtension><gpxtpx:hr>169</gpxtpx:hr></gpxtpx:TrackPointExtension></extensions>
      </trkpt>
      <trkpt lat="59.985891" lon="15.8053313">
        <ele>95.8</ele>
        <time>2012-10-30T19:28:25Z</time>
        <extensions><gpxtpx:TrackPointExtension><gpxtpx:hr>169</gpxtpx:hr></gpxtpx:TrackPointExtension></extensions>
      </trkpt>
      <trkpt lat="59.9859078" lon="15.805368">
        <ele>95.8</ele>
        <time>2012-10-30T19:28:26Z</time>
        <extensions><gpxtpx:TrackPointExtension><gpxtpx:hr>169</gpxtpx:hr></gpxtpx:TrackPointExtension></extensions>
      </trkpt>
      <trkpt lat="59.9859257" lon="15.8054009">
        <ele>95.8</ele>
        <time>2012-10-30T19:28:27Z</time>
        <extensions><gpxtpx:TrackPointExtension><gpxtpx:hr>168</gpxtpx:hr></gpxtpx:TrackPointExtension></extensions>
      </trkpt>
      <trkpt lat="59.9859427" lon="15.8054287">
        <ele>95.8</ele>
        <time>2012-10-30T19:28:28Z</time>
        <extensions><gpxtpx:TrackPointExtension><gpxtpx:hr>168</gpxtpx:hr></gpxtpx:TrackPointExtension></extensions>
      </trkpt>
      <trkpt lat="59.9859682" lon="15.8054745">
        <ele>95.8</ele>
        <time>2012-10-30T19:28:29Z</time>
        <extensions><gpxtpx:TrackPointExtension><gpxtpx:hr>168</gpxtpx:hr></gpxtpx:TrackPointExtension></extensions>
      </trkpt>
      <trkpt lat="59.9859894" lon="15.8055122">
        <ele>95.8</ele>
        <time>2012-10-30T19:28:30Z</time>
        <extensions><gpxtpx:TrackPointExtension><gpxtpx:hr>169</gpxtpx:hr></gpxtpx:TrackPointExtension></extensions>
      </trkpt>
      <trkpt lat="59.9860024" lon="15.8055445">
        <ele>95.8</ele>
        <time>2012-10-30T19:28:31Z</time>
        <extensions><gpxtpx:TrackPointExtension><gpxtpx:hr>168</gpxtpx:hr></gpxtpx:TrackPointExtension></extensions>
      </trkpt>
      <trkpt lat="59.9860271" lon="15.8055867">
        <ele>94.6</ele>
        <time>2012-10-30T19:28:32Z</time>
        <extensions><gpxtpx:TrackPointExtension><gpxtpx:hr>169</gpxtpx:hr></gpxtpx:TrackPointExtension></extensions>
      </trkpt>
      <trkpt lat="59.9860429" lon="15.8056189">
        <ele>94.8</ele>
        <time>2012-10-30T19:28:33Z</time>
        <extensions><gpxtpx:TrackPointExtension><gpxtpx:hr>168</gpxtpx:hr></gpxtpx:TrackPointExtension></extensions>
      </trkpt>
      <trkpt lat="59.9860768" lon="15.8056976">
        <ele>94.8</ele>
        <time>2012-10-30T19:28:35Z</time>
        <extensions><gpxtpx:TrackPointExtension><gpxtpx:hr>168</gpxtpx:hr></gpxtpx:TrackPointExtension></extensions>
      </trkpt>
      <trkpt lat="59.9860958" lon="15.8057334">
        <ele>94.8</ele>
        <time>2012-10-30T19:28:36Z</time>
        <extensions><gpxtpx:TrackPointExtension><gpxtpx:hr>168</gpxtpx:hr></gpxtpx:TrackPointExtension></extensions>
      </trkpt>
      <trkpt lat="59.9861514" lon="15.8058468">
        <ele>94.8</ele>
        <time>2012-10-30T19:28:39Z</time>
        <extensions><gpxtpx:TrackPointExtension><gpxtpx:hr>168</gpxtpx:hr></gpxtpx:TrackPointExtension></extensions>
      </trkpt>
      <trkpt lat="59.9862404" lon="15.8059832">
        <ele>94.8</ele>
        <time>2012-10-30T19:28:43Z</time>
        <extensions><gpxtpx:TrackPointExtension><gpxtpx:hr>168</gpxtpx:hr></gpxtpx:TrackPointExtension></extensions>
      </trkpt>
      <trkpt lat="59.9862636" lon="15.8060228">
        <ele>94.8</ele>
        <time>2012-10-30T19:28:44Z</time>
        <extensions><gpxtpx:TrackPointExtension><gpxtpx:hr>168</gpxtpx:hr></gpxtpx:TrackPointExtension></extensions>
      </trkpt>
      <trkpt lat="59.9862809" lon="15.8060431">
        <ele>94.8</ele>
        <time>2012-10-30T19:28:45Z</time>
        <extensions><gpxtpx:TrackPointExtension><gpxtpx:hr>169</gpxtpx:hr></gpxtpx:TrackPointExtension></extensions>
      </trkpt>
      <trkpt lat="59.9862959" lon="15.8060652">
        <ele>94.8</ele>
        <time>2012-10-30T19:28:46Z</time>
        <extensions><gpxtpx:TrackPointExtension><gpxtpx:hr>169</gpxtpx:hr></gpxtpx:TrackPointExtension></extensions>
      </trkpt>
      <trkpt lat="59.9863173" lon="15.8060968">
        <ele>94.8</ele>
        <time>2012-10-30T19:28:47Z</time>
        <extensions><gpxtpx:TrackPointExtension><gpxtpx:hr>168</gpxtpx:hr></gpxtpx:TrackPointExtension></extensions>
      </trkpt>
      <trkpt lat="59.9863348" lon="15.8061283">
        <ele>94.8</ele>
        <time>2012-10-30T19:28:48Z</time>
        <extensions><gpxtpx:TrackPointExtension><gpxtpx:hr>168</gpxtpx:hr></gpxtpx:TrackPointExtension></extensions>
      </trkpt>
      <trkpt lat="59.98634" lon="15.8061358">
        <ele>94.8</ele>
        <time>2012-10-30T19:28:49Z</time>
        <extensions><gpxtpx:TrackPointExtension><gpxtpx:hr>168</gpxtpx:hr></gpxtpx:TrackPointExtension></extensions>
      </trkpt>
      <trkpt lat="59.9863675" lon="15.8061812">
        <ele>94.8</ele>
        <time>2012-10-30T19:28:50Z</time>
        <extensions><gpxtpx:TrackPointExtension><gpxtpx:hr>168</gpxtpx:hr></gpxtpx:TrackPointExtension></extensions>
      </trkpt>
      <trkpt lat="59.9864115" lon="15.8062571">
        <ele>94.8</ele>
        <time>2012-10-30T19:28:52Z</time>
        <extensions><gpxtpx:TrackPointExtension><gpxtpx:hr>168</gpxtpx:hr></gpxtpx:TrackPointExtension></extensions>
      </trkpt>
      <trkpt lat="59.9864337" lon="15.8062876">
        <ele>94.8</ele>
        <time>2012-10-30T19:28:53Z</time>
        <extensions><gpxtpx:TrackPointExtension><gpxtpx:hr>169</gpxtpx:hr></gpxtpx:TrackPointExtension></extensions>
      </trkpt>
      <trkpt lat="59.9864426" lon="15.8063102">
        <ele>94.8</ele>
        <time>2012-10-30T19:28:54Z</time>
        <extensions><gpxtpx:TrackPointExtension><gpxtpx:hr>169</gpxtpx:hr></gpxtpx:TrackPointExtension></extensions>
      </trkpt>
      <trkpt lat="59.9864676" lon="15.8063555">
        <ele>94.8</ele>
        <time>2012-10-30T19:28:55Z</time>
        <extensions><gpxtpx:TrackPointExtension><gpxtpx:hr>169</gpxtpx:hr></gpxtpx:TrackPointExtension></extensions>
      </trkpt>
      <trkpt lat="59.9864834" lon="15.8063866">
        <ele>94.8</ele>
        <time>2012-10-30T19:28:56Z</time>
        <extensions><gpxtpx:TrackPointExtension><gpxtpx:hr>170</gpxtpx:hr></gpxtpx:TrackPointExtension></extensions>
      </trkpt>
      <trkpt lat="59.9864999" lon="15.8064237">
        <ele>94.8</ele>
        <time>2012-10-30T19:28:57Z</time>
        <extensions><gpxtpx:TrackPointExtension><gpxtpx:hr>170</gpxtpx:hr></gpxtpx:TrackPointExtension></extensions>
      </trkpt>
      <trkpt lat="59.9865252" lon="15.8064638">
        <ele>94.8</ele>
        <time>2012-10-30T19:28:58Z</time>
        <extensions><gpxtpx:TrackPointExtension><gpxtpx:hr>171</gpxtpx:hr></gpxtpx:TrackPointExtension></extensions>
      </trkpt>
      <trkpt lat="59.9865557" lon="15.8064964">
        <ele>94.8</ele>
        <time>2012-10-30T19:28:59Z</time>
        <extensions><gpxtpx:TrackPointExtension><gpxtpx:hr>170</gpxtpx:hr></gpxtpx:TrackPointExtension></extensions>
      </trkpt>
      <trkpt lat="59.9865716" lon="15.8065227">
        <ele>94.8</ele>
        <time>2012-10-30T19:29:00Z</time>
        <extensions><gpxtpx:TrackPointExtension><gpxtpx:hr>170</gpxtpx:hr></gpxtpx:TrackPointExtension></extensions>
      </trkpt>
      <trkpt lat="59.986601" lon="15.8065565">
        <ele>94.8</ele>
        <time>2012-10-30T19:29:01Z</time>
        <extensions><gpxtpx:TrackPointExtension><gpxtpx:hr>171</gpxtpx:hr></gpxtpx:TrackPointExtension></extensions>
      </trkpt>
      <trkpt lat="59.9866203" lon="15.8065685">
        <ele>94.8</ele>
        <time>2012-10-30T19:29:02Z</time>
        <extensions><gpxtpx:TrackPointExtension><gpxtpx:hr>170</gpxtpx:hr></gpxtpx:TrackPointExtension></extensions>
      </trkpt>
      <trkpt lat="59.9866658" lon="15.806595">
        <ele>93.6</ele>
        <time>2012-10-30T19:29:04Z</time>
        <extensions><gpxtpx:TrackPointExtension><gpxtpx:hr>171</gpxtpx:hr></gpxtpx:TrackPointExtension></extensions>
      </trkpt>
      <trkpt lat="59.9867006" lon="15.8066195">
        <ele>93.6</ele>
        <time>2012-10-30T19:29:05Z</time>
        <extensions><gpxtpx:TrackPointExtension><gpxtpx:hr>171</gpxtpx:hr></gpxtpx:TrackPointExtension></extensions>
      </trkpt>
      <trkpt lat="59.9867508" lon="15.8066442">
        <ele>93.6</ele>
        <time>2012-10-30T19:29:07Z</time>
        <extensions><gpxtpx:TrackPointExtension><gpxtpx:hr>170</gpxtpx:hr></gpxtpx:TrackPointExtension></extensions>
      </trkpt>
      <trkpt lat="59.9867709" lon="15.8066608">
        <ele>93.6</ele>
        <time>2012-10-30T19:29:08Z</time>
        <extensions><gpxtpx:TrackPointExtension><gpxtpx:hr>170</gpxtpx:hr></gpxtpx:TrackPointExtension></extensions>
      </trkpt>
      <trkpt lat="59.9868041" lon="15.806685">
        <ele>93.6</ele>
        <time>2012-10-30T19:29:09Z</time>
        <extensions><gpxtpx:TrackPointExtension><gpxtpx:hr>171</gpxtpx:hr></gpxtpx:TrackPointExtension></extensions>
      </trkpt>
      <trkpt lat="59.9869025" lon="15.8067304">
        <ele>93.6</ele>
        <time>2012-10-30T19:29:13Z</time>
        <extensions><gpxtpx:TrackPointExtension><gpxtpx:hr>170</gpxtpx:hr></gpxtpx:TrackPointExtension></extensions>
      </trkpt>
      <trkpt lat="59.9869211" lon="15.8067419">
        <ele>93.6</ele>
        <time>2012-10-30T19:29:14Z</time>
        <extensions><gpxtpx:TrackPointExtension><gpxtpx:hr>170</gpxtpx:hr></gpxtpx:TrackPointExtension></extensions>
      </trkpt>
      <trkpt lat="59.9869567" lon="15.806758">
        <ele>93.6</ele>
        <time>2012-10-30T19:29:15Z</time>
        <extensions><gpxtpx:TrackPointExtension><gpxtpx:hr>171</gpxtpx:hr></gpxtpx:TrackPointExtension></extensions>
      </trkpt>
      <trkpt lat="59.9870052" lon="15.8067846">
        <ele>93.6</ele>
        <time>2012-10-30T19:29:17Z</time>
        <extensions><gpxtpx:TrackPointExtension><gpxtpx:hr>171</gpxtpx:hr></gpxtpx:TrackPointExtension></extensions>
      </trkpt>
      <trkpt lat="59.9870288" lon="15.8067949">
        <ele>93.6</ele>
        <time>2012-10-30T19:29:18Z</time>
        <extensions><gpxtpx:TrackPointExtension><gpxtpx:hr>171</gpxtpx:hr></gpxtpx:TrackPointExtension></extensions>
      </trkpt>
      <trkpt lat="59.9870599" lon="15.806816">
        <ele>93.6</ele>
        <time>2012-10-30T19:29:19Z</time>
        <extensions><gpxtpx:TrackPointExtension><gpxtpx:hr>171</gpxtpx:hr></gpxtpx:TrackPointExtension></extensions>
      </trkpt>
      <trkpt lat="59.9870851" lon="15.8068312">
        <ele>93.6</ele>
        <time>2012-10-30T19:29:20Z</time>
        <extensions><gpxtpx:TrackPointExtension><gpxtpx:hr>171</gpxtpx:hr></gpxtpx:TrackPointExtension></extensions>
      </trkpt>
      <trkpt lat="59.9871095" lon="15.8068476">
        <ele>93.6</ele>
        <time>2012-10-30T19:29:21Z</time>
        <extensions><gpxtpx:TrackPointExtension><gpxtpx:hr>171</gpxtpx:hr></gpxtpx:TrackPointExtension></extensions>
      </trkpt>
      <trkpt lat="59.9872014" lon="15.8069184">
        <ele>93.6</ele>
        <time>2012-10-30T19:29:25Z</time>
        <extensions><gpxtpx:TrackPointExtension><gpxtpx:hr>171</gpxtpx:hr></gpxtpx:TrackPointExtension></extensions>
      </trkpt>
      <trkpt lat="59.9872161" lon="15.8069426">
        <ele>93.6</ele>
        <time>2012-10-30T19:29:26Z</time>
        <extensions><gpxtpx:TrackPointExtension><gpxtpx:hr>171</gpxtpx:hr></gpxtpx:TrackPointExtension></extensions>
      </trkpt>
      <trkpt lat="59.9872398" lon="15.8069832">
        <ele>93.6</ele>
        <time>2012-10-30T19:29:27Z</time>
        <extensions><gpxtpx:TrackPointExtension><gpxtpx:hr>172</gpxtpx:hr></gpxtpx:TrackPointExtension></extensions>
      </trkpt>
      <trkpt lat="59.9872618" lon="15.8070365">
        <ele>93.6</ele>
        <time>2012-10-30T19:29:28Z</time>
        <extensions><gpxtpx:TrackPointExtension><gpxtpx:hr>171</gpxtpx:hr></gpxtpx:TrackPointExtension></extensions>
      </trkpt>
      <trkpt lat="59.9872791" lon="15.8070698">
        <ele>93.6</ele>
        <time>2012-10-30T19:29:29Z</time>
        <extensions><gpxtpx:TrackPointExtension><gpxtpx:hr>171</gpxtpx:hr></gpxtpx:TrackPointExtension></extensions>
      </trkpt>
      <trkpt lat="59.9872966" lon="15.8071232">
        <ele>93.6</ele>
        <time>2012-10-30T19:29:30Z</time>
        <extensions><gpxtpx:TrackPointExtension><gpxtpx:hr>172</gpxtpx:hr></gpxtpx:TrackPointExtension></extensions>
      </trkpt>
      <trkpt lat="59.9873092" lon="15.8071642">
        <ele>93.6</ele>
        <time>2012-10-30T19:29:31Z</time>
        <extensions><gpxtpx:TrackPointExtension><gpxtpx:hr>172</gpxtpx:hr></gpxtpx:TrackPointExtension></extensions>
      </trkpt>
      <trkpt lat="59.9873281" lon="15.8072065">
        <ele>93.6</ele>
        <time>2012-10-30T19:29:32Z</time>
        <extensions><gpxtpx:TrackPointExtension><gpxtpx:hr>172</gpxtpx:hr></gpxtpx:TrackPointExtension></extensions>
      </trkpt>
      <trkpt lat="59.9873471" lon="15.8072553">
        <ele>93.6</ele>
        <time>2012-10-30T19:29:33Z</time>
        <extensions><gpxtpx:TrackPointExtension><gpxtpx:hr>172</gpxtpx:hr></gpxtpx:TrackPointExtension></extensions>
      </trkpt>
      <trkpt lat="59.9873614" lon="15.807311">
        <ele>93.6</ele>
        <time>2012-10-30T19:29:34Z</time>
        <extensions><gpxtpx:TrackPointExtension><gpxtpx:hr>172</gpxtpx:hr></gpxtpx:TrackPointExtension></extensions>
      </trkpt>
      <trkpt lat="59.9873785" lon="15.8073599">
        <ele>93.6</ele>
        <time>2012-10-30T19:29:35Z</time>
        <extensions><gpxtpx:TrackPointExtension><gpxtpx:hr>172</gpxtpx:hr></gpxtpx:TrackPointExtension></extensions>
      </trkpt>
      <trkpt lat="59.9873887" lon="15.8073937">
        <ele>93.6</ele>
        <time>2012-10-30T19:29:36Z</time>
        <extensions><gpxtpx:TrackPointExtension><gpxtpx:hr>171</gpxtpx:hr></gpxtpx:TrackPointExtension></extensions>
      </trkpt>
      <trkpt lat="59.9874046" lon="15.8074531">
        <ele>93.6</ele>
        <time>2012-10-30T19:29:37Z</time>
        <extensions><gpxtpx:TrackPointExtension><gpxtpx:hr>171</gpxtpx:hr></gpxtpx:TrackPointExtension></extensions>
      </trkpt>
      <trkpt lat="59.9874201" lon="15.8074901">
        <ele>93.6</ele>
        <time>2012-10-30T19:29:38Z</time>
        <extensions><gpxtpx:TrackPointExtension><gpxtpx:hr>172</gpxtpx:hr></gpxtpx:TrackPointExtension></extensions>
      </trkpt>
      <trkpt lat="59.9874402" lon="15.8075447">
        <ele>93.6</ele>
        <time>2012-10-30T19:29:39Z</time>
        <extensions><gpxtpx:TrackPointExtension><gpxtpx:hr>172</gpxtpx:hr></gpxtpx:TrackPointExtension></extensions>
      </trkpt>
      <trkpt lat="59.9874542" lon="15.8075974">
        <ele>93.6</ele>
        <time>2012-10-30T19:29:40Z</time>
        <extensions><gpxtpx:TrackPointExtension><gpxtpx:hr>172</gpxtpx:hr></gpxtpx:TrackPointExtension></extensions>
      </trkpt>
      <trkpt lat="59.9874695" lon="15.8076408">
        <ele>93.6</ele>
        <time>2012-10-30T19:29:41Z</time>
        <extensions><gpxtpx:TrackPointExtension><gpxtpx:hr>173</gpxtpx:hr></gpxtpx:TrackPointExtension></extensions>
      </trkpt>
      <trkpt lat="59.9874765" lon="15.8076774">
        <ele>93.6</ele>
        <time>2012-10-30T19:29:42Z</time>
        <extensions><gpxtpx:TrackPointExtension><gpxtpx:hr>173</gpxtpx:hr></gpxtpx:TrackPointExtension></extensions>
      </trkpt>
      <trkpt lat="59.9874938" lon="15.8077324">
        <ele>93.6</ele>
        <time>2012-10-30T19:29:43Z</time>
        <extensions><gpxtpx:TrackPointExtension><gpxtpx:hr>173</gpxtpx:hr></gpxtpx:TrackPointExtension></extensions>
      </trkpt>
      <trkpt lat="59.9875041" lon="15.8077681">
        <ele>93.6</ele>
        <time>2012-10-30T19:29:44Z</time>
        <extensions><gpxtpx:TrackPointExtension><gpxtpx:hr>173</gpxtpx:hr></gpxtpx:TrackPointExtension></extensions>
      </trkpt>
      <trkpt lat="59.9875164" lon="15.8078168">
        <ele>93.6</ele>
        <time>2012-10-30T19:29:45Z</time>
        <extensions><gpxtpx:TrackPointExtension><gpxtpx:hr>173</gpxtpx:hr></gpxtpx:TrackPointExtension></extensions>
      </trkpt>
      <trkpt lat="59.9875286" lon="15.8078541">
        <ele>93.6</ele>
        <time>2012-10-30T19:29:46Z</time>
        <extensions><gpxtpx:TrackPointExtension><gpxtpx:hr>173</gpxtpx:hr></gpxtpx:TrackPointExtension></extensions>
      </trkpt>
      <trkpt lat="59.9875475" lon="15.8078997">
        <ele>93.8</ele>
        <time>2012-10-30T19:29:47Z</time>
        <extensions><gpxtpx:TrackPointExtension><gpxtpx:hr>173</gpxtpx:hr></gpxtpx:TrackPointExtension></extensions>
      </trkpt>
      <trkpt lat="59.9875603" lon="15.8079536">
        <ele>93.6</ele>
        <time>2012-10-30T19:29:48Z</time>
        <extensions><gpxtpx:TrackPointExtension><gpxtpx:hr>174</gpxtpx:hr></gpxtpx:TrackPointExtension></extensions>
      </trkpt>
      <trkpt lat="59.9875811" lon="15.8080305">
        <ele>93.8</ele>
        <time>2012-10-30T19:29:50Z</time>
        <extensions><gpxtpx:TrackPointExtension><gpxtpx:hr>174</gpxtpx:hr></gpxtpx:TrackPointExtension></extensions>
      </trkpt>
      <trkpt lat="59.9875899" lon="15.8080921">
        <ele>93.6</ele>
        <time>2012-10-30T19:29:51Z</time>
        <extensions><gpxtpx:TrackPointExtension><gpxtpx:hr>174</gpxtpx:hr></gpxtpx:TrackPointExtension></extensions>
      </trkpt>
      <trkpt lat="59.9875884" lon="15.8081235">
        <ele>93.6</ele>
        <time>2012-10-30T19:29:52Z</time>
        <extensions><gpxtpx:TrackPointExtension><gpxtpx:hr>174</gpxtpx:hr></gpxtpx:TrackPointExtension></extensions>
      </trkpt>
      <trkpt lat="59.9875765" lon="15.8081818">
        <ele>93.6</ele>
        <time>2012-10-30T19:29:53Z</time>
        <extensions><gpxtpx:TrackPointExtension><gpxtpx:hr>174</gpxtpx:hr></gpxtpx:TrackPointExtension></extensions>
      </trkpt>
      <trkpt lat="59.9875411" lon="15.8083928">
        <ele>96.8</ele>
        <time>2012-10-30T19:29:57Z</time>
        <extensions><gpxtpx:TrackPointExtension><gpxtpx:hr>175</gpxtpx:hr></gpxtpx:TrackPointExtension></extensions>
      </trkpt>
      <trkpt lat="59.987533" lon="15.8084373">
        <ele>97</ele>
        <time>2012-10-30T19:29:58Z</time>
        <extensions><gpxtpx:TrackPointExtension><gpxtpx:hr>176</gpxtpx:hr></gpxtpx:TrackPointExtension></extensions>
      </trkpt>
      <trkpt lat="59.9875196" lon="15.8085086">
        <ele>96.8</ele>
        <time>2012-10-30T19:29:59Z</time>
        <extensions><gpxtpx:TrackPointExtension><gpxtpx:hr>176</gpxtpx:hr></gpxtpx:TrackPointExtension></extensions>
      </trkpt>
      <trkpt lat="59.987517" lon="15.8085663">
        <ele>96.8</ele>
        <time>2012-10-30T19:30:00Z</time>
        <extensions><gpxtpx:TrackPointExtension><gpxtpx:hr>176</gpxtpx:hr></gpxtpx:TrackPointExtension></extensions>
      </trkpt>
      <trkpt lat="59.9875179" lon="15.8086204">
        <ele>97</ele>
        <time>2012-10-30T19:30:01Z</time>
        <extensions><gpxtpx:TrackPointExtension><gpxtpx:hr>176</gpxtpx:hr></gpxtpx:TrackPointExtension></extensions>
      </trkpt>
      <trkpt lat="59.9875134" lon="15.8086612">
        <ele>96.8</ele>
        <time>2012-10-30T19:30:02Z</time>
        <extensions><gpxtpx:TrackPointExtension><gpxtpx:hr>176</gpxtpx:hr></gpxtpx:TrackPointExtension></extensions>
      </trkpt>
      <trkpt lat="59.9875111" lon="15.8087269">
        <ele>96.8</ele>
        <time>2012-10-30T19:30:03Z</time>
        <extensions><gpxtpx:TrackPointExtension><gpxtpx:hr>176</gpxtpx:hr></gpxtpx:TrackPointExtension></extensions>
      </trkpt>
      <trkpt lat="59.9875075" lon="15.8087846">
        <ele>98.2</ele>
        <time>2012-10-30T19:30:04Z</time>
        <extensions><gpxtpx:TrackPointExtension><gpxtpx:hr>177</gpxtpx:hr></gpxtpx:TrackPointExtension></extensions>
      </trkpt>
      <trkpt lat="59.9875019" lon="15.8088493">
        <ele>98.2</ele>
        <time>2012-10-30T19:30:05Z</time>
        <extensions><gpxtpx:TrackPointExtension><gpxtpx:hr>177</gpxtpx:hr></gpxtpx:TrackPointExtension></extensions>
      </trkpt>
      <trkpt lat="59.9875008" lon="15.8088717">
        <ele>98.2</ele>
        <time>2012-10-30T19:30:06Z</time>
        <extensions><gpxtpx:TrackPointExtension><gpxtpx:hr>177</gpxtpx:hr></gpxtpx:TrackPointExtension></extensions>
      </trkpt>
      <trkpt lat="59.9874984" lon="15.8089421">
        <ele>98.2</ele>
        <time>2012-10-30T19:30:07Z</time>
        <extensions><gpxtpx:TrackPointExtension><gpxtpx:hr>177</gpxtpx:hr></gpxtpx:TrackPointExtension></extensions>
      </trkpt>
      <trkpt lat="59.9874982" lon="15.8089843">
        <ele>98.2</ele>
        <time>2012-10-30T19:30:08Z</time>
        <extensions><gpxtpx:TrackPointExtension><gpxtpx:hr>177</gpxtpx:hr></gpxtpx:TrackPointExtension></extensions>
      </trkpt>
      <trkpt lat="59.9874964" lon="15.809059">
        <ele>98.2</ele>
        <time>2012-10-30T19:30:09Z</time>
        <extensions><gpxtpx:TrackPointExtension><gpxtpx:hr>177</gpxtpx:hr></gpxtpx:TrackPointExtension></extensions>
      </trkpt>
      <trkpt lat="59.9875001" lon="15.8091052">
        <ele>98.2</ele>
        <time>2012-10-30T19:30:10Z</time>
        <extensions><gpxtpx:TrackPointExtension><gpxtpx:hr>177</gpxtpx:hr></gpxtpx:TrackPointExtension></extensions>
      </trkpt>
      <trkpt lat="59.987499" lon="15.8091685">
        <ele>98.2</ele>
        <time>2012-10-30T19:30:11Z</time>
        <extensions><gpxtpx:TrackPointExtension><gpxtpx:hr>177</gpxtpx:hr></gpxtpx:TrackPointExtension></extensions>
      </trkpt>
      <trkpt lat="59.9874998" lon="15.8092187">
        <ele>98.2</ele>
        <time>2012-10-30T19:30:12Z</time>
        <extensions><gpxtpx:TrackPointExtension><gpxtpx:hr>177</gpxtpx:hr></gpxtpx:TrackPointExtension></extensions>
      </trkpt>
      <trkpt lat="59.9874975" lon="15.8092874">
        <ele>98.2</ele>
        <time>2012-10-30T19:30:13Z</time>
        <extensions><gpxtpx:TrackPointExtension><gpxtpx:hr>177</gpxtpx:hr></gpxtpx:TrackPointExtension></extensions>
      </trkpt>
      <trkpt lat="59.9874967" lon="15.8093589">
        <ele>99.4</ele>
        <time>2012-10-30T19:30:14Z</time>
        <extensions><gpxtpx:TrackPointExtension><gpxtpx:hr>178</gpxtpx:hr></gpxtpx:TrackPointExtension></extensions>
      </trkpt>
      <trkpt lat="59.9874955" lon="15.8094165">
        <ele>99.4</ele>
        <time>2012-10-30T19:30:15Z</time>
        <extensions><gpxtpx:TrackPointExtension><gpxtpx:hr>178</gpxtpx:hr></gpxtpx:TrackPointExtension></extensions>
      </trkpt>
      <trkpt lat="59.9874988" lon="15.809459">
        <ele>99.4</ele>
        <time>2012-10-30T19:30:16Z</time>
        <extensions><gpxtpx:TrackPointExtension><gpxtpx:hr>179</gpxtpx:hr></gpxtpx:TrackPointExtension></extensions>
      </trkpt>
      <trkpt lat="59.9874957" lon="15.809526">
        <ele>99.4</ele>
        <time>2012-10-30T19:30:17Z</time>
        <extensions><gpxtpx:TrackPointExtension><gpxtpx:hr>179</gpxtpx:hr></gpxtpx:TrackPointExtension></extensions>
      </trkpt>
      <trkpt lat="59.9874984" lon="15.8096358">
        <ele>99.4</ele>
        <time>2012-10-30T19:30:19Z</time>
        <extensions><gpxtpx:TrackPointExtension><gpxtpx:hr>180</gpxtpx:hr></gpxtpx:TrackPointExtension></extensions>
      </trkpt>
      <trkpt lat="59.9874977" lon="15.8096752">
        <ele>99.4</ele>
        <time>2012-10-30T19:30:20Z</time>
        <extensions><gpxtpx:TrackPointExtension><gpxtpx:hr>181</gpxtpx:hr></gpxtpx:TrackPointExtension></extensions>
      </trkpt>
      <trkpt lat="59.9874977" lon="15.8097445">
        <ele>99.4</ele>
        <time>2012-10-30T19:30:21Z</time>
        <extensions><gpxtpx:TrackPointExtension><gpxtpx:hr>180</gpxtpx:hr></gpxtpx:TrackPointExtension></extensions>
      </trkpt>
      <trkpt lat="59.9874956" lon="15.8097728">
        <ele>99.4</ele>
        <time>2012-10-30T19:30:22Z</time>
        <extensions><gpxtpx:TrackPointExtension><gpxtpx:hr>180</gpxtpx:hr></gpxtpx:TrackPointExtension></extensions>
      </trkpt>
      <trkpt lat="59.9874916" lon="15.8098483">
        <ele>99.4</ele>
        <time>2012-10-30T19:30:23Z</time>
        <extensions><gpxtpx:TrackPointExtension><gpxtpx:hr>180</gpxtpx:hr></gpxtpx:TrackPointExtension></extensions>
      </trkpt>
      <trkpt lat="59.9874847" lon="15.8099066">
        <ele>99.4</ele>
        <time>2012-10-30T19:30:24Z</time>
        <extensions><gpxtpx:TrackPointExtension><gpxtpx:hr>181</gpxtpx:hr></gpxtpx:TrackPointExtension></extensions>
      </trkpt>
      <trkpt lat="59.9874825" lon="15.8099623">
        <ele>99.4</ele>
        <time>2012-10-30T19:30:25Z</time>
        <extensions><gpxtpx:TrackPointExtension><gpxtpx:hr>180</gpxtpx:hr></gpxtpx:TrackPointExtension></extensions>
      </trkpt>
      <trkpt lat="59.9874812" lon="15.810004">
        <ele>99.4</ele>
        <time>2012-10-30T19:30:26Z</time>
        <extensions><gpxtpx:TrackPointExtension><gpxtpx:hr>180</gpxtpx:hr></gpxtpx:TrackPointExtension></extensions>
      </trkpt>
      <trkpt lat="59.9874827" lon="15.8100674">
        <ele>100.8</ele>
        <time>2012-10-30T19:30:27Z</time>
        <extensions><gpxtpx:TrackPointExtension><gpxtpx:hr>180</gpxtpx:hr></gpxtpx:TrackPointExtension></extensions>
      </trkpt>
      <trkpt lat="59.9874817" lon="15.8101141">
        <ele>100.8</ele>
        <time>2012-10-30T19:30:28Z</time>
        <extensions><gpxtpx:TrackPointExtension><gpxtpx:hr>180</gpxtpx:hr></gpxtpx:TrackPointExtension></extensions>
      </trkpt>
      <trkpt lat="59.9874841" lon="15.810187">
        <ele>100.8</ele>
        <time>2012-10-30T19:30:29Z</time>
        <extensions><gpxtpx:TrackPointExtension><gpxtpx:hr>179</gpxtpx:hr></gpxtpx:TrackPointExtension></extensions>
      </trkpt>
      <trkpt lat="59.9874868" lon="15.810239">
        <ele>100.8</ele>
        <time>2012-10-30T19:30:30Z</time>
        <extensions><gpxtpx:TrackPointExtension><gpxtpx:hr>179</gpxtpx:hr></gpxtpx:TrackPointExtension></extensions>
      </trkpt>
      <trkpt lat="59.9874873" lon="15.8103009">
        <ele>100.8</ele>
        <time>2012-10-30T19:30:31Z</time>
        <extensions><gpxtpx:TrackPointExtension><gpxtpx:hr>179</gpxtpx:hr></gpxtpx:TrackPointExtension></extensions>
      </trkpt>
      <trkpt lat="59.9874894" lon="15.8103637">
        <ele>100.8</ele>
        <time>2012-10-30T19:30:32Z</time>
        <extensions><gpxtpx:TrackPointExtension><gpxtpx:hr>180</gpxtpx:hr></gpxtpx:TrackPointExtension></extensions>
      </trkpt>
      <trkpt lat="59.9874993" lon="15.8104085">
        <ele>101.8</ele>
        <time>2012-10-30T19:30:33Z</time>
        <extensions><gpxtpx:TrackPointExtension><gpxtpx:hr>180</gpxtpx:hr></gpxtpx:TrackPointExtension></extensions>
      </trkpt>
      <trkpt lat="59.9875124" lon="15.8105461">
        <ele>101.8</ele>
        <time>2012-10-30T19:30:36Z</time>
        <extensions><gpxtpx:TrackPointExtension><gpxtpx:hr>180</gpxtpx:hr></gpxtpx:TrackPointExtension></extensions>
      </trkpt>
      <trkpt lat="59.987522" lon="15.8106199">
        <ele>101.8</ele>
        <time>2012-10-30T19:30:37Z</time>
        <extensions><gpxtpx:TrackPointExtension><gpxtpx:hr>180</gpxtpx:hr></gpxtpx:TrackPointExtension></extensions>
      </trkpt>
      <trkpt lat="59.987523" lon="15.8106716">
        <ele>101.8</ele>
        <time>2012-10-30T19:30:38Z</time>
        <extensions><gpxtpx:TrackPointExtension><gpxtpx:hr>180</gpxtpx:hr></gpxtpx:TrackPointExtension></extensions>
      </trkpt>
      <trkpt lat="59.9875304" lon="15.8107208">
        <ele>101.8</ele>
        <time>2012-10-30T19:30:39Z</time>
        <extensions><gpxtpx:TrackPointExtension><gpxtpx:hr>180</gpxtpx:hr></gpxtpx:TrackPointExtension></extensions>
      </trkpt>
      <trkpt lat="59.987536" lon="15.8107558">
        <ele>101.8</ele>
        <time>2012-10-30T19:30:40Z</time>
        <extensions><gpxtpx:TrackPointExtension><gpxtpx:hr>180</gpxtpx:hr></gpxtpx:TrackPointExtension></extensions>
      </trkpt>
      <trkpt lat="59.9875443" lon="15.8108177">
        <ele>101.8</ele>
        <time>2012-10-30T19:30:41Z</time>
        <extensions><gpxtpx:TrackPointExtension><gpxtpx:hr>180</gpxtpx:hr></gpxtpx:TrackPointExtension></extensions>
      </trkpt>
      <trkpt lat="59.9875493" lon="15.8108648">
        <ele>101.8</ele>
        <time>2012-10-30T19:30:42Z</time>
        <extensions><gpxtpx:TrackPointExtension><gpxtpx:hr>181</gpxtpx:hr></gpxtpx:TrackPointExtension></extensions>
      </trkpt>
      <trkpt lat="59.9875535" lon="15.810925">
        <ele>101.8</ele>
        <time>2012-10-30T19:30:43Z</time>
        <extensions><gpxtpx:TrackPointExtension><gpxtpx:hr>180</gpxtpx:hr></gpxtpx:TrackPointExtension></extensions>
      </trkpt>
      <trkpt lat="59.9875602" lon="15.8109966">
        <ele>101.8</ele>
        <time>2012-10-30T19:30:44Z</time>
        <extensions><gpxtpx:TrackPointExtension><gpxtpx:hr>180</gpxtpx:hr></gpxtpx:TrackPointExtension></extensions>
      </trkpt>
      <trkpt lat="59.9875658" lon="15.8110492">
        <ele>101.8</ele>
        <time>2012-10-30T19:30:45Z</time>
        <extensions><gpxtpx:TrackPointExtension><gpxtpx:hr>181</gpxtpx:hr></gpxtpx:TrackPointExtension></extensions>
      </trkpt>
      <trkpt lat="59.9875712" lon="15.8110718">
        <ele>101.6</ele>
        <time>2012-10-30T19:30:46Z</time>
        <extensions><gpxtpx:TrackPointExtension><gpxtpx:hr>180</gpxtpx:hr></gpxtpx:TrackPointExtension></extensions>
      </trkpt>
      <trkpt lat="59.9875793" lon="15.8111344">
        <ele>101.8</ele>
        <time>2012-10-30T19:30:47Z</time>
        <extensions><gpxtpx:TrackPointExtension><gpxtpx:hr>180</gpxtpx:hr></gpxtpx:TrackPointExtension></extensions>
      </trkpt>
      <trkpt lat="59.9875868" lon="15.8111786">
        <ele>101.8</ele>
        <time>2012-10-30T19:30:48Z</time>
        <extensions><gpxtpx:TrackPointExtension><gpxtpx:hr>180</gpxtpx:hr></gpxtpx:TrackPointExtension></extensions>
      </trkpt>
      <trkpt lat="59.9876033" lon="15.8113198">
        <ele>101.8</ele>
        <time>2012-10-30T19:30:51Z</time>
        <extensions><gpxtpx:TrackPointExtension><gpxtpx:hr>180</gpxtpx:hr></gpxtpx:TrackPointExtension></extensions>
      </trkpt>
      <trkpt lat="59.9876071" lon="15.8113522">
        <ele>101.8</ele>
        <time>2012-10-30T19:30:52Z</time>
        <extensions><gpxtpx:TrackPointExtension><gpxtpx:hr>179</gpxtpx:hr></gpxtpx:TrackPointExtension></extensions>
      </trkpt>
      <trkpt lat="59.9876141" lon="15.8114059">
        <ele>101.8</ele>
        <time>2012-10-30T19:30:53Z</time>
        <extensions><gpxtpx:TrackPointExtension><gpxtpx:hr>179</gpxtpx:hr></gpxtpx:TrackPointExtension></extensions>
      </trkpt>
      <trkpt lat="59.9876222" lon="15.8114643">
        <ele>101.8</ele>
        <time>2012-10-30T19:30:54Z</time>
        <extensions><gpxtpx:TrackPointExtension><gpxtpx:hr>179</gpxtpx:hr></gpxtpx:TrackPointExtension></extensions>
      </trkpt>
      <trkpt lat="59.9876298" lon="15.8115103">
        <ele>101.8</ele>
        <time>2012-10-30T19:30:55Z</time>
        <extensions><gpxtpx:TrackPointExtension><gpxtpx:hr>179</gpxtpx:hr></gpxtpx:TrackPointExtension></extensions>
      </trkpt>
      <trkpt lat="59.9876368" lon="15.8115492">
        <ele>101.8</ele>
        <time>2012-10-30T19:30:56Z</time>
        <extensions><gpxtpx:TrackPointExtension><gpxtpx:hr>178</gpxtpx:hr></gpxtpx:TrackPointExtension></extensions>
      </trkpt>
      <trkpt lat="59.9876428" lon="15.8115988">
        <ele>101.8</ele>
        <time>2012-10-30T19:30:57Z</time>
        <extensions><gpxtpx:TrackPointExtension><gpxtpx:hr>179</gpxtpx:hr></gpxtpx:TrackPointExtension></extensions>
      </trkpt>
      <trkpt lat="59.9876473" lon="15.8116502">
        <ele>101.8</ele>
        <time>2012-10-30T19:30:58Z</time>
        <extensions><gpxtpx:TrackPointExtension><gpxtpx:hr>178</gpxtpx:hr></gpxtpx:TrackPointExtension></extensions>
      </trkpt>
      <trkpt lat="59.9876531" lon="15.8116947">
        <ele>101.8</ele>
        <time>2012-10-30T19:30:59Z</time>
        <extensions><gpxtpx:TrackPointExtension><gpxtpx:hr>178</gpxtpx:hr></gpxtpx:TrackPointExtension></extensions>
      </trkpt>
      <trkpt lat="59.9876566" lon="15.8117181">
        <ele>101.8</ele>
        <time>2012-10-30T19:31:00Z</time>
        <extensions><gpxtpx:TrackPointExtension><gpxtpx:hr>179</gpxtpx:hr></gpxtpx:TrackPointExtension></extensions>
      </trkpt>
      <trkpt lat="59.9876619" lon="15.8117825">
        <ele>101.8</ele>
        <time>2012-10-30T19:31:01Z</time>
        <extensions><gpxtpx:TrackPointExtension><gpxtpx:hr>178</gpxtpx:hr></gpxtpx:TrackPointExtension></extensions>
      </trkpt>
      <trkpt lat="59.9876666" lon="15.8118303">
        <ele>101.8</ele>
        <time>2012-10-30T19:31:02Z</time>
        <extensions><gpxtpx:TrackPointExtension><gpxtpx:hr>177</gpxtpx:hr></gpxtpx:TrackPointExtension></extensions>
      </trkpt>
      <trkpt lat="59.9876721" lon="15.8118854">
        <ele>101.8</ele>
        <time>2012-10-30T19:31:03Z</time>
        <extensions><gpxtpx:TrackPointExtension><gpxtpx:hr>178</gpxtpx:hr></gpxtpx:TrackPointExtension></extensions>
      </trkpt>
      <trkpt lat="59.987686" lon="15.8119918">
        <ele>101.8</ele>
        <time>2012-10-30T19:31:05Z</time>
        <extensions><gpxtpx:TrackPointExtension><gpxtpx:hr>177</gpxtpx:hr></gpxtpx:TrackPointExtension></extensions>
      </trkpt>
      <trkpt lat="59.9876894" lon="15.8120318">
        <ele>101.8</ele>
        <time>2012-10-30T19:31:06Z</time>
        <extensions><gpxtpx:TrackPointExtension><gpxtpx:hr>176</gpxtpx:hr></gpxtpx:TrackPointExtension></extensions>
      </trkpt>
      <trkpt lat="59.9876925" lon="15.812091">
        <ele>101.8</ele>
        <time>2012-10-30T19:31:07Z</time>
        <extensions><gpxtpx:TrackPointExtension><gpxtpx:hr>176</gpxtpx:hr></gpxtpx:TrackPointExtension></extensions>
      </trkpt>
      <trkpt lat="59.9877189" lon="15.8122998">
        <ele>101.8</ele>
        <time>2012-10-30T19:31:11Z</time>
        <extensions><gpxtpx:TrackPointExtension><gpxtpx:hr>176</gpxtpx:hr></gpxtpx:TrackPointExtension></extensions>
      </trkpt>
      <trkpt lat="59.9877295" lon="15.8123387">
        <ele>101.8</ele>
        <time>2012-10-30T19:31:12Z</time>
        <extensions><gpxtpx:TrackPointExtension><gpxtpx:hr>176</gpxtpx:hr></gpxtpx:TrackPointExtension></extensions>
      </trkpt>
      <trkpt lat="59.9877353" lon="15.8123919">
        <ele>101.8</ele>
        <time>2012-10-30T19:31:13Z</time>
        <extensions><gpxtpx:TrackPointExtension><gpxtpx:hr>175</gpxtpx:hr></gpxtpx:TrackPointExtension></extensions>
      </trkpt>
      <trkpt lat="59.9877433" lon="15.8124526">
        <ele>101.8</ele>
        <time>2012-10-30T19:31:14Z</time>
        <extensions><gpxtpx:TrackPointExtension><gpxtpx:hr>176</gpxtpx:hr></gpxtpx:TrackPointExtension></extensions>
      </trkpt>
      <trkpt lat="59.9877552" lon="15.8125341">
        <ele>101.6</ele>
        <time>2012-10-30T19:31:16Z</time>
        <extensions><gpxtpx:TrackPointExtension><gpxtpx:hr>175</gpxtpx:hr></gpxtpx:TrackPointExtension></extensions>
      </trkpt>
      <trkpt lat="59.9877677" lon="15.8125913">
        <ele>101.8</ele>
        <time>2012-10-30T19:31:17Z</time>
        <extensions><gpxtpx:TrackPointExtension><gpxtpx:hr>175</gpxtpx:hr></gpxtpx:TrackPointExtension></extensions>
      </trkpt>
      <trkpt lat="59.9877726" lon="15.8126476">
        <ele>101.8</ele>
        <time>2012-10-30T19:31:18Z</time>
        <extensions><gpxtpx:TrackPointExtension><gpxtpx:hr>175</gpxtpx:hr></gpxtpx:TrackPointExtension></extensions>
      </trkpt>
      <trkpt lat="59.9877787" lon="15.8126985">
        <ele>101.8</ele>
        <time>2012-10-30T19:31:19Z</time>
        <extensions><gpxtpx:TrackPointExtension><gpxtpx:hr>175</gpxtpx:hr></gpxtpx:TrackPointExtension></extensions>
      </trkpt>
      <trkpt lat="59.9877851" lon="15.8127344">
        <ele>101.6</ele>
        <time>2012-10-30T19:31:20Z</time>
        <extensions><gpxtpx:TrackPointExtension><gpxtpx:hr>175</gpxtpx:hr></gpxtpx:TrackPointExtension></extensions>
      </trkpt>
      <trkpt lat="59.987793" lon="15.8127976">
        <ele>101.8</ele>
        <time>2012-10-30T19:31:21Z</time>
        <extensions><gpxtpx:TrackPointExtension><gpxtpx:hr>175</gpxtpx:hr></gpxtpx:TrackPointExtension></extensions>
      </trkpt>
      <trkpt lat="59.9878226" lon="15.8129889">
        <ele>101.8</ele>
        <time>2012-10-30T19:31:25Z</time>
        <extensions><gpxtpx:TrackPointExtension><gpxtpx:hr>174</gpxtpx:hr></gpxtpx:TrackPointExtension></extensions>
      </trkpt>
      <trkpt lat="59.9878521" lon="15.8132326">
        <ele>101.6</ele>
        <time>2012-10-30T19:31:30Z</time>
        <extensions><gpxtpx:TrackPointExtension><gpxtpx:hr>174</gpxtpx:hr></gpxtpx:TrackPointExtension></extensions>
      </trkpt>
      <trkpt lat="59.9878605" lon="15.8132898">
        <ele>101.8</ele>
        <time>2012-10-30T19:31:31Z</time>
        <extensions><gpxtpx:TrackPointExtension><gpxtpx:hr>174</gpxtpx:hr></gpxtpx:TrackPointExtension></extensions>
      </trkpt>
      <trkpt lat="59.9878649" lon="15.8133302">
        <ele>101.8</ele>
        <time>2012-10-30T19:31:32Z</time>
        <extensions><gpxtpx:TrackPointExtension><gpxtpx:hr>173</gpxtpx:hr></gpxtpx:TrackPointExtension></extensions>
      </trkpt>
      <trkpt lat="59.987876" lon="15.813389">
        <ele>101.8</ele>
        <time>2012-10-30T19:31:33Z</time>
        <extensions><gpxtpx:TrackPointExtension><gpxtpx:hr>173</gpxtpx:hr></gpxtpx:TrackPointExtension></extensions>
      </trkpt>
      <trkpt lat="59.9878932" lon="15.8135802">
        <ele>101.8</ele>
        <time>2012-10-30T19:31:37Z</time>
        <extensions><gpxtpx:TrackPointExtension><gpxtpx:hr>172</gpxtpx:hr></gpxtpx:TrackPointExtension></extensions>
      </trkpt>
      <trkpt lat="59.9878911" lon="15.813707">
        <ele>101.6</ele>
        <time>2012-10-30T19:31:40Z</time>
        <extensions><gpxtpx:TrackPointExtension><gpxtpx:hr>171</gpxtpx:hr></gpxtpx:TrackPointExtension></extensions>
      </trkpt>
      <trkpt lat="59.9878934" lon="15.8137542">
        <ele>101.8</ele>
        <time>2012-10-30T19:31:41Z</time>
        <extensions><gpxtpx:TrackPointExtension><gpxtpx:hr>172</gpxtpx:hr></gpxtpx:TrackPointExtension></extensions>
      </trkpt>
      <trkpt lat="59.9878975" lon="15.8138802">
        <ele>101.8</ele>
        <time>2012-10-30T19:31:44Z</time>
        <extensions><gpxtpx:TrackPointExtension><gpxtpx:hr>171</gpxtpx:hr></gpxtpx:TrackPointExtension></extensions>
      </trkpt>
      <trkpt lat="59.9879008" lon="15.8139129">
        <ele>98.6</ele>
        <time>2012-10-30T19:31:45Z</time>
        <extensions><gpxtpx:TrackPointExtension><gpxtpx:hr>171</gpxtpx:hr></gpxtpx:TrackPointExtension></extensions>
      </trkpt>
      <trkpt lat="59.9878991" lon="15.8139369">
        <ele>98.6</ele>
        <time>2012-10-30T19:31:46Z</time>
        <extensions><gpxtpx:TrackPointExtension><gpxtpx:hr>170</gpxtpx:hr></gpxtpx:TrackPointExtension></extensions>
      </trkpt>
      <trkpt lat="59.9878987" lon="15.8139795">
        <ele>98.6</ele>
        <time>2012-10-30T19:31:47Z</time>
        <extensions><gpxtpx:TrackPointExtension><gpxtpx:hr>170</gpxtpx:hr></gpxtpx:TrackPointExtension></extensions>
      </trkpt>
      <trkpt lat="59.9878884" lon="15.8140147">
        <ele>98.6</ele>
        <time>2012-10-30T19:31:48Z</time>
        <extensions><gpxtpx:TrackPointExtension><gpxtpx:hr>169</gpxtpx:hr></gpxtpx:TrackPointExtension></extensions>
      </trkpt>
      <trkpt lat="59.9878797" lon="15.8140465">
        <ele>98.6</ele>
        <time>2012-10-30T19:31:49Z</time>
        <extensions><gpxtpx:TrackPointExtension><gpxtpx:hr>169</gpxtpx:hr></gpxtpx:TrackPointExtension></extensions>
      </trkpt>
      <trkpt lat="59.9878709" lon="15.8140696">
        <ele>98.6</ele>
        <time>2012-10-30T19:31:50Z</time>
        <extensions><gpxtpx:TrackPointExtension><gpxtpx:hr>169</gpxtpx:hr></gpxtpx:TrackPointExtension></extensions>
      </trkpt>
      <trkpt lat="59.9878597" lon="15.8140984">
        <ele>97.4</ele>
        <time>2012-10-30T19:31:51Z</time>
        <extensions><gpxtpx:TrackPointExtension><gpxtpx:hr>169</gpxtpx:hr></gpxtpx:TrackPointExtension></extensions>
      </trkpt>
      <trkpt lat="59.9878492" lon="15.8141224">
        <ele>97.6</ele>
        <time>2012-10-30T19:31:52Z</time>
        <extensions><gpxtpx:TrackPointExtension><gpxtpx:hr>168</gpxtpx:hr></gpxtpx:TrackPointExtension></extensions>
      </trkpt>
      <trkpt lat="59.9878315" lon="15.8141567">
        <ele>97.6</ele>
        <time>2012-10-30T19:31:53Z</time>
        <extensions><gpxtpx:TrackPointExtension><gpxtpx:hr>168</gpxtpx:hr></gpxtpx:TrackPointExtension></extensions>
      </trkpt>
      <trkpt lat="59.9878146" lon="15.8141826">
        <ele>97.6</ele>
        <time>2012-10-30T19:31:54Z</time>
        <extensions><gpxtpx:TrackPointExtension><gpxtpx:hr>168</gpxtpx:hr></gpxtpx:TrackPointExtension></extensions>
      </trkpt>
      <trkpt lat="59.9877993" lon="15.8142058">
        <ele>97.6</ele>
        <time>2012-10-30T19:31:55Z</time>
        <extensions><gpxtpx:TrackPointExtension><gpxtpx:hr>168</gpxtpx:hr></gpxtpx:TrackPointExtension></extensions>
      </trkpt>
      <trkpt lat="59.9877881" lon="15.8142226">
        <ele>97.6</ele>
        <time>2012-10-30T19:31:56Z</time>
        <extensions><gpxtpx:TrackPointExtension><gpxtpx:hr>167</gpxtpx:hr></gpxtpx:TrackPointExtension></extensions>
      </trkpt>
      <trkpt lat="59.987773" lon="15.8142463">
        <ele>97.6</ele>
        <time>2012-10-30T19:31:57Z</time>
        <extensions><gpxtpx:TrackPointExtension><gpxtpx:hr>167</gpxtpx:hr></gpxtpx:TrackPointExtension></extensions>
      </trkpt>
      <trkpt lat="59.9877522" lon="15.8143153">
        <ele>96.4</ele>
        <time>2012-10-30T19:31:59Z</time>
        <extensions><gpxtpx:TrackPointExtension><gpxtpx:hr>166</gpxtpx:hr></gpxtpx:TrackPointExtension></extensions>
      </trkpt>
      <trkpt lat="59.9877397" lon="15.8143727">
        <ele>96.2</ele>
        <time>2012-10-30T19:32:00Z</time>
        <extensions><gpxtpx:TrackPointExtension><gpxtpx:hr>166</gpxtpx:hr></gpxtpx:TrackPointExtension></extensions>
      </trkpt>
      <trkpt lat="59.9877324" lon="15.8144197">
        <ele>96.4</ele>
        <time>2012-10-30T19:32:01Z</time>
        <extensions><gpxtpx:TrackPointExtension><gpxtpx:hr>166</gpxtpx:hr></gpxtpx:TrackPointExtension></extensions>
      </trkpt>
      <trkpt lat="59.9877288" lon="15.8144564">
        <ele>95.4</ele>
        <time>2012-10-30T19:32:02Z</time>
        <extensions><gpxtpx:TrackPointExtension><gpxtpx:hr>165</gpxtpx:hr></gpxtpx:TrackPointExtension></extensions>
      </trkpt>
      <trkpt lat="59.9877285" lon="15.8145059">
        <ele>95.4</ele>
        <time>2012-10-30T19:32:03Z</time>
        <extensions><gpxtpx:TrackPointExtension><gpxtpx:hr>165</gpxtpx:hr></gpxtpx:TrackPointExtension></extensions>
      </trkpt>
      <trkpt lat="59.9877332" lon="15.814543">
        <ele>95.2</ele>
        <time>2012-10-30T19:32:04Z</time>
        <extensions><gpxtpx:TrackPointExtension><gpxtpx:hr>165</gpxtpx:hr></gpxtpx:TrackPointExtension></extensions>
      </trkpt>
      <trkpt lat="59.9877408" lon="15.8146009">
        <ele>95.4</ele>
        <time>2012-10-30T19:32:05Z</time>
        <extensions><gpxtpx:TrackPointExtension><gpxtpx:hr>165</gpxtpx:hr></gpxtpx:TrackPointExtension></extensions>
      </trkpt>
      <trkpt lat="59.9877464" lon="15.8146417">
        <ele>94.4</ele>
        <time>2012-10-30T19:32:06Z</time>
        <extensions><gpxtpx:TrackPointExtension><gpxtpx:hr>164</gpxtpx:hr></gpxtpx:TrackPointExtension></extensions>
      </trkpt>
      <trkpt lat="59.9877592" lon="15.8146987">
        <ele>94.2</ele>
        <time>2012-10-30T19:32:07Z</time>
        <extensions><gpxtpx:TrackPointExtension><gpxtpx:hr>165</gpxtpx:hr></gpxtpx:TrackPointExtension></extensions>
      </trkpt>
      <trkpt lat="59.9877785" lon="15.8147402">
        <ele>94.4</ele>
        <time>2012-10-30T19:32:08Z</time>
        <extensions><gpxtpx:TrackPointExtension><gpxtpx:hr>165</gpxtpx:hr></gpxtpx:TrackPointExtension></extensions>
      </trkpt>
      <trkpt lat="59.9878004" lon="15.8147749">
        <ele>94.2</ele>
        <time>2012-10-30T19:32:09Z</time>
        <extensions><gpxtpx:TrackPointExtension><gpxtpx:hr>165</gpxtpx:hr></gpxtpx:TrackPointExtension></extensions>
      </trkpt>
      <trkpt lat="59.9878174" lon="15.8148165">
        <ele>94.4</ele>
        <time>2012-10-30T19:32:10Z</time>
        <extensions><gpxtpx:TrackPointExtension><gpxtpx:hr>165</gpxtpx:hr></gpxtpx:TrackPointExtension></extensions>
      </trkpt>
      <trkpt lat="59.98786" lon="15.8149001">
        <ele>93.4</ele>
        <time>2012-10-30T19:32:12Z</time>
        <extensions><gpxtpx:TrackPointExtension><gpxtpx:hr>164</gpxtpx:hr></gpxtpx:TrackPointExtension></extensions>
      </trkpt>
      <trkpt lat="59.9878767" lon="15.8149394">
        <ele>93.4</ele>
        <time>2012-10-30T19:32:13Z</time>
        <extensions><gpxtpx:TrackPointExtension><gpxtpx:hr>164</gpxtpx:hr></gpxtpx:TrackPointExtension></extensions>
      </trkpt>
      <trkpt lat="59.9878878" lon="15.8149849">
        <ele>93.4</ele>
        <time>2012-10-30T19:32:14Z</time>
        <extensions><gpxtpx:TrackPointExtension><gpxtpx:hr>164</gpxtpx:hr></gpxtpx:TrackPointExtension></extensions>
      </trkpt>
      <trkpt lat="59.9878971" lon="15.8150216">
        <ele>93.4</ele>
        <time>2012-10-30T19:32:15Z</time>
        <extensions><gpxtpx:TrackPointExtension><gpxtpx:hr>164</gpxtpx:hr></gpxtpx:TrackPointExtension></extensions>
      </trkpt>
      <trkpt lat="59.9878821" lon="15.8150717">
        <ele>93.4</ele>
        <time>2012-10-30T19:32:16Z</time>
        <extensions><gpxtpx:TrackPointExtension><gpxtpx:hr>163</gpxtpx:hr></gpxtpx:TrackPointExtension></extensions>
      </trkpt>
      <trkpt lat="59.9878844" lon="15.8151083">
        <ele>93.4</ele>
        <time>2012-10-30T19:32:17Z</time>
        <extensions><gpxtpx:TrackPointExtension><gpxtpx:hr>164</gpxtpx:hr></gpxtpx:TrackPointExtension></extensions>
      </trkpt>
      <trkpt lat="59.9878605" lon="15.8152444">
        <ele>93.4</ele>
        <time>2012-10-30T19:32:20Z</time>
        <extensions><gpxtpx:TrackPointExtension><gpxtpx:hr>163</gpxtpx:hr></gpxtpx:TrackPointExtension></extensions>
      </trkpt>
      <trkpt lat="59.9878278" lon="15.8153041">
        <ele>93.4</ele>
        <time>2012-10-30T19:32:21Z</time>
        <extensions><gpxtpx:TrackPointExtension><gpxtpx:hr>164</gpxtpx:hr></gpxtpx:TrackPointExtension></extensions>
      </trkpt>
      <trkpt lat="59.9878024" lon="15.8153275">
        <ele>93.4</ele>
        <time>2012-10-30T19:32:22Z</time>
        <extensions><gpxtpx:TrackPointExtension><gpxtpx:hr>164</gpxtpx:hr></gpxtpx:TrackPointExtension></extensions>
      </trkpt>
      <trkpt lat="59.9877722" lon="15.8153475">
        <ele>93.4</ele>
        <time>2012-10-30T19:32:23Z</time>
        <extensions><gpxtpx:TrackPointExtension><gpxtpx:hr>163</gpxtpx:hr></gpxtpx:TrackPointExtension></extensions>
      </trkpt>
      <trkpt lat="59.9877336" lon="15.8153746">
        <ele>93.4</ele>
        <time>2012-10-30T19:32:24Z</time>
        <extensions><gpxtpx:TrackPointExtension><gpxtpx:hr>163</gpxtpx:hr></gpxtpx:TrackPointExtension></extensions>
      </trkpt>
      <trkpt lat="59.9877085" lon="15.8153912">
        <ele>93.4</ele>
        <time>2012-10-30T19:32:25Z</time>
        <extensions><gpxtpx:TrackPointExtension><gpxtpx:hr>164</gpxtpx:hr></gpxtpx:TrackPointExtension></extensions>
      </trkpt>
      <trkpt lat="59.9876912" lon="15.8154055">
        <ele>93.4</ele>
        <time>2012-10-30T19:32:26Z</time>
        <extensions><gpxtpx:TrackPointExtension><gpxtpx:hr>163</gpxtpx:hr></gpxtpx:TrackPointExtension></extensions>
      </trkpt>
      <trkpt lat="59.9876667" lon="15.8154227">
        <ele>93.4</ele>
        <time>2012-10-30T19:32:27Z</time>
        <extensions><gpxtpx:TrackPointExtension><gpxtpx:hr>163</gpxtpx:hr></gpxtpx:TrackPointExtension></extensions>
      </trkpt>
      <trkpt lat="59.9876432" lon="15.8154391">
        <ele>93.4</ele>
        <time>2012-10-30T19:32:28Z</time>
        <extensions><gpxtpx:TrackPointExtension><gpxtpx:hr>163</gpxtpx:hr></gpxtpx:TrackPointExtension></extensions>
      </trkpt>
      <trkpt lat="59.9876111" lon="15.8154622">
        <ele>93.4</ele>
        <time>2012-10-30T19:32:29Z</time>
        <extensions><gpxtpx:TrackPointExtension><gpxtpx:hr>163</gpxtpx:hr></gpxtpx:TrackPointExtension></extensions>
      </trkpt>
      <trkpt lat="59.9875941" lon="15.8154734">
        <ele>93.4</ele>
        <time>2012-10-30T19:32:30Z</time>
        <extensions><gpxtpx:TrackPointExtension><gpxtpx:hr>163</gpxtpx:hr></gpxtpx:TrackPointExtension></extensions>
      </trkpt>
      <trkpt lat="59.9875615" lon="15.8154983">
        <ele>93.4</ele>
        <time>2012-10-30T19:32:31Z</time>
        <extensions><gpxtpx:TrackPointExtension><gpxtpx:hr>163</gpxtpx:hr></gpxtpx:TrackPointExtension></extensions>
      </trkpt>
      <trkpt lat="59.987541" lon="15.8155108">
        <ele>93.4</ele>
        <time>2012-10-30T19:32:32Z</time>
        <extensions><gpxtpx:TrackPointExtension><gpxtpx:hr>163</gpxtpx:hr></gpxtpx:TrackPointExtension></extensions>
      </trkpt>
      <trkpt lat="59.9875207" lon="15.8155294">
        <ele>93.4</ele>
        <time>2012-10-30T19:32:33Z</time>
        <extensions><gpxtpx:TrackPointExtension><gpxtpx:hr>163</gpxtpx:hr></gpxtpx:TrackPointExtension></extensions>
      </trkpt>
      <trkpt lat="59.9874998" lon="15.8155423">
        <ele>93.4</ele>
        <time>2012-10-30T19:32:34Z</time>
        <extensions><gpxtpx:TrackPointExtension><gpxtpx:hr>163</gpxtpx:hr></gpxtpx:TrackPointExtension></extensions>
      </trkpt>
      <trkpt lat="59.9874717" lon="15.8155678">
        <ele>92.2</ele>
        <time>2012-10-30T19:32:35Z</time>
        <extensions><gpxtpx:TrackPointExtension><gpxtpx:hr>163</gpxtpx:hr></gpxtpx:TrackPointExtension></extensions>
      </trkpt>
      <trkpt lat="59.9874556" lon="15.8155714">
        <ele>92.2</ele>
        <time>2012-10-30T19:32:36Z</time>
        <extensions><gpxtpx:TrackPointExtension><gpxtpx:hr>162</gpxtpx:hr></gpxtpx:TrackPointExtension></extensions>
      </trkpt>
      <trkpt lat="59.9874214" lon="15.8155879">
        <ele>92.2</ele>
        <time>2012-10-30T19:32:37Z</time>
        <extensions><gpxtpx:TrackPointExtension><gpxtpx:hr>162</gpxtpx:hr></gpxtpx:TrackPointExtension></extensions>
      </trkpt>
      <trkpt lat="59.9874056" lon="15.8156082">
        <ele>92.2</ele>
        <time>2012-10-30T19:32:38Z</time>
        <extensions><gpxtpx:TrackPointExtension><gpxtpx:hr>163</gpxtpx:hr></gpxtpx:TrackPointExtension></extensions>
      </trkpt>
      <trkpt lat="59.9873761" lon="15.8156272">
        <ele>92.2</ele>
        <time>2012-10-30T19:32:39Z</time>
        <extensions><gpxtpx:TrackPointExtension><gpxtpx:hr>162</gpxtpx:hr></gpxtpx:TrackPointExtension></extensions>
      </trkpt>
      <trkpt lat="59.9873547" lon="15.8156462">
        <ele>92.2</ele>
        <time>2012-10-30T19:32:40Z</time>
        <extensions><gpxtpx:TrackPointExtension><gpxtpx:hr>163</gpxtpx:hr></gpxtpx:TrackPointExtension></extensions>
      </trkpt>
      <trkpt lat="59.9873246" lon="15.8156768">
        <ele>92.2</ele>
        <time>2012-10-30T19:32:41Z</time>
        <extensions><gpxtpx:TrackPointExtension><gpxtpx:hr>163</gpxtpx:hr></gpxtpx:TrackPointExtension></extensions>
      </trkpt>
      <trkpt lat="59.9873068" lon="15.8156895">
        <ele>92.2</ele>
        <time>2012-10-30T19:32:42Z</time>
        <extensions><gpxtpx:TrackPointExtension><gpxtpx:hr>162</gpxtpx:hr></gpxtpx:TrackPointExtension></extensions>
      </trkpt>
      <trkpt lat="59.9872806" lon="15.8157104">
        <ele>92.2</ele>
        <time>2012-10-30T19:32:43Z</time>
        <extensions><gpxtpx:TrackPointExtension><gpxtpx:hr>162</gpxtpx:hr></gpxtpx:TrackPointExtension></extensions>
      </trkpt>
      <trkpt lat="59.9872504" lon="15.8157333">
        <ele>92.2</ele>
        <time>2012-10-30T19:32:44Z</time>
        <extensions><gpxtpx:TrackPointExtension><gpxtpx:hr>161</gpxtpx:hr></gpxtpx:TrackPointExtension></extensions>
      </trkpt>
      <trkpt lat="59.9872275" lon="15.8157519">
        <ele>92.2</ele>
        <time>2012-10-30T19:32:45Z</time>
        <extensions><gpxtpx:TrackPointExtension><gpxtpx:hr>161</gpxtpx:hr></gpxtpx:TrackPointExtension></extensions>
      </trkpt>
      <trkpt lat="59.9872124" lon="15.8157649">
        <ele>92.2</ele>
        <time>2012-10-30T19:32:46Z</time>
        <extensions><gpxtpx:TrackPointExtension><gpxtpx:hr>160</gpxtpx:hr></gpxtpx:TrackPointExtension></extensions>
      </trkpt>
      <trkpt lat="59.9871787" lon="15.8157871">
        <ele>92.2</ele>
        <time>2012-10-30T19:32:47Z</time>
        <extensions><gpxtpx:TrackPointExtension><gpxtpx:hr>160</gpxtpx:hr></gpxtpx:TrackPointExtension></extensions>
      </trkpt>
      <trkpt lat="59.9871608" lon="15.8157993">
        <ele>92.2</ele>
        <time>2012-10-30T19:32:48Z</time>
        <extensions><gpxtpx:TrackPointExtension><gpxtpx:hr>160</gpxtpx:hr></gpxtpx:TrackPointExtension></extensions>
      </trkpt>
      <trkpt lat="59.9871315" lon="15.81582">
        <ele>92.2</ele>
        <time>2012-10-30T19:32:49Z</time>
        <extensions><gpxtpx:TrackPointExtension><gpxtpx:hr>161</gpxtpx:hr></gpxtpx:TrackPointExtension></extensions>
      </trkpt>
      <trkpt lat="59.9871046" lon="15.8158379">
        <ele>92.2</ele>
        <time>2012-10-30T19:32:50Z</time>
        <extensions><gpxtpx:TrackPointExtension><gpxtpx:hr>161</gpxtpx:hr></gpxtpx:TrackPointExtension></extensions>
      </trkpt>
      <trkpt lat="59.9870745" lon="15.8158567">
        <ele>92.2</ele>
        <time>2012-10-30T19:32:51Z</time>
        <extensions><gpxtpx:TrackPointExtension><gpxtpx:hr>162</gpxtpx:hr></gpxtpx:TrackPointExtension></extensions>
      </trkpt>
      <trkpt lat="59.9870466" lon="15.8158728">
        <ele>91.2</ele>
        <time>2012-10-30T19:32:52Z</time>
        <extensions><gpxtpx:TrackPointExtension><gpxtpx:hr>163</gpxtpx:hr></gpxtpx:TrackPointExtension></extensions>
      </trkpt>
      <trkpt lat="59.9870198" lon="15.8158948">
        <ele>91.2</ele>
        <time>2012-10-30T19:32:53Z</time>
        <extensions><gpxtpx:TrackPointExtension><gpxtpx:hr>163</gpxtpx:hr></gpxtpx:TrackPointExtension></extensions>
      </trkpt>
      <trkpt lat="59.9869939" lon="15.8159119">
        <ele>91.2</ele>
        <time>2012-10-30T19:32:54Z</time>
        <extensions><gpxtpx:TrackPointExtension><gpxtpx:hr>164</gpxtpx:hr></gpxtpx:TrackPointExtension></extensions>
      </trkpt>
      <trkpt lat="59.9869484" lon="15.8159465">
        <ele>91.2</ele>
        <time>2012-10-30T19:32:56Z</time>
        <extensions><gpxtpx:TrackPointExtension><gpxtpx:hr>165</gpxtpx:hr></gpxtpx:TrackPointExtension></extensions>
      </trkpt>
      <trkpt lat="59.986922" lon="15.8159691">
        <ele>91.2</ele>
        <time>2012-10-30T19:32:57Z</time>
        <extensions><gpxtpx:TrackPointExtension><gpxtpx:hr>166</gpxtpx:hr></gpxtpx:TrackPointExtension></extensions>
      </trkpt>
      <trkpt lat="59.9868656" lon="15.8160139">
        <ele>91.2</ele>
        <time>2012-10-30T19:32:59Z</time>
        <extensions><gpxtpx:TrackPointExtension><gpxtpx:hr>167</gpxtpx:hr></gpxtpx:TrackPointExtension></extensions>
      </trkpt>
      <trkpt lat="59.9868537" lon="15.8160325">
        <ele>91.2</ele>
        <time>2012-10-30T19:33:00Z</time>
        <extensions><gpxtpx:TrackPointExtension><gpxtpx:hr>167</gpxtpx:hr></gpxtpx:TrackPointExtension></extensions>
      </trkpt>
      <trkpt lat="59.986834" lon="15.8160786">
        <ele>91.2</ele>
        <time>2012-10-30T19:33:01Z</time>
        <extensions><gpxtpx:TrackPointExtension><gpxtpx:hr>168</gpxtpx:hr></gpxtpx:TrackPointExtension></extensions>
      </trkpt>
      <trkpt lat="59.9868308" lon="15.8161293">
        <ele>90.2</ele>
        <time>2012-10-30T19:33:02Z</time>
        <extensions><gpxtpx:TrackPointExtension><gpxtpx:hr>167</gpxtpx:hr></gpxtpx:TrackPointExtension></extensions>
      </trkpt>
      <trkpt lat="59.9868327" lon="15.8161863">
        <ele>90.2</ele>
        <time>2012-10-30T19:33:03Z</time>
        <extensions><gpxtpx:TrackPointExtension><gpxtpx:hr>167</gpxtpx:hr></gpxtpx:TrackPointExtension></extensions>
      </trkpt>
      <trkpt lat="59.986837" lon="15.8162438">
        <ele>90.2</ele>
        <time>2012-10-30T19:33:04Z</time>
        <extensions><gpxtpx:TrackPointExtension><gpxtpx:hr>168</gpxtpx:hr></gpxtpx:TrackPointExtension></extensions>
      </trkpt>
      <trkpt lat="59.9868404" lon="15.8162964">
        <ele>90.2</ele>
        <time>2012-10-30T19:33:05Z</time>
        <extensions><gpxtpx:TrackPointExtension><gpxtpx:hr>168</gpxtpx:hr></gpxtpx:TrackPointExtension></extensions>
      </trkpt>
      <trkpt lat="59.9868453" lon="15.8163296">
        <ele>90.2</ele>
        <time>2012-10-30T19:33:06Z</time>
        <extensions><gpxtpx:TrackPointExtension><gpxtpx:hr>168</gpxtpx:hr></gpxtpx:TrackPointExtension></extensions>
      </trkpt>
      <trkpt lat="59.9868519" lon="15.8163894">
        <ele>90.2</ele>
        <time>2012-10-30T19:33:07Z</time>
        <extensions><gpxtpx:TrackPointExtension><gpxtpx:hr>167</gpxtpx:hr></gpxtpx:TrackPointExtension></extensions>
      </trkpt>
      <trkpt lat="59.9868518" lon="15.8164541">
        <ele>90.2</ele>
        <time>2012-10-30T19:33:08Z</time>
        <extensions><gpxtpx:TrackPointExtension><gpxtpx:hr>167</gpxtpx:hr></gpxtpx:TrackPointExtension></extensions>
      </trkpt>
      <trkpt lat="59.9868544" lon="15.8165054">
        <ele>89.2</ele>
        <time>2012-10-30T19:33:09Z</time>
        <extensions><gpxtpx:TrackPointExtension><gpxtpx:hr>167</gpxtpx:hr></gpxtpx:TrackPointExtension></extensions>
      </trkpt>
      <trkpt lat="59.9868551" lon="15.8165287">
        <ele>89.2</ele>
        <time>2012-10-30T19:33:10Z</time>
        <extensions><gpxtpx:TrackPointExtension><gpxtpx:hr>167</gpxtpx:hr></gpxtpx:TrackPointExtension></extensions>
      </trkpt>
      <trkpt lat="59.9868561" lon="15.8165975">
        <ele>89.2</ele>
        <time>2012-10-30T19:33:11Z</time>
        <extensions><gpxtpx:TrackPointExtension><gpxtpx:hr>167</gpxtpx:hr></gpxtpx:TrackPointExtension></extensions>
      </trkpt>
      <trkpt lat="59.9868611" lon="15.8166431">
        <ele>89</ele>
        <time>2012-10-30T19:33:12Z</time>
        <extensions><gpxtpx:TrackPointExtension><gpxtpx:hr>167</gpxtpx:hr></gpxtpx:TrackPointExtension></extensions>
      </trkpt>
      <trkpt lat="59.9868599" lon="15.8166961">
        <ele>89.2</ele>
        <time>2012-10-30T19:33:13Z</time>
        <extensions><gpxtpx:TrackPointExtension><gpxtpx:hr>167</gpxtpx:hr></gpxtpx:TrackPointExtension></extensions>
      </trkpt>
      <trkpt lat="59.9868594" lon="15.8167582">
        <ele>89.2</ele>
        <time>2012-10-30T19:33:14Z</time>
        <extensions><gpxtpx:TrackPointExtension><gpxtpx:hr>167</gpxtpx:hr></gpxtpx:TrackPointExtension></extensions>
      </trkpt>
      <trkpt lat="59.986861" lon="15.8168069">
        <ele>89.2</ele>
        <time>2012-10-30T19:33:15Z</time>
        <extensions><gpxtpx:TrackPointExtension><gpxtpx:hr>168</gpxtpx:hr></gpxtpx:TrackPointExtension></extensions>
      </trkpt>
      <trkpt lat="59.9868626" lon="15.8169063">
        <ele>89.2</ele>
        <time>2012-10-30T19:33:17Z</time>
        <extensions><gpxtpx:TrackPointExtension><gpxtpx:hr>168</gpxtpx:hr></gpxtpx:TrackPointExtension></extensions>
      </trkpt>
      <trkpt lat="59.986862" lon="15.8169579">
        <ele>89.2</ele>
        <time>2012-10-30T19:33:18Z</time>
        <extensions><gpxtpx:TrackPointExtension><gpxtpx:hr>168</gpxtpx:hr></gpxtpx:TrackPointExtension></extensions>
      </trkpt>
      <trkpt lat="59.9868613" lon="15.8170084">
        <ele>89</ele>
        <time>2012-10-30T19:33:19Z</time>
        <extensions><gpxtpx:TrackPointExtension><gpxtpx:hr>168</gpxtpx:hr></gpxtpx:TrackPointExtension></extensions>
      </trkpt>
      <trkpt lat="59.9868616" lon="15.8170497">
        <ele>89.2</ele>
        <time>2012-10-30T19:33:20Z</time>
        <extensions><gpxtpx:TrackPointExtension><gpxtpx:hr>168</gpxtpx:hr></gpxtpx:TrackPointExtension></extensions>
      </trkpt>
      <trkpt lat="59.9868605" lon="15.8171056">
        <ele>89</ele>
        <time>2012-10-30T19:33:21Z</time>
        <extensions><gpxtpx:TrackPointExtension><gpxtpx:hr>168</gpxtpx:hr></gpxtpx:TrackPointExtension></extensions>
      </trkpt>
      <trkpt lat="59.9868591" lon="15.8171326">
        <ele>89</ele>
        <time>2012-10-30T19:33:22Z</time>
        <extensions><gpxtpx:TrackPointExtension><gpxtpx:hr>168</gpxtpx:hr></gpxtpx:TrackPointExtension></extensions>
      </trkpt>
      <trkpt lat="59.9868555" lon="15.8171887">
        <ele>89</ele>
        <time>2012-10-30T19:33:23Z</time>
        <extensions><gpxtpx:TrackPointExtension><gpxtpx:hr>169</gpxtpx:hr></gpxtpx:TrackPointExtension></extensions>
      </trkpt>
      <trkpt lat="59.9868471" lon="15.8172738">
        <ele>89.2</ele>
        <time>2012-10-30T19:33:24Z</time>
        <extensions><gpxtpx:TrackPointExtension><gpxtpx:hr>169</gpxtpx:hr></gpxtpx:TrackPointExtension></extensions>
      </trkpt>
      <trkpt lat="59.9868153" lon="15.8175554">
        <ele>89.2</ele>
        <time>2012-10-30T19:33:30Z</time>
        <extensions><gpxtpx:TrackPointExtension><gpxtpx:hr>170</gpxtpx:hr></gpxtpx:TrackPointExtension></extensions>
      </trkpt>
      <trkpt lat="59.9868031" lon="15.8176108">
        <ele>89.2</ele>
        <time>2012-10-30T19:33:31Z</time>
        <extensions><gpxtpx:TrackPointExtension><gpxtpx:hr>170</gpxtpx:hr></gpxtpx:TrackPointExtension></extensions>
      </trkpt>
      <trkpt lat="59.9867927" lon="15.817643">
        <ele>89.2</ele>
        <time>2012-10-30T19:33:32Z</time>
        <extensions><gpxtpx:TrackPointExtension><gpxtpx:hr>170</gpxtpx:hr></gpxtpx:TrackPointExtension></extensions>
      </trkpt>
      <trkpt lat="59.9867813" lon="15.8176881">
        <ele>89.2</ele>
        <time>2012-10-30T19:33:33Z</time>
        <extensions><gpxtpx:TrackPointExtension><gpxtpx:hr>170</gpxtpx:hr></gpxtpx:TrackPointExtension></extensions>
      </trkpt>
      <trkpt lat="59.986769" lon="15.8177391">
        <ele>89.2</ele>
        <time>2012-10-30T19:33:34Z</time>
        <extensions><gpxtpx:TrackPointExtension><gpxtpx:hr>170</gpxtpx:hr></gpxtpx:TrackPointExtension></extensions>
      </trkpt>
      <trkpt lat="59.9867578" lon="15.8177813">
        <ele>89.2</ele>
        <time>2012-10-30T19:33:35Z</time>
        <extensions><gpxtpx:TrackPointExtension><gpxtpx:hr>170</gpxtpx:hr></gpxtpx:TrackPointExtension></extensions>
      </trkpt>
      <trkpt lat="59.9867471" lon="15.8178116">
        <ele>89.2</ele>
        <time>2012-10-30T19:33:36Z</time>
        <extensions><gpxtpx:TrackPointExtension><gpxtpx:hr>170</gpxtpx:hr></gpxtpx:TrackPointExtension></extensions>
      </trkpt>
      <trkpt lat="59.9867269" lon="15.8178703">
        <ele>89.2</ele>
        <time>2012-10-30T19:33:37Z</time>
        <extensions><gpxtpx:TrackPointExtension><gpxtpx:hr>170</gpxtpx:hr></gpxtpx:TrackPointExtension></extensions>
      </trkpt>
      <trkpt lat="59.9867085" lon="15.8179144">
        <ele>89.2</ele>
        <time>2012-10-30T19:33:38Z</time>
        <extensions><gpxtpx:TrackPointExtension><gpxtpx:hr>170</gpxtpx:hr></gpxtpx:TrackPointExtension></extensions>
      </trkpt>
      <trkpt lat="59.9866667" lon="15.8180307">
        <ele>89.2</ele>
        <time>2012-10-30T19:33:41Z</time>
        <extensions><gpxtpx:TrackPointExtension><gpxtpx:hr>170</gpxtpx:hr></gpxtpx:TrackPointExtension></extensions>
      </trkpt>
      <trkpt lat="59.9866535" lon="15.8180624">
        <ele>89</ele>
        <time>2012-10-30T19:33:42Z</time>
        <extensions><gpxtpx:TrackPointExtension><gpxtpx:hr>170</gpxtpx:hr></gpxtpx:TrackPointExtension></extensions>
      </trkpt>
      <trkpt lat="59.9866381" lon="15.8181059">
        <ele>89.2</ele>
        <time>2012-10-30T19:33:43Z</time>
        <extensions><gpxtpx:TrackPointExtension><gpxtpx:hr>170</gpxtpx:hr></gpxtpx:TrackPointExtension></extensions>
      </trkpt>
      <trkpt lat="59.9866034" lon="15.8181832">
        <ele>89.2</ele>
        <time>2012-10-30T19:33:45Z</time>
        <extensions><gpxtpx:TrackPointExtension><gpxtpx:hr>170</gpxtpx:hr></gpxtpx:TrackPointExtension></extensions>
      </trkpt>
      <trkpt lat="59.9865939" lon="15.8182099">
        <ele>89.2</ele>
        <time>2012-10-30T19:33:46Z</time>
        <extensions><gpxtpx:TrackPointExtension><gpxtpx:hr>170</gpxtpx:hr></gpxtpx:TrackPointExtension></extensions>
      </trkpt>
      <trkpt lat="59.9865777" lon="15.8182671">
        <ele>89.2</ele>
        <time>2012-10-30T19:33:47Z</time>
        <extensions><gpxtpx:TrackPointExtension><gpxtpx:hr>171</gpxtpx:hr></gpxtpx:TrackPointExtension></extensions>
      </trkpt>
      <trkpt lat="59.9865733" lon="15.818303">
        <ele>89.2</ele>
        <time>2012-10-30T19:33:48Z</time>
        <extensions><gpxtpx:TrackPointExtension><gpxtpx:hr>171</gpxtpx:hr></gpxtpx:TrackPointExtension></extensions>
      </trkpt>
      <trkpt lat="59.9865638" lon="15.8183671">
        <ele>89.2</ele>
        <time>2012-10-30T19:33:49Z</time>
        <extensions><gpxtpx:TrackPointExtension><gpxtpx:hr>171</gpxtpx:hr></gpxtpx:TrackPointExtension></extensions>
      </trkpt>
      <trkpt lat="59.9865619" lon="15.8184058">
        <ele>89.2</ele>
        <time>2012-10-30T19:33:50Z</time>
        <extensions><gpxtpx:TrackPointExtension><gpxtpx:hr>171</gpxtpx:hr></gpxtpx:TrackPointExtension></extensions>
      </trkpt>
      <trkpt lat="59.98656" lon="15.81846">
        <ele>89.2</ele>
        <time>2012-10-30T19:33:51Z</time>
        <extensions><gpxtpx:TrackPointExtension><gpxtpx:hr>171</gpxtpx:hr></gpxtpx:TrackPointExtension></extensions>
      </trkpt>
      <trkpt lat="59.9865738" lon="15.8187504">
        <ele>89.2</ele>
        <time>2012-10-30T19:33:57Z</time>
        <extensions><gpxtpx:TrackPointExtension><gpxtpx:hr>172</gpxtpx:hr></gpxtpx:TrackPointExtension></extensions>
      </trkpt>
      <trkpt lat="59.9865794" lon="15.81881">
        <ele>89.2</ele>
        <time>2012-10-30T19:33:58Z</time>
        <extensions><gpxtpx:TrackPointExtension><gpxtpx:hr>172</gpxtpx:hr></gpxtpx:TrackPointExtension></extensions>
      </trkpt>
      <trkpt lat="59.9865869" lon="15.818897">
        <ele>89.2</ele>
        <time>2012-10-30T19:34:00Z</time>
        <extensions><gpxtpx:TrackPointExtension><gpxtpx:hr>171</gpxtpx:hr></gpxtpx:TrackPointExtension></extensions>
      </trkpt>
      <trkpt lat="59.9865909" lon="15.8189593">
        <ele>89.2</ele>
        <time>2012-10-30T19:34:01Z</time>
        <extensions><gpxtpx:TrackPointExtension><gpxtpx:hr>172</gpxtpx:hr></gpxtpx:TrackPointExtension></extensions>
      </trkpt>
      <trkpt lat="59.9866078" lon="15.819205">
        <ele>89</ele>
        <time>2012-10-30T19:34:06Z</time>
        <extensions><gpxtpx:TrackPointExtension><gpxtpx:hr>172</gpxtpx:hr></gpxtpx:TrackPointExtension></extensions>
      </trkpt>
      <trkpt lat="59.9866121" lon="15.819269">
        <ele>89.2</ele>
        <time>2012-10-30T19:34:07Z</time>
        <extensions><gpxtpx:TrackPointExtension><gpxtpx:hr>172</gpxtpx:hr></gpxtpx:TrackPointExtension></extensions>
      </trkpt>
      <trkpt lat="59.9866161" lon="15.8193237">
        <ele>89.2</ele>
        <time>2012-10-30T19:34:08Z</time>
        <extensions><gpxtpx:TrackPointExtension><gpxtpx:hr>171</gpxtpx:hr></gpxtpx:TrackPointExtension></extensions>
      </trkpt>
      <trkpt lat="59.9866197" lon="15.8193694">
        <ele>89</ele>
        <time>2012-10-30T19:34:09Z</time>
        <extensions><gpxtpx:TrackPointExtension><gpxtpx:hr>171</gpxtpx:hr></gpxtpx:TrackPointExtension></extensions>
      </trkpt>
      <trkpt lat="59.986623" lon="15.8194224">
        <ele>89.2</ele>
        <time>2012-10-30T19:34:10Z</time>
        <extensions><gpxtpx:TrackPointExtension><gpxtpx:hr>172</gpxtpx:hr></gpxtpx:TrackPointExtension></extensions>
      </trkpt>
      <trkpt lat="59.9866291" lon="15.8195223">
        <ele>89</ele>
        <time>2012-10-30T19:34:12Z</time>
        <extensions><gpxtpx:TrackPointExtension><gpxtpx:hr>171</gpxtpx:hr></gpxtpx:TrackPointExtension></extensions>
      </trkpt>
      <trkpt lat="59.9866324" lon="15.8195654">
        <ele>89.2</ele>
        <time>2012-10-30T19:34:13Z</time>
        <extensions><gpxtpx:TrackPointExtension><gpxtpx:hr>172</gpxtpx:hr></gpxtpx:TrackPointExtension></extensions>
      </trkpt>
      <trkpt lat="59.9866405" lon="15.8196659">
        <ele>89</ele>
        <time>2012-10-30T19:34:15Z</time>
        <extensions><gpxtpx:TrackPointExtension><gpxtpx:hr>171</gpxtpx:hr></gpxtpx:TrackPointExtension></extensions>
      </trkpt>
      <trkpt lat="59.9866421" lon="15.8197162">
        <ele>89.2</ele>
        <time>2012-10-30T19:34:16Z</time>
        <extensions><gpxtpx:TrackPointExtension><gpxtpx:hr>171</gpxtpx:hr></gpxtpx:TrackPointExtension></extensions>
      </trkpt>
      <trkpt lat="59.9866441" lon="15.8197675">
        <ele>89</ele>
        <time>2012-10-30T19:34:17Z</time>
        <extensions><gpxtpx:TrackPointExtension><gpxtpx:hr>171</gpxtpx:hr></gpxtpx:TrackPointExtension></extensions>
      </trkpt>
      <trkpt lat="59.9866459" lon="15.8198173">
        <ele>89.2</ele>
        <time>2012-10-30T19:34:18Z</time>
        <extensions><gpxtpx:TrackPointExtension><gpxtpx:hr>171</gpxtpx:hr></gpxtpx:TrackPointExtension></extensions>
      </trkpt>
      <trkpt lat="59.9866479" lon="15.8199161">
        <ele>89</ele>
        <time>2012-10-30T19:34:20Z</time>
        <extensions><gpxtpx:TrackPointExtension><gpxtpx:hr>171</gpxtpx:hr></gpxtpx:TrackPointExtension></extensions>
      </trkpt>
      <trkpt lat="59.9866473" lon="15.8199571">
        <ele>89.2</ele>
        <time>2012-10-30T19:34:21Z</time>
        <extensions><gpxtpx:TrackPointExtension><gpxtpx:hr>171</gpxtpx:hr></gpxtpx:TrackPointExtension></extensions>
      </trkpt>
      <trkpt lat="59.9866461" lon="15.820011">
        <ele>89.2</ele>
        <time>2012-10-30T19:34:22Z</time>
        <extensions><gpxtpx:TrackPointExtension><gpxtpx:hr>171</gpxtpx:hr></gpxtpx:TrackPointExtension></extensions>
      </trkpt>
      <trkpt lat="59.9866421" lon="15.8200636">
        <ele>89.2</ele>
        <time>2012-10-30T19:34:23Z</time>
        <extensions><gpxtpx:TrackPointExtension><gpxtpx:hr>171</gpxtpx:hr></gpxtpx:TrackPointExtension></extensions>
      </trkpt>
      <trkpt lat="59.9866401" lon="15.8201144">
        <ele>89.2</ele>
        <time>2012-10-30T19:34:24Z</time>
        <extensions><gpxtpx:TrackPointExtension><gpxtpx:hr>171</gpxtpx:hr></gpxtpx:TrackPointExtension></extensions>
      </trkpt>
      <trkpt lat="59.9866374" lon="15.8201544">
        <ele>89</ele>
        <time>2012-10-30T19:34:25Z</time>
        <extensions><gpxtpx:TrackPointExtension><gpxtpx:hr>171</gpxtpx:hr></gpxtpx:TrackPointExtension></extensions>
      </trkpt>
      <trkpt lat="59.9866202" lon="15.8205488">
        <ele>89.2</ele>
        <time>2012-10-30T19:34:33Z</time>
        <extensions><gpxtpx:TrackPointExtension><gpxtpx:hr>171</gpxtpx:hr></gpxtpx:TrackPointExtension></extensions>
      </trkpt>
      <trkpt lat="59.9866114" lon="15.82065">
        <ele>89.2</ele>
        <time>2012-10-30T19:34:35Z</time>
        <extensions><gpxtpx:TrackPointExtension><gpxtpx:hr>171</gpxtpx:hr></gpxtpx:TrackPointExtension></extensions>
      </trkpt>
      <trkpt lat="59.9866051" lon="15.8207076">
        <ele>89.2</ele>
        <time>2012-10-30T19:34:36Z</time>
        <extensions><gpxtpx:TrackPointExtension><gpxtpx:hr>172</gpxtpx:hr></gpxtpx:TrackPointExtension></extensions>
      </trkpt>
      <trkpt lat="59.9865915" lon="15.8208492">
        <ele>89.2</ele>
        <time>2012-10-30T19:34:39Z</time>
        <extensions><gpxtpx:TrackPointExtension><gpxtpx:hr>172</gpxtpx:hr></gpxtpx:TrackPointExtension></extensions>
      </trkpt>
      <trkpt lat="59.9865767" lon="15.8209598">
        <ele>89.2</ele>
        <time>2012-10-30T19:34:41Z</time>
        <extensions><gpxtpx:TrackPointExtension><gpxtpx:hr>172</gpxtpx:hr></gpxtpx:TrackPointExtension></extensions>
      </trkpt>
      <trkpt lat="59.986572" lon="15.8210026">
        <ele>89.2</ele>
        <time>2012-10-30T19:34:42Z</time>
        <extensions><gpxtpx:TrackPointExtension><gpxtpx:hr>172</gpxtpx:hr></gpxtpx:TrackPointExtension></extensions>
      </trkpt>
      <trkpt lat="59.9865674" lon="15.8210562">
        <ele>89.2</ele>
        <time>2012-10-30T19:34:43Z</time>
        <extensions><gpxtpx:TrackPointExtension><gpxtpx:hr>171</gpxtpx:hr></gpxtpx:TrackPointExtension></extensions>
      </trkpt>
      <trkpt lat="59.986556" lon="15.8211478">
        <ele>89.2</ele>
        <time>2012-10-30T19:34:45Z</time>
        <extensions><gpxtpx:TrackPointExtension><gpxtpx:hr>172</gpxtpx:hr></gpxtpx:TrackPointExtension></extensions>
      </trkpt>
      <trkpt lat="59.9865493" lon="15.8212034">
        <ele>89.2</ele>
        <time>2012-10-30T19:34:46Z</time>
        <extensions><gpxtpx:TrackPointExtension><gpxtpx:hr>172</gpxtpx:hr></gpxtpx:TrackPointExtension></extensions>
      </trkpt>
      <trkpt lat="59.9865474" lon="15.8212463">
        <ele>89.2</ele>
        <time>2012-10-30T19:34:47Z</time>
        <extensions><gpxtpx:TrackPointExtension><gpxtpx:hr>172</gpxtpx:hr></gpxtpx:TrackPointExtension></extensions>
      </trkpt>
      <trkpt lat="59.986545" lon="15.8212905">
        <ele>89</ele>
        <time>2012-10-30T19:34:48Z</time>
        <extensions><gpxtpx:TrackPointExtension><gpxtpx:hr>172</gpxtpx:hr></gpxtpx:TrackPointExtension></extensions>
      </trkpt>
      <trkpt lat="59.9865363" lon="15.8213561">
        <ele>89.2</ele>
        <time>2012-10-30T19:34:49Z</time>
        <extensions><gpxtpx:TrackPointExtension><gpxtpx:hr>172</gpxtpx:hr></gpxtpx:TrackPointExtension></extensions>
      </trkpt>
      <trkpt lat="59.9865315" lon="15.8214089">
        <ele>89.2</ele>
        <time>2012-10-30T19:34:50Z</time>
        <extensions><gpxtpx:TrackPointExtension><gpxtpx:hr>173</gpxtpx:hr></gpxtpx:TrackPointExtension></extensions>
      </trkpt>
      <trkpt lat="59.986528" lon="15.8214401">
        <ele>89</ele>
        <time>2012-10-30T19:34:51Z</time>
        <extensions><gpxtpx:TrackPointExtension><gpxtpx:hr>172</gpxtpx:hr></gpxtpx:TrackPointExtension></extensions>
      </trkpt>
      <trkpt lat="59.9865239" lon="15.8215047">
        <ele>89</ele>
        <time>2012-10-30T19:34:52Z</time>
        <extensions><gpxtpx:TrackPointExtension><gpxtpx:hr>172</gpxtpx:hr></gpxtpx:TrackPointExtension></extensions>
      </trkpt>
      <trkpt lat="59.9865175" lon="15.8215617">
        <ele>89.2</ele>
        <time>2012-10-30T19:34:53Z</time>
        <extensions><gpxtpx:TrackPointExtension><gpxtpx:hr>172</gpxtpx:hr></gpxtpx:TrackPointExtension></extensions>
      </trkpt>
      <trkpt lat="59.9865138" lon="15.8216086">
        <ele>89</ele>
        <time>2012-10-30T19:34:54Z</time>
        <extensions><gpxtpx:TrackPointExtension><gpxtpx:hr>173</gpxtpx:hr></gpxtpx:TrackPointExtension></extensions>
      </trkpt>
      <trkpt lat="59.9865107" lon="15.8216555">
        <ele>89</ele>
        <time>2012-10-30T19:34:55Z</time>
        <extensions><gpxtpx:TrackPointExtension><gpxtpx:hr>172</gpxtpx:hr></gpxtpx:TrackPointExtension></extensions>
      </trkpt>
      <trkpt lat="59.9865016" lon="15.8217203">
        <ele>89.2</ele>
        <time>2012-10-30T19:34:56Z</time>
        <extensions><gpxtpx:TrackPointExtension><gpxtpx:hr>172</gpxtpx:hr></gpxtpx:TrackPointExtension></extensions>
      </trkpt>
      <trkpt lat="59.9864994" lon="15.821752">
        <ele>89</ele>
        <time>2012-10-30T19:34:57Z</time>
        <extensions><gpxtpx:TrackPointExtension><gpxtpx:hr>172</gpxtpx:hr></gpxtpx:TrackPointExtension></extensions>
      </trkpt>
      <trkpt lat="59.9864975" lon="15.8217836">
        <ele>89.2</ele>
        <time>2012-10-30T19:34:58Z</time>
        <extensions><gpxtpx:TrackPointExtension><gpxtpx:hr>173</gpxtpx:hr></gpxtpx:TrackPointExtension></extensions>
      </trkpt>
      <trkpt lat="59.9864851" lon="15.8219161">
        <ele>89</ele>
        <time>2012-10-30T19:35:00Z</time>
        <extensions><gpxtpx:TrackPointExtension><gpxtpx:hr>172</gpxtpx:hr></gpxtpx:TrackPointExtension></extensions>
      </trkpt>
      <trkpt lat="59.9864788" lon="15.8219713">
        <ele>89.2</ele>
        <time>2012-10-30T19:35:01Z</time>
        <extensions><gpxtpx:TrackPointExtension><gpxtpx:hr>172</gpxtpx:hr></gpxtpx:TrackPointExtension></extensions>
      </trkpt>
      <trkpt lat="59.9864722" lon="15.8220216">
        <ele>89.2</ele>
        <time>2012-10-30T19:35:02Z</time>
        <extensions><gpxtpx:TrackPointExtension><gpxtpx:hr>172</gpxtpx:hr></gpxtpx:TrackPointExtension></extensions>
      </trkpt>
      <trkpt lat="59.9864676" lon="15.8220533">
        <ele>89.2</ele>
        <time>2012-10-30T19:35:03Z</time>
        <extensions><gpxtpx:TrackPointExtension><gpxtpx:hr>172</gpxtpx:hr></gpxtpx:TrackPointExtension></extensions>
      </trkpt>
      <trkpt lat="59.9864612" lon="15.8221133">
        <ele>89.2</ele>
        <time>2012-10-30T19:35:04Z</time>
        <extensions><gpxtpx:TrackPointExtension><gpxtpx:hr>172</gpxtpx:hr></gpxtpx:TrackPointExtension></extensions>
      </trkpt>
      <trkpt lat="59.986455" lon="15.8221615">
        <ele>89.2</ele>
        <time>2012-10-30T19:35:05Z</time>
        <extensions><gpxtpx:TrackPointExtension><gpxtpx:hr>172</gpxtpx:hr></gpxtpx:TrackPointExtension></extensions>
      </trkpt>
      <trkpt lat="59.986451" lon="15.8222163">
        <ele>89.2</ele>
        <time>2012-10-30T19:35:06Z</time>
        <extensions><gpxtpx:TrackPointExtension><gpxtpx:hr>172</gpxtpx:hr></gpxtpx:TrackPointExtension></extensions>
      </trkpt>
      <trkpt lat="59.9864449" lon="15.8222603">
        <ele>89.2</ele>
        <time>2012-10-30T19:35:07Z</time>
        <extensions><gpxtpx:TrackPointExtension><gpxtpx:hr>172</gpxtpx:hr></gpxtpx:TrackPointExtension></extensions>
      </trkpt>
      <trkpt lat="59.9864378" lon="15.8223184">
        <ele>89.2</ele>
        <time>2012-10-30T19:35:08Z</time>
        <extensions><gpxtpx:TrackPointExtension><gpxtpx:hr>172</gpxtpx:hr></gpxtpx:TrackPointExtension></extensions>
      </trkpt>
      <trkpt lat="59.9864304" lon="15.8223735">
        <ele>89.2</ele>
        <time>2012-10-30T19:35:09Z</time>
        <extensions><gpxtpx:TrackPointExtension><gpxtpx:hr>172</gpxtpx:hr></gpxtpx:TrackPointExtension></extensions>
      </trkpt>
      <trkpt lat="59.9864225" lon="15.8224795">
        <ele>89.2</ele>
        <time>2012-10-30T19:35:11Z</time>
        <extensions><gpxtpx:TrackPointExtension><gpxtpx:hr>172</gpxtpx:hr></gpxtpx:TrackPointExtension></extensions>
      </trkpt>
      <trkpt lat="59.9864169" lon="15.8225432">
        <ele>89.2</ele>
        <time>2012-10-30T19:35:12Z</time>
        <extensions><gpxtpx:TrackPointExtension><gpxtpx:hr>172</gpxtpx:hr></gpxtpx:TrackPointExtension></extensions>
      </trkpt>
      <trkpt lat="59.9864068" lon="15.8226074">
        <ele>89.2</ele>
        <time>2012-10-30T19:35:13Z</time>
        <extensions><gpxtpx:TrackPointExtension><gpxtpx:hr>172</gpxtpx:hr></gpxtpx:TrackPointExtension></extensions>
      </trkpt>
      <trkpt lat="59.9863892" lon="15.8227611">
        <ele>89.2</ele>
        <time>2012-10-30T19:35:16Z</time>
        <extensions><gpxtpx:TrackPointExtension><gpxtpx:hr>173</gpxtpx:hr></gpxtpx:TrackPointExtension></extensions>
      </trkpt>
      <trkpt lat="59.9863757" lon="15.8228655">
        <ele>89.2</ele>
        <time>2012-10-30T19:35:18Z</time>
        <extensions><gpxtpx:TrackPointExtension><gpxtpx:hr>173</gpxtpx:hr></gpxtpx:TrackPointExtension></extensions>
      </trkpt>
      <trkpt lat="59.9863678" lon="15.8229221">
        <ele>89.2</ele>
        <time>2012-10-30T19:35:19Z</time>
        <extensions><gpxtpx:TrackPointExtension><gpxtpx:hr>172</gpxtpx:hr></gpxtpx:TrackPointExtension></extensions>
      </trkpt>
      <trkpt lat="59.9863625" lon="15.8229721">
        <ele>89.2</ele>
        <time>2012-10-30T19:35:20Z</time>
        <extensions><gpxtpx:TrackPointExtension><gpxtpx:hr>173</gpxtpx:hr></gpxtpx:TrackPointExtension></extensions>
      </trkpt>
      <trkpt lat="59.9863584" lon="15.8230049">
        <ele>89</ele>
        <time>2012-10-30T19:35:21Z</time>
        <extensions><gpxtpx:TrackPointExtension><gpxtpx:hr>173</gpxtpx:hr></gpxtpx:TrackPointExtension></extensions>
      </trkpt>
      <trkpt lat="59.9863498" lon="15.8230627">
        <ele>89</ele>
        <time>2012-10-30T19:35:22Z</time>
        <extensions><gpxtpx:TrackPointExtension><gpxtpx:hr>173</gpxtpx:hr></gpxtpx:TrackPointExtension></extensions>
      </trkpt>
      <trkpt lat="59.9863397" lon="15.8231235">
        <ele>89.2</ele>
        <time>2012-10-30T19:35:23Z</time>
        <extensions><gpxtpx:TrackPointExtension><gpxtpx:hr>173</gpxtpx:hr></gpxtpx:TrackPointExtension></extensions>
      </trkpt>
      <trkpt lat="59.9863337" lon="15.8231713">
        <ele>89</ele>
        <time>2012-10-30T19:35:24Z</time>
        <extensions><gpxtpx:TrackPointExtension><gpxtpx:hr>172</gpxtpx:hr></gpxtpx:TrackPointExtension></extensions>
      </trkpt>
      <trkpt lat="59.986327" lon="15.8232075">
        <ele>89</ele>
        <time>2012-10-30T19:35:25Z</time>
        <extensions><gpxtpx:TrackPointExtension><gpxtpx:hr>172</gpxtpx:hr></gpxtpx:TrackPointExtension></extensions>
      </trkpt>
      <trkpt lat="59.9863186" lon="15.8232654">
        <ele>89</ele>
        <time>2012-10-30T19:35:26Z</time>
        <extensions><gpxtpx:TrackPointExtension><gpxtpx:hr>172</gpxtpx:hr></gpxtpx:TrackPointExtension></extensions>
      </trkpt>
      <trkpt lat="59.9863114" lon="15.8233077">
        <ele>89</ele>
        <time>2012-10-30T19:35:27Z</time>
        <extensions><gpxtpx:TrackPointExtension><gpxtpx:hr>173</gpxtpx:hr></gpxtpx:TrackPointExtension></extensions>
      </trkpt>
      <trkpt lat="59.9863042" lon="15.8233555">
        <ele>89</ele>
        <time>2012-10-30T19:35:28Z</time>
        <extensions><gpxtpx:TrackPointExtension><gpxtpx:hr>172</gpxtpx:hr></gpxtpx:TrackPointExtension></extensions>
      </trkpt>
      <trkpt lat="59.9862957" lon="15.8234283">
        <ele>89.2</ele>
        <time>2012-10-30T19:35:29Z</time>
        <extensions><gpxtpx:TrackPointExtension><gpxtpx:hr>173</gpxtpx:hr></gpxtpx:TrackPointExtension></extensions>
      </trkpt>
      <trkpt lat="59.9862695" lon="15.8236169">
        <ele>89</ele>
        <time>2012-10-30T19:35:33Z</time>
        <extensions><gpxtpx:TrackPointExtension><gpxtpx:hr>173</gpxtpx:hr></gpxtpx:TrackPointExtension></extensions>
      </trkpt>
      <trkpt lat="59.9862633" lon="15.823674">
        <ele>89.2</ele>
        <time>2012-10-30T19:35:34Z</time>
        <extensions><gpxtpx:TrackPointExtension><gpxtpx:hr>173</gpxtpx:hr></gpxtpx:TrackPointExtension></extensions>
      </trkpt>
      <trkpt lat="59.9862623" lon="15.8237301">
        <ele>89.2</ele>
        <time>2012-10-30T19:35:35Z</time>
        <extensions><gpxtpx:TrackPointExtension><gpxtpx:hr>173</gpxtpx:hr></gpxtpx:TrackPointExtension></extensions>
      </trkpt>
      <trkpt lat="59.9862587" lon="15.8237831">
        <ele>89.2</ele>
        <time>2012-10-30T19:35:36Z</time>
        <extensions><gpxtpx:TrackPointExtension><gpxtpx:hr>173</gpxtpx:hr></gpxtpx:TrackPointExtension></extensions>
      </trkpt>
      <trkpt lat="59.9862555" lon="15.823822">
        <ele>89.2</ele>
        <time>2012-10-30T19:35:37Z</time>
        <extensions><gpxtpx:TrackPointExtension><gpxtpx:hr>173</gpxtpx:hr></gpxtpx:TrackPointExtension></extensions>
      </trkpt>
      <trkpt lat="59.9862507" lon="15.8238808">
        <ele>89.2</ele>
        <time>2012-10-30T19:35:38Z</time>
        <extensions><gpxtpx:TrackPointExtension><gpxtpx:hr>173</gpxtpx:hr></gpxtpx:TrackPointExtension></extensions>
      </trkpt>
      <trkpt lat="59.9862445" lon="15.8239428">
        <ele>89.2</ele>
        <time>2012-10-30T19:35:39Z</time>
        <extensions><gpxtpx:TrackPointExtension><gpxtpx:hr>173</gpxtpx:hr></gpxtpx:TrackPointExtension></extensions>
      </trkpt>
      <trkpt lat="59.9862399" lon="15.8239912">
        <ele>89.2</ele>
        <time>2012-10-30T19:35:40Z</time>
        <extensions><gpxtpx:TrackPointExtension><gpxtpx:hr>173</gpxtpx:hr></gpxtpx:TrackPointExtension></extensions>
      </trkpt>
      <trkpt lat="59.9862301" lon="15.8240531">
        <ele>89.2</ele>
        <time>2012-10-30T19:35:41Z</time>
        <extensions><gpxtpx:TrackPointExtension><gpxtpx:hr>173</gpxtpx:hr></gpxtpx:TrackPointExtension></extensions>
      </trkpt>
      <trkpt lat="59.9862213" lon="15.8241027">
        <ele>89.2</ele>
        <time>2012-10-30T19:35:42Z</time>
        <extensions><gpxtpx:TrackPointExtension><gpxtpx:hr>173</gpxtpx:hr></gpxtpx:TrackPointExtension></extensions>
      </trkpt>
      <trkpt lat="59.986213" lon="15.8241502">
        <ele>89.2</ele>
        <time>2012-10-30T19:35:43Z</time>
        <extensions><gpxtpx:TrackPointExtension><gpxtpx:hr>173</gpxtpx:hr></gpxtpx:TrackPointExtension></extensions>
      </trkpt>
      <trkpt lat="59.9862054" lon="15.8242038">
        <ele>89.2</ele>
        <time>2012-10-30T19:35:44Z</time>
        <extensions><gpxtpx:TrackPointExtension><gpxtpx:hr>174</gpxtpx:hr></gpxtpx:TrackPointExtension></extensions>
      </trkpt>
      <trkpt lat="59.9861908" lon="15.8242893">
        <ele>89.2</ele>
        <time>2012-10-30T19:35:46Z</time>
        <extensions><gpxtpx:TrackPointExtension><gpxtpx:hr>173</gpxtpx:hr></gpxtpx:TrackPointExtension></extensions>
      </trkpt>
      <trkpt lat="59.9861793" lon="15.8243349">
        <ele>89.2</ele>
        <time>2012-10-30T19:35:47Z</time>
        <extensions><gpxtpx:TrackPointExtension><gpxtpx:hr>173</gpxtpx:hr></gpxtpx:TrackPointExtension></extensions>
      </trkpt>
      <trkpt lat="59.9861431" lon="15.82451">
        <ele>89.2</ele>
        <time>2012-10-30T19:35:50Z</time>
        <extensions><gpxtpx:TrackPointExtension><gpxtpx:hr>173</gpxtpx:hr></gpxtpx:TrackPointExtension></extensions>
      </trkpt>
      <trkpt lat="59.986138" lon="15.8245537">
        <ele>89.2</ele>
        <time>2012-10-30T19:35:51Z</time>
        <extensions><gpxtpx:TrackPointExtension><gpxtpx:hr>173</gpxtpx:hr></gpxtpx:TrackPointExtension></extensions>
      </trkpt>
      <trkpt lat="59.9861212" lon="15.8246158">
        <ele>89.2</ele>
        <time>2012-10-30T19:35:52Z</time>
        <extensions><gpxtpx:TrackPointExtension><gpxtpx:hr>174</gpxtpx:hr></gpxtpx:TrackPointExtension></extensions>
      </trkpt>
      <trkpt lat="59.9861144" lon="15.8246666">
        <ele>89.2</ele>
        <time>2012-10-30T19:35:53Z</time>
        <extensions><gpxtpx:TrackPointExtension><gpxtpx:hr>173</gpxtpx:hr></gpxtpx:TrackPointExtension></extensions>
      </trkpt>
      <trkpt lat="59.9861048" lon="15.8247296">
        <ele>89.2</ele>
        <time>2012-10-30T19:35:54Z</time>
        <extensions><gpxtpx:TrackPointExtension><gpxtpx:hr>174</gpxtpx:hr></gpxtpx:TrackPointExtension></extensions>
      </trkpt>
      <trkpt lat="59.9861023" lon="15.8247708">
        <ele>89.2</ele>
        <time>2012-10-30T19:35:55Z</time>
        <extensions><gpxtpx:TrackPointExtension><gpxtpx:hr>174</gpxtpx:hr></gpxtpx:TrackPointExtension></extensions>
      </trkpt>
      <trkpt lat="59.9860918" lon="15.8248361">
        <ele>89.2</ele>
        <time>2012-10-30T19:35:56Z</time>
        <extensions><gpxtpx:TrackPointExtension><gpxtpx:hr>174</gpxtpx:hr></gpxtpx:TrackPointExtension></extensions>
      </trkpt>
      <trkpt lat="59.9860794" lon="15.8248868">
        <ele>92.2</ele>
        <time>2012-10-30T19:35:57Z</time>
        <extensions><gpxtpx:TrackPointExtension><gpxtpx:hr>175</gpxtpx:hr></gpxtpx:TrackPointExtension></extensions>
      </trkpt>
      <trkpt lat="59.9860509" lon="15.8249955">
        <ele>92.2</ele>
        <time>2012-10-30T19:35:59Z</time>
        <extensions><gpxtpx:TrackPointExtension><gpxtpx:hr>175</gpxtpx:hr></gpxtpx:TrackPointExtension></extensions>
      </trkpt>
      <trkpt lat="59.9860273" lon="15.825073">
        <ele>92.2</ele>
        <time>2012-10-30T19:36:00Z</time>
        <extensions><gpxtpx:TrackPointExtension><gpxtpx:hr>175</gpxtpx:hr></gpxtpx:TrackPointExtension></extensions>
      </trkpt>
      <trkpt lat="59.9860194" lon="15.8251424">
        <ele>92.2</ele>
        <time>2012-10-30T19:36:01Z</time>
        <extensions><gpxtpx:TrackPointExtension><gpxtpx:hr>176</gpxtpx:hr></gpxtpx:TrackPointExtension></extensions>
      </trkpt>
      <trkpt lat="59.9860126" lon="15.8252014">
        <ele>93.4</ele>
        <time>2012-10-30T19:36:02Z</time>
        <extensions><gpxtpx:TrackPointExtension><gpxtpx:hr>176</gpxtpx:hr></gpxtpx:TrackPointExtension></extensions>
      </trkpt>
      <trkpt lat="59.9859929" lon="15.8253354">
        <ele>93.4</ele>
        <time>2012-10-30T19:36:04Z</time>
        <extensions><gpxtpx:TrackPointExtension><gpxtpx:hr>176</gpxtpx:hr></gpxtpx:TrackPointExtension></extensions>
      </trkpt>
      <trkpt lat="59.9859828" lon="15.8254089">
        <ele>94.4</ele>
        <time>2012-10-30T19:36:05Z</time>
        <extensions><gpxtpx:TrackPointExtension><gpxtpx:hr>176</gpxtpx:hr></gpxtpx:TrackPointExtension></extensions>
      </trkpt>
      <trkpt lat="59.9859534" lon="15.8256475">
        <ele>95.4</ele>
        <time>2012-10-30T19:36:09Z</time>
        <extensions><gpxtpx:TrackPointExtension><gpxtpx:hr>179</gpxtpx:hr></gpxtpx:TrackPointExtension></extensions>
      </trkpt>
      <trkpt lat="59.9859145" lon="15.8258884">
        <ele>95.6</ele>
        <time>2012-10-30T19:36:13Z</time>
        <extensions><gpxtpx:TrackPointExtension><gpxtpx:hr>182</gpxtpx:hr></gpxtpx:TrackPointExtension></extensions>
      </trkpt>
      <trkpt lat="59.9858986" lon="15.8259683">
        <ele>95.4</ele>
        <time>2012-10-30T19:36:14Z</time>
        <extensions><gpxtpx:TrackPointExtension><gpxtpx:hr>182</gpxtpx:hr></gpxtpx:TrackPointExtension></extensions>
      </trkpt>
      <trkpt lat="59.9858859" lon="15.8260234">
        <ele>96.6</ele>
        <time>2012-10-30T19:36:15Z</time>
        <extensions><gpxtpx:TrackPointExtension><gpxtpx:hr>183</gpxtpx:hr></gpxtpx:TrackPointExtension></extensions>
      </trkpt>
      <trkpt lat="59.9858562" lon="15.8261927">
        <ele>97.6</ele>
        <time>2012-10-30T19:36:18Z</time>
        <extensions><gpxtpx:TrackPointExtension><gpxtpx:hr>183</gpxtpx:hr></gpxtpx:TrackPointExtension></extensions>
      </trkpt>
      <trkpt lat="59.9858452" lon="15.826265">
        <ele>97.6</ele>
        <time>2012-10-30T19:36:19Z</time>
        <extensions><gpxtpx:TrackPointExtension><gpxtpx:hr>184</gpxtpx:hr></gpxtpx:TrackPointExtension></extensions>
      </trkpt>
      <trkpt lat="59.9858305" lon="15.8263387">
        <ele>97.6</ele>
        <time>2012-10-30T19:36:20Z</time>
        <extensions><gpxtpx:TrackPointExtension><gpxtpx:hr>184</gpxtpx:hr></gpxtpx:TrackPointExtension></extensions>
      </trkpt>
      <trkpt lat="59.985821" lon="15.8263921">
        <ele>97.6</ele>
        <time>2012-10-30T19:36:21Z</time>
        <extensions><gpxtpx:TrackPointExtension><gpxtpx:hr>184</gpxtpx:hr></gpxtpx:TrackPointExtension></extensions>
      </trkpt>
      <trkpt lat="59.9857971" lon="15.8264774">
        <ele>98.8</ele>
        <time>2012-10-30T19:36:23Z</time>
        <extensions><gpxtpx:TrackPointExtension><gpxtpx:hr>184</gpxtpx:hr></gpxtpx:TrackPointExtension></extensions>
      </trkpt>
      <trkpt lat="59.9857708" lon="15.8266038">
        <ele>98.8</ele>
        <time>2012-10-30T19:36:25Z</time>
        <extensions><gpxtpx:TrackPointExtension><gpxtpx:hr>184</gpxtpx:hr></gpxtpx:TrackPointExtension></extensions>
      </trkpt>
      <trkpt lat="59.9857572" lon="15.8266627">
        <ele>98.8</ele>
        <time>2012-10-30T19:36:26Z</time>
        <extensions><gpxtpx:TrackPointExtension><gpxtpx:hr>184</gpxtpx:hr></gpxtpx:TrackPointExtension></extensions>
      </trkpt>
      <trkpt lat="59.9857279" lon="15.826864">
        <ele>99.8</ele>
        <time>2012-10-30T19:36:29Z</time>
        <extensions><gpxtpx:TrackPointExtension><gpxtpx:hr>185</gpxtpx:hr></gpxtpx:TrackPointExtension></extensions>
      </trkpt>
      <trkpt lat="59.9857203" lon="15.8269268">
        <ele>99.8</ele>
        <time>2012-10-30T19:36:30Z</time>
        <extensions><gpxtpx:TrackPointExtension><gpxtpx:hr>185</gpxtpx:hr></gpxtpx:TrackPointExtension></extensions>
      </trkpt>
      <trkpt lat="59.9857089" lon="15.826965">
        <ele>100</ele>
        <time>2012-10-30T19:36:31Z</time>
        <extensions><gpxtpx:TrackPointExtension><gpxtpx:hr>185</gpxtpx:hr></gpxtpx:TrackPointExtension></extensions>
      </trkpt>
      <trkpt lat="59.9857001" lon="15.8270452">
        <ele>101.2</ele>
        <time>2012-10-30T19:36:32Z</time>
        <extensions><gpxtpx:TrackPointExtension><gpxtpx:hr>186</gpxtpx:hr></gpxtpx:TrackPointExtension></extensions>
      </trkpt>
      <trkpt lat="59.9856961" lon="15.8270867">
        <ele>101.4</ele>
        <time>2012-10-30T19:36:33Z</time>
        <extensions><gpxtpx:TrackPointExtension><gpxtpx:hr>185</gpxtpx:hr></gpxtpx:TrackPointExtension></extensions>
      </trkpt>
      <trkpt lat="59.9856898" lon="15.8271363">
        <ele>101.4</ele>
        <time>2012-10-30T19:36:34Z</time>
        <extensions><gpxtpx:TrackPointExtension><gpxtpx:hr>185</gpxtpx:hr></gpxtpx:TrackPointExtension></extensions>
      </trkpt>
      <trkpt lat="59.9856845" lon="15.8271624">
        <ele>101.4</ele>
        <time>2012-10-30T19:36:35Z</time>
        <extensions><gpxtpx:TrackPointExtension><gpxtpx:hr>185</gpxtpx:hr></gpxtpx:TrackPointExtension></extensions>
      </trkpt>
      <trkpt lat="59.9856746" lon="15.8271914">
        <ele>102.6</ele>
        <time>2012-10-30T19:36:36Z</time>
        <extensions><gpxtpx:TrackPointExtension><gpxtpx:hr>185</gpxtpx:hr></gpxtpx:TrackPointExtension></extensions>
      </trkpt>
      <trkpt lat="59.9856628" lon="15.8272007">
        <ele>102.4</ele>
        <time>2012-10-30T19:36:37Z</time>
        <extensions><gpxtpx:TrackPointExtension><gpxtpx:hr>185</gpxtpx:hr></gpxtpx:TrackPointExtension></extensions>
      </trkpt>
      <trkpt lat="59.985644" lon="15.8272035">
        <ele>102.6</ele>
        <time>2012-10-30T19:36:38Z</time>
        <extensions><gpxtpx:TrackPointExtension><gpxtpx:hr>185</gpxtpx:hr></gpxtpx:TrackPointExtension></extensions>
      </trkpt>
      <trkpt lat="59.9856275" lon="15.8272018">
        <ele>102.6</ele>
        <time>2012-10-30T19:36:39Z</time>
        <extensions><gpxtpx:TrackPointExtension><gpxtpx:hr>184</gpxtpx:hr></gpxtpx:TrackPointExtension></extensions>
      </trkpt>
      <trkpt lat="59.9856066" lon="15.8272013">
        <ele>102.4</ele>
        <time>2012-10-30T19:36:40Z</time>
        <extensions><gpxtpx:TrackPointExtension><gpxtpx:hr>184</gpxtpx:hr></gpxtpx:TrackPointExtension></extensions>
      </trkpt>
      <trkpt lat="59.9855859" lon="15.8271994">
        <ele>102.4</ele>
        <time>2012-10-30T19:36:41Z</time>
        <extensions><gpxtpx:TrackPointExtension><gpxtpx:hr>184</gpxtpx:hr></gpxtpx:TrackPointExtension></extensions>
      </trkpt>
      <trkpt lat="59.9855674" lon="15.8271992">
        <ele>102.4</ele>
        <time>2012-10-30T19:36:42Z</time>
        <extensions><gpxtpx:TrackPointExtension><gpxtpx:hr>183</gpxtpx:hr></gpxtpx:TrackPointExtension></extensions>
      </trkpt>
      <trkpt lat="59.9855427" lon="15.8271924">
        <ele>102.4</ele>
        <time>2012-10-30T19:36:43Z</time>
        <extensions><gpxtpx:TrackPointExtension><gpxtpx:hr>183</gpxtpx:hr></gpxtpx:TrackPointExtension></extensions>
      </trkpt>
      <trkpt lat="59.9854879" lon="15.8271881">
        <ele>102.4</ele>
        <time>2012-10-30T19:36:46Z</time>
        <extensions><gpxtpx:TrackPointExtension><gpxtpx:hr>182</gpxtpx:hr></gpxtpx:TrackPointExtension></extensions>
      </trkpt>
      <trkpt lat="59.9854683" lon="15.8271807">
        <ele>102.2</ele>
        <time>2012-10-30T19:36:47Z</time>
        <extensions><gpxtpx:TrackPointExtension><gpxtpx:hr>182</gpxtpx:hr></gpxtpx:TrackPointExtension></extensions>
      </trkpt>
      <trkpt lat="59.9854471" lon="15.8271904">
        <ele>102.4</ele>
        <time>2012-10-30T19:36:48Z</time>
        <extensions><gpxtpx:TrackPointExtension><gpxtpx:hr>181</gpxtpx:hr></gpxtpx:TrackPointExtension></extensions>
      </trkpt>
      <trkpt lat="59.9854197" lon="15.8271912">
        <ele>102.4</ele>
        <time>2012-10-30T19:36:49Z</time>
        <extensions><gpxtpx:TrackPointExtension><gpxtpx:hr>181</gpxtpx:hr></gpxtpx:TrackPointExtension></extensions>
      </trkpt>
      <trkpt lat="59.9853851" lon="15.8271921">
        <ele>102.2</ele>
        <time>2012-10-30T19:36:51Z</time>
        <extensions><gpxtpx:TrackPointExtension><gpxtpx:hr>181</gpxtpx:hr></gpxtpx:TrackPointExtension></extensions>
      </trkpt>
      <trkpt lat="59.9853633" lon="15.8271883">
        <ele>102.4</ele>
        <time>2012-10-30T19:36:52Z</time>
        <extensions><gpxtpx:TrackPointExtension><gpxtpx:hr>180</gpxtpx:hr></gpxtpx:TrackPointExtension></extensions>
      </trkpt>
      <trkpt lat="59.9853483" lon="15.8271881">
        <ele>102.4</ele>
        <time>2012-10-30T19:36:53Z</time>
        <extensions><gpxtpx:TrackPointExtension><gpxtpx:hr>180</gpxtpx:hr></gpxtpx:TrackPointExtension></extensions>
      </trkpt>
    </trkseg>
  </trk>
</gpx>